{
  "fields": [{"id":"_id","type":"int"},{"id":"data_ora","type":"text"},{"id":"id_station","type":"text"},{"id":"denominazione","type":"text"},{"id":"temperatura","type":"text"},{"id":"cod_validazione_temperatura","type":"text"},{"id":"umidita","type":"text"},{"id":"cod_validazione_umidita_rel","type":"text"},{"id":"precipitazione","type":"text"},{"id":"cod_validazione_precipitazione","type":"text"},{"id":"velocita_vento","type":"text"},{"id":"cod_validazione_velocita_vento","type":"text"},{"id":"direzione_vento","type":"text"},{"id":"cod_validazione_direzione_vento","type":"text"},{"id":"rad_solare_globale","type":"text"},{"id":"cod_validazione_rad_solare_globale","type":"text"},{"id":"pressione_atmosferica","type":"text"},{"id":"cod_validazione_pressione_atmosferica","type":"text"},{"id":"Latitude","type":"text"},{"id":"Longitude","type":"text"}],
  "records": [
    [1,"2024-01-01 00:00:00","21","molfetta","11.41","1","85.99","1","0.0","1","null","6","null","6","0.0","1","null","6","41.200462","16.604997"],
    [2,"2024-01-01 01:00:00","21","molfetta","11.38","1","85.46","1","0.0","1","null","6","null","6","0.0","1","null","6","41.200462","16.604997"],
    [3,"2024-01-01 02:00:00","21","molfetta","11.69","1","81.96","1","0.0","1","null","6","null","6","0.0","1","null","6","41.200462","16.604997"],
    [4,"2024-01-01 03:00:00","21","molfetta","11.78","1","79.34","1","0.0","1","null","6","null","6","0.0","1","null","6","41.200462","16.604997"],
    [5,"2024-01-01 04:00:00","21","molfetta","12.22","1","76.14","1","0.0","1","null","6","null","6","0.0","1","null","6","41.200462","16.604997"],
    [6,"2024-01-01 05:00:00","21","molfetta","12.33","1","72.77","1","0.0","1","null","6","null","6","0.0","1","null","6","41.200462","16.604997"],
    [7,"2024-01-01 06:00:00","21","molfetta","11.96","1","73.81","1","0.0","1","null","6","null","6","0.0","1","null","6","41.200462","16.604997"],
    [8,"2024-01-01 07:00:00","21","molfetta","12.2","1","72.43","1","0.0","1","null","6","null","6","0.0","1","null","6","41.200462","16.604997"],
    [9,"2024-01-01 08:00:00","21","molfetta","12.73","1","69.61","1","0.0","1","null","6","null","6","0.0","5","null","6","41.200462","16.604997"],
    [10,"2024-01-01 09:00:00","21","molfetta","13.0","1","69.16","1","0.0","1","null","6","null","6","44.36","1","null","6","41.200462","16.604997"],
    [11,"2024-01-01 10:00:00","21","molfetta","14.11","1","66.35","1","0.0","1","null","6","null","6","84.21","1","null","6","41.200462","16.604997"],
    [12,"2024-01-01 11:00:00","21","molfetta","15.96","1","60.22","1","0.0","1","null","6","null","6","102.25","1","null","6","41.200462","16.604997"],
    [13,"2024-01-01 12:00:00","21","molfetta","16.84","1","57.11","1","0.0","1","null","6","null","6","148.72","1","null","6","41.200462","16.604997"],
    [14,"2024-01-01 13:00:00","21","molfetta","18.46","1","47.14","1","0.0","1","null","6","null","6","105.69","1","null","6","41.200462","16.604997"],
    [15,"2024-01-01 14:00:00","21","molfetta","18.85","1","41.22","1","0.0","1","null","6","null","6","70.3","1","null","6","41.200462","16.604997"],
    [16,"2024-01-01 15:00:00","21","molfetta","18.6","1","43.14","1","0.0","1","null","6","null","6","76.4","1","null","6","41.200462","16.604997"],
    [17,"2024-01-01 16:00:00","21","molfetta","18.02","1","46.1","1","0.0","1","null","6","null","6","39.25","1","null","6","41.200462","16.604997"],
    [18,"2024-01-01 17:00:00","21","molfetta","16.7","1","54.58","1","0.0","1","null","6","null","6","0.0","5","null","6","41.200462","16.604997"],
    [19,"2024-01-01 18:00:00","21","molfetta","15.63","1","60.3","1","0.0","1","null","6","null","6","0.0","1","null","6","41.200462","16.604997"],
    [20,"2024-01-01 19:00:00","21","molfetta","15.0","1","63.45","1","0.0","1","null","6","null","6","0.0","1","null","6","41.200462","16.604997"],
    [21,"2024-01-01 20:00:00","21","molfetta","14.51","1","66.97","1","0.0","1","null","6","null","6","0.0","1","null","6","41.200462","16.604997"],
    [22,"2024-01-01 21:00:00","21","molfetta","14.48","1","69.73","1","0.0","1","null","6","null","6","0.0","1","null","6","41.200462","16.604997"],
    [23,"2024-01-01 22:00:00","21","molfetta","14.27","1","72.23","1","0.0","1","null","6","null","6","0.0","1","null","6","41.200462","16.604997"],
    [24,"2024-01-01 23:00:00","21","molfetta","14.13","1","75.02","1","0.0","1","null","6","null","6","0.0","1","null","6","41.200462","16.604997"],
    [25,"2024-01-02 00:00:00","21","molfetta","13.99","1","75.42","1","0.0","1","null","6","null","6","0.0","1","null","6","41.200462","16.604997"],
    [26,"2024-01-02 01:00:00","21","molfetta","14.0","1","73.65","1","0.0","1","null","6","null","6","0.0","1","null","6","41.200462","16.604997"],
    [27,"2024-01-02 02:00:00","21","molfetta","13.62","1","76.51","1","0.0","1","null","6","null","6","0.0","1","null","6","41.200462","16.604997"],
    [28,"2024-01-02 03:00:00","21","molfetta","12.7","1","74.71","1","0.0","1","null","6","null","6","0.0","1","null","6","41.200462","16.604997"],
    [29,"2024-01-02 04:00:00","21","molfetta","12.93","1","62.69","1","0.0","1","null","6","null","6","0.0","1","null","6","41.200462","16.604997"],
    [30,"2024-01-02 05:00:00","21","molfetta","12.63","1","65.97","1","0.0","1","null","6","null","6","0.0","1","null","6","41.200462","16.604997"],
    [31,"2024-01-02 06:00:00","21","molfetta","12.05","1","72.76","1","0.0","1","null","6","null","6","0.0","1","null","6","41.200462","16.604997"],
    [32,"2024-01-02 07:00:00","21","molfetta","11.91","1","74.7","1","0.0","1","null","6","null","6","0.0","1","null","6","41.200462","16.604997"],
    [33,"2024-01-02 08:00:00","21","molfetta","11.76","1","73.44","1","0.0","1","null","6","null","6","0.0","5","null","6","41.200462","16.604997"],
    [34,"2024-01-02 09:00:00","21","molfetta","11.88","1","72.26","1","0.0","1","null","6","null","6","38.98","1","null","6","41.200462","16.604997"],
    [35,"2024-01-02 10:00:00","21","molfetta","13.26","1","63.94","1","0.0","1","null","6","null","6","63.2","1","null","6","41.200462","16.604997"],
    [36,"2024-01-02 11:00:00","21","molfetta","14.7","1","56.05","1","0.0","1","null","6","null","6","65.36","1","null","6","41.200462","16.604997"],
    [37,"2024-01-02 12:00:00","21","molfetta","15.51","1","56.73","1","0.0","1","null","6","null","6","138.02","1","null","6","41.200462","16.604997"],
    [38,"2024-01-02 13:00:00","21","molfetta","15.13","1","66.52","1","0.0","1","null","6","null","6","130.57","1","null","6","41.200462","16.604997"],
    [39,"2024-01-02 14:00:00","21","molfetta","14.62","1","67.77","1","0.0","1","null","6","null","6","55.39","1","null","6","41.200462","16.604997"],
    [40,"2024-01-02 15:00:00","21","molfetta","14.4","1","69.98","1","0.0","1","null","6","null","6","40.28","1","null","6","41.200462","16.604997"],
    [41,"2024-01-02 16:00:00","21","molfetta","14.07","1","71.31","1","0.0","1","null","6","null","6","28.71","1","null","6","41.200462","16.604997"],
    [42,"2024-01-02 17:00:00","21","molfetta","13.35","1","71.0","1","0.0","1","null","6","null","6","7.11","1","null","6","41.200462","16.604997"],
    [43,"2024-01-02 18:00:00","21","molfetta","12.5","1","75.6","1","0.0","1","null","6","null","6","0.0","1","null","6","41.200462","16.604997"],
    [44,"2024-01-02 19:00:00","21","molfetta","11.86","1","78.08","1","0.0","1","null","6","null","6","0.0","1","null","6","41.200462","16.604997"],
    [45,"2024-01-02 20:00:00","21","molfetta","11.55","1","71.34","1","0.0","1","null","6","null","6","0.0","1","null","6","41.200462","16.604997"],
    [46,"2024-01-02 21:00:00","21","molfetta","12.1","1","63.44","1","0.0","1","null","6","null","6","0.0","1","null","6","41.200462","16.604997"],
    [47,"2024-01-02 22:00:00","21","molfetta","11.1","1","67.91","1","0.0","1","null","6","null","6","0.0","1","null","6","41.200462","16.604997"],
    [48,"2024-01-02 23:00:00","21","molfetta","10.59","1","70.52","1","0.0","1","null","6","null","6","0.0","1","null","6","41.200462","16.604997"],
    [49,"2024-01-03 00:00:00","21","molfetta","10.81","1","69.57","1","0.0","1","null","6","null","6","0.0","1","null","6","41.200462","16.604997"],
    [50,"2024-01-03 01:00:00","21","molfetta","10.5","1","70.18","1","0.0","1","null","6","null","6","0.0","1","null","6","41.200462","16.604997"],
    [51,"2024-01-03 02:00:00","21","molfetta","10.08","1","71.8","1","0.0","1","null","6","null","6","0.0","1","null","6","41.200462","16.604997"],
    [52,"2024-01-03 03:00:00","21","molfetta","10.31","1","70.92","1","0.0","1","null","6","null","6","0.0","1","null","6","41.200462","16.604997"],
    [53,"2024-01-03 04:00:00","21","molfetta","11.28","1","66.7","1","0.0","1","null","6","null","6","0.0","1","null","6","41.200462","16.604997"],
    [54,"2024-01-03 05:00:00","21","molfetta","11.91","1","63.68","1","0.0","1","null","6","null","6","0.0","1","null","6","41.200462","16.604997"],
    [55,"2024-01-03 06:00:00","21","molfetta","11.83","1","66.77","1","0.0","1","null","6","null","6","0.0","1","null","6","41.200462","16.604997"],
    [56,"2024-01-03 07:00:00","21","molfetta","12.05","1","67.06","1","0.0","1","null","6","null","6","0.0","1","null","6","41.200462","16.604997"],
    [57,"2024-01-03 08:00:00","21","molfetta","12.14","1","65.07","1","0.0","1","null","6","null","6","0.0","5","null","6","41.200462","16.604997"],
    [58,"2024-01-03 09:00:00","21","molfetta","12.61","1","62.54","1","0.0","1","null","6","null","6","24.16","1","null","6","41.200462","16.604997"],
    [59,"2024-01-03 10:00:00","21","molfetta","13.67","1","60.69","1","0.0","1","null","6","null","6","96.21","1","null","6","41.200462","16.604997"],
    [60,"2024-01-03 11:00:00","21","molfetta","15.48","1","58.05","1","0.0","1","null","6","null","6","124.63","1","null","6","41.200462","16.604997"],
    [61,"2024-01-03 12:00:00","21","molfetta","16.9","1","57.21","1","0.0","1","null","6","null","6","189.71","1","null","6","41.200462","16.604997"],
    [62,"2024-01-03 13:00:00","21","molfetta","17.39","1","55.72","1","0.0","1","null","6","null","6","140.63","1","null","6","41.200462","16.604997"],
    [63,"2024-01-03 14:00:00","21","molfetta","17.01","1","55.92","1","0.0","1","null","6","null","6","121.95","1","null","6","41.200462","16.604997"],
    [64,"2024-01-03 15:00:00","21","molfetta","16.96","1","53.52","1","0.0","1","null","6","null","6","59.21","1","null","6","41.200462","16.604997"],
    [65,"2024-01-03 16:00:00","21","molfetta","16.38","1","57.54","1","0.0","1","null","6","null","6","27.82","1","null","6","41.200462","16.604997"],
    [66,"2024-01-03 17:00:00","21","molfetta","15.63","1","59.18","1","0.0","1","null","6","null","6","9.98","1","null","6","41.200462","16.604997"],
    [67,"2024-01-03 18:00:00","21","molfetta","14.77","1","59.78","1","0.0","1","null","6","null","6","0.0","1","null","6","41.200462","16.604997"],
    [68,"2024-01-03 19:00:00","21","molfetta","14.38","1","59.43","1","0.0","1","null","6","null","6","0.0","1","null","6","41.200462","16.604997"],
    [69,"2024-01-03 20:00:00","21","molfetta","13.57","1","61.79","1","0.0","1","null","6","null","6","0.0","1","null","6","41.200462","16.604997"],
    [70,"2024-01-03 21:00:00","21","molfetta","13.14","1","63.39","1","0.0","1","null","6","null","6","0.0","1","null","6","41.200462","16.604997"],
    [71,"2024-01-03 22:00:00","21","molfetta","12.91","1","65.15","1","0.0","1","null","6","null","6","0.0","1","null","6","41.200462","16.604997"],
    [72,"2024-01-03 23:00:00","21","molfetta","13.07","1","65.64","1","0.0","1","null","6","null","6","0.0","1","null","6","41.200462","16.604997"],
    [73,"2024-01-04 00:00:00","21","molfetta","12.69","1","68.16","1","0.0","1","null","6","null","6","0.0","1","null","6","41.200462","16.604997"],
    [74,"2024-01-04 01:00:00","21","molfetta","11.8","1","71.91","1","0.0","1","null","6","null","6","0.0","1","null","6","41.200462","16.604997"],
    [75,"2024-01-04 02:00:00","21","molfetta","11.64","1","73.0","1","0.0","1","null","6","null","6","0.0","1","null","6","41.200462","16.604997"],
    [76,"2024-01-04 03:00:00","21","molfetta","11.5","1","73.16","1","0.0","1","null","6","null","6","0.0","1","null","6","41.200462","16.604997"],
    [77,"2024-01-04 04:00:00","21","molfetta","11.55","1","74.31","1","0.0","1","null","6","null","6","0.0","1","null","6","41.200462","16.604997"],
    [78,"2024-01-04 05:00:00","21","molfetta","11.57","1","75.2","1","0.0","1","null","6","null","6","0.0","1","null","6","41.200462","16.604997"],
    [79,"2024-01-04 06:00:00","21","molfetta","11.24","1","75.93","1","0.0","1","null","6","null","6","0.0","1","null","6","41.200462","16.604997"],
    [80,"2024-01-04 07:00:00","21","molfetta","10.97","1","77.29","1","0.0","1","null","6","null","6","0.0","1","null","6","41.200462","16.604997"],
    [81,"2024-01-04 08:00:00","21","molfetta","11.91","1","74.07","1","0.0","1","null","6","null","6","5.63","1","null","6","41.200462","16.604997"],
    [82,"2024-01-04 09:00:00","21","molfetta","12.78","1","69.95","1","0.0","1","null","6","null","6","39.56","1","null","6","41.200462","16.604997"],
    [83,"2024-01-04 10:00:00","21","molfetta","14.37","1","64.41","1","0.0","1","null","6","null","6","61.89","1","null","6","41.200462","16.604997"],
    [84,"2024-01-04 11:00:00","21","molfetta","15.45","1","65.08","1","0.0","1","null","6","null","6","64.17","1","null","6","41.200462","16.604997"],
    [85,"2024-01-04 12:00:00","21","molfetta","17.68","1","53.31","1","0.0","1","null","6","null","6","181.71","1","null","6","41.200462","16.604997"],
    [86,"2024-01-04 13:00:00","21","molfetta","19.85","1","40.94","1","0.0","1","null","6","null","6","122.46","1","null","6","41.200462","16.604997"],
    [87,"2024-01-04 14:00:00","21","molfetta","19.78","1","40.07","1","0.0","1","null","6","null","6","43.97","1","null","6","41.200462","16.604997"],
    [88,"2024-01-04 15:00:00","21","molfetta","19.63","1","39.45","1","0.0","1","null","6","null","6","34.31","1","null","6","41.200462","16.604997"],
    [89,"2024-01-04 16:00:00","21","molfetta","19.24","1","40.61","1","0.0","1","null","6","null","6","22.89","1","null","6","41.200462","16.604997"],
    [90,"2024-01-04 17:00:00","21","molfetta","17.64","1","46.78","1","0.0","1","null","6","null","6","5.91","1","null","6","41.200462","16.604997"],
    [91,"2024-01-04 18:00:00","21","molfetta","16.39","1","51.96","1","0.0","1","null","6","null","6","0.0","1","null","6","41.200462","16.604997"],
    [92,"2024-01-04 19:00:00","21","molfetta","14.82","1","63.99","1","0.0","1","null","6","null","6","0.0","1","null","6","41.200462","16.604997"],
    [93,"2024-01-04 20:00:00","21","molfetta","14.49","1","66.26","1","0.0","1","null","6","null","6","0.0","1","null","6","41.200462","16.604997"],
    [94,"2024-01-04 21:00:00","21","molfetta","13.67","1","65.09","1","0.0","1","null","6","null","6","0.0","1","null","6","41.200462","16.604997"],
    [95,"2024-01-04 22:00:00","21","molfetta","12.58","1","65.53","1","0.0","1","null","6","null","6","0.0","1","null","6","41.200462","16.604997"],
    [96,"2024-01-04 23:00:00","21","molfetta","11.96","1","65.31","1","0.0","1","null","6","null","6","0.0","1","null","6","41.200462","16.604997"],
    [97,"2024-01-05 00:00:00","21","molfetta","11.51","1","68.03","1","0.0","1","null","6","null","6","0.0","1","null","6","41.200462","16.604997"],
    [98,"2024-01-05 01:00:00","21","molfetta","11.27","1","70.31","1","0.0","1","null","6","null","6","0.0","1","null","6","41.200462","16.604997"],
    [99,"2024-01-05 02:00:00","21","molfetta","11.49","1","70.22","1","0.0","1","null","6","null","6","0.0","1","null","6","41.200462","16.604997"],
    [100,"2024-01-05 03:00:00","21","molfetta","11.5","1","70.0","1","0.0","1","null","6","null","6","0.0","1","null","6","41.200462","16.604997"],
    [101,"2024-01-05 04:00:00","21","molfetta","10.87","1","72.13","1","0.0","1","null","6","null","6","0.0","1","null","6","41.200462","16.604997"],
    [102,"2024-01-05 05:00:00","21","molfetta","10.35","1","74.18","1","0.0","1","null","6","null","6","0.0","1","null","6","41.200462","16.604997"],
    [103,"2024-01-05 06:00:00","21","molfetta","9.89","1","78.0","1","0.0","1","null","6","null","6","0.0","1","null","6","41.200462","16.604997"],
    [104,"2024-01-05 07:00:00","21","molfetta","9.62","1","78.74","1","0.0","1","null","6","null","6","0.0","1","null","6","41.200462","16.604997"],
    [105,"2024-01-05 08:00:00","21","molfetta","9.56","1","77.27","1","0.0","1","null","6","null","6","8.25","1","null","6","41.200462","16.604997"],
    [106,"2024-01-05 09:00:00","21","molfetta","10.48","1","74.44","1","0.0","1","null","6","null","6","52.8","1","null","6","41.200462","16.604997"],
    [107,"2024-01-05 10:00:00","21","molfetta","11.83","1","75.03","1","0.0","1","null","6","null","6","104.53","1","null","6","41.200462","16.604997"],
    [108,"2024-01-05 11:00:00","21","molfetta","14.39","1","73.17","1","0.0","1","null","6","null","6","156.77","1","null","6","41.200462","16.604997"],
    [109,"2024-01-05 12:00:00","21","molfetta","15.53","1","74.4","1","0.0","1","null","6","null","6","168.83","1","null","6","41.200462","16.604997"],
    [110,"2024-01-05 13:00:00","21","molfetta","16.78","1","66.16","1","0.0","1","null","6","null","6","151.56","1","null","6","41.200462","16.604997"],
    [111,"2024-01-05 14:00:00","21","molfetta","17.35","1","61.73","1","0.0","1","null","6","null","6","116.81","1","null","6","41.200462","16.604997"],
    [112,"2024-01-05 15:00:00","21","molfetta","16.83","1","59.24","1","0.0","1","null","6","null","6","81.07","1","null","6","41.200462","16.604997"],
    [113,"2024-01-05 16:00:00","21","molfetta","16.0","1","59.6","1","0.0","1","null","6","null","6","32.0","1","null","6","41.200462","16.604997"],
    [114,"2024-01-05 17:00:00","21","molfetta","15.58","1","69.4","1","0.0","1","null","6","null","6","0.0","5","null","6","41.200462","16.604997"],
    [115,"2024-01-05 18:00:00","21","molfetta","15.35","1","74.19","1","0.0","1","null","6","null","6","0.0","1","null","6","41.200462","16.604997"],
    [116,"2024-01-05 19:00:00","21","molfetta","15.05","1","77.81","1","0.0","1","null","6","null","6","0.0","1","null","6","41.200462","16.604997"],
    [117,"2024-01-05 20:00:00","21","molfetta","15.14","1","79.12","1","0.0","1","null","6","null","6","0.0","1","null","6","41.200462","16.604997"],
    [118,"2024-01-05 21:00:00","21","molfetta","15.52","1","77.68","1","0.0","1","null","6","null","6","0.0","1","null","6","41.200462","16.604997"],
    [119,"2024-01-05 22:00:00","21","molfetta","15.57","1","78.77","1","0.0","1","null","6","null","6","0.0","1","null","6","41.200462","16.604997"],
    [120,"2024-01-05 23:00:00","21","molfetta","15.28","1","80.23","1","0.0","1","null","6","null","6","0.0","1","null","6","41.200462","16.604997"],
    [121,"2024-01-06 00:00:00","21","molfetta","15.12","1","79.72","1","0.0","1","null","6","null","6","0.0","1","null","6","41.200462","16.604997"],
    [122,"2024-01-06 01:00:00","21","molfetta","14.62","1","80.34","1","0.0","1","null","6","null","6","0.0","1","null","6","41.200462","16.604997"],
    [123,"2024-01-06 02:00:00","21","molfetta","14.49","1","81.03","1","0.0","1","null","6","null","6","0.0","1","null","6","41.200462","16.604997"],
    [124,"2024-01-06 03:00:00","21","molfetta","14.4","1","79.7","1","0.0","1","null","6","null","6","0.0","1","null","6","41.200462","16.604997"],
    [125,"2024-01-06 04:00:00","21","molfetta","13.98","1","80.34","1","0.0","1","null","6","null","6","0.0","1","null","6","41.200462","16.604997"],
    [126,"2024-01-06 05:00:00","21","molfetta","13.59","1","77.43","1","0.0","1","null","6","null","6","0.0","1","null","6","41.200462","16.604997"],
    [127,"2024-01-06 06:00:00","21","molfetta","13.97","1","73.85","1","0.0","1","null","6","null","6","0.0","1","null","6","41.200462","16.604997"],
    [128,"2024-01-06 07:00:00","21","molfetta","14.22","1","75.95","1","0.0","1","null","6","null","6","0.0","1","null","6","41.200462","16.604997"],
    [129,"2024-01-06 08:00:00","21","molfetta","14.79","1","79.18","1","0.0","1","null","6","null","6","0.0","5","null","6","41.200462","16.604997"],
    [130,"2024-01-06 09:00:00","21","molfetta","15.58","1","77.16","1","0.0","1","null","6","null","6","20.75","1","null","6","41.200462","16.604997"],
    [131,"2024-01-06 10:00:00","21","molfetta","16.81","1","73.73","1","0.0","1","null","6","null","6","110.5","1","null","6","41.200462","16.604997"],
    [132,"2024-01-06 11:00:00","21","molfetta","17.78","1","68.24","1","0.0","1","null","6","null","6","103.5","1","null","6","41.200462","16.604997"],
    [133,"2024-01-06 12:00:00","21","molfetta","18.07","1","67.64","1","0.0","1","null","6","null","6","93.7","1","null","6","41.200462","16.604997"],
    [134,"2024-01-06 13:00:00","21","molfetta","17.58","1","73.9","1","0.0","1","null","6","null","6","67.58","1","null","6","41.200462","16.604997"],
    [135,"2024-01-06 14:00:00","21","molfetta","16.83","1","80.96","1","0.4","1","null","6","null","6","37.16","1","null","6","41.200462","16.604997"],
    [136,"2024-01-06 15:00:00","21","molfetta","14.8","1","86.14","1","3.2","1","null","6","null","6","7.73","1","null","6","41.200462","16.604997"],
    [137,"2024-01-06 16:00:00","21","molfetta","13.66","1","88.12","1","2.2","1","null","6","null","6","16.09","1","null","6","41.200462","16.604997"],
    [138,"2024-01-06 17:00:00","21","molfetta","14.45","1","92.25","1","0.0","1","null","6","null","6","28.82","1","null","6","41.200462","16.604997"],
    [139,"2024-01-06 18:00:00","21","molfetta","14.2","1","91.34","1","0.0","1","null","6","null","6","0.0","5","null","6","41.200462","16.604997"],
    [140,"2024-01-06 19:00:00","21","molfetta","13.47","1","89.59","1","0.2","1","null","6","null","6","0.0","1","null","6","41.200462","16.604997"],
    [141,"2024-01-06 20:00:00","21","molfetta","13.27","1","85.98","1","0.4","1","null","6","null","6","0.0","1","null","6","41.200462","16.604997"],
    [142,"2024-01-06 21:00:00","21","molfetta","12.54","1","89.55","1","0.0","1","null","6","null","6","0.0","1","null","6","41.200462","16.604997"],
    [143,"2024-01-06 22:00:00","21","molfetta","11.99","1","91.16","1","0.0","1","null","6","null","6","0.0","1","null","6","41.200462","16.604997"],
    [144,"2024-01-06 23:00:00","21","molfetta","11.74","1","91.44","1","0.0","1","null","6","null","6","0.0","1","null","6","41.200462","16.604997"],
    [145,"2024-01-07 00:00:00","21","molfetta","11.13","1","90.89","1","0.0","1","null","6","null","6","0.0","1","null","6","41.200462","16.604997"],
    [146,"2024-01-07 01:00:00","21","molfetta","10.9","1","91.44","1","0.0","1","null","6","null","6","0.0","5","null","6","41.200462","16.604997"],
    [147,"2024-01-07 02:00:00","21","molfetta","11.17","1","89.95","1","0.0","1","null","6","null","6","0.0","5","null","6","41.200462","16.604997"],
    [148,"2024-01-07 03:00:00","21","molfetta","11.26","1","89.27","1","0.0","1","null","6","null","6","0.0","1","null","6","41.200462","16.604997"],
    [149,"2024-01-07 04:00:00","21","molfetta","11.09","1","90.02","1","0.0","1","null","6","null","6","0.0","1","null","6","41.200462","16.604997"],
    [150,"2024-01-07 05:00:00","21","molfetta","10.89","1","90.41","1","0.0","1","null","6","null","6","0.0","1","null","6","41.200462","16.604997"],
    [151,"2024-01-07 06:00:00","21","molfetta","10.91","1","89.6","1","0.0","1","null","6","null","6","0.0","1","null","6","41.200462","16.604997"],
    [152,"2024-01-07 07:00:00","21","molfetta","11.28","1","88.83","1","0.0","1","null","6","null","6","0.0","5","null","6","41.200462","16.604997"],
    [153,"2024-01-07 08:00:00","21","molfetta","11.57","1","90.41","1","0.0","1","null","6","null","6","0.0","5","null","6","41.200462","16.604997"],
    [154,"2024-01-07 09:00:00","21","molfetta","11.74","1","92.84","1","0.0","1","null","6","null","6","42.38","1","null","6","41.200462","16.604997"],
    [155,"2024-01-07 10:00:00","21","molfetta","12.62","1","92.46","1","0.0","1","null","6","null","6","113.46","1","null","6","41.200462","16.604997"],
    [156,"2024-01-07 11:00:00","21","molfetta","13.75","1","86.92","1","0.0","1","null","6","null","6","175.33","1","null","6","41.200462","16.604997"],
    [157,"2024-01-07 12:00:00","21","molfetta","14.46","1","81.65","1","0.0","1","null","6","null","6","209.07","1","null","6","41.200462","16.604997"],
    [158,"2024-01-07 13:00:00","21","molfetta","14.54","1","77.57","1","0.0","1","null","6","null","6","131.2","1","null","6","41.200462","16.604997"],
    [159,"2024-01-07 14:00:00","21","molfetta","14.18","1","80.1","1","0.2","1","null","6","null","6","76.04","1","null","6","41.200462","16.604997"],
    [160,"2024-01-07 15:00:00","21","molfetta","13.91","1","81.21","1","0.0","1","null","6","null","6","42.61","1","null","6","41.200462","16.604997"],
    [161,"2024-01-07 16:00:00","21","molfetta","12.86","1","79.39","1","0.2","1","null","6","null","6","38.38","1","null","6","41.200462","16.604997"],
    [162,"2024-01-07 17:00:00","21","molfetta","12.55","1","71.14","1","0.0","1","null","6","null","6","8.2","1","null","6","41.200462","16.604997"],
    [163,"2024-01-07 18:00:00","21","molfetta","12.22","1","71.42","1","0.4","1","null","6","null","6","0.0","1","null","6","41.200462","16.604997"],
    [164,"2024-01-07 19:00:00","21","molfetta","11.22","1","82.82","1","0.4","1","null","6","null","6","0.0","1","null","6","41.200462","16.604997"],
    [165,"2024-01-07 20:00:00","21","molfetta","10.56","1","88.47","1","0.2","1","null","6","null","6","0.0","1","null","6","41.200462","16.604997"],
    [166,"2024-01-07 21:00:00","21","molfetta","10.1","1","91.65","1","1.6","1","null","6","null","6","0.0","1","null","6","41.200462","16.604997"],
    [167,"2024-01-07 22:00:00","21","molfetta","9.96","1","93.21","1","1.6","1","null","6","null","6","0.0","1","null","6","41.200462","16.604997"],
    [168,"2024-01-07 23:00:00","21","molfetta","9.75","1","93.18","1","0.4","1","null","6","null","6","0.0","1","null","6","41.200462","16.604997"],
    [169,"2024-01-08 00:00:00","21","molfetta","9.6","1","93.48","1","0.2","1","null","6","null","6","0.0","1","null","6","41.200462","16.604997"],
    [170,"2024-01-08 01:00:00","21","molfetta","9.62","1","94.4","1","0.4","1","null","6","null","6","0.0","1","null","6","41.200462","16.604997"],
    [171,"2024-01-08 02:00:00","21","molfetta","9.6","1","94.47","1","0.2","1","null","6","null","6","0.0","1","null","6","41.200462","16.604997"],
    [172,"2024-01-08 03:00:00","21","molfetta","9.67","1","93.99","1","0.2","1","null","6","null","6","0.0","1","null","6","41.200462","16.604997"],
    [173,"2024-01-08 04:00:00","21","molfetta","9.65","1","93.65","1","0.0","1","null","6","null","6","0.0","1","null","6","41.200462","16.604997"],
    [174,"2024-01-08 05:00:00","21","molfetta","9.6","1","92.79","1","0.0","1","null","6","null","6","0.0","1","null","6","41.200462","16.604997"],
    [175,"2024-01-08 06:00:00","21","molfetta","9.68","1","90.58","1","0.0","1","null","6","null","6","0.0","5","null","6","41.200462","16.604997"],
    [176,"2024-01-08 07:00:00","21","molfetta","9.7","1","89.89","1","0.2","1","null","6","null","6","0.0","1","null","6","41.200462","16.604997"],
    [177,"2024-01-08 08:00:00","21","molfetta","9.56","1","88.9","1","0.0","1","null","6","null","6","6.47","1","null","6","41.200462","16.604997"],
    [178,"2024-01-08 09:00:00","21","molfetta","9.8","1","85.93","1","0.0","1","null","6","null","6","47.19","1","null","6","41.200462","16.604997"],
    [179,"2024-01-08 10:00:00","21","molfetta","11.0","1","79.3","1","0.0","1","null","6","null","6","121.03","1","null","6","41.200462","16.604997"],
    [180,"2024-01-08 11:00:00","21","molfetta","12.84","1","73.12","1","0.0","1","null","6","null","6","146.83","1","null","6","41.200462","16.604997"],
    [181,"2024-01-08 12:00:00","21","molfetta","13.57","1","71.9","1","0.0","1","null","6","null","6","177.96","1","null","6","41.200462","16.604997"],
    [182,"2024-01-08 13:00:00","21","molfetta","13.65","1","70.71","1","0.0","1","null","6","null","6","157.94","1","null","6","41.200462","16.604997"],
    [183,"2024-01-08 14:00:00","21","molfetta","13.77","1","67.49","1","0.0","1","null","6","null","6","176.81","1","null","6","41.200462","16.604997"],
    [184,"2024-01-08 15:00:00","21","molfetta","13.4","1","68.34","1","0.0","1","null","6","null","6","89.85","1","null","6","41.200462","16.604997"],
    [185,"2024-01-08 16:00:00","21","molfetta","13.2","1","70.27","1","0.0","1","null","6","null","6","65.69","1","null","6","41.200462","16.604997"],
    [186,"2024-01-08 17:00:00","21","molfetta","12.78","1","71.84","1","0.0","1","null","6","null","6","11.67","1","null","6","41.200462","16.604997"],
    [187,"2024-01-08 18:00:00","21","molfetta","12.32","1","75.28","1","0.0","1","null","6","null","6","0.0","1","null","6","41.200462","16.604997"],
    [188,"2024-01-08 19:00:00","21","molfetta","11.68","1","78.21","1","0.0","1","null","6","null","6","0.0","1","null","6","41.200462","16.604997"],
    [189,"2024-01-08 20:00:00","21","molfetta","11.3","1","79.68","1","0.0","1","null","6","null","6","0.0","1","null","6","41.200462","16.604997"],
    [190,"2024-01-08 21:00:00","21","molfetta","11.05","1","83.94","1","0.0","1","null","6","null","6","0.0","1","null","6","41.200462","16.604997"],
    [191,"2024-01-08 22:00:00","21","molfetta","10.85","1","85.91","1","0.0","1","null","6","null","6","0.0","1","null","6","41.200462","16.604997"],
    [192,"2024-01-08 23:00:00","21","molfetta","10.76","1","86.91","1","0.0","1","null","6","null","6","0.0","1","null","6","41.200462","16.604997"],
    [193,"2024-01-09 00:00:00","21","molfetta","10.49","1","91.41","1","0.2","1","null","6","null","6","0.0","1","null","6","41.200462","16.604997"],
    [194,"2024-01-09 01:00:00","21","molfetta","10.12","1","95.03","1","0.2","1","null","6","null","6","0.0","5","null","6","41.200462","16.604997"],
    [195,"2024-01-09 02:00:00","21","molfetta","9.94","1","95.68","1","0.0","1","null","6","null","6","0.0","1","null","6","41.200462","16.604997"],
    [196,"2024-01-09 03:00:00","21","molfetta","9.79","1","96.51","1","2.6","1","null","6","null","6","0.0","1","null","6","41.200462","16.604997"],
    [197,"2024-01-09 04:00:00","21","molfetta","9.71","1","98.14","1","1.4","1","null","6","null","6","0.0","1","null","6","41.200462","16.604997"],
    [198,"2024-01-09 05:00:00","21","molfetta","9.8","1","99.2","1","1.4","1","null","6","null","6","0.0","5","null","6","41.200462","16.604997"],
    [199,"2024-01-09 06:00:00","21","molfetta","9.99","1","99.66","1","3.8","1","null","6","null","6","0.0","1","null","6","41.200462","16.604997"],
    [200,"2024-01-09 07:00:00","21","molfetta","10.01","1","99.73","1","1.8","1","null","6","null","6","0.0","5","null","6","41.200462","16.604997"],
    [201,"2024-01-09 08:00:00","21","molfetta","10.4","1","95.04","1","0.0","1","null","6","null","6","0.0","5","null","6","41.200462","16.604997"],
    [202,"2024-01-09 09:00:00","21","molfetta","11.34","1","76.57","1","0.0","1","null","6","null","6","11.23","1","null","6","41.200462","16.604997"],
    [203,"2024-01-09 10:00:00","21","molfetta","11.38","1","74.57","1","0.0","1","null","6","null","6","31.96","1","null","6","41.200462","16.604997"],
    [204,"2024-01-09 11:00:00","21","molfetta","10.05","1","83.1","1","0.0","1","null","6","null","6","25.38","1","null","6","41.200462","16.604997"],
    [205,"2024-01-09 12:00:00","21","molfetta","9.31","1","89.43","1","0.2","1","null","6","null","6","19.52","1","null","6","41.200462","16.604997"],
    [206,"2024-01-09 13:00:00","21","molfetta","10.47","1","78.62","1","0.0","1","null","6","null","6","30.07","1","null","6","41.200462","16.604997"],
    [207,"2024-01-09 14:00:00","21","molfetta","11.25","1","64.57","1","0.0","1","null","6","null","6","90.91","1","null","6","41.200462","16.604997"],
    [208,"2024-01-09 15:00:00","21","molfetta","11.23","1","67.17","1","0.0","1","null","6","null","6","44.96","1","null","6","41.200462","16.604997"],
    [209,"2024-01-09 16:00:00","21","molfetta","10.43","1","76.2","1","0.0","1","null","6","null","6","5.0","1","null","6","41.200462","16.604997"],
    [210,"2024-01-09 17:00:00","21","molfetta","10.13","1","76.0","1","0.0","1","null","6","null","6","0.0","5","null","6","41.200462","16.604997"],
    [211,"2024-01-09 18:00:00","21","molfetta","9.86","1","75.4","1","0.0","1","null","6","null","6","0.0","1","null","6","41.200462","16.604997"],
    [212,"2024-01-09 19:00:00","21","molfetta","9.72","1","73.27","1","0.0","1","null","6","null","6","0.0","1","null","6","41.200462","16.604997"],
    [213,"2024-01-09 20:00:00","21","molfetta","9.54","1","71.0","1","0.0","1","null","6","null","6","0.0","1","null","6","41.200462","16.604997"],
    [214,"2024-01-09 21:00:00","21","molfetta","9.3","1","72.07","1","0.0","1","null","6","null","6","0.0","1","null","6","41.200462","16.604997"],
    [215,"2024-01-09 22:00:00","21","molfetta","8.83","1","76.21","1","0.0","1","null","6","null","6","0.0","1","null","6","41.200462","16.604997"],
    [216,"2024-01-09 23:00:00","21","molfetta","8.28","1","79.86","1","0.0","1","null","6","null","6","0.0","1","null","6","41.200462","16.604997"],
    [217,"2024-01-10 00:00:00","21","molfetta","7.98","1","82.11","1","0.0","1","null","6","null","6","0.0","1","null","6","41.200462","16.604997"],
    [218,"2024-01-10 01:00:00","21","molfetta","8.15","1","81.5","1","0.0","1","null","6","null","6","0.0","1","null","6","41.200462","16.604997"],
    [219,"2024-01-10 02:00:00","21","molfetta","8.29","1","81.0","1","0.0","1","null","6","null","6","0.0","1","null","6","41.200462","16.604997"],
    [220,"2024-01-10 03:00:00","21","molfetta","8.41","1","80.8","1","0.0","1","null","6","null","6","0.0","1","null","6","41.200462","16.604997"],
    [221,"2024-01-10 04:00:00","21","molfetta","8.4","1","81.25","1","0.0","1","null","6","null","6","0.0","1","null","6","41.200462","16.604997"],
    [222,"2024-01-10 05:00:00","21","molfetta","8.27","1","81.91","1","0.0","1","null","6","null","6","0.0","1","null","6","41.200462","16.604997"],
    [223,"2024-01-10 06:00:00","21","molfetta","8.26","1","82.72","1","0.0","1","null","6","null","6","0.0","1","null","6","41.200462","16.604997"],
    [224,"2024-01-10 07:00:00","21","molfetta","8.41","1","82.22","1","0.0","1","null","6","null","6","0.0","1","null","6","41.200462","16.604997"],
    [225,"2024-01-10 08:00:00","21","molfetta","8.48","1","81.31","1","0.0","1","null","6","null","6","0.0","5","null","6","41.200462","16.604997"],
    [226,"2024-01-10 09:00:00","21","molfetta","8.6","1","78.96","1","0.0","1","null","6","null","6","15.47","1","null","6","41.200462","16.604997"],
    [227,"2024-01-10 10:00:00","21","molfetta","8.82","1","73.93","1","0.0","1","null","6","null","6","39.98","1","null","6","41.200462","16.604997"],
    [228,"2024-01-10 11:00:00","21","molfetta","9.16","1","72.13","1","0.0","1","null","6","null","6","81.34","1","null","6","41.200462","16.604997"],
    [229,"2024-01-10 12:00:00","21","molfetta","9.95","1","70.08","1","0.0","1","null","6","null","6","108.08","1","null","6","41.200462","16.604997"],
    [230,"2024-01-10 13:00:00","21","molfetta","10.54","1","68.31","1","0.0","1","null","6","null","6","125.33","1","null","6","41.200462","16.604997"],
    [231,"2024-01-10 14:00:00","21","molfetta","11.1","1","67.22","1","0.0","1","null","6","null","6","139.15","1","null","6","41.200462","16.604997"],
    [232,"2024-01-10 15:00:00","21","molfetta","11.22","1","69.46","1","0.0","1","null","6","null","6","111.36","1","null","6","41.200462","16.604997"],
    [233,"2024-01-10 16:00:00","21","molfetta","10.88","1","73.12","1","0.0","1","null","6","null","6","26.28","1","null","6","41.200462","16.604997"],
    [234,"2024-01-10 17:00:00","21","molfetta","10.6","1","74.52","1","0.0","1","null","6","null","6","0.0","5","null","6","41.200462","16.604997"],
    [235,"2024-01-10 18:00:00","21","molfetta","10.5","1","73.9","1","0.0","1","null","6","null","6","0.0","1","null","6","41.200462","16.604997"],
    [236,"2024-01-10 19:00:00","21","molfetta","10.41","1","75.68","1","0.0","1","null","6","null","6","0.0","1","null","6","41.200462","16.604997"],
    [237,"2024-01-10 20:00:00","21","molfetta","10.21","1","79.06","1","0.0","1","null","6","null","6","0.0","1","null","6","41.200462","16.604997"],
    [238,"2024-01-10 21:00:00","21","molfetta","9.65","1","84.8","1","0.8","1","null","6","null","6","0.0","1","null","6","41.200462","16.604997"],
    [239,"2024-01-10 22:00:00","21","molfetta","9.24","1","89.87","1","0.2","1","null","6","null","6","0.0","5","null","6","41.200462","16.604997"],
    [240,"2024-01-10 23:00:00","21","molfetta","9.21","1","90.38","1","0.0","1","null","6","null","6","0.0","5","null","6","41.200462","16.604997"],
    [241,"2024-01-11 00:00:00","21","molfetta","9.19","1","89.58","1","0.0","1","null","6","null","6","0.0","1","null","6","41.200462","16.604997"],
    [242,"2024-01-11 01:00:00","21","molfetta","9.15","1","88.26","1","0.0","1","null","6","null","6","0.0","5","null","6","41.200462","16.604997"],
    [243,"2024-01-11 02:00:00","21","molfetta","9.11","1","87.37","1","0.0","1","null","6","null","6","0.0","1","null","6","41.200462","16.604997"],
    [244,"2024-01-11 03:00:00","21","molfetta","9.1","1","84.54","1","0.0","1","null","6","null","6","0.0","5","null","6","41.200462","16.604997"],
    [245,"2024-01-11 04:00:00","21","molfetta","9.08","1","83.91","1","0.0","1","null","6","null","6","0.0","5","null","6","41.200462","16.604997"],
    [246,"2024-01-11 05:00:00","21","molfetta","8.99","1","84.23","1","0.0","1","null","6","null","6","0.0","1","null","6","41.200462","16.604997"],
    [247,"2024-01-11 06:00:00","21","molfetta","8.95","1","82.73","1","0.0","1","null","6","null","6","0.0","1","null","6","41.200462","16.604997"],
    [248,"2024-01-11 07:00:00","21","molfetta","8.58","1","84.07","1","0.0","1","null","6","null","6","0.0","1","null","6","41.200462","16.604997"],
    [249,"2024-01-11 08:00:00","21","molfetta","8.63","1","86.07","1","0.0","1","null","6","null","6","7.57","1","null","6","41.200462","16.604997"],
    [250,"2024-01-11 09:00:00","21","molfetta","9.11","1","85.33","1","0.0","1","null","6","null","6","50.39","1","null","6","41.200462","16.604997"],
    [251,"2024-01-11 10:00:00","21","molfetta","9.67","1","84.15","1","0.0","1","null","6","null","6","102.62","1","null","6","41.200462","16.604997"],
    [252,"2024-01-11 11:00:00","21","molfetta","10.57","1","81.75","1","0.0","1","null","6","null","6","109.91","1","null","6","41.200462","16.604997"],
    [253,"2024-01-11 12:00:00","21","molfetta","10.36","1","83.0","1","0.0","1","null","6","null","6","54.99","1","null","6","41.200462","16.604997"],
    [254,"2024-01-11 13:00:00","21","molfetta","10.33","1","86.73","1","0.0","1","null","6","null","6","88.92","1","null","6","41.200462","16.604997"],
    [255,"2024-01-11 14:00:00","21","molfetta","10.24","1","89.05","1","0.0","1","null","6","null","6","109.99","1","null","6","41.200462","16.604997"],
    [256,"2024-01-11 15:00:00","21","molfetta","10.37","1","87.06","1","0.0","1","null","6","null","6","83.34","1","null","6","41.200462","16.604997"],
    [257,"2024-01-11 16:00:00","21","molfetta","10.54","1","83.96","1","0.0","1","null","6","null","6","68.0","1","null","6","41.200462","16.604997"],
    [258,"2024-01-11 17:00:00","21","molfetta","10.29","1","82.99","1","0.0","1","null","6","null","6","8.1","1","null","6","41.200462","16.604997"],
    [259,"2024-01-11 18:00:00","21","molfetta","10.08","1","83.21","1","0.0","1","null","6","null","6","0.0","5","null","6","41.200462","16.604997"],
    [260,"2024-01-11 19:00:00","21","molfetta","9.59","1","85.07","1","0.0","1","null","6","null","6","0.0","1","null","6","41.200462","16.604997"],
    [261,"2024-01-11 20:00:00","21","molfetta","9.46","1","85.75","1","0.0","1","null","6","null","6","0.0","1","null","6","41.200462","16.604997"],
    [262,"2024-01-11 21:00:00","21","molfetta","9.37","1","85.46","1","0.0","1","null","6","null","6","0.0","1","null","6","41.200462","16.604997"],
    [263,"2024-01-11 22:00:00","21","molfetta","9.22","1","88.26","1","1.0","1","null","6","null","6","0.0","1","null","6","41.200462","16.604997"],
    [264,"2024-01-11 23:00:00","21","molfetta","8.94","1","92.56","1","1.8","1","null","6","null","6","0.0","1","null","6","41.200462","16.604997"],
    [265,"2024-01-12 00:00:00","21","molfetta","8.77","1","94.13","1","0.8","1","null","6","null","6","0.0","5","null","6","41.200462","16.604997"],
    [266,"2024-01-12 01:00:00","21","molfetta","8.75","1","92.16","1","0.0","1","null","6","null","6","0.0","5","null","6","41.200462","16.604997"],
    [267,"2024-01-12 02:00:00","21","molfetta","8.54","1","88.98","1","0.0","1","null","6","null","6","0.0","5","null","6","41.200462","16.604997"],
    [268,"2024-01-12 03:00:00","21","molfetta","8.36","1","87.79","1","0.0","1","null","6","null","6","0.0","1","null","6","41.200462","16.604997"],
    [269,"2024-01-12 04:00:00","21","molfetta","8.12","1","88.23","1","0.0","1","null","6","null","6","0.0","1","null","6","41.200462","16.604997"],
    [270,"2024-01-12 05:00:00","21","molfetta","8.07","1","88.64","1","0.0","1","null","6","null","6","0.0","1","null","6","41.200462","16.604997"],
    [271,"2024-01-12 06:00:00","21","molfetta","8.03","1","89.49","1","0.0","1","null","6","null","6","0.0","1","null","6","41.200462","16.604997"],
    [272,"2024-01-12 07:00:00","21","molfetta","7.93","1","89.02","1","0.0","1","null","6","null","6","0.0","1","null","6","41.200462","16.604997"],
    [273,"2024-01-12 08:00:00","21","molfetta","7.49","1","88.13","1","0.0","1","null","6","null","6","0.0","5","null","6","41.200462","16.604997"],
    [274,"2024-01-12 09:00:00","21","molfetta","7.88","1","84.83","1","0.0","1","null","6","null","6","58.34","1","null","6","41.200462","16.604997"],
    [275,"2024-01-12 10:00:00","21","molfetta","8.63","1","80.84","1","0.0","1","null","6","null","6","80.56","1","null","6","41.200462","16.604997"],
    [276,"2024-01-12 11:00:00","21","molfetta","10.13","1","69.11","1","0.0","1","null","6","null","6","107.02","1","null","6","41.200462","16.604997"],
    [277,"2024-01-12 12:00:00","21","molfetta","11.56","1","45.67","1","0.0","1","null","6","null","6","217.29","1","null","6","41.200462","16.604997"],
    [278,"2024-01-12 13:00:00","21","molfetta","12.21","1","41.47","1","0.0","1","null","6","null","6","131.95","1","null","6","41.200462","16.604997"],
    [279,"2024-01-12 14:00:00","21","molfetta","11.58","1","44.03","1","0.0","1","null","6","null","6","44.43","1","null","6","41.200462","16.604997"],
    [280,"2024-01-12 15:00:00","21","molfetta","11.5","1","48.84","1","0.0","1","null","6","null","6","41.98","1","null","6","41.200462","16.604997"],
    [281,"2024-01-12 16:00:00","21","molfetta","11.44","1","53.18","1","0.0","1","null","6","null","6","41.94","1","null","6","41.200462","16.604997"],
    [282,"2024-01-12 17:00:00","21","molfetta","11.17","1","56.61","1","0.0","1","null","6","null","6","7.25","1","null","6","41.200462","16.604997"],
    [283,"2024-01-12 18:00:00","21","molfetta","10.93","1","57.1","1","0.0","1","null","6","null","6","0.0","1","null","6","41.200462","16.604997"],
    [284,"2024-01-12 19:00:00","21","molfetta","10.69","1","54.72","1","0.0","1","null","6","null","6","0.0","1","null","6","41.200462","16.604997"],
    [285,"2024-01-12 20:00:00","21","molfetta","10.29","1","54.25","1","0.0","1","null","6","null","6","0.0","1","null","6","41.200462","16.604997"],
    [286,"2024-01-12 21:00:00","21","molfetta","9.46","1","56.81","1","0.0","1","null","6","null","6","0.0","1","null","6","41.200462","16.604997"],
    [287,"2024-01-12 22:00:00","21","molfetta","8.74","1","55.8","1","0.0","1","null","6","null","6","0.0","1","null","6","41.200462","16.604997"],
    [288,"2024-01-12 23:00:00","21","molfetta","7.76","1","58.58","1","0.0","1","null","6","null","6","0.0","1","null","6","41.200462","16.604997"],
    [289,"2024-01-13 00:00:00","21","molfetta","7.54","1","58.57","1","0.0","1","null","6","null","6","0.0","1","null","6","41.200462","16.604997"],
    [290,"2024-01-13 01:00:00","21","molfetta","7.36","1","57.58","1","0.0","1","null","6","null","6","0.0","1","null","6","41.200462","16.604997"],
    [291,"2024-01-13 02:00:00","21","molfetta","7.04","1","55.86","1","0.0","1","null","6","null","6","0.0","1","null","6","41.200462","16.604997"],
    [292,"2024-01-13 03:00:00","21","molfetta","6.98","1","56.97","1","0.0","1","null","6","null","6","0.0","1","null","6","41.200462","16.604997"],
    [293,"2024-01-13 04:00:00","21","molfetta","7.02","1","55.4","1","0.0","1","null","6","null","6","0.0","1","null","6","41.200462","16.604997"],
    [294,"2024-01-13 05:00:00","21","molfetta","7.0","1","55.83","1","0.0","1","null","6","null","6","0.0","1","null","6","41.200462","16.604997"],
    [295,"2024-01-13 06:00:00","21","molfetta","6.9","1","56.21","1","0.0","1","null","6","null","6","0.0","1","null","6","41.200462","16.604997"],
    [296,"2024-01-13 07:00:00","21","molfetta","6.96","1","55.58","1","0.0","1","null","6","null","6","0.0","1","null","6","41.200462","16.604997"],
    [297,"2024-01-13 08:00:00","21","molfetta","6.05","1","57.06","1","0.0","1","null","6","null","6","0.0","5","null","6","41.200462","16.604997"],
    [298,"2024-01-13 09:00:00","21","molfetta","6.14","1","59.39","1","0.0","1","null","6","null","6","26.4","1","null","6","41.200462","16.604997"],
    [299,"2024-01-13 10:00:00","21","molfetta","7.08","1","59.88","1","0.0","1","null","6","null","6","84.94","1","null","6","41.200462","16.604997"],
    [300,"2024-01-13 11:00:00","21","molfetta","8.55","1","54.99","1","0.0","1","null","6","null","6","92.87","1","null","6","41.200462","16.604997"],
    [301,"2024-01-13 12:00:00","21","molfetta","9.8","1","51.33","1","0.0","1","null","6","null","6","227.97","1","null","6","41.200462","16.604997"],
    [302,"2024-01-13 13:00:00","21","molfetta","10.62","1","49.63","1","0.0","1","null","6","null","6","132.52","1","null","6","41.200462","16.604997"],
    [303,"2024-01-13 14:00:00","21","molfetta","10.16","1","54.18","1","0.0","1","null","6","null","6","62.91","1","null","6","41.200462","16.604997"],
    [304,"2024-01-13 15:00:00","21","molfetta","10.24","1","56.46","1","0.0","1","null","6","null","6","47.21","1","null","6","41.200462","16.604997"],
    [305,"2024-01-13 16:00:00","21","molfetta","10.27","1","55.58","1","0.0","1","null","6","null","6","27.03","1","null","6","41.200462","16.604997"],
    [306,"2024-01-13 17:00:00","21","molfetta","10.12","1","58.39","1","0.0","1","null","6","null","6","13.5","1","null","6","41.200462","16.604997"],
    [307,"2024-01-13 18:00:00","21","molfetta","9.76","1","63.33","1","0.0","1","null","6","null","6","0.0","1","null","6","41.200462","16.604997"],
    [308,"2024-01-13 19:00:00","21","molfetta","8.47","1","70.7","1","0.0","1","null","6","null","6","0.0","1","null","6","41.200462","16.604997"],
    [309,"2024-01-13 20:00:00","21","molfetta","7.83","1","72.36","1","0.0","1","null","6","null","6","0.0","1","null","6","41.200462","16.604997"],
    [310,"2024-01-13 21:00:00","21","molfetta","7.37","1","73.3","1","0.0","1","null","6","null","6","0.0","1","null","6","41.200462","16.604997"],
    [311,"2024-01-13 22:00:00","21","molfetta","7.07","1","73.57","1","0.0","1","null","6","null","6","0.0","1","null","6","41.200462","16.604997"],
    [312,"2024-01-13 23:00:00","21","molfetta","6.87","1","73.56","1","0.0","1","null","6","null","6","0.0","1","null","6","41.200462","16.604997"],
    [313,"2024-01-14 00:00:00","21","molfetta","6.91","1","71.01","1","0.0","1","null","6","null","6","0.0","1","null","6","41.200462","16.604997"],
    [314,"2024-01-14 01:00:00","21","molfetta","6.64","1","69.26","1","0.0","1","null","6","null","6","0.0","1","null","6","41.200462","16.604997"],
    [315,"2024-01-14 02:00:00","21","molfetta","6.03","1","67.6","1","0.0","1","null","6","null","6","0.0","1","null","6","41.200462","16.604997"],
    [316,"2024-01-14 03:00:00","21","molfetta","5.71","1","62.85","1","0.0","1","null","6","null","6","0.0","1","null","6","41.200462","16.604997"],
    [317,"2024-01-14 04:00:00","21","molfetta","5.41","1","61.54","1","0.0","1","null","6","null","6","0.0","1","null","6","41.200462","16.604997"],
    [318,"2024-01-14 05:00:00","21","molfetta","4.57","1","65.47","1","0.0","1","null","6","null","6","0.0","1","null","6","41.200462","16.604997"],
    [319,"2024-01-14 06:00:00","21","molfetta","3.58","1","67.73","1","0.0","1","null","6","null","6","0.0","1","null","6","41.200462","16.604997"],
    [320,"2024-01-14 07:00:00","21","molfetta","2.89","1","68.56","1","0.0","1","null","6","null","6","0.0","1","null","6","41.200462","16.604997"],
    [321,"2024-01-14 08:00:00","21","molfetta","2.7","1","68.95","1","0.0","1","null","6","null","6","6.36","1","null","6","41.200462","16.604997"],
    [322,"2024-01-14 09:00:00","21","molfetta","5.58","1","64.69","1","0.0","1","null","6","null","6","109.17","1","null","6","41.200462","16.604997"],
    [323,"2024-01-14 10:00:00","21","molfetta","7.74","1","60.52","1","0.0","1","null","6","null","6","104.18","1","null","6","41.200462","16.604997"],
    [324,"2024-01-14 11:00:00","21","molfetta","9.95","1","57.88","1","0.0","1","null","6","null","6","158.35","1","null","6","41.200462","16.604997"],
    [325,"2024-01-14 12:00:00","21","molfetta","11.01","1","58.23","1","0.0","1","null","6","null","6","131.91","1","null","6","41.200462","16.604997"],
    [326,"2024-01-14 13:00:00","21","molfetta","12.83","1","52.77","1","0.0","1","null","6","null","6","174.21","1","null","6","41.200462","16.604997"],
    [327,"2024-01-14 14:00:00","21","molfetta","12.38","1","53.1","1","0.0","1","null","6","null","6","94.21","1","null","6","41.200462","16.604997"],
    [328,"2024-01-14 15:00:00","21","molfetta","13.0","1","56.4","1","0.0","1","null","6","null","6","81.4","1","null","6","41.200462","16.604997"],
    [329,"2024-01-14 16:00:00","21","molfetta","12.77","1","57.96","1","0.0","1","null","6","null","6","48.7","1","null","6","41.200462","16.604997"],
    [330,"2024-01-14 17:00:00","21","molfetta","12.6","1","58.66","1","0.0","1","null","6","null","6","22.76","1","null","6","41.200462","16.604997"],
    [331,"2024-01-14 18:00:00","21","molfetta","11.39","1","63.21","1","0.0","1","null","6","null","6","0.0","1","null","6","41.200462","16.604997"],
    [332,"2024-01-14 19:00:00","21","molfetta","10.01","1","69.23","1","0.0","1","null","6","null","6","0.0","1","null","6","41.200462","16.604997"],
    [333,"2024-01-14 20:00:00","21","molfetta","9.92","1","70.25","1","0.0","1","null","6","null","6","0.0","1","null","6","41.200462","16.604997"],
    [334,"2024-01-14 21:00:00","21","molfetta","10.01","1","68.08","1","0.0","1","null","6","null","6","0.0","1","null","6","41.200462","16.604997"],
    [335,"2024-01-14 22:00:00","21","molfetta","9.74","1","68.85","1","0.0","1","null","6","null","6","0.0","1","null","6","41.200462","16.604997"],
    [336,"2024-01-14 23:00:00","21","molfetta","9.68","1","70.56","1","0.0","1","null","6","null","6","0.0","1","null","6","41.200462","16.604997"],
    [337,"2024-01-15 00:00:00","21","molfetta","9.81","1","71.23","1","0.0","1","null","6","null","6","0.0","1","null","6","41.200462","16.604997"],
    [338,"2024-01-15 01:00:00","21","molfetta","9.87","1","69.65","1","0.0","1","null","6","null","6","0.0","1","null","6","41.200462","16.604997"],
    [339,"2024-01-15 02:00:00","21","molfetta","9.86","1","68.76","1","0.0","1","null","6","null","6","0.0","1","null","6","41.200462","16.604997"],
    [340,"2024-01-15 03:00:00","21","molfetta","9.54","1","70.29","1","0.0","1","null","6","null","6","0.0","1","null","6","41.200462","16.604997"],
    [341,"2024-01-15 04:00:00","21","molfetta","9.92","1","71.24","1","0.0","1","null","6","null","6","0.0","1","null","6","41.200462","16.604997"],
    [342,"2024-01-15 05:00:00","21","molfetta","10.42","1","74.58","1","0.0","1","null","6","null","6","0.0","1","null","6","41.200462","16.604997"],
    [343,"2024-01-15 06:00:00","21","molfetta","9.91","1","84.06","1","0.4","1","null","6","null","6","0.0","1","null","6","41.200462","16.604997"],
    [344,"2024-01-15 07:00:00","21","molfetta","9.72","1","89.29","1","0.0","1","null","6","null","6","0.0","5","null","6","41.200462","16.604997"],
    [345,"2024-01-15 08:00:00","21","molfetta","10.16","1","88.5","1","0.0","1","null","6","null","6","0.0","5","null","6","41.200462","16.604997"],
    [346,"2024-01-15 09:00:00","21","molfetta","11.17","1","84.58","1","0.0","1","null","6","null","6","21.32","1","null","6","41.200462","16.604997"],
    [347,"2024-01-15 10:00:00","21","molfetta","11.77","1","81.38","1","0.0","1","null","6","null","6","34.23","1","null","6","41.200462","16.604997"],
    [348,"2024-01-15 11:00:00","21","molfetta","12.26","1","78.04","1","0.0","1","null","6","null","6","41.57","1","null","6","41.200462","16.604997"],
    [349,"2024-01-15 12:00:00","21","molfetta","13.57","1","71.85","1","0.0","1","null","6","null","6","103.26","1","null","6","41.200462","16.604997"],
    [350,"2024-01-15 13:00:00","21","molfetta","15.42","1","63.93","1","0.0","1","null","6","null","6","185.09","1","null","6","41.200462","16.604997"],
    [351,"2024-01-15 14:00:00","21","molfetta","15.63","1","63.33","1","0.2","1","null","6","null","6","106.17","1","null","6","41.200462","16.604997"],
    [352,"2024-01-15 15:00:00","21","molfetta","16.03","1","64.91","1","0.0","1","null","6","null","6","99.36","1","null","6","41.200462","16.604997"],
    [353,"2024-01-15 16:00:00","21","molfetta","16.03","1","64.4","1","0.0","1","null","6","null","6","65.59","1","null","6","41.200462","16.604997"],
    [354,"2024-01-15 17:00:00","21","molfetta","15.82","1","58.83","1","0.0","1","null","6","null","6","16.99","1","null","6","41.200462","16.604997"],
    [355,"2024-01-15 18:00:00","21","molfetta","15.07","1","59.9","1","0.0","1","null","6","null","6","0.0","1","null","6","41.200462","16.604997"],
    [356,"2024-01-15 19:00:00","21","molfetta","14.4","1","63.04","1","0.0","1","null","6","null","6","0.0","1","null","6","41.200462","16.604997"],
    [357,"2024-01-15 20:00:00","21","molfetta","14.14","1","64.53","1","0.0","1","null","6","null","6","0.0","1","null","6","41.200462","16.604997"],
    [358,"2024-01-15 21:00:00","21","molfetta","13.54","1","65.0","1","0.0","1","null","6","null","6","0.0","1","null","6","41.200462","16.604997"],
    [359,"2024-01-15 22:00:00","21","molfetta","12.22","1","69.03","1","0.0","1","null","6","null","6","0.0","1","null","6","41.200462","16.604997"],
    [360,"2024-01-15 23:00:00","21","molfetta","11.37","1","73.5","1","0.0","1","null","6","null","6","0.0","1","null","6","41.200462","16.604997"],
    [361,"2024-01-16 00:00:00","21","molfetta","11.08","1","74.93","1","0.0","1","null","6","null","6","0.0","1","null","6","41.200462","16.604997"],
    [362,"2024-01-16 01:00:00","21","molfetta","11.05","1","74.78","1","0.0","1","null","6","null","6","0.0","1","null","6","41.200462","16.604997"],
    [363,"2024-01-16 02:00:00","21","molfetta","10.07","1","75.88","1","0.0","1","null","6","null","6","0.0","1","null","6","41.200462","16.604997"],
    [364,"2024-01-16 03:00:00","21","molfetta","9.45","1","78.51","1","0.0","1","null","6","null","6","0.0","1","null","6","41.200462","16.604997"],
    [365,"2024-01-16 04:00:00","21","molfetta","8.68","1","81.0","1","0.0","1","null","6","null","6","0.0","1","null","6","41.200462","16.604997"],
    [366,"2024-01-16 05:00:00","21","molfetta","8.51","1","83.22","1","0.0","1","null","6","null","6","0.0","1","null","6","41.200462","16.604997"],
    [367,"2024-01-16 06:00:00","21","molfetta","8.92","1","84.36","1","0.0","1","null","6","null","6","0.0","1","null","6","41.200462","16.604997"],
    [368,"2024-01-16 07:00:00","21","molfetta","8.94","1","85.46","1","0.0","1","null","6","null","6","0.0","1","null","6","41.200462","16.604997"],
    [369,"2024-01-16 08:00:00","21","molfetta","9.64","1","84.53","1","0.0","1","null","6","null","6","6.42","1","null","6","41.200462","16.604997"],
    [370,"2024-01-16 09:00:00","21","molfetta","12.14","1","71.75","1","0.0","1","null","6","null","6","114.55","1","null","6","41.200462","16.604997"],
    [371,"2024-01-16 10:00:00","21","molfetta","14.19","1","63.4","1","0.0","1","null","6","null","6","103.99","1","null","6","41.200462","16.604997"],
    [372,"2024-01-16 11:00:00","21","molfetta","15.22","1","58.3","1","0.0","1","null","6","null","6","70.96","1","null","6","41.200462","16.604997"],
    [373,"2024-01-16 12:00:00","21","molfetta","16.4","1","55.58","1","0.0","1","null","6","null","6","225.32","1","null","6","41.200462","16.604997"],
    [374,"2024-01-16 13:00:00","21","molfetta","17.3","1","58.88","1","0.0","1","null","6","null","6","130.23","1","null","6","41.200462","16.604997"],
    [375,"2024-01-16 14:00:00","21","molfetta","15.3","1","72.59","1","0.0","1","null","6","null","6","100.88","1","null","6","41.200462","16.604997"],
    [376,"2024-01-16 15:00:00","21","molfetta","14.76","1","77.35","1","0.0","1","null","6","null","6","50.95","1","null","6","41.200462","16.604997"],
    [377,"2024-01-16 16:00:00","21","molfetta","14.6","1","79.52","1","0.0","1","null","6","null","6","54.65","1","null","6","41.200462","16.604997"],
    [378,"2024-01-16 17:00:00","21","molfetta","14.2","1","78.43","1","0.0","1","null","6","null","6","15.41","1","null","6","41.200462","16.604997"],
    [379,"2024-01-16 18:00:00","21","molfetta","13.59","1","82.2","1","0.0","1","null","6","null","6","0.0","1","null","6","41.200462","16.604997"],
    [380,"2024-01-16 19:00:00","21","molfetta","13.14","1","81.35","1","0.0","1","null","6","null","6","0.0","1","null","6","41.200462","16.604997"],
    [381,"2024-01-16 20:00:00","21","molfetta","12.92","1","77.91","1","0.0","1","null","6","null","6","0.0","1","null","6","41.200462","16.604997"],
    [382,"2024-01-16 21:00:00","21","molfetta","12.3","1","79.05","1","0.0","1","null","6","null","6","0.0","1","null","6","41.200462","16.604997"],
    [383,"2024-01-16 22:00:00","21","molfetta","11.85","1","76.91","1","0.0","1","null","6","null","6","0.0","1","null","6","41.200462","16.604997"],
    [384,"2024-01-16 23:00:00","21","molfetta","11.2","1","77.56","1","0.0","1","null","6","null","6","0.0","1","null","6","41.200462","16.604997"],
    [385,"2024-01-17 00:00:00","21","molfetta","10.84","1","79.28","1","0.0","1","null","6","null","6","0.0","1","null","6","41.200462","16.604997"],
    [386,"2024-01-17 01:00:00","21","molfetta","10.89","1","78.09","1","0.0","1","null","6","null","6","0.0","1","null","6","41.200462","16.604997"],
    [387,"2024-01-17 02:00:00","21","molfetta","10.69","1","78.53","1","0.0","1","null","6","null","6","0.0","1","null","6","41.200462","16.604997"],
    [388,"2024-01-17 03:00:00","21","molfetta","10.09","1","79.63","1","0.0","1","null","6","null","6","0.0","1","null","6","41.200462","16.604997"],
    [389,"2024-01-17 04:00:00","21","molfetta","9.0","1","83.11","1","0.0","1","null","6","null","6","0.0","1","null","6","41.200462","16.604997"],
    [390,"2024-01-17 05:00:00","21","molfetta","9.06","1","84.87","1","0.0","1","null","6","null","6","0.0","1","null","6","41.200462","16.604997"],
    [391,"2024-01-17 06:00:00","21","molfetta","9.13","1","84.39","1","0.0","1","null","6","null","6","0.0","1","null","6","41.200462","16.604997"],
    [392,"2024-01-17 07:00:00","21","molfetta","9.28","1","85.87","1","0.0","1","null","6","null","6","0.0","1","null","6","41.200462","16.604997"],
    [393,"2024-01-17 08:00:00","21","molfetta","9.93","1","85.96","1","0.0","1","null","6","null","6","9.01","1","null","6","41.200462","16.604997"],
    [394,"2024-01-17 09:00:00","21","molfetta","10.97","1","85.38","1","0.0","1","null","6","null","6","81.03","1","null","6","41.200462","16.604997"],
    [395,"2024-01-17 10:00:00","21","molfetta","13.99","1","73.63","1","0.0","1","null","6","null","6","135.16","1","null","6","41.200462","16.604997"],
    [396,"2024-01-17 11:00:00","21","molfetta","16.72","1","58.54","1","0.0","1","null","6","null","6","139.53","1","null","6","41.200462","16.604997"],
    [397,"2024-01-17 12:00:00","21","molfetta","18.43","1","52.45","1","0.0","1","null","6","null","6","151.09","1","null","6","41.200462","16.604997"],
    [398,"2024-01-17 13:00:00","21","molfetta","18.61","1","53.66","1","0.0","1","null","6","null","6","114.21","1","null","6","41.200462","16.604997"],
    [399,"2024-01-17 14:00:00","21","molfetta","18.83","1","56.66","1","0.0","1","null","6","null","6","136.69","1","null","6","41.200462","16.604997"],
    [400,"2024-01-17 15:00:00","21","molfetta","19.25","1","57.13","1","0.0","1","null","6","null","6","104.53","1","null","6","41.200462","16.604997"],
    [401,"2024-01-17 16:00:00","21","molfetta","18.13","1","62.61","1","0.0","1","null","6","null","6","30.54","1","null","6","41.200462","16.604997"],
    [402,"2024-01-17 17:00:00","21","molfetta","17.04","1","70.03","1","0.0","1","null","6","null","6","0.0","5","null","6","41.200462","16.604997"],
    [403,"2024-01-17 18:00:00","21","molfetta","15.79","1","78.19","1","0.0","1","null","6","null","6","0.0","1","null","6","41.200462","16.604997"],
    [404,"2024-01-17 19:00:00","21","molfetta","15.25","1","83.11","1","0.0","1","null","6","null","6","0.0","1","null","6","41.200462","16.604997"],
    [405,"2024-01-17 20:00:00","21","molfetta","15.29","1","76.85","1","0.0","1","null","6","null","6","0.0","1","null","6","41.200462","16.604997"],
    [406,"2024-01-17 21:00:00","21","molfetta","15.9","1","66.3","1","0.0","1","null","6","null","6","0.0","1","null","6","41.200462","16.604997"],
    [407,"2024-01-17 22:00:00","21","molfetta","15.92","1","64.0","1","0.0","1","null","6","null","6","0.0","1","null","6","41.200462","16.604997"],
    [408,"2024-01-17 23:00:00","21","molfetta","15.99","1","60.06","1","0.0","1","null","6","null","6","0.0","1","null","6","41.200462","16.604997"],
    [409,"2024-01-18 00:00:00","21","molfetta","16.1","1","57.08","1","0.0","1","null","6","null","6","0.0","1","null","6","41.200462","16.604997"],
    [410,"2024-01-18 01:00:00","21","molfetta","16.31","1","56.72","1","0.0","1","null","6","null","6","0.0","1","null","6","41.200462","16.604997"],
    [411,"2024-01-18 02:00:00","21","molfetta","16.04","1","58.92","1","0.0","1","null","6","null","6","0.0","1","null","6","41.200462","16.604997"],
    [412,"2024-01-18 03:00:00","21","molfetta","15.78","1","59.44","1","0.0","1","null","6","null","6","0.0","1","null","6","41.200462","16.604997"],
    [413,"2024-01-18 04:00:00","21","molfetta","14.58","1","64.48","1","0.0","1","null","6","null","6","0.0","1","null","6","41.200462","16.604997"],
    [414,"2024-01-18 05:00:00","21","molfetta","15.22","1","60.59","1","0.0","1","null","6","null","6","0.0","1","null","6","41.200462","16.604997"],
    [415,"2024-01-18 06:00:00","21","molfetta","15.05","1","59.34","1","0.0","1","null","6","null","6","0.0","1","null","6","41.200462","16.604997"],
    [416,"2024-01-18 07:00:00","21","molfetta","15.01","1","57.91","1","0.0","1","null","6","null","6","0.0","1","null","6","41.200462","16.604997"],
    [417,"2024-01-18 08:00:00","21","molfetta","14.45","1","61.71","1","0.0","1","null","6","null","6","6.04","1","null","6","41.200462","16.604997"],
    [418,"2024-01-18 09:00:00","21","molfetta","16.0","1","59.19","1","0.0","1","null","6","null","6","111.09","1","null","6","41.200462","16.604997"],
    [419,"2024-01-18 10:00:00","21","molfetta","19.01","1","51.53","1","0.0","1","null","6","null","6","120.61","1","null","6","41.200462","16.604997"],
    [420,"2024-01-18 11:00:00","21","molfetta","19.8","1","48.4","1","0.0","1","null","6","null","6","80.21","1","null","6","41.200462","16.604997"],
    [421,"2024-01-18 12:00:00","21","molfetta","21.27","1","43.68","1","0.0","1","null","6","null","6","229.15","1","null","6","41.200462","16.604997"],
    [422,"2024-01-18 13:00:00","21","molfetta","22.38","1","39.35","1","0.0","1","null","6","null","6","111.08","1","null","6","41.200462","16.604997"],
    [423,"2024-01-18 14:00:00","21","molfetta","21.52","1","41.66","1","0.0","1","null","6","null","6","65.88","1","null","6","41.200462","16.604997"],
    [424,"2024-01-18 15:00:00","21","molfetta","21.59","1","41.73","1","0.0","1","null","6","null","6","80.99","1","null","6","41.200462","16.604997"],
    [425,"2024-01-18 16:00:00","21","molfetta","20.84","1","35.23","1","0.0","1","null","6","null","6","29.09","1","null","6","41.200462","16.604997"],
    [426,"2024-01-18 17:00:00","21","molfetta","19.85","1","38.09","1","0.0","1","null","6","null","6","11.22","1","null","6","41.200462","16.604997"],
    [427,"2024-01-18 18:00:00","21","molfetta","18.67","1","41.0","1","0.0","1","null","6","null","6","0.0","5","null","6","41.200462","16.604997"],
    [428,"2024-01-18 19:00:00","21","molfetta","17.3","1","46.48","1","0.0","1","null","6","null","6","0.0","1","null","6","41.200462","16.604997"],
    [429,"2024-01-18 20:00:00","21","molfetta","17.12","1","52.14","1","0.0","1","null","6","null","6","0.0","1","null","6","41.200462","16.604997"],
    [430,"2024-01-18 21:00:00","21","molfetta","16.47","1","54.01","1","0.0","1","null","6","null","6","0.0","1","null","6","41.200462","16.604997"],
    [431,"2024-01-18 22:00:00","21","molfetta","17.39","1","42.74","1","0.0","1","null","6","null","6","0.0","1","null","6","41.200462","16.604997"],
    [432,"2024-01-18 23:00:00","21","molfetta","17.28","1","46.77","1","0.0","1","null","6","null","6","0.0","1","null","6","41.200462","16.604997"],
    [433,"2024-01-19 00:00:00","21","molfetta","17.27","1","46.82","1","0.0","1","null","6","null","6","0.0","1","null","6","41.200462","16.604997"],
    [434,"2024-01-19 01:00:00","21","molfetta","17.12","1","47.07","1","0.0","1","null","6","null","6","0.0","1","null","6","41.200462","16.604997"],
    [435,"2024-01-19 02:00:00","21","molfetta","16.13","1","49.96","1","0.0","1","null","6","null","6","0.0","1","null","6","41.200462","16.604997"],
    [436,"2024-01-19 03:00:00","21","molfetta","15.34","1","52.76","1","0.0","1","null","6","null","6","0.0","1","null","6","41.200462","16.604997"],
    [437,"2024-01-19 04:00:00","21","molfetta","15.29","1","50.89","1","0.0","1","null","6","null","6","0.0","1","null","6","41.200462","16.604997"],
    [438,"2024-01-19 05:00:00","21","molfetta","15.91","1","48.23","1","0.0","1","null","6","null","6","0.0","1","null","6","41.200462","16.604997"],
    [439,"2024-01-19 06:00:00","21","molfetta","16.02","1","47.49","1","0.0","1","null","6","null","6","0.0","1","null","6","41.200462","16.604997"],
    [440,"2024-01-19 07:00:00","21","molfetta","14.96","1","52.04","1","0.0","1","null","6","null","6","0.0","1","null","6","41.200462","16.604997"],
    [441,"2024-01-19 08:00:00","21","molfetta","14.27","1","55.31","1","0.0","1","null","6","null","6","5.64","1","null","6","41.200462","16.604997"],
    [442,"2024-01-19 09:00:00","21","molfetta","16.88","1","47.69","1","0.0","1","null","6","null","6","106.93","1","null","6","41.200462","16.604997"],
    [443,"2024-01-19 10:00:00","21","molfetta","19.26","1","40.95","1","0.0","1","null","6","null","6","134.7","1","null","6","41.200462","16.604997"],
    [444,"2024-01-19 11:00:00","21","molfetta","19.58","1","41.55","1","0.0","1","null","6","null","6","102.6","1","null","6","41.200462","16.604997"],
    [445,"2024-01-19 12:00:00","21","molfetta","20.76","1","40.14","1","0.0","1","null","6","null","6","239.64","1","null","6","41.200462","16.604997"],
    [446,"2024-01-19 13:00:00","21","molfetta","21.35","1","39.4","1","0.0","1","null","6","null","6","198.72","1","null","6","41.200462","16.604997"],
    [447,"2024-01-19 14:00:00","21","molfetta","20.85","1","40.57","1","0.0","1","null","6","null","6","153.18","1","null","6","41.200462","16.604997"],
    [448,"2024-01-19 15:00:00","21","molfetta","20.62","1","41.59","1","0.0","1","null","6","null","6","105.11","1","null","6","41.200462","16.604997"],
    [449,"2024-01-19 16:00:00","21","molfetta","20.1","1","41.45","1","0.0","1","null","6","null","6","51.97","1","null","6","41.200462","16.604997"],
    [450,"2024-01-19 17:00:00","21","molfetta","19.31","1","47.0","1","0.0","1","null","6","null","6","16.21","1","null","6","41.200462","16.604997"],
    [451,"2024-01-19 18:00:00","21","molfetta","18.68","1","47.71","1","0.0","1","null","6","null","6","0.0","1","null","6","41.200462","16.604997"],
    [452,"2024-01-19 19:00:00","21","molfetta","18.1","1","50.05","1","0.0","1","null","6","null","6","0.0","1","null","6","41.200462","16.604997"],
    [453,"2024-01-19 20:00:00","21","molfetta","17.57","1","49.57","1","0.0","1","null","6","null","6","0.0","1","null","6","41.200462","16.604997"],
    [454,"2024-01-19 21:00:00","21","molfetta","17.39","1","49.18","1","0.0","1","null","6","null","6","0.0","1","null","6","41.200462","16.604997"],
    [455,"2024-01-19 22:00:00","21","molfetta","17.29","1","51.03","1","0.0","1","null","6","null","6","0.0","1","null","6","41.200462","16.604997"],
    [456,"2024-01-19 23:00:00","21","molfetta","16.81","1","57.46","1","0.0","1","null","6","null","6","0.0","1","null","6","41.200462","16.604997"],
    [457,"2024-01-20 00:00:00","21","molfetta","15.15","1","71.26","1","0.0","1","null","6","null","6","0.0","5","null","6","41.200462","16.604997"],
    [458,"2024-01-20 01:00:00","21","molfetta","12.85","1","86.74","1","0.2","1","null","6","null","6","0.0","1","null","6","41.200462","16.604997"],
    [459,"2024-01-20 02:00:00","21","molfetta","11.76","1","89.25","1","0.6","1","null","6","null","6","0.0","1","null","6","41.200462","16.604997"],
    [460,"2024-01-20 03:00:00","21","molfetta","11.54","1","87.29","1","0.0","1","null","6","null","6","0.0","5","null","6","41.200462","16.604997"],
    [461,"2024-01-20 04:00:00","21","molfetta","11.35","1","82.79","1","0.0","1","null","6","null","6","0.0","5","null","6","41.200462","16.604997"],
    [462,"2024-01-20 05:00:00","21","molfetta","11.13","1","78.97","1","0.0","1","null","6","null","6","0.0","5","null","6","41.200462","16.604997"],
    [463,"2024-01-20 06:00:00","21","molfetta","9.81","1","82.26","1","0.6","1","null","6","null","6","0.0","1","null","6","41.200462","16.604997"],
    [464,"2024-01-20 07:00:00","21","molfetta","8.67","1","85.3","1","0.0","1","null","6","null","6","0.0","1","null","6","41.200462","16.604997"],
    [465,"2024-01-20 08:00:00","21","molfetta","8.39","1","82.78","1","0.4","1","null","6","null","6","0.0","5","null","6","41.200462","16.604997"],
    [466,"2024-01-20 09:00:00","21","molfetta","7.98","1","84.45","1","1.0","1","null","6","null","6","9.33","1","null","6","41.200462","16.604997"],
    [467,"2024-01-20 10:00:00","21","molfetta","7.58","1","85.06","1","1.4","1","null","6","null","6","23.42","1","null","6","41.200462","16.604997"],
    [468,"2024-01-20 11:00:00","21","molfetta","7.38","1","84.54","1","1.0","1","null","6","null","6","25.35","1","null","6","41.200462","16.604997"],
    [469,"2024-01-20 12:00:00","21","molfetta","7.56","1","84.7","1","1.0","1","null","6","null","6","78.37","1","null","6","41.200462","16.604997"],
    [470,"2024-01-20 13:00:00","21","molfetta","7.33","1","87.0","1","1.4","1","null","6","null","6","53.51","1","null","6","41.200462","16.604997"],
    [471,"2024-01-20 14:00:00","21","molfetta","7.34","1","86.71","1","0.6","1","null","6","null","6","51.54","1","null","6","41.200462","16.604997"],
    [472,"2024-01-20 15:00:00","21","molfetta","8.16","1","73.92","1","0.0","1","null","6","null","6","58.62","1","null","6","41.200462","16.604997"],
    [473,"2024-01-20 16:00:00","21","molfetta","8.8","1","62.28","1","0.0","1","null","6","null","6","31.64","1","null","6","41.200462","16.604997"],
    [474,"2024-01-20 17:00:00","21","molfetta","9.21","1","55.83","1","0.0","1","null","6","null","6","8.27","1","null","6","41.200462","16.604997"],
    [475,"2024-01-20 18:00:00","21","molfetta","9.46","1","49.33","1","0.0","1","null","6","null","6","0.0","1","null","6","41.200462","16.604997"],
    [476,"2024-01-20 19:00:00","21","molfetta","9.34","1","46.48","1","0.0","1","null","6","null","6","0.0","1","null","6","41.200462","16.604997"],
    [477,"2024-01-20 20:00:00","21","molfetta","9.11","1","44.11","1","0.0","1","null","6","null","6","0.0","1","null","6","41.200462","16.604997"],
    [478,"2024-01-20 21:00:00","21","molfetta","9.0","1","42.17","1","0.0","1","null","6","null","6","0.0","1","null","6","41.200462","16.604997"],
    [479,"2024-01-20 22:00:00","21","molfetta","8.95","1","41.98","1","0.0","1","null","6","null","6","0.0","1","null","6","41.200462","16.604997"],
    [480,"2024-01-20 23:00:00","21","molfetta","8.85","1","43.74","1","0.0","1","null","6","null","6","0.0","1","null","6","41.200462","16.604997"],
    [481,"2024-01-21 00:00:00","21","molfetta","8.78","1","44.2","1","0.0","1","null","6","null","6","0.0","1","null","6","41.200462","16.604997"],
    [482,"2024-01-21 01:00:00","21","molfetta","8.63","1","42.5","1","0.0","1","null","6","null","6","0.0","1","null","6","41.200462","16.604997"],
    [483,"2024-01-21 02:00:00","21","molfetta","8.73","1","40.69","1","0.0","1","null","6","null","6","0.0","1","null","6","41.200462","16.604997"],
    [484,"2024-01-21 03:00:00","21","molfetta","8.8","1","39.36","1","0.0","1","null","6","null","6","0.0","1","null","6","41.200462","16.604997"],
    [485,"2024-01-21 04:00:00","21","molfetta","7.8","1","45.34","1","0.0","1","null","6","null","6","0.0","1","null","6","41.200462","16.604997"],
    [486,"2024-01-21 05:00:00","21","molfetta","8.0","1","43.22","1","0.0","1","null","6","null","6","0.0","1","null","6","41.200462","16.604997"],
    [487,"2024-01-21 06:00:00","21","molfetta","5.78","1","54.25","1","0.0","1","null","6","null","6","0.0","1","null","6","41.200462","16.604997"],
    [488,"2024-01-21 07:00:00","21","molfetta","8.09","1","43.26","1","0.0","1","null","6","null","6","0.0","1","null","6","41.200462","16.604997"],
    [489,"2024-01-21 08:00:00","21","molfetta","8.83","1","42.4","1","0.0","1","null","6","null","6","7.26","1","null","6","41.200462","16.604997"],
    [490,"2024-01-21 09:00:00","21","molfetta","9.51","1","38.94","1","0.0","1","null","6","null","6","125.9","1","null","6","41.200462","16.604997"],
    [491,"2024-01-21 10:00:00","21","molfetta","10.35","1","38.42","1","0.0","1","null","6","null","6","146.05","1","null","6","41.200462","16.604997"],
    [492,"2024-01-21 11:00:00","21","molfetta","10.17","1","37.81","1","0.0","1","null","6","null","6","71.72","1","null","6","41.200462","16.604997"],
    [493,"2024-01-21 12:00:00","21","molfetta","10.76","1","36.79","1","0.0","1","null","6","null","6","285.55","1","null","6","41.200462","16.604997"],
    [494,"2024-01-21 13:00:00","21","molfetta","11.25","1","35.33","1","0.0","1","null","6","null","6","110.39","1","null","6","41.200462","16.604997"],
    [495,"2024-01-21 14:00:00","21","molfetta","10.8","1","34.82","1","0.0","1","null","6","null","6","47.16","1","null","6","41.200462","16.604997"],
    [496,"2024-01-21 15:00:00","21","molfetta","10.94","1","41.11","1","0.0","1","null","6","null","6","38.86","1","null","6","41.200462","16.604997"],
    [497,"2024-01-21 16:00:00","21","molfetta","11.08","1","43.01","1","0.0","1","null","6","null","6","28.7","1","null","6","41.200462","16.604997"],
    [498,"2024-01-21 17:00:00","21","molfetta","10.96","1","39.77","1","0.0","1","null","6","null","6","12.21","1","null","6","41.200462","16.604997"],
    [499,"2024-01-21 18:00:00","21","molfetta","11.19","1","39.64","1","0.0","1","null","6","null","6","0.0","5","null","6","41.200462","16.604997"],
    [500,"2024-01-21 19:00:00","21","molfetta","11.34","1","40.28","1","0.0","1","null","6","null","6","0.0","1","null","6","41.200462","16.604997"],
    [501,"2024-01-21 20:00:00","21","molfetta","11.34","1","38.17","1","0.0","1","null","6","null","6","0.0","1","null","6","41.200462","16.604997"],
    [502,"2024-01-21 21:00:00","21","molfetta","9.63","1","45.36","1","0.0","1","null","6","null","6","0.0","1","null","6","41.200462","16.604997"],
    [503,"2024-01-21 22:00:00","21","molfetta","7.73","1","54.3","1","0.0","1","null","6","null","6","0.0","1","null","6","41.200462","16.604997"],
    [504,"2024-01-21 23:00:00","21","molfetta","7.19","1","60.09","1","0.0","1","null","6","null","6","0.0","1","null","6","41.200462","16.604997"],
    [505,"2024-01-22 00:00:00","21","molfetta","6.87","1","65.36","1","0.0","1","null","6","null","6","0.0","1","null","6","41.200462","16.604997"],
    [506,"2024-01-22 01:00:00","21","molfetta","6.59","1","69.67","1","0.0","1","null","6","null","6","0.0","1","null","6","41.200462","16.604997"],
    [507,"2024-01-22 02:00:00","21","molfetta","6.33","1","72.73","1","0.0","1","null","6","null","6","0.0","1","null","6","41.200462","16.604997"],
    [508,"2024-01-22 03:00:00","21","molfetta","6.31","1","73.95","1","0.0","1","null","6","null","6","0.0","1","null","6","41.200462","16.604997"],
    [509,"2024-01-22 04:00:00","21","molfetta","6.21","1","73.9","1","0.0","1","null","6","null","6","0.0","1","null","6","41.200462","16.604997"],
    [510,"2024-01-22 05:00:00","21","molfetta","5.95","1","74.92","1","0.0","1","null","6","null","6","0.0","1","null","6","41.200462","16.604997"],
    [511,"2024-01-22 06:00:00","21","molfetta","5.82","1","73.67","1","0.0","1","null","6","null","6","0.0","1","null","6","41.200462","16.604997"],
    [512,"2024-01-22 07:00:00","21","molfetta","5.87","1","71.91","1","0.0","1","null","6","null","6","0.0","1","null","6","41.200462","16.604997"],
    [513,"2024-01-22 08:00:00","21","molfetta","6.03","1","69.63","1","0.0","1","null","6","null","6","7.77","1","null","6","41.200462","16.604997"],
    [514,"2024-01-22 09:00:00","21","molfetta","7.32","1","64.5","1","0.0","1","null","6","null","6","124.69","1","null","6","41.200462","16.604997"],
    [515,"2024-01-22 10:00:00","21","molfetta","9.58","1","56.16","1","0.0","1","null","6","null","6","147.06","1","null","6","41.200462","16.604997"],
    [516,"2024-01-22 11:00:00","21","molfetta","10.42","1","52.85","1","0.0","1","null","6","null","6","68.59","1","null","6","41.200462","16.604997"],
    [517,"2024-01-22 12:00:00","21","molfetta","12.22","1","49.1","1","0.0","1","null","6","null","6","292.04","1","null","6","41.200462","16.604997"],
    [518,"2024-01-22 13:00:00","21","molfetta","12.66","1","53.45","1","0.0","1","null","6","null","6","116.03","1","null","6","41.200462","16.604997"],
    [519,"2024-01-22 14:00:00","21","molfetta","11.78","1","56.69","1","0.0","1","null","6","null","6","46.32","1","null","6","41.200462","16.604997"],
    [520,"2024-01-22 15:00:00","21","molfetta","11.78","1","55.97","1","0.0","1","null","6","null","6","37.67","1","null","6","41.200462","16.604997"],
    [521,"2024-01-22 16:00:00","21","molfetta","11.44","1","60.51","1","0.0","1","null","6","null","6","28.64","1","null","6","41.200462","16.604997"],
    [522,"2024-01-22 17:00:00","21","molfetta","10.79","1","60.76","1","0.0","1","null","6","null","6","12.21","1","null","6","41.200462","16.604997"],
    [523,"2024-01-22 18:00:00","21","molfetta","9.96","1","63.99","1","0.0","1","null","6","null","6","0.0","5","null","6","41.200462","16.604997"],
    [524,"2024-01-22 19:00:00","21","molfetta","9.07","1","66.24","1","0.0","1","null","6","null","6","0.0","1","null","6","41.200462","16.604997"],
    [525,"2024-01-22 20:00:00","21","molfetta","7.78","1","69.07","1","0.0","1","null","6","null","6","0.0","1","null","6","41.200462","16.604997"],
    [526,"2024-01-22 21:00:00","21","molfetta","7.02","1","72.22","1","0.0","1","null","6","null","6","0.0","1","null","6","41.200462","16.604997"],
    [527,"2024-01-22 22:00:00","21","molfetta","6.52","1","74.28","1","0.0","1","null","6","null","6","0.0","1","null","6","41.200462","16.604997"],
    [528,"2024-01-22 23:00:00","21","molfetta","6.07","1","75.67","1","0.0","1","null","6","null","6","0.0","1","null","6","41.200462","16.604997"],
    [529,"2024-01-23 00:00:00","21","molfetta","5.7","1","73.54","1","0.0","1","null","6","null","6","0.0","1","null","6","41.200462","16.604997"],
    [530,"2024-01-23 01:00:00","21","molfetta","5.57","1","69.66","1","0.0","1","null","6","null","6","0.0","1","null","6","41.200462","16.604997"],
    [531,"2024-01-23 02:00:00","21","molfetta","5.74","1","62.64","1","0.0","1","null","6","null","6","0.0","1","null","6","41.200462","16.604997"],
    [532,"2024-01-23 03:00:00","21","molfetta","6.46","1","55.29","1","0.0","1","null","6","null","6","0.0","1","null","6","41.200462","16.604997"],
    [533,"2024-01-23 04:00:00","21","molfetta","6.74","1","50.72","1","0.0","1","null","6","null","6","0.0","1","null","6","41.200462","16.604997"],
    [534,"2024-01-23 05:00:00","21","molfetta","7.31","1","49.05","1","0.0","1","null","6","null","6","0.0","1","null","6","41.200462","16.604997"],
    [535,"2024-01-23 06:00:00","21","molfetta","8.29","1","53.32","1","0.0","1","null","6","null","6","0.0","1","null","6","41.200462","16.604997"],
    [536,"2024-01-23 07:00:00","21","molfetta","9.19","1","60.63","1","0.0","1","null","6","null","6","0.0","1","null","6","41.200462","16.604997"],
    [537,"2024-01-23 08:00:00","21","molfetta","9.24","1","62.02","1","0.0","1","null","6","null","6","0.0","5","null","6","41.200462","16.604997"],
    [538,"2024-01-23 09:00:00","21","molfetta","9.42","1","59.93","1","0.0","1","null","6","null","6","101.88","1","null","6","41.200462","16.604997"],
    [539,"2024-01-23 10:00:00","21","molfetta","10.32","1","53.21","1","0.0","1","null","6","null","6","69.24","1","null","6","41.200462","16.604997"],
    [540,"2024-01-23 11:00:00","21","molfetta","11.03","1","51.61","1","0.0","1","null","6","null","6","126.33","1","null","6","41.200462","16.604997"],
    [541,"2024-01-23 12:00:00","21","molfetta","11.98","1","54.12","1","0.0","1","null","6","null","6","135.11","1","null","6","41.200462","16.604997"],
    [542,"2024-01-23 13:00:00","21","molfetta","11.89","1","60.71","1","0.0","1","null","6","null","6","78.79","1","null","6","41.200462","16.604997"],
    [543,"2024-01-23 14:00:00","21","molfetta","11.5","1","66.35","1","0.0","1","null","6","null","6","55.09","1","null","6","41.200462","16.604997"],
    [544,"2024-01-23 15:00:00","21","molfetta","11.28","1","69.75","1","0.0","1","null","6","null","6","37.93","1","null","6","41.200462","16.604997"],
    [545,"2024-01-23 16:00:00","21","molfetta","10.34","1","78.07","1","0.2","1","null","6","null","6","19.74","1","null","6","41.200462","16.604997"],
    [546,"2024-01-23 17:00:00","21","molfetta","10.84","1","75.9","1","0.0","1","null","6","null","6","12.08","1","null","6","41.200462","16.604997"],
    [547,"2024-01-23 18:00:00","21","molfetta","11.97","1","75.98","1","0.0","1","null","6","null","6","0.0","5","null","6","41.200462","16.604997"],
    [548,"2024-01-23 19:00:00","21","molfetta","11.96","1","78.35","1","0.0","1","null","6","null","6","0.0","1","null","6","41.200462","16.604997"],
    [549,"2024-01-23 20:00:00","21","molfetta","12.0","1","77.21","1","0.0","1","null","6","null","6","0.0","1","null","6","41.200462","16.604997"],
    [550,"2024-01-23 21:00:00","21","molfetta","11.07","1","78.37","1","0.0","1","null","6","null","6","0.0","1","null","6","41.200462","16.604997"],
    [551,"2024-01-23 22:00:00","21","molfetta","9.27","1","83.17","1","0.0","1","null","6","null","6","0.0","1","null","6","41.200462","16.604997"],
    [552,"2024-01-23 23:00:00","21","molfetta","9.6","1","84.97","1","0.0","1","null","6","null","6","0.0","1","null","6","41.200462","16.604997"],
    [553,"2024-01-24 00:00:00","21","molfetta","10.17","1","86.35","1","0.0","1","null","6","null","6","0.0","1","null","6","41.200462","16.604997"],
    [554,"2024-01-24 01:00:00","21","molfetta","10.37","1","84.84","1","0.0","1","null","6","null","6","0.0","5","null","6","41.200462","16.604997"],
    [555,"2024-01-24 02:00:00","21","molfetta","10.28","1","83.7","1","0.0","1","null","6","null","6","0.0","1","null","6","41.200462","16.604997"],
    [556,"2024-01-24 03:00:00","21","molfetta","10.17","1","73.29","1","0.0","1","null","6","null","6","0.0","1","null","6","41.200462","16.604997"],
    [557,"2024-01-24 04:00:00","21","molfetta","12.24","1","52.39","1","0.0","1","null","6","null","6","0.0","1","null","6","41.200462","16.604997"],
    [558,"2024-01-24 05:00:00","21","molfetta","10.17","1","66.09","1","0.0","1","null","6","null","6","0.0","1","null","6","41.200462","16.604997"],
    [559,"2024-01-24 06:00:00","21","molfetta","11.66","1","55.97","1","0.0","1","null","6","null","6","0.0","1","null","6","41.200462","16.604997"],
    [560,"2024-01-24 07:00:00","21","molfetta","11.64","1","52.57","1","0.0","1","null","6","null","6","0.0","1","null","6","41.200462","16.604997"],
    [561,"2024-01-24 08:00:00","21","molfetta","10.81","1","55.72","1","0.0","1","null","6","null","6","9.07","1","null","6","41.200462","16.604997"],
    [562,"2024-01-24 09:00:00","21","molfetta","9.46","1","66.79","1","0.0","1","null","6","null","6","118.43","1","null","6","41.200462","16.604997"],
    [563,"2024-01-24 10:00:00","21","molfetta","11.64","1","59.93","1","0.0","1","null","6","null","6","175.07","1","null","6","41.200462","16.604997"],
    [564,"2024-01-24 11:00:00","21","molfetta","12.07","1","57.76","1","0.0","1","null","6","null","6","70.62","1","null","6","41.200462","16.604997"],
    [565,"2024-01-24 12:00:00","21","molfetta","13.42","1","54.0","1","0.0","1","null","6","null","6","299.85","1","null","6","41.200462","16.604997"],
    [566,"2024-01-24 13:00:00","21","molfetta","14.12","1","48.81","1","0.0","1","null","6","null","6","155.34","1","null","6","41.200462","16.604997"],
    [567,"2024-01-24 14:00:00","21","molfetta","13.35","1","51.65","1","0.0","1","null","6","null","6","44.94","1","null","6","41.200462","16.604997"],
    [568,"2024-01-24 15:00:00","21","molfetta","13.0","1","53.09","1","0.0","1","null","6","null","6","37.02","1","null","6","41.200462","16.604997"],
    [569,"2024-01-24 16:00:00","21","molfetta","12.51","1","53.73","1","0.0","1","null","6","null","6","30.81","1","null","6","41.200462","16.604997"],
    [570,"2024-01-24 17:00:00","21","molfetta","12.34","1","54.8","1","0.0","1","null","6","null","6","26.29","1","null","6","41.200462","16.604997"],
    [571,"2024-01-24 18:00:00","21","molfetta","11.77","1","60.72","1","0.0","1","null","6","null","6","0.0","5","null","6","41.200462","16.604997"],
    [572,"2024-01-24 19:00:00","21","molfetta","11.11","1","64.31","1","0.0","1","null","6","null","6","0.0","1","null","6","41.200462","16.604997"],
    [573,"2024-01-24 20:00:00","21","molfetta","10.61","1","63.6","1","0.0","1","null","6","null","6","0.0","1","null","6","41.200462","16.604997"],
    [574,"2024-01-24 21:00:00","21","molfetta","10.28","1","59.54","1","0.0","1","null","6","null","6","0.0","1","null","6","41.200462","16.604997"],
    [575,"2024-01-24 22:00:00","21","molfetta","9.93","1","57.57","1","0.0","1","null","6","null","6","0.0","1","null","6","41.200462","16.604997"],
    [576,"2024-01-24 23:00:00","21","molfetta","10.13","1","51.6","1","0.0","1","null","6","null","6","0.0","1","null","6","41.200462","16.604997"],
    [577,"2024-01-25 00:00:00","21","molfetta","9.61","1","53.06","1","0.0","1","null","6","null","6","0.0","1","null","6","41.200462","16.604997"],
    [578,"2024-01-25 01:00:00","21","molfetta","9.51","1","53.57","1","0.0","1","null","6","null","6","0.0","1","null","6","41.200462","16.604997"],
    [579,"2024-01-25 02:00:00","21","molfetta","9.65","1","52.52","1","0.0","1","null","6","null","6","0.0","1","null","6","41.200462","16.604997"],
    [580,"2024-01-25 03:00:00","21","molfetta","9.34","1","56.54","1","0.0","1","null","6","null","6","0.0","1","null","6","41.200462","16.604997"],
    [581,"2024-01-25 04:00:00","21","molfetta","8.55","1","63.04","1","0.0","1","null","6","null","6","0.0","1","null","6","41.200462","16.604997"],
    [582,"2024-01-25 05:00:00","21","molfetta","8.23","1","65.42","1","0.0","1","null","6","null","6","0.0","1","null","6","41.200462","16.604997"],
    [583,"2024-01-25 06:00:00","21","molfetta","7.89","1","67.27","1","0.0","1","null","6","null","6","0.0","1","null","6","41.200462","16.604997"],
    [584,"2024-01-25 07:00:00","21","molfetta","7.59","1","68.75","1","0.0","1","null","6","null","6","0.0","1","null","6","41.200462","16.604997"],
    [585,"2024-01-25 08:00:00","21","molfetta","8.19","1","66.52","1","0.0","1","null","6","null","6","12.86","1","null","6","41.200462","16.604997"],
    [586,"2024-01-25 09:00:00","21","molfetta","11.32","1","53.19","1","0.0","1","null","6","null","6","124.48","1","null","6","41.200462","16.604997"],
    [587,"2024-01-25 10:00:00","21","molfetta","15.1","1","46.6","1","0.0","1","null","6","null","6","196.89","1","null","6","41.200462","16.604997"],
    [588,"2024-01-25 11:00:00","21","molfetta","13.58","1","55.7","1","0.0","1","null","6","null","6","82.91","1","null","6","41.200462","16.604997"],
    [589,"2024-01-25 12:00:00","21","molfetta","14.28","1","60.55","1","0.0","1","null","6","null","6","309.18","1","null","6","41.200462","16.604997"],
    [590,"2024-01-25 13:00:00","21","molfetta","14.46","1","64.58","1","0.0","1","null","6","null","6","161.45","1","null","6","41.200462","16.604997"],
    [591,"2024-01-25 14:00:00","21","molfetta","13.38","1","69.89","1","0.0","1","null","6","null","6","49.91","1","null","6","41.200462","16.604997"],
    [592,"2024-01-25 15:00:00","21","molfetta","13.74","1","77.78","1","0.0","1","null","6","null","6","44.38","1","null","6","41.200462","16.604997"],
    [593,"2024-01-25 16:00:00","21","molfetta","13.43","1","77.19","1","0.0","1","null","6","null","6","35.35","1","null","6","41.200462","16.604997"],
    [594,"2024-01-25 17:00:00","21","molfetta","13.4","1","72.46","1","0.0","1","null","6","null","6","24.0","1","null","6","41.200462","16.604997"],
    [595,"2024-01-25 18:00:00","21","molfetta","13.0","1","81.32","1","0.0","1","null","6","null","6","0.0","5","null","6","41.200462","16.604997"],
    [596,"2024-01-25 19:00:00","21","molfetta","12.04","1","85.73","1","0.0","1","null","6","null","6","0.0","1","null","6","41.200462","16.604997"],
    [597,"2024-01-25 20:00:00","21","molfetta","11.3","1","83.5","1","0.0","1","null","6","null","6","0.0","1","null","6","41.200462","16.604997"],
    [598,"2024-01-25 21:00:00","21","molfetta","10.94","1","77.02","1","0.0","1","null","6","null","6","0.0","1","null","6","41.200462","16.604997"],
    [599,"2024-01-25 22:00:00","21","molfetta","10.43","1","77.4","1","0.0","1","null","6","null","6","0.0","1","null","6","41.200462","16.604997"],
    [600,"2024-01-25 23:00:00","21","molfetta","10.49","1","83.6","1","0.0","1","null","6","null","6","0.0","1","null","6","41.200462","16.604997"],
    [601,"2024-01-26 00:00:00","21","molfetta","10.31","1","84.56","1","0.0","1","null","6","null","6","0.0","1","null","6","41.200462","16.604997"],
    [602,"2024-01-26 01:00:00","21","molfetta","10.02","1","83.26","1","0.0","1","null","6","null","6","0.0","1","null","6","41.200462","16.604997"],
    [603,"2024-01-26 02:00:00","21","molfetta","10.09","1","75.0","1","0.0","1","null","6","null","6","0.0","1","null","6","41.200462","16.604997"],
    [604,"2024-01-26 03:00:00","21","molfetta","9.88","1","70.21","1","0.0","1","null","6","null","6","0.0","1","null","6","41.200462","16.604997"],
    [605,"2024-01-26 04:00:00","21","molfetta","9.86","1","67.01","1","0.0","1","null","6","null","6","0.0","1","null","6","41.200462","16.604997"],
    [606,"2024-01-26 05:00:00","21","molfetta","9.41","1","66.75","1","0.0","1","null","6","null","6","0.0","1","null","6","41.200462","16.604997"],
    [607,"2024-01-26 06:00:00","21","molfetta","8.15","1","71.21","1","0.0","1","null","6","null","6","0.0","1","null","6","41.200462","16.604997"],
    [608,"2024-01-26 07:00:00","21","molfetta","7.28","1","73.4","1","0.0","1","null","6","null","6","0.0","1","null","6","41.200462","16.604997"],
    [609,"2024-01-26 08:00:00","21","molfetta","6.97","1","74.74","1","0.0","1","null","6","null","6","9.54","1","null","6","41.200462","16.604997"],
    [610,"2024-01-26 09:00:00","21","molfetta","8.91","1","71.79","1","0.0","1","null","6","null","6","123.47","1","null","6","41.200462","16.604997"],
    [611,"2024-01-26 10:00:00","21","molfetta","14.16","1","55.58","1","0.0","1","null","6","null","6","221.15","1","null","6","41.200462","16.604997"],
    [612,"2024-01-26 11:00:00","21","molfetta","12.46","1","58.06","1","0.0","1","null","6","null","6","105.32","1","null","6","41.200462","16.604997"],
    [613,"2024-01-26 12:00:00","21","molfetta","13.57","1","53.79","1","0.0","1","null","6","null","6","329.01","1","null","6","41.200462","16.604997"],
    [614,"2024-01-26 13:00:00","21","molfetta","15.64","1","52.98","1","0.0","1","null","6","null","6","164.49","1","null","6","41.200462","16.604997"],
    [615,"2024-01-26 14:00:00","21","molfetta","13.02","1","65.4","1","0.0","1","null","6","null","6","47.26","1","null","6","41.200462","16.604997"],
    [616,"2024-01-26 15:00:00","21","molfetta","13.17","1","68.14","1","0.0","1","null","6","null","6","38.52","1","null","6","41.200462","16.604997"],
    [617,"2024-01-26 16:00:00","21","molfetta","12.99","1","70.89","1","0.0","1","null","6","null","6","29.57","1","null","6","41.200462","16.604997"],
    [618,"2024-01-26 17:00:00","21","molfetta","12.17","1","70.74","1","0.0","1","null","6","null","6","13.68","1","null","6","41.200462","16.604997"],
    [619,"2024-01-26 18:00:00","21","molfetta","11.69","1","67.7","1","0.0","1","null","6","null","6","0.0","5","null","6","41.200462","16.604997"],
    [620,"2024-01-26 19:00:00","21","molfetta","11.24","1","66.12","1","0.0","1","null","6","null","6","0.0","1","null","6","41.200462","16.604997"],
    [621,"2024-01-26 20:00:00","21","molfetta","10.83","1","64.88","1","0.0","1","null","6","null","6","0.0","1","null","6","41.200462","16.604997"],
    [622,"2024-01-26 21:00:00","21","molfetta","10.23","1","66.83","1","0.0","1","null","6","null","6","0.0","1","null","6","41.200462","16.604997"],
    [623,"2024-01-26 22:00:00","21","molfetta","9.94","1","67.69","1","0.0","1","null","6","null","6","0.0","1","null","6","41.200462","16.604997"],
    [624,"2024-01-26 23:00:00","21","molfetta","9.98","1","67.11","1","0.0","1","null","6","null","6","0.0","1","null","6","41.200462","16.604997"],
    [625,"2024-01-27 00:00:00","21","molfetta","10.06","1","70.81","1","0.0","1","null","6","null","6","0.0","1","null","6","41.200462","16.604997"],
    [626,"2024-01-27 01:00:00","21","molfetta","10.12","1","75.89","1","0.0","1","null","6","null","6","0.0","1","null","6","41.200462","16.604997"],
    [627,"2024-01-27 02:00:00","21","molfetta","9.83","1","73.72","1","0.0","1","null","6","null","6","0.0","1","null","6","41.200462","16.604997"],
    [628,"2024-01-27 03:00:00","21","molfetta","9.57","1","75.87","1","0.0","1","null","6","null","6","0.0","1","null","6","41.200462","16.604997"],
    [629,"2024-01-27 04:00:00","21","molfetta","9.22","1","81.26","1","0.0","1","null","6","null","6","0.0","1","null","6","41.200462","16.604997"],
    [630,"2024-01-27 05:00:00","21","molfetta","8.8","1","86.61","1","0.0","1","null","6","null","6","0.0","1","null","6","41.200462","16.604997"],
    [631,"2024-01-27 06:00:00","21","molfetta","9.08","1","89.17","1","0.0","1","null","6","null","6","0.0","1","null","6","41.200462","16.604997"],
    [632,"2024-01-27 07:00:00","21","molfetta","8.94","1","87.23","1","0.0","1","null","6","null","6","0.0","1","null","6","41.200462","16.604997"],
    [633,"2024-01-27 08:00:00","21","molfetta","9.42","1","87.21","1","0.0","1","null","6","null","6","7.06","1","null","6","41.200462","16.604997"],
    [634,"2024-01-27 09:00:00","21","molfetta","10.29","1","87.62","1","0.0","1","null","6","null","6","45.88","1","null","6","41.200462","16.604997"],
    [635,"2024-01-27 10:00:00","21","molfetta","11.63","1","83.82","1","0.0","1","null","6","null","6","122.67","1","null","6","41.200462","16.604997"],
    [636,"2024-01-27 11:00:00","21","molfetta","12.66","1","79.28","1","0.0","1","null","6","null","6","215.98","1","null","6","41.200462","16.604997"],
    [637,"2024-01-27 12:00:00","21","molfetta","13.65","1","71.09","1","0.0","1","null","6","null","6","193.47","1","null","6","41.200462","16.604997"],
    [638,"2024-01-27 13:00:00","21","molfetta","14.07","1","69.97","1","0.0","1","null","6","null","6","176.76","1","null","6","41.200462","16.604997"],
    [639,"2024-01-27 14:00:00","21","molfetta","13.8","1","74.79","1","0.0","1","null","6","null","6","143.31","1","null","6","41.200462","16.604997"],
    [640,"2024-01-27 15:00:00","21","molfetta","13.46","1","76.58","1","0.0","1","null","6","null","6","77.86","1","null","6","41.200462","16.604997"],
    [641,"2024-01-27 16:00:00","21","molfetta","13.1","1","78.12","1","0.0","1","null","6","null","6","46.92","1","null","6","41.200462","16.604997"],
    [642,"2024-01-27 17:00:00","21","molfetta","12.64","1","78.91","1","0.0","1","null","6","null","6","19.06","1","null","6","41.200462","16.604997"],
    [643,"2024-01-27 18:00:00","21","molfetta","12.16","1","80.19","1","0.0","1","null","6","null","6","0.0","5","null","6","41.200462","16.604997"],
    [644,"2024-01-27 19:00:00","21","molfetta","11.39","1","79.99","1","0.0","1","null","6","null","6","0.0","1","null","6","41.200462","16.604997"],
    [645,"2024-01-27 20:00:00","21","molfetta","10.67","1","82.67","1","0.0","1","null","6","null","6","0.0","1","null","6","41.200462","16.604997"],
    [646,"2024-01-27 21:00:00","21","molfetta","10.01","1","85.6","1","0.0","1","null","6","null","6","0.0","1","null","6","41.200462","16.604997"],
    [647,"2024-01-27 22:00:00","21","molfetta","9.85","1","86.74","1","0.0","1","null","6","null","6","0.0","1","null","6","41.200462","16.604997"],
    [648,"2024-01-27 23:00:00","21","molfetta","9.7","1","87.72","1","0.0","1","null","6","null","6","0.0","1","null","6","41.200462","16.604997"],
    [649,"2024-01-28 00:00:00","21","molfetta","9.46","1","87.67","1","0.0","1","null","6","null","6","0.0","1","null","6","41.200462","16.604997"],
    [650,"2024-01-28 01:00:00","21","molfetta","9.4","1","85.51","1","0.0","1","null","6","null","6","0.0","1","null","6","41.200462","16.604997"],
    [651,"2024-01-28 02:00:00","21","molfetta","9.61","1","83.86","1","0.0","1","null","6","null","6","0.0","1","null","6","41.200462","16.604997"],
    [652,"2024-01-28 03:00:00","21","molfetta","9.11","1","87.26","1","0.0","1","null","6","null","6","0.0","1","null","6","41.200462","16.604997"],
    [653,"2024-01-28 04:00:00","21","molfetta","8.65","1","88.19","1","0.0","1","null","6","null","6","0.0","1","null","6","41.200462","16.604997"],
    [654,"2024-01-28 05:00:00","21","molfetta","11.29","1","50.02","1","0.0","1","null","6","null","6","0.0","1","null","6","41.200462","16.604997"],
    [655,"2024-01-28 06:00:00","21","molfetta","11.9","1","42.17","1","0.0","1","null","6","null","6","0.0","1","null","6","41.200462","16.604997"],
    [656,"2024-01-28 07:00:00","21","molfetta","11.82","1","42.16","1","0.0","1","null","6","null","6","0.0","1","null","6","41.200462","16.604997"],
    [657,"2024-01-28 08:00:00","21","molfetta","11.77","1","44.19","1","0.0","1","null","6","null","6","7.97","1","null","6","41.200462","16.604997"],
    [658,"2024-01-28 09:00:00","21","molfetta","12.01","1","43.8","1","0.0","1","null","6","null","6","118.75","1","null","6","41.200462","16.604997"],
    [659,"2024-01-28 10:00:00","21","molfetta","12.83","1","41.91","1","0.0","1","null","6","null","6","293.67","1","null","6","41.200462","16.604997"],
    [660,"2024-01-28 11:00:00","21","molfetta","12.13","1","44.81","1","0.0","1","null","6","null","6","193.24","1","null","6","41.200462","16.604997"],
    [661,"2024-01-28 12:00:00","21","molfetta","12.47","1","44.54","1","0.0","1","null","6","null","6","281.41","1","null","6","41.200462","16.604997"],
    [662,"2024-01-28 13:00:00","21","molfetta","12.27","1","44.98","1","0.0","1","null","6","null","6","226.27","1","null","6","41.200462","16.604997"],
    [663,"2024-01-28 14:00:00","21","molfetta","11.9","1","45.15","1","0.0","1","null","6","null","6","110.51","1","null","6","41.200462","16.604997"],
    [664,"2024-01-28 15:00:00","21","molfetta","11.66","1","44.88","1","0.0","1","null","6","null","6","45.62","1","null","6","41.200462","16.604997"],
    [665,"2024-01-28 16:00:00","21","molfetta","11.42","1","46.06","1","0.0","1","null","6","null","6","32.62","1","null","6","41.200462","16.604997"],
    [666,"2024-01-28 17:00:00","21","molfetta","11.24","1","43.78","1","0.0","1","null","6","null","6","15.78","1","null","6","41.200462","16.604997"],
    [667,"2024-01-28 18:00:00","21","molfetta","11.07","1","46.29","1","0.0","1","null","6","null","6","0.0","5","null","6","41.200462","16.604997"],
    [668,"2024-01-28 19:00:00","21","molfetta","11.32","1","46.85","1","0.0","1","null","6","null","6","0.0","1","null","6","41.200462","16.604997"],
    [669,"2024-01-28 20:00:00","21","molfetta","11.7","1","47.35","1","0.0","1","null","6","null","6","0.0","1","null","6","41.200462","16.604997"],
    [670,"2024-01-28 21:00:00","21","molfetta","11.0","1","53.97","1","0.0","1","null","6","null","6","0.0","1","null","6","41.200462","16.604997"],
    [671,"2024-01-28 22:00:00","21","molfetta","9.76","1","57.99","1","0.0","1","null","6","null","6","0.0","1","null","6","41.200462","16.604997"],
    [672,"2024-01-28 23:00:00","21","molfetta","9.63","1","55.25","1","0.0","1","null","6","null","6","0.0","1","null","6","41.200462","16.604997"],
    [673,"2024-01-29 00:00:00","21","molfetta","9.16","1","55.92","1","0.0","1","null","6","null","6","0.0","1","null","6","41.200462","16.604997"],
    [674,"2024-01-29 01:00:00","21","molfetta","8.43","1","63.33","1","0.0","1","null","6","null","6","0.0","1","null","6","41.200462","16.604997"],
    [675,"2024-01-29 02:00:00","21","molfetta","7.75","1","70.81","1","0.0","1","null","6","null","6","0.0","1","null","6","41.200462","16.604997"],
    [676,"2024-01-29 03:00:00","21","molfetta","7.39","1","77.18","1","0.0","1","null","6","null","6","0.0","1","null","6","41.200462","16.604997"],
    [677,"2024-01-29 04:00:00","21","molfetta","7.03","1","80.19","1","0.0","1","null","6","null","6","0.0","1","null","6","41.200462","16.604997"],
    [678,"2024-01-29 05:00:00","21","molfetta","6.91","1","81.12","1","0.0","1","null","6","null","6","0.0","1","null","6","41.200462","16.604997"],
    [679,"2024-01-29 06:00:00","21","molfetta","6.62","1","81.84","1","0.0","1","null","6","null","6","0.0","1","null","6","41.200462","16.604997"],
    [680,"2024-01-29 07:00:00","21","molfetta","6.47","1","82.24","1","0.0","1","null","6","null","6","0.0","1","null","6","41.200462","16.604997"],
    [681,"2024-01-29 08:00:00","21","molfetta","6.39","1","82.87","1","0.0","1","null","6","null","6","10.48","1","null","6","41.200462","16.604997"],
    [682,"2024-01-29 09:00:00","21","molfetta","7.73","1","78.55","1","0.0","1","null","6","null","6","118.1","1","null","6","41.200462","16.604997"],
    [683,"2024-01-29 10:00:00","21","molfetta","10.77","1","65.69","1","0.0","1","null","6","null","6","321.98","1","null","6","41.200462","16.604997"],
    [684,"2024-01-29 11:00:00","21","molfetta","11.31","1","63.91","1","0.0","1","null","6","null","6","226.76","1","null","6","41.200462","16.604997"],
    [685,"2024-01-29 12:00:00","21","molfetta","11.92","1","61.21","1","0.0","1","null","6","null","6","367.18","1","null","6","41.200462","16.604997"],
    [686,"2024-01-29 13:00:00","21","molfetta","12.53","1","59.83","1","0.0","1","null","6","null","6","211.72","1","null","6","41.200462","16.604997"],
    [687,"2024-01-29 14:00:00","21","molfetta","11.61","1","60.49","1","0.0","1","null","6","null","6","50.37","1","null","6","41.200462","16.604997"],
    [688,"2024-01-29 15:00:00","21","molfetta","11.68","1","51.17","1","0.0","1","null","6","null","6","41.13","1","null","6","41.200462","16.604997"],
    [689,"2024-01-29 16:00:00","21","molfetta","11.54","1","47.6","1","0.0","1","null","6","null","6","32.04","1","null","6","41.200462","16.604997"],
    [690,"2024-01-29 17:00:00","21","molfetta","11.18","1","50.23","1","0.0","1","null","6","null","6","15.89","1","null","6","41.200462","16.604997"],
    [691,"2024-01-29 18:00:00","21","molfetta","10.91","1","52.41","1","0.0","1","null","6","null","6","0.0","5","null","6","41.200462","16.604997"],
    [692,"2024-01-29 19:00:00","21","molfetta","10.93","1","53.65","1","0.0","1","null","6","null","6","0.0","1","null","6","41.200462","16.604997"],
    [693,"2024-01-29 20:00:00","21","molfetta","10.89","1","59.04","1","0.0","1","null","6","null","6","0.0","1","null","6","41.200462","16.604997"],
    [694,"2024-01-29 21:00:00","21","molfetta","10.67","1","60.3","1","0.0","1","null","6","null","6","0.0","1","null","6","41.200462","16.604997"],
    [695,"2024-01-29 22:00:00","21","molfetta","8.76","1","66.11","1","0.0","1","null","6","null","6","0.0","1","null","6","41.200462","16.604997"],
    [696,"2024-01-29 23:00:00","21","molfetta","8.14","1","68.26","1","0.0","1","null","6","null","6","0.0","1","null","6","41.200462","16.604997"],
    [697,"2024-01-30 00:00:00","21","molfetta","7.76","1","68.24","1","0.0","1","null","6","null","6","0.0","1","null","6","41.200462","16.604997"],
    [698,"2024-01-30 01:00:00","21","molfetta","7.75","1","67.65","1","0.0","1","null","6","null","6","0.0","1","null","6","41.200462","16.604997"],
    [699,"2024-01-30 02:00:00","21","molfetta","7.59","1","69.75","1","0.0","1","null","6","null","6","0.0","1","null","6","41.200462","16.604997"],
    [700,"2024-01-30 03:00:00","21","molfetta","7.46","1","71.4","1","0.0","1","null","6","null","6","0.0","1","null","6","41.200462","16.604997"],
    [701,"2024-01-30 04:00:00","21","molfetta","7.67","1","71.17","1","0.0","1","null","6","null","6","0.0","1","null","6","41.200462","16.604997"],
    [702,"2024-01-30 05:00:00","21","molfetta","7.33","1","74.49","1","0.0","1","null","6","null","6","0.0","1","null","6","41.200462","16.604997"],
    [703,"2024-01-30 06:00:00","21","molfetta","7.72","1","76.8","1","0.0","1","null","6","null","6","0.0","1","null","6","41.200462","16.604997"],
    [704,"2024-01-30 07:00:00","21","molfetta","7.83","1","77.42","1","0.0","1","null","6","null","6","0.0","1","null","6","41.200462","16.604997"],
    [705,"2024-01-30 08:00:00","21","molfetta","7.82","1","77.68","1","0.0","1","null","6","null","6","6.79","1","null","6","41.200462","16.604997"],
    [706,"2024-01-30 09:00:00","21","molfetta","8.34","1","77.09","1","0.0","1","null","6","null","6","71.94","1","null","6","41.200462","16.604997"],
    [707,"2024-01-30 10:00:00","21","molfetta","10.43","1","69.34","1","0.0","1","null","6","null","6","257.67","1","null","6","41.200462","16.604997"],
    [708,"2024-01-30 11:00:00","21","molfetta","11.98","1","61.92","1","0.0","1","null","6","null","6","275.38","1","null","6","41.200462","16.604997"],
    [709,"2024-01-30 12:00:00","21","molfetta","12.41","1","62.62","1","0.0","1","null","6","null","6","361.72","1","null","6","41.200462","16.604997"],
    [710,"2024-01-30 13:00:00","21","molfetta","13.29","1","57.84","1","0.0","1","null","6","null","6","215.95","1","null","6","41.200462","16.604997"],
    [711,"2024-01-30 14:00:00","21","molfetta","11.39","1","55.52","1","0.0","1","null","6","null","6","57.67","1","null","6","41.200462","16.604997"],
    [712,"2024-01-30 15:00:00","21","molfetta","11.19","1","55.81","1","0.0","1","null","6","null","6","44.97","1","null","6","41.200462","16.604997"],
    [713,"2024-01-30 16:00:00","21","molfetta","10.84","1","58.44","1","0.0","1","null","6","null","6","34.25","1","null","6","41.200462","16.604997"],
    [714,"2024-01-30 17:00:00","21","molfetta","10.31","1","58.42","1","0.0","1","null","6","null","6","17.05","1","null","6","41.200462","16.604997"],
    [715,"2024-01-30 18:00:00","21","molfetta","9.44","1","59.83","1","0.0","1","null","6","null","6","0.0","5","null","6","41.200462","16.604997"],
    [716,"2024-01-30 19:00:00","21","molfetta","8.86","1","63.07","1","0.0","1","null","6","null","6","0.0","1","null","6","41.200462","16.604997"],
    [717,"2024-01-30 20:00:00","21","molfetta","7.84","1","65.43","1","0.0","1","null","6","null","6","0.0","1","null","6","41.200462","16.604997"],
    [718,"2024-01-30 21:00:00","21","molfetta","7.4","1","67.22","1","0.0","1","null","6","null","6","0.0","1","null","6","41.200462","16.604997"],
    [719,"2024-01-30 22:00:00","21","molfetta","7.14","1","68.96","1","0.0","1","null","6","null","6","0.0","1","null","6","41.200462","16.604997"],
    [720,"2024-01-30 23:00:00","21","molfetta","6.69","1","71.69","1","0.0","1","null","6","null","6","0.0","1","null","6","41.200462","16.604997"],
    [721,"2024-01-31 00:00:00","21","molfetta","6.98","1","73.1","1","0.0","1","null","6","null","6","0.0","1","null","6","41.200462","16.604997"],
    [722,"2024-01-31 01:00:00","21","molfetta","6.54","1","76.78","1","0.0","1","null","6","null","6","0.0","1","null","6","41.200462","16.604997"],
    [723,"2024-01-31 02:00:00","21","molfetta","6.57","1","78.95","1","0.0","1","null","6","null","6","0.0","1","null","6","41.200462","16.604997"],
    [724,"2024-01-31 03:00:00","21","molfetta","6.37","1","81.21","1","0.0","1","null","6","null","6","0.0","1","null","6","41.200462","16.604997"],
    [725,"2024-01-31 04:00:00","21","molfetta","6.88","1","83.27","1","0.0","1","null","6","null","6","0.0","1","null","6","41.200462","16.604997"],
    [726,"2024-01-31 05:00:00","21","molfetta","6.64","1","86.15","1","0.0","1","null","6","null","6","0.0","1","null","6","41.200462","16.604997"],
    [727,"2024-01-31 06:00:00","21","molfetta","6.64","1","85.68","1","0.0","1","null","6","null","6","0.0","1","null","6","41.200462","16.604997"],
    [728,"2024-01-31 07:00:00","21","molfetta","6.54","1","83.55","1","0.0","1","null","6","null","6","0.0","1","null","6","41.200462","16.604997"],
    [729,"2024-01-31 08:00:00","21","molfetta","6.39","1","82.86","1","0.0","1","null","6","null","6","12.51","1","null","6","41.200462","16.604997"],
    [730,"2024-01-31 09:00:00","21","molfetta","7.49","1","81.15","1","0.0","1","null","6","null","6","115.61","1","null","6","41.200462","16.604997"],
    [731,"2024-01-31 10:00:00","21","molfetta","11.31","1","69.68","1","0.0","1","null","6","null","6","349.38","1","null","6","41.200462","16.604997"],
    [732,"2024-01-31 11:00:00","21","molfetta","12.36","1","63.32","1","0.0","1","null","6","null","6","298.48","1","null","6","41.200462","16.604997"],
    [733,"2024-01-31 12:00:00","21","molfetta","12.41","1","69.6","1","0.0","1","null","6","null","6","390.46","1","null","6","41.200462","16.604997"],
    [734,"2024-01-31 13:00:00","21","molfetta","12.59","1","68.35","1","0.0","1","null","6","null","6","217.05","1","null","6","41.200462","16.604997"],
    [735,"2024-01-31 14:00:00","21","molfetta","12.03","1","63.44","1","0.0","1","null","6","null","6","51.32","1","null","6","41.200462","16.604997"],
    [736,"2024-01-31 15:00:00","21","molfetta","12.0","1","61.97","1","0.0","1","null","6","null","6","43.15","1","null","6","41.200462","16.604997"],
    [737,"2024-01-31 16:00:00","21","molfetta","11.81","1","63.45","1","0.0","1","null","6","null","6","37.16","1","null","6","41.200462","16.604997"],
    [738,"2024-01-31 17:00:00","21","molfetta","11.39","1","66.31","1","0.0","1","null","6","null","6","19.1","1","null","6","41.200462","16.604997"],
    [739,"2024-01-31 18:00:00","21","molfetta","10.79","1","69.7","1","0.0","1","null","6","null","6","0.0","5","null","6","41.200462","16.604997"],
    [740,"2024-01-31 19:00:00","21","molfetta","10.18","1","72.55","1","0.0","1","null","6","null","6","0.0","1","null","6","41.200462","16.604997"],
    [741,"2024-01-31 20:00:00","21","molfetta","9.26","1","74.53","1","0.0","1","null","6","null","6","0.0","1","null","6","41.200462","16.604997"],
    [742,"2024-01-31 21:00:00","21","molfetta","8.14","1","78.49","1","0.0","1","null","6","null","6","0.0","1","null","6","41.200462","16.604997"],
    [743,"2024-01-31 22:00:00","21","molfetta","7.4","1","82.65","1","0.0","1","null","6","null","6","0.0","1","null","6","41.200462","16.604997"],
    [744,"2024-01-31 23:00:00","21","molfetta","7.62","1","81.75","1","0.0","1","null","6","null","6","0.0","1","null","6","41.200462","16.604997"],
    [745,"2024-02-01 00:00:00","21","molfetta","7.79","1","79.35","1","0.0","1","null","6","null","6","0.0","1","null","6","41.200462","16.604997"],
    [746,"2024-02-01 01:00:00","21","molfetta","7.44","1","81.24","1","0.0","1","null","6","null","6","0.0","1","null","6","41.200462","16.604997"],
    [747,"2024-02-01 02:00:00","21","molfetta","7.25","1","83.18","1","0.0","1","null","6","null","6","0.0","1","null","6","41.200462","16.604997"],
    [748,"2024-02-01 03:00:00","21","molfetta","6.88","1","84.32","1","0.0","1","null","6","null","6","0.0","1","null","6","41.200462","16.604997"],
    [749,"2024-02-01 04:00:00","21","molfetta","6.52","1","85.66","1","0.0","1","null","6","null","6","0.0","1","null","6","41.200462","16.604997"],
    [750,"2024-02-01 05:00:00","21","molfetta","6.51","1","87.38","1","0.0","1","null","6","null","6","0.0","1","null","6","41.200462","16.604997"],
    [751,"2024-02-01 06:00:00","21","molfetta","6.83","1","88.16","1","0.0","1","null","6","null","6","0.0","1","null","6","41.200462","16.604997"],
    [752,"2024-02-01 07:00:00","21","molfetta","6.68","1","86.71","1","0.0","1","null","6","null","6","0.0","1","null","6","41.200462","16.604997"],
    [753,"2024-02-01 08:00:00","21","molfetta","7.14","1","84.75","1","0.0","1","null","6","null","6","14.13","1","null","6","41.200462","16.604997"],
    [754,"2024-02-01 09:00:00","21","molfetta","7.63","1","79.22","1","0.0","1","null","6","null","6","58.31","1","null","6","41.200462","16.604997"],
    [755,"2024-02-01 10:00:00","21","molfetta","10.12","1","64.1","1","0.0","1","null","6","null","6","312.09","1","null","6","41.200462","16.604997"],
    [756,"2024-02-01 11:00:00","21","molfetta","12.21","1","55.29","1","0.0","1","null","6","null","6","313.22","1","null","6","41.200462","16.604997"],
    [757,"2024-02-01 12:00:00","21","molfetta","13.15","1","55.74","1","0.0","1","null","6","null","6","390.71","1","null","6","41.200462","16.604997"],
    [758,"2024-02-01 13:00:00","21","molfetta","14.54","1","54.54","1","0.0","1","null","6","null","6","209.66","1","null","6","41.200462","16.604997"],
    [759,"2024-02-01 14:00:00","21","molfetta","12.04","1","60.06","1","0.0","1","null","6","null","6","59.72","1","null","6","41.200462","16.604997"],
    [760,"2024-02-01 15:00:00","21","molfetta","11.7","1","66.42","1","0.0","1","null","6","null","6","53.23","1","null","6","41.200462","16.604997"],
    [761,"2024-02-01 16:00:00","21","molfetta","11.37","1","69.23","1","0.0","1","null","6","null","6","41.2","1","null","6","41.200462","16.604997"],
    [762,"2024-02-01 17:00:00","21","molfetta","11.0","1","65.73","1","0.0","1","null","6","null","6","21.1","1","null","6","41.200462","16.604997"],
    [763,"2024-02-01 18:00:00","21","molfetta","10.37","1","64.28","1","0.0","1","null","6","null","6","0.0","5","null","6","41.200462","16.604997"],
    [764,"2024-02-01 19:00:00","21","molfetta","9.8","1","68.57","1","0.0","1","null","6","null","6","0.0","1","null","6","41.200462","16.604997"],
    [765,"2024-02-01 20:00:00","21","molfetta","8.94","1","71.9","1","0.0","1","null","6","null","6","0.0","1","null","6","41.200462","16.604997"],
    [766,"2024-02-01 21:00:00","21","molfetta","8.11","1","75.13","1","0.0","1","null","6","null","6","0.0","1","null","6","41.200462","16.604997"],
    [767,"2024-02-01 22:00:00","21","molfetta","7.56","1","76.55","1","0.0","1","null","6","null","6","0.0","1","null","6","41.200462","16.604997"],
    [768,"2024-02-01 23:00:00","21","molfetta","8.08","1","70.6","1","0.0","1","null","6","null","6","0.0","1","null","6","41.200462","16.604997"],
    [769,"2024-02-02 00:00:00","21","molfetta","7.91","1","72.81","1","0.0","1","null","6","null","6","0.0","1","null","6","41.200462","16.604997"],
    [770,"2024-02-02 01:00:00","21","molfetta","7.89","1","72.16","1","0.0","1","null","6","null","6","0.0","1","null","6","41.200462","16.604997"],
    [771,"2024-02-02 02:00:00","21","molfetta","7.7","1","75.74","1","0.0","1","null","6","null","6","0.0","1","null","6","41.200462","16.604997"],
    [772,"2024-02-02 03:00:00","21","molfetta","7.66","1","78.5","1","0.0","1","null","6","null","6","0.0","1","null","6","41.200462","16.604997"],
    [773,"2024-02-02 04:00:00","21","molfetta","7.44","1","75.01","1","0.0","1","null","6","null","6","0.0","1","null","6","41.200462","16.604997"],
    [774,"2024-02-02 05:00:00","21","molfetta","7.6","1","64.77","1","0.0","1","null","6","null","6","0.0","1","null","6","41.200462","16.604997"],
    [775,"2024-02-02 06:00:00","21","molfetta","7.8","1","67.74","1","0.0","1","null","6","null","6","0.0","1","null","6","41.200462","16.604997"],
    [776,"2024-02-02 07:00:00","21","molfetta","8.02","1","71.52","1","0.0","1","null","6","null","6","0.0","1","null","6","41.200462","16.604997"],
    [777,"2024-02-02 08:00:00","21","molfetta","7.37","1","65.38","1","0.0","1","null","6","null","6","11.15","1","null","6","41.200462","16.604997"],
    [778,"2024-02-02 09:00:00","21","molfetta","8.08","1","61.91","1","0.0","1","null","6","null","6","80.81","1","null","6","41.200462","16.604997"],
    [779,"2024-02-02 10:00:00","21","molfetta","10.73","1","58.68","1","0.0","1","null","6","null","6","283.83","1","null","6","41.200462","16.604997"],
    [780,"2024-02-02 11:00:00","21","molfetta","12.78","1","56.77","1","0.0","1","null","6","null","6","327.2","1","null","6","41.200462","16.604997"],
    [781,"2024-02-02 12:00:00","21","molfetta","13.58","1","60.32","1","0.0","1","null","6","null","6","384.95","1","null","6","41.200462","16.604997"],
    [782,"2024-02-02 13:00:00","21","molfetta","13.96","1","58.54","1","0.0","1","null","6","null","6","203.69","1","null","6","41.200462","16.604997"],
    [783,"2024-02-02 14:00:00","21","molfetta","13.71","1","56.92","1","0.0","1","null","6","null","6","74.72","1","null","6","41.200462","16.604997"],
    [784,"2024-02-02 15:00:00","21","molfetta","13.41","1","59.09","1","0.0","1","null","6","null","6","48.52","1","null","6","41.200462","16.604997"],
    [785,"2024-02-02 16:00:00","21","molfetta","13.01","1","55.47","1","0.0","1","null","6","null","6","34.98","1","null","6","41.200462","16.604997"],
    [786,"2024-02-02 17:00:00","21","molfetta","12.74","1","56.67","1","0.0","1","null","6","null","6","17.62","1","null","6","41.200462","16.604997"],
    [787,"2024-02-02 18:00:00","21","molfetta","12.5","1","60.76","1","0.0","1","null","6","null","6","0.0","5","null","6","41.200462","16.604997"],
    [788,"2024-02-02 19:00:00","21","molfetta","12.39","1","62.46","1","0.0","1","null","6","null","6","0.0","1","null","6","41.200462","16.604997"],
    [789,"2024-02-02 20:00:00","21","molfetta","12.09","1","66.14","1","0.0","1","null","6","null","6","0.0","1","null","6","41.200462","16.604997"],
    [790,"2024-02-02 21:00:00","21","molfetta","10.7","1","68.07","1","0.0","1","null","6","null","6","0.0","1","null","6","41.200462","16.604997"],
    [791,"2024-02-02 22:00:00","21","molfetta","10.52","1","63.91","1","0.0","1","null","6","null","6","0.0","1","null","6","41.200462","16.604997"],
    [792,"2024-02-02 23:00:00","21","molfetta","10.06","1","66.25","1","0.0","1","null","6","null","6","0.0","1","null","6","41.200462","16.604997"],
    [793,"2024-02-03 00:00:00","21","molfetta","9.8","1","69.48","1","0.0","1","null","6","null","6","0.0","1","null","6","41.200462","16.604997"],
    [794,"2024-02-03 01:00:00","21","molfetta","9.33","1","71.35","1","0.0","1","null","6","null","6","0.0","1","null","6","41.200462","16.604997"],
    [795,"2024-02-03 02:00:00","21","molfetta","9.06","1","71.95","1","0.0","1","null","6","null","6","0.0","1","null","6","41.200462","16.604997"],
    [796,"2024-02-03 03:00:00","21","molfetta","8.8","1","75.17","1","0.0","1","null","6","null","6","0.0","1","null","6","41.200462","16.604997"],
    [797,"2024-02-03 04:00:00","21","molfetta","8.4","1","78.38","1","0.0","1","null","6","null","6","0.0","1","null","6","41.200462","16.604997"],
    [798,"2024-02-03 05:00:00","21","molfetta","8.41","1","76.09","1","0.0","1","null","6","null","6","0.0","1","null","6","41.200462","16.604997"],
    [799,"2024-02-03 06:00:00","21","molfetta","9.17","1","70.52","1","0.0","1","null","6","null","6","0.0","1","null","6","41.200462","16.604997"],
    [800,"2024-02-03 07:00:00","21","molfetta","8.81","1","72.84","1","0.0","1","null","6","null","6","0.0","1","null","6","41.200462","16.604997"],
    [801,"2024-02-03 08:00:00","21","molfetta","8.45","1","78.62","1","0.0","1","null","6","null","6","14.24","1","null","6","41.200462","16.604997"],
    [802,"2024-02-03 09:00:00","21","molfetta","9.74","1","76.41","1","0.0","1","null","6","null","6","107.0","1","null","6","41.200462","16.604997"],
    [803,"2024-02-03 10:00:00","21","molfetta","13.43","1","63.09","1","0.0","1","null","6","null","6","352.82","1","null","6","41.200462","16.604997"],
    [804,"2024-02-03 11:00:00","21","molfetta","15.14","1","54.91","1","0.0","1","null","6","null","6","405.58","1","null","6","41.200462","16.604997"],
    [805,"2024-02-03 12:00:00","21","molfetta","16.14","1","51.07","1","0.0","1","null","6","null","6","425.76","1","null","6","41.200462","16.604997"],
    [806,"2024-02-03 13:00:00","21","molfetta","17.1","1","49.71","1","0.0","1","null","6","null","6","184.89","1","null","6","41.200462","16.604997"],
    [807,"2024-02-03 14:00:00","21","molfetta","14.44","1","53.55","1","0.0","1","null","6","null","6","49.28","1","null","6","41.200462","16.604997"],
    [808,"2024-02-03 15:00:00","21","molfetta","14.63","1","46.39","1","0.0","1","null","6","null","6","58.01","1","null","6","41.200462","16.604997"],
    [809,"2024-02-03 16:00:00","21","molfetta","14.64","1","38.63","1","0.0","1","null","6","null","6","33.84","1","null","6","41.200462","16.604997"],
    [810,"2024-02-03 17:00:00","21","molfetta","13.89","1","37.77","1","0.0","1","null","6","null","6","18.79","1","null","6","41.200462","16.604997"],
    [811,"2024-02-03 18:00:00","21","molfetta","13.16","1","40.32","1","0.0","1","null","6","null","6","0.0","5","null","6","41.200462","16.604997"],
    [812,"2024-02-03 19:00:00","21","molfetta","12.74","1","46.48","1","0.0","1","null","6","null","6","0.0","1","null","6","41.200462","16.604997"],
    [813,"2024-02-03 20:00:00","21","molfetta","12.42","1","46.13","1","0.0","1","null","6","null","6","0.0","1","null","6","41.200462","16.604997"],
    [814,"2024-02-03 21:00:00","21","molfetta","12.56","1","46.38","1","0.0","1","null","6","null","6","0.0","1","null","6","41.200462","16.604997"],
    [815,"2024-02-03 22:00:00","21","molfetta","10.73","1","58.43","1","0.0","1","null","6","null","6","0.0","1","null","6","41.200462","16.604997"],
    [816,"2024-02-03 23:00:00","21","molfetta","11.53","1","50.02","1","0.0","1","null","6","null","6","0.0","1","null","6","41.200462","16.604997"],
    [817,"2024-02-04 00:00:00","21","molfetta","11.85","1","49.15","1","0.0","1","null","6","null","6","0.0","1","null","6","41.200462","16.604997"],
    [818,"2024-02-04 01:00:00","21","molfetta","10.85","1","53.62","1","0.0","1","null","6","null","6","0.0","1","null","6","41.200462","16.604997"],
    [819,"2024-02-04 02:00:00","21","molfetta","9.6","1","58.71","1","0.0","1","null","6","null","6","0.0","1","null","6","41.200462","16.604997"],
    [820,"2024-02-04 03:00:00","21","molfetta","8.75","1","61.93","1","0.0","1","null","6","null","6","0.0","1","null","6","41.200462","16.604997"],
    [821,"2024-02-04 04:00:00","21","molfetta","8.08","1","64.81","1","0.0","1","null","6","null","6","0.0","1","null","6","41.200462","16.604997"],
    [822,"2024-02-04 05:00:00","21","molfetta","7.79","1","65.86","1","0.0","1","null","6","null","6","0.0","1","null","6","41.200462","16.604997"],
    [823,"2024-02-04 06:00:00","21","molfetta","8.0","1","63.94","1","0.0","1","null","6","null","6","0.0","1","null","6","41.200462","16.604997"],
    [824,"2024-02-04 07:00:00","21","molfetta","8.02","1","64.54","1","0.0","1","null","6","null","6","0.0","1","null","6","41.200462","16.604997"],
    [825,"2024-02-04 08:00:00","21","molfetta","8.28","1","65.43","1","0.0","1","null","6","null","6","22.69","1","null","6","41.200462","16.604997"],
    [826,"2024-02-04 09:00:00","21","molfetta","9.42","1","65.46","1","0.0","1","null","6","null","6","78.87","1","null","6","41.200462","16.604997"],
    [827,"2024-02-04 10:00:00","21","molfetta","12.39","1","57.74","1","0.0","1","null","6","null","6","194.64","1","null","6","41.200462","16.604997"],
    [828,"2024-02-04 11:00:00","21","molfetta","15.86","1","47.07","1","0.0","1","null","6","null","6","332.06","1","null","6","41.200462","16.604997"],
    [829,"2024-02-04 12:00:00","21","molfetta","16.75","1","47.26","1","0.0","1","null","6","null","6","434.01","1","null","6","41.200462","16.604997"],
    [830,"2024-02-04 13:00:00","21","molfetta","17.34","1","46.69","1","0.0","1","null","6","null","6","178.69","1","null","6","41.200462","16.604997"],
    [831,"2024-02-04 14:00:00","21","molfetta","14.46","1","53.81","1","0.0","1","null","6","null","6","56.76","1","null","6","41.200462","16.604997"],
    [832,"2024-02-04 15:00:00","21","molfetta","14.41","1","55.33","1","0.0","1","null","6","null","6","47.01","1","null","6","41.200462","16.604997"],
    [833,"2024-02-04 16:00:00","21","molfetta","14.11","1","58.58","1","0.0","1","null","6","null","6","35.49","1","null","6","41.200462","16.604997"],
    [834,"2024-02-04 17:00:00","21","molfetta","13.66","1","61.52","1","0.0","1","null","6","null","6","23.36","1","null","6","41.200462","16.604997"],
    [835,"2024-02-04 18:00:00","21","molfetta","12.61","1","65.67","1","0.0","1","null","6","null","6","0.0","5","null","6","41.200462","16.604997"],
    [836,"2024-02-04 19:00:00","21","molfetta","12.01","1","69.58","1","0.0","1","null","6","null","6","0.0","1","null","6","41.200462","16.604997"],
    [837,"2024-02-04 20:00:00","21","molfetta","11.8","1","71.71","1","0.0","1","null","6","null","6","0.0","1","null","6","41.200462","16.604997"],
    [838,"2024-02-04 21:00:00","21","molfetta","11.68","1","72.75","1","0.0","1","null","6","null","6","0.0","1","null","6","41.200462","16.604997"],
    [839,"2024-02-04 22:00:00","21","molfetta","12.09","1","71.63","1","0.0","1","null","6","null","6","0.0","1","null","6","41.200462","16.604997"],
    [840,"2024-02-04 23:00:00","21","molfetta","10.66","1","75.65","1","0.0","1","null","6","null","6","0.0","1","null","6","41.200462","16.604997"],
    [841,"2024-02-05 00:00:00","21","molfetta","9.62","1","79.09","1","0.0","1","null","6","null","6","0.0","1","null","6","41.200462","16.604997"],
    [842,"2024-02-05 01:00:00","21","molfetta","9.39","1","79.62","1","0.0","1","null","6","null","6","0.0","1","null","6","41.200462","16.604997"],
    [843,"2024-02-05 02:00:00","21","molfetta","9.0","1","79.2","1","0.0","1","null","6","null","6","0.0","1","null","6","41.200462","16.604997"],
    [844,"2024-02-05 03:00:00","21","molfetta","8.85","1","79.61","1","0.0","1","null","6","null","6","0.0","1","null","6","41.200462","16.604997"],
    [845,"2024-02-05 04:00:00","21","molfetta","8.58","1","79.94","1","0.0","1","null","6","null","6","0.0","1","null","6","41.200462","16.604997"],
    [846,"2024-02-05 05:00:00","21","molfetta","8.57","1","78.11","1","0.0","1","null","6","null","6","0.0","1","null","6","41.200462","16.604997"],
    [847,"2024-02-05 06:00:00","21","molfetta","8.59","1","76.18","1","0.0","1","null","6","null","6","0.0","1","null","6","41.200462","16.604997"],
    [848,"2024-02-05 07:00:00","21","molfetta","8.11","1","77.44","1","0.0","1","null","6","null","6","0.0","5","null","6","41.200462","16.604997"],
    [849,"2024-02-05 08:00:00","21","molfetta","8.19","1","76.75","1","0.0","1","null","6","null","6","21.93","1","null","6","41.200462","16.604997"],
    [850,"2024-02-05 09:00:00","21","molfetta","9.68","1","73.01","1","0.0","1","null","6","null","6","83.17","1","null","6","41.200462","16.604997"],
    [851,"2024-02-05 10:00:00","21","molfetta","13.88","1","62.17","1","0.0","1","null","6","null","6","286.17","1","null","6","41.200462","16.604997"],
    [852,"2024-02-05 11:00:00","21","molfetta","18.99","1","48.78","1","0.0","1","null","6","null","6","428.7","1","null","6","41.200462","16.604997"],
    [853,"2024-02-05 12:00:00","21","molfetta","16.12","1","62.85","1","0.0","1","null","6","null","6","413.5","1","null","6","41.200462","16.604997"],
    [854,"2024-02-05 13:00:00","21","molfetta","16.19","1","57.0","1","0.0","1","null","6","null","6","154.97","1","null","6","41.200462","16.604997"],
    [855,"2024-02-05 14:00:00","21","molfetta","14.35","1","65.76","1","0.0","1","null","6","null","6","56.59","1","null","6","41.200462","16.604997"],
    [856,"2024-02-05 15:00:00","21","molfetta","14.41","1","74.1","1","0.0","1","null","6","null","6","47.17","1","null","6","41.200462","16.604997"],
    [857,"2024-02-05 16:00:00","21","molfetta","14.77","1","69.35","1","0.0","1","null","6","null","6","37.59","1","null","6","41.200462","16.604997"],
    [858,"2024-02-05 17:00:00","21","molfetta","14.27","1","73.88","1","0.0","1","null","6","null","6","21.29","1","null","6","41.200462","16.604997"],
    [859,"2024-02-05 18:00:00","21","molfetta","13.33","1","75.49","1","0.0","1","null","6","null","6","0.0","5","null","6","41.200462","16.604997"],
    [860,"2024-02-05 19:00:00","21","molfetta","12.85","1","72.01","1","0.0","1","null","6","null","6","0.0","1","null","6","41.200462","16.604997"],
    [861,"2024-02-05 20:00:00","21","molfetta","12.51","1","69.5","1","0.0","1","null","6","null","6","0.0","1","null","6","41.200462","16.604997"],
    [862,"2024-02-05 21:00:00","21","molfetta","11.72","1","75.22","1","0.0","1","null","6","null","6","0.0","1","null","6","41.200462","16.604997"],
    [863,"2024-02-05 22:00:00","21","molfetta","10.94","1","78.11","1","0.0","1","null","6","null","6","0.0","1","null","6","41.200462","16.604997"],
    [864,"2024-02-05 23:00:00","21","molfetta","10.14","1","79.87","1","0.0","1","null","6","null","6","0.0","1","null","6","41.200462","16.604997"],
    [865,"2024-02-06 00:00:00","21","molfetta","9.55","1","80.28","1","0.0","1","null","6","null","6","0.0","1","null","6","41.200462","16.604997"],
    [866,"2024-02-06 01:00:00","21","molfetta","9.01","1","80.52","1","0.0","1","null","6","null","6","0.0","1","null","6","41.200462","16.604997"],
    [867,"2024-02-06 02:00:00","21","molfetta","8.13","1","80.87","1","0.0","1","null","6","null","6","0.0","1","null","6","41.200462","16.604997"],
    [868,"2024-02-06 03:00:00","21","molfetta","7.56","1","83.87","1","0.0","1","null","6","null","6","0.0","1","null","6","41.200462","16.604997"],
    [869,"2024-02-06 04:00:00","21","molfetta","7.6","1","84.85","1","0.0","1","null","6","null","6","0.0","1","null","6","41.200462","16.604997"],
    [870,"2024-02-06 05:00:00","21","molfetta","7.28","1","84.9","1","0.0","1","null","6","null","6","0.0","1","null","6","41.200462","16.604997"],
    [871,"2024-02-06 06:00:00","21","molfetta","7.46","1","86.85","1","0.0","1","null","6","null","6","0.0","1","null","6","41.200462","16.604997"],
    [872,"2024-02-06 07:00:00","21","molfetta","7.7","1","87.37","1","0.0","1","null","6","null","6","0.0","1","null","6","41.200462","16.604997"],
    [873,"2024-02-06 08:00:00","21","molfetta","7.8","1","86.7","1","0.0","1","null","6","null","6","14.98","1","null","6","41.200462","16.604997"],
    [874,"2024-02-06 09:00:00","21","molfetta","9.67","1","84.55","1","0.0","1","null","6","null","6","101.11","1","null","6","41.200462","16.604997"],
    [875,"2024-02-06 10:00:00","21","molfetta","16.05","1","62.57","1","0.0","1","null","6","null","6","356.84","1","null","6","41.200462","16.604997"],
    [876,"2024-02-06 11:00:00","21","molfetta","18.95","1","49.53","1","0.0","1","null","6","null","6","471.19","1","null","6","41.200462","16.604997"],
    [877,"2024-02-06 12:00:00","21","molfetta","17.32","1","57.11","1","0.0","1","null","6","null","6","497.97","1","null","6","41.200462","16.604997"],
    [878,"2024-02-06 13:00:00","21","molfetta","16.66","1","59.56","1","0.0","1","null","6","null","6","173.49","1","null","6","41.200462","16.604997"],
    [879,"2024-02-06 14:00:00","21","molfetta","14.35","1","66.73","1","0.0","1","null","6","null","6","70.13","1","null","6","41.200462","16.604997"],
    [880,"2024-02-06 15:00:00","21","molfetta","14.43","1","69.18","1","0.0","1","null","6","null","6","78.88","1","null","6","41.200462","16.604997"],
    [881,"2024-02-06 16:00:00","21","molfetta","14.35","1","67.17","1","0.0","1","null","6","null","6","64.47","1","null","6","41.200462","16.604997"],
    [882,"2024-02-06 17:00:00","21","molfetta","13.92","1","68.59","1","0.0","1","null","6","null","6","36.31","1","null","6","41.200462","16.604997"],
    [883,"2024-02-06 18:00:00","21","molfetta","13.1","1","72.4","1","0.0","1","null","6","null","6","0.0","5","null","6","41.200462","16.604997"],
    [884,"2024-02-06 19:00:00","21","molfetta","12.25","1","78.67","1","0.0","1","null","6","null","6","0.0","1","null","6","41.200462","16.604997"],
    [885,"2024-02-06 20:00:00","21","molfetta","11.84","1","77.67","1","0.0","1","null","6","null","6","0.0","1","null","6","41.200462","16.604997"],
    [886,"2024-02-06 21:00:00","21","molfetta","11.21","1","78.84","1","0.0","1","null","6","null","6","0.0","1","null","6","41.200462","16.604997"],
    [887,"2024-02-06 22:00:00","21","molfetta","10.89","1","79.94","1","0.0","1","null","6","null","6","0.0","1","null","6","41.200462","16.604997"],
    [888,"2024-02-06 23:00:00","21","molfetta","10.96","1","77.63","1","0.0","1","null","6","null","6","0.0","1","null","6","41.200462","16.604997"],
    [889,"2024-02-07 00:00:00","21","molfetta","10.97","1","73.85","1","0.0","1","null","6","null","6","0.0","1","null","6","41.200462","16.604997"],
    [890,"2024-02-07 01:00:00","21","molfetta","10.51","1","79.28","1","0.0","1","null","6","null","6","0.0","1","null","6","41.200462","16.604997"],
    [891,"2024-02-07 02:00:00","21","molfetta","9.69","1","87.13","1","0.0","1","null","6","null","6","0.0","1","null","6","41.200462","16.604997"],
    [892,"2024-02-07 03:00:00","21","molfetta","9.42","1","88.53","1","0.0","1","null","6","null","6","0.0","1","null","6","41.200462","16.604997"],
    [893,"2024-02-07 04:00:00","21","molfetta","9.41","1","84.42","1","0.0","1","null","6","null","6","0.0","1","null","6","41.200462","16.604997"],
    [894,"2024-02-07 05:00:00","21","molfetta","9.6","1","84.22","1","0.0","1","null","6","null","6","0.0","1","null","6","41.200462","16.604997"],
    [895,"2024-02-07 06:00:00","21","molfetta","9.65","1","86.76","1","0.0","1","null","6","null","6","0.0","1","null","6","41.200462","16.604997"],
    [896,"2024-02-07 07:00:00","21","molfetta","9.39","1","87.05","1","0.0","1","null","6","null","6","0.0","1","null","6","41.200462","16.604997"],
    [897,"2024-02-07 08:00:00","21","molfetta","9.63","1","87.0","1","0.0","1","null","6","null","6","19.59","1","null","6","41.200462","16.604997"],
    [898,"2024-02-07 09:00:00","21","molfetta","11.31","1","81.81","1","0.0","1","null","6","null","6","135.03","1","null","6","41.200462","16.604997"],
    [899,"2024-02-07 10:00:00","21","molfetta","15.52","1","68.78","1","0.0","1","null","6","null","6","309.59","1","null","6","41.200462","16.604997"],
    [900,"2024-02-07 11:00:00","21","molfetta","16.79","1","61.61","1","0.0","1","null","6","null","6","376.04","1","null","6","41.200462","16.604997"],
    [901,"2024-02-07 12:00:00","21","molfetta","15.01","1","66.58","1","0.0","1","null","6","null","6","302.56","1","null","6","41.200462","16.604997"],
    [902,"2024-02-07 13:00:00","21","molfetta","14.97","1","62.83","1","0.0","1","null","6","null","6","213.73","1","null","6","41.200462","16.604997"],
    [903,"2024-02-07 14:00:00","21","molfetta","15.21","1","59.51","1","0.0","1","null","6","null","6","184.26","1","null","6","41.200462","16.604997"],
    [904,"2024-02-07 15:00:00","21","molfetta","15.56","1","65.26","1","0.0","1","null","6","null","6","162.43","1","null","6","41.200462","16.604997"],
    [905,"2024-02-07 16:00:00","21","molfetta","15.32","1","65.6","1","0.0","1","null","6","null","6","106.99","1","null","6","41.200462","16.604997"],
    [906,"2024-02-07 17:00:00","21","molfetta","14.89","1","59.31","1","0.0","1","null","6","null","6","45.94","1","null","6","41.200462","16.604997"],
    [907,"2024-02-07 18:00:00","21","molfetta","13.97","1","65.41","1","0.0","1","null","6","null","6","0.0","5","null","6","41.200462","16.604997"],
    [908,"2024-02-07 19:00:00","21","molfetta","13.01","1","70.53","1","0.0","1","null","6","null","6","0.0","1","null","6","41.200462","16.604997"],
    [909,"2024-02-07 20:00:00","21","molfetta","12.45","1","73.49","1","0.0","1","null","6","null","6","0.0","1","null","6","41.200462","16.604997"],
    [910,"2024-02-07 21:00:00","21","molfetta","11.8","1","76.12","1","0.0","1","null","6","null","6","0.0","1","null","6","41.200462","16.604997"],
    [911,"2024-02-07 22:00:00","21","molfetta","11.55","1","71.15","1","0.0","1","null","6","null","6","0.0","1","null","6","41.200462","16.604997"],
    [912,"2024-02-07 23:00:00","21","molfetta","10.81","1","73.1","1","0.0","1","null","6","null","6","0.0","1","null","6","41.200462","16.604997"],
    [913,"2024-02-08 00:00:00","21","molfetta","10.1","1","79.51","1","0.0","1","null","6","null","6","0.0","1","null","6","41.200462","16.604997"],
    [914,"2024-02-08 01:00:00","21","molfetta","9.52","1","76.15","1","0.0","1","null","6","null","6","0.0","1","null","6","41.200462","16.604997"],
    [915,"2024-02-08 02:00:00","21","molfetta","9.33","1","76.29","1","0.0","1","null","6","null","6","0.0","1","null","6","41.200462","16.604997"],
    [916,"2024-02-08 03:00:00","21","molfetta","9.14","1","79.27","1","0.0","1","null","6","null","6","0.0","1","null","6","41.200462","16.604997"],
    [917,"2024-02-08 04:00:00","21","molfetta","8.87","1","76.64","1","0.0","1","null","6","null","6","0.0","1","null","6","41.200462","16.604997"],
    [918,"2024-02-08 05:00:00","21","molfetta","9.16","1","75.31","1","0.0","1","null","6","null","6","0.0","1","null","6","41.200462","16.604997"],
    [919,"2024-02-08 06:00:00","21","molfetta","10.28","1","69.82","1","0.0","1","null","6","null","6","0.0","1","null","6","41.200462","16.604997"],
    [920,"2024-02-08 07:00:00","21","molfetta","9.83","1","73.05","1","0.0","1","null","6","null","6","0.0","1","null","6","41.200462","16.604997"],
    [921,"2024-02-08 08:00:00","21","molfetta","8.84","1","77.66","1","0.0","1","null","6","null","6","17.6","1","null","6","41.200462","16.604997"],
    [922,"2024-02-08 09:00:00","21","molfetta","11.33","1","71.47","1","0.0","1","null","6","null","6","95.51","1","null","6","41.200462","16.604997"],
    [923,"2024-02-08 10:00:00","21","molfetta","17.45","1","53.17","1","0.0","1","null","6","null","6","360.88","1","null","6","41.200462","16.604997"],
    [924,"2024-02-08 11:00:00","21","molfetta","19.09","1","46.13","1","0.0","1","null","6","null","6","480.13","1","null","6","41.200462","16.604997"],
    [925,"2024-02-08 12:00:00","21","molfetta","19.53","1","37.3","1","0.0","1","null","6","null","6","555.92","1","null","6","41.200462","16.604997"],
    [926,"2024-02-08 13:00:00","21","molfetta","19.2","1","35.72","1","0.0","1","null","6","null","6","174.46","1","null","6","41.200462","16.604997"],
    [927,"2024-02-08 14:00:00","21","molfetta","18.41","1","39.75","1","0.0","1","null","6","null","6","70.59","1","null","6","41.200462","16.604997"],
    [928,"2024-02-08 15:00:00","21","molfetta","17.47","1","44.18","1","0.0","1","null","6","null","6","55.1","1","null","6","41.200462","16.604997"],
    [929,"2024-02-08 16:00:00","21","molfetta","15.85","1","57.05","1","0.0","1","null","6","null","6","49.46","1","null","6","41.200462","16.604997"],
    [930,"2024-02-08 17:00:00","21","molfetta","14.76","1","62.25","1","0.0","1","null","6","null","6","24.78","1","null","6","41.200462","16.604997"],
    [931,"2024-02-08 18:00:00","21","molfetta","14.05","1","65.55","1","0.0","1","null","6","null","6","0.0","5","null","6","41.200462","16.604997"],
    [932,"2024-02-08 19:00:00","21","molfetta","13.53","1","65.7","1","0.0","1","null","6","null","6","0.0","1","null","6","41.200462","16.604997"],
    [933,"2024-02-08 20:00:00","21","molfetta","12.72","1","64.41","1","0.0","1","null","6","null","6","0.0","1","null","6","41.200462","16.604997"],
    [934,"2024-02-08 21:00:00","21","molfetta","12.24","1","63.32","1","0.0","1","null","6","null","6","0.0","1","null","6","41.200462","16.604997"],
    [935,"2024-02-08 22:00:00","21","molfetta","11.55","1","67.66","1","0.0","1","null","6","null","6","0.0","1","null","6","41.200462","16.604997"],
    [936,"2024-02-08 23:00:00","21","molfetta","11.03","1","68.33","1","0.0","1","null","6","null","6","0.0","1","null","6","41.200462","16.604997"],
    [937,"2024-02-09 00:00:00","21","molfetta","10.65","1","67.43","1","0.0","1","null","6","null","6","0.0","1","null","6","41.200462","16.604997"],
    [938,"2024-02-09 01:00:00","21","molfetta","10.03","1","69.16","1","0.0","1","null","6","null","6","0.0","1","null","6","41.200462","16.604997"],
    [939,"2024-02-09 02:00:00","21","molfetta","10.48","1","69.34","1","0.0","1","null","6","null","6","0.0","1","null","6","41.200462","16.604997"],
    [940,"2024-02-09 03:00:00","21","molfetta","11.55","1","62.88","1","0.0","1","null","6","null","6","0.0","1","null","6","41.200462","16.604997"],
    [941,"2024-02-09 04:00:00","21","molfetta","11.61","1","60.84","1","0.0","1","null","6","null","6","0.0","1","null","6","41.200462","16.604997"],
    [942,"2024-02-09 05:00:00","21","molfetta","10.12","1","66.01","1","0.0","1","null","6","null","6","0.0","1","null","6","41.200462","16.604997"],
    [943,"2024-02-09 06:00:00","21","molfetta","9.04","1","69.63","1","0.0","1","null","6","null","6","0.0","1","null","6","41.200462","16.604997"],
    [944,"2024-02-09 07:00:00","21","molfetta","9.02","1","67.61","1","0.0","1","null","6","null","6","0.0","5","null","6","41.200462","16.604997"],
    [945,"2024-02-09 08:00:00","21","molfetta","9.99","1","61.06","1","0.0","1","null","6","null","6","22.88","1","null","6","41.200462","16.604997"],
    [946,"2024-02-09 09:00:00","21","molfetta","12.03","1","53.9","1","0.0","1","null","6","null","6","107.28","1","null","6","41.200462","16.604997"],
    [947,"2024-02-09 10:00:00","21","molfetta","14.5","1","48.9","1","0.0","1","null","6","null","6","164.85","1","null","6","41.200462","16.604997"],
    [948,"2024-02-09 11:00:00","21","molfetta","16.51","1","43.9","1","0.0","1","null","6","null","6","319.13","1","null","6","41.200462","16.604997"],
    [949,"2024-02-09 12:00:00","21","molfetta","18.3","1","39.83","1","0.0","1","null","6","null","6","320.01","1","null","6","41.200462","16.604997"],
    [950,"2024-02-09 13:00:00","21","molfetta","18.82","1","37.65","1","0.0","1","null","6","null","6","222.91","1","null","6","41.200462","16.604997"],
    [951,"2024-02-09 14:00:00","21","molfetta","18.59","1","39.48","1","0.0","1","null","6","null","6","149.43","1","null","6","41.200462","16.604997"],
    [952,"2024-02-09 15:00:00","21","molfetta","18.44","1","40.32","1","0.0","1","null","6","null","6","134.41","1","null","6","41.200462","16.604997"],
    [953,"2024-02-09 16:00:00","21","molfetta","18.65","1","42.48","1","0.0","1","null","6","null","6","112.79","1","null","6","41.200462","16.604997"],
    [954,"2024-02-09 17:00:00","21","molfetta","17.85","1","43.38","1","0.0","1","null","6","null","6","44.76","1","null","6","41.200462","16.604997"],
    [955,"2024-02-09 18:00:00","21","molfetta","15.78","1","50.72","1","0.0","1","null","6","null","6","0.0","5","null","6","41.200462","16.604997"],
    [956,"2024-02-09 19:00:00","21","molfetta","14.34","1","61.23","1","0.0","1","null","6","null","6","0.0","1","null","6","41.200462","16.604997"],
    [957,"2024-02-09 20:00:00","21","molfetta","13.74","1","68.04","1","0.0","1","null","6","null","6","0.0","1","null","6","41.200462","16.604997"],
    [958,"2024-02-09 21:00:00","21","molfetta","13.23","1","74.33","1","0.0","1","null","6","null","6","0.0","1","null","6","41.200462","16.604997"],
    [959,"2024-02-09 22:00:00","21","molfetta","12.72","1","77.28","1","0.0","1","null","6","null","6","0.0","1","null","6","41.200462","16.604997"],
    [960,"2024-02-09 23:00:00","21","molfetta","13.43","1","77.07","1","0.0","1","null","6","null","6","0.0","1","null","6","41.200462","16.604997"],
    [961,"2024-02-10 00:00:00","21","molfetta","13.8","1","80.43","1","0.0","1","null","6","null","6","0.0","1","null","6","41.200462","16.604997"],
    [962,"2024-02-10 01:00:00","21","molfetta","13.99","1","81.51","1","0.0","1","null","6","null","6","0.0","1","null","6","41.200462","16.604997"],
    [963,"2024-02-10 02:00:00","21","molfetta","13.95","1","81.36","1","0.0","1","null","6","null","6","0.0","1","null","6","41.200462","16.604997"],
    [964,"2024-02-10 03:00:00","21","molfetta","13.81","1","79.73","1","0.0","1","null","6","null","6","0.0","1","null","6","41.200462","16.604997"],
    [965,"2024-02-10 04:00:00","21","molfetta","13.94","1","80.34","1","0.0","1","null","6","null","6","0.0","1","null","6","41.200462","16.604997"],
    [966,"2024-02-10 05:00:00","21","molfetta","13.51","1","84.44","1","0.0","1","null","6","null","6","0.0","1","null","6","41.200462","16.604997"],
    [967,"2024-02-10 06:00:00","21","molfetta","13.84","1","74.3","1","0.0","1","null","6","null","6","0.0","1","null","6","41.200462","16.604997"],
    [968,"2024-02-10 07:00:00","21","molfetta","14.21","1","67.01","1","0.0","1","null","6","null","6","0.0","1","null","6","41.200462","16.604997"],
    [969,"2024-02-10 08:00:00","21","molfetta","14.35","1","66.8","1","0.0","1","null","6","null","6","0.0","5","null","6","41.200462","16.604997"],
    [970,"2024-02-10 09:00:00","21","molfetta","15.18","1","57.22","1","0.0","1","null","6","null","6","6.72","1","null","6","41.200462","16.604997"],
    [971,"2024-02-10 10:00:00","21","molfetta","15.49","1","58.9","1","0.0","1","null","6","null","6","24.78","1","null","6","41.200462","16.604997"],
    [972,"2024-02-10 11:00:00","21","molfetta","15.7","1","59.77","1","0.0","1","null","6","null","6","52.83","1","null","6","41.200462","16.604997"],
    [973,"2024-02-10 12:00:00","21","molfetta","16.19","1","63.55","1","0.0","1","null","6","null","6","63.86","1","null","6","41.200462","16.604997"],
    [974,"2024-02-10 13:00:00","21","molfetta","16.19","1","66.89","1","0.0","1","null","6","null","6","47.07","1","null","6","41.200462","16.604997"],
    [975,"2024-02-10 14:00:00","21","molfetta","16.21","1","65.89","1","0.0","1","null","6","null","6","44.9","1","null","6","41.200462","16.604997"],
    [976,"2024-02-10 15:00:00","21","molfetta","16.06","1","70.23","1","0.0","1","null","6","null","6","33.89","1","null","6","41.200462","16.604997"],
    [977,"2024-02-10 16:00:00","21","molfetta","15.7","1","71.51","1","0.0","1","null","6","null","6","29.12","1","null","6","41.200462","16.604997"],
    [978,"2024-02-10 17:00:00","21","molfetta","15.32","1","67.11","1","0.0","1","null","6","null","6","11.47","1","null","6","41.200462","16.604997"],
    [979,"2024-02-10 18:00:00","21","molfetta","15.68","1","51.67","1","0.0","1","null","6","null","6","0.0","5","null","6","41.200462","16.604997"],
    [980,"2024-02-10 19:00:00","21","molfetta","15.71","1","67.9","1","0.0","1","null","6","null","6","0.0","1","null","6","41.200462","16.604997"],
    [981,"2024-02-10 20:00:00","21","molfetta","15.44","1","73.96","1","0.0","1","null","6","null","6","0.0","1","null","6","41.200462","16.604997"],
    [982,"2024-02-10 21:00:00","21","molfetta","15.55","1","72.78","1","0.0","1","null","6","null","6","0.0","1","null","6","41.200462","16.604997"],
    [983,"2024-02-10 22:00:00","21","molfetta","15.72","1","64.23","1","0.0","1","null","6","null","6","0.0","1","null","6","41.200462","16.604997"],
    [984,"2024-02-10 23:00:00","21","molfetta","15.74","1","58.98","1","0.0","1","null","6","null","6","0.0","1","null","6","41.200462","16.604997"],
    [985,"2024-02-11 00:00:00","21","molfetta","16.33","1","51.29","1","0.0","1","null","6","null","6","0.0","1","null","6","41.200462","16.604997"],
    [986,"2024-02-11 01:00:00","21","molfetta","15.93","1","53.7","1","0.0","1","null","6","null","6","0.0","1","null","6","41.200462","16.604997"],
    [987,"2024-02-11 02:00:00","21","molfetta","15.49","1","55.18","1","0.0","1","null","6","null","6","0.0","1","null","6","41.200462","16.604997"],
    [988,"2024-02-11 03:00:00","21","molfetta","15.35","1","56.22","1","0.0","1","null","6","null","6","0.0","1","null","6","41.200462","16.604997"],
    [989,"2024-02-11 04:00:00","21","molfetta","14.63","1","59.85","1","0.0","1","null","6","null","6","0.0","1","null","6","41.200462","16.604997"],
    [990,"2024-02-11 05:00:00","21","molfetta","14.54","1","58.85","1","0.0","1","null","6","null","6","0.0","1","null","6","41.200462","16.604997"],
    [991,"2024-02-11 06:00:00","21","molfetta","14.78","1","57.78","1","0.0","1","null","6","null","6","0.0","1","null","6","41.200462","16.604997"],
    [992,"2024-02-11 07:00:00","21","molfetta","14.63","1","57.95","1","0.0","1","null","6","null","6","0.0","1","null","6","41.200462","16.604997"],
    [993,"2024-02-11 08:00:00","21","molfetta","14.46","1","57.04","1","0.0","1","null","6","null","6","12.55","1","null","6","41.200462","16.604997"],
    [994,"2024-02-11 09:00:00","21","molfetta","14.72","1","57.91","1","0.0","1","null","6","null","6","64.57","1","null","6","41.200462","16.604997"],
    [995,"2024-02-11 10:00:00","21","molfetta","15.84","1","55.47","1","0.0","1","null","6","null","6","75.07","1","null","6","41.200462","16.604997"],
    [996,"2024-02-11 11:00:00","21","molfetta","16.31","1","52.82","1","0.0","1","null","6","null","6","89.69","1","null","6","41.200462","16.604997"],
    [997,"2024-02-11 12:00:00","21","molfetta","14.9","1","62.06","1","0.0","1","null","6","null","6","133.43","1","null","6","41.200462","16.604997"],
    [998,"2024-02-11 13:00:00","21","molfetta","16.24","1","53.89","1","0.0","1","null","6","null","6","208.03","1","null","6","41.200462","16.604997"],
    [999,"2024-02-11 14:00:00","21","molfetta","16.1","1","51.73","1","0.0","1","null","6","null","6","154.87","1","null","6","41.200462","16.604997"],
    [1000,"2024-02-11 15:00:00","21","molfetta","15.29","1","55.95","1","0.0","1","null","6","null","6","71.96","1","null","6","41.200462","16.604997"],
    [1001,"2024-02-11 16:00:00","21","molfetta","16.11","1","50.41","1","0.0","1","null","6","null","6","102.43","1","null","6","41.200462","16.604997"],
    [1002,"2024-02-11 17:00:00","21","molfetta","15.72","1","49.48","1","0.0","1","null","6","null","6","38.25","1","null","6","41.200462","16.604997"],
    [1003,"2024-02-11 18:00:00","21","molfetta","14.5","1","53.52","1","0.0","1","null","6","null","6","0.0","5","null","6","41.200462","16.604997"],
    [1004,"2024-02-11 19:00:00","21","molfetta","13.33","1","56.04","1","0.0","1","null","6","null","6","0.0","1","null","6","41.200462","16.604997"],
    [1005,"2024-02-11 20:00:00","21","molfetta","12.06","1","61.95","1","0.0","1","null","6","null","6","0.0","1","null","6","41.200462","16.604997"],
    [1006,"2024-02-11 21:00:00","21","molfetta","11.33","1","65.38","1","0.0","1","null","6","null","6","0.0","1","null","6","41.200462","16.604997"],
    [1007,"2024-02-11 22:00:00","21","molfetta","10.92","1","63.37","1","0.0","1","null","6","null","6","0.0","1","null","6","41.200462","16.604997"],
    [1008,"2024-02-11 23:00:00","21","molfetta","10.42","1","65.14","1","0.0","1","null","6","null","6","0.0","1","null","6","41.200462","16.604997"],
    [1009,"2024-02-12 00:00:00","21","molfetta","10.32","1","65.12","1","0.0","1","null","6","null","6","0.0","1","null","6","41.200462","16.604997"],
    [1010,"2024-02-12 01:00:00","21","molfetta","9.73","1","67.01","1","0.0","1","null","6","null","6","0.0","1","null","6","41.200462","16.604997"],
    [1011,"2024-02-12 02:00:00","21","molfetta","9.38","1","68.4","1","0.0","1","null","6","null","6","0.0","1","null","6","41.200462","16.604997"],
    [1012,"2024-02-12 03:00:00","21","molfetta","9.19","1","67.49","1","0.0","1","null","6","null","6","0.0","1","null","6","41.200462","16.604997"],
    [1013,"2024-02-12 04:00:00","21","molfetta","9.02","1","67.7","1","0.0","1","null","6","null","6","0.0","1","null","6","41.200462","16.604997"],
    [1014,"2024-02-12 05:00:00","21","molfetta","9.05","1","67.68","1","0.0","1","null","6","null","6","0.0","1","null","6","41.200462","16.604997"],
    [1015,"2024-02-12 06:00:00","21","molfetta","8.79","1","68.84","1","0.0","1","null","6","null","6","0.0","1","null","6","41.200462","16.604997"],
    [1016,"2024-02-12 07:00:00","21","molfetta","8.58","1","70.66","1","0.0","1","null","6","null","6","0.0","1","null","6","41.200462","16.604997"],
    [1017,"2024-02-12 08:00:00","21","molfetta","9.08","1","71.79","1","0.0","1","null","6","null","6","27.26","1","null","6","41.200462","16.604997"],
    [1018,"2024-02-12 09:00:00","21","molfetta","10.31","1","70.0","1","0.0","1","null","6","null","6","62.31","1","null","6","41.200462","16.604997"],
    [1019,"2024-02-12 10:00:00","21","molfetta","12.28","1","65.27","1","0.0","1","null","6","null","6","125.93","1","null","6","41.200462","16.604997"],
    [1020,"2024-02-12 11:00:00","21","molfetta","13.73","1","59.09","1","0.0","1","null","6","null","6","214.24","1","null","6","41.200462","16.604997"],
    [1021,"2024-02-12 12:00:00","21","molfetta","17.27","1","49.62","1","0.0","1","null","6","null","6","498.17","1","null","6","41.200462","16.604997"],
    [1022,"2024-02-12 13:00:00","21","molfetta","16.19","1","55.59","1","0.0","1","null","6","null","6","226.04","1","null","6","41.200462","16.604997"],
    [1023,"2024-02-12 14:00:00","21","molfetta","14.71","1","63.97","1","0.0","1","null","6","null","6","64.77","1","null","6","41.200462","16.604997"],
    [1024,"2024-02-12 15:00:00","21","molfetta","14.35","1","66.64","1","0.0","1","null","6","null","6","65.67","1","null","6","41.200462","16.604997"],
    [1025,"2024-02-12 16:00:00","21","molfetta","14.06","1","67.99","1","0.0","1","null","6","null","6","54.84","1","null","6","41.200462","16.604997"],
    [1026,"2024-02-12 17:00:00","21","molfetta","13.78","1","67.76","1","0.0","1","null","6","null","6","46.33","1","null","6","41.200462","16.604997"],
    [1027,"2024-02-12 18:00:00","21","molfetta","13.58","1","71.63","1","0.0","1","null","6","null","6","0.0","5","null","6","41.200462","16.604997"],
    [1028,"2024-02-12 19:00:00","21","molfetta","12.98","1","76.03","1","0.0","1","null","6","null","6","0.0","1","null","6","41.200462","16.604997"],
    [1029,"2024-02-12 20:00:00","21","molfetta","12.59","1","77.13","1","0.0","1","null","6","null","6","0.0","1","null","6","41.200462","16.604997"],
    [1030,"2024-02-12 21:00:00","21","molfetta","11.95","1","77.33","1","0.0","1","null","6","null","6","0.0","1","null","6","41.200462","16.604997"],
    [1031,"2024-02-12 22:00:00","21","molfetta","11.6","1","77.48","1","0.0","1","null","6","null","6","0.0","1","null","6","41.200462","16.604997"],
    [1032,"2024-02-12 23:00:00","21","molfetta","11.5","1","76.42","1","0.0","1","null","6","null","6","0.0","1","null","6","41.200462","16.604997"],
    [1033,"2024-02-13 00:00:00","21","molfetta","11.86","1","71.3","1","0.0","1","null","6","null","6","0.0","1","null","6","41.200462","16.604997"],
    [1034,"2024-02-13 01:00:00","21","molfetta","11.84","1","68.96","1","0.0","1","null","6","null","6","0.0","1","null","6","41.200462","16.604997"],
    [1035,"2024-02-13 02:00:00","21","molfetta","11.43","1","74.42","1","0.0","1","null","6","null","6","0.0","1","null","6","41.200462","16.604997"],
    [1036,"2024-02-13 03:00:00","21","molfetta","11.26","1","74.19","1","0.0","1","null","6","null","6","0.0","1","null","6","41.200462","16.604997"],
    [1037,"2024-02-13 04:00:00","21","molfetta","11.17","1","74.65","1","0.0","1","null","6","null","6","0.0","1","null","6","41.200462","16.604997"],
    [1038,"2024-02-13 05:00:00","21","molfetta","11.04","1","74.6","1","0.0","1","null","6","null","6","0.0","1","null","6","41.200462","16.604997"],
    [1039,"2024-02-13 06:00:00","21","molfetta","11.06","1","73.86","1","0.0","1","null","6","null","6","0.0","1","null","6","41.200462","16.604997"],
    [1040,"2024-02-13 07:00:00","21","molfetta","11.09","1","72.36","1","0.0","1","null","6","null","6","0.0","5","null","6","41.200462","16.604997"],
    [1041,"2024-02-13 08:00:00","21","molfetta","11.4","1","71.58","1","0.0","1","null","6","null","6","33.27","1","null","6","41.200462","16.604997"],
    [1042,"2024-02-13 09:00:00","21","molfetta","11.54","1","74.73","1","0.6","1","null","6","null","6","41.32","1","null","6","41.200462","16.604997"],
    [1043,"2024-02-13 10:00:00","21","molfetta","11.4","1","83.72","1","0.0","1","null","6","null","6","120.95","1","null","6","41.200462","16.604997"],
    [1044,"2024-02-13 11:00:00","21","molfetta","12.47","1","78.49","1","0.0","1","null","6","null","6","204.94","1","null","6","41.200462","16.604997"],
    [1045,"2024-02-13 12:00:00","21","molfetta","13.57","1","76.87","1","0.0","1","null","6","null","6","271.5","1","null","6","41.200462","16.604997"],
    [1046,"2024-02-13 13:00:00","21","molfetta","14.05","1","72.48","1","0.0","1","null","6","null","6","219.33","1","null","6","41.200462","16.604997"],
    [1047,"2024-02-13 14:00:00","21","molfetta","14.08","1","70.16","1","0.0","1","null","6","null","6","199.9","1","null","6","41.200462","16.604997"],
    [1048,"2024-02-13 15:00:00","21","molfetta","13.8","1","72.69","1","0.0","1","null","6","null","6","111.92","1","null","6","41.200462","16.604997"],
    [1049,"2024-02-13 16:00:00","21","molfetta","11.97","1","79.81","1","1.8","1","null","6","null","6","14.18","1","null","6","41.200462","16.604997"],
    [1050,"2024-02-13 17:00:00","21","molfetta","10.48","1","90.09","1","0.6","1","null","6","null","6","12.31","1","null","6","41.200462","16.604997"],
    [1051,"2024-02-13 18:00:00","21","molfetta","10.39","1","90.46","1","0.0","1","null","6","null","6","0.0","5","null","6","41.200462","16.604997"],
    [1052,"2024-02-13 19:00:00","21","molfetta","10.18","1","86.04","1","0.0","1","null","6","null","6","0.0","1","null","6","41.200462","16.604997"],
    [1053,"2024-02-13 20:00:00","21","molfetta","10.3","1","84.15","1","0.0","1","null","6","null","6","0.0","1","null","6","41.200462","16.604997"],
    [1054,"2024-02-13 21:00:00","21","molfetta","10.76","1","84.36","1","0.0","1","null","6","null","6","0.0","1","null","6","41.200462","16.604997"],
    [1055,"2024-02-13 22:00:00","21","molfetta","10.69","1","82.21","1","0.0","1","null","6","null","6","0.0","1","null","6","41.200462","16.604997"],
    [1056,"2024-02-13 23:00:00","21","molfetta","10.32","1","84.34","1","0.0","1","null","6","null","6","0.0","1","null","6","41.200462","16.604997"],
    [1057,"2024-02-14 00:00:00","21","molfetta","10.13","1","86.03","1","0.0","1","null","6","null","6","0.0","1","null","6","41.200462","16.604997"],
    [1058,"2024-02-14 01:00:00","21","molfetta","10.14","1","85.24","1","0.0","1","null","6","null","6","0.0","1","null","6","41.200462","16.604997"],
    [1059,"2024-02-14 02:00:00","21","molfetta","10.13","1","84.91","1","0.0","1","null","6","null","6","0.0","1","null","6","41.200462","16.604997"],
    [1060,"2024-02-14 03:00:00","21","molfetta","9.85","1","82.7","1","0.0","1","null","6","null","6","0.0","1","null","6","41.200462","16.604997"],
    [1061,"2024-02-14 04:00:00","21","molfetta","9.35","1","80.68","1","0.0","1","null","6","null","6","0.0","1","null","6","41.200462","16.604997"],
    [1062,"2024-02-14 05:00:00","21","molfetta","9.1","1","78.99","1","0.0","1","null","6","null","6","0.0","1","null","6","41.200462","16.604997"],
    [1063,"2024-02-14 06:00:00","21","molfetta","10.25","1","68.35","1","0.0","1","null","6","null","6","0.0","1","null","6","41.200462","16.604997"],
    [1064,"2024-02-14 07:00:00","21","molfetta","11.75","1","54.97","1","0.0","1","null","6","null","6","0.0","5","null","6","41.200462","16.604997"],
    [1065,"2024-02-14 08:00:00","21","molfetta","11.82","1","52.76","1","0.0","1","null","6","null","6","22.35","1","null","6","41.200462","16.604997"],
    [1066,"2024-02-14 09:00:00","21","molfetta","12.13","1","50.11","1","0.0","1","null","6","null","6","89.08","1","null","6","41.200462","16.604997"],
    [1067,"2024-02-14 10:00:00","21","molfetta","12.95","1","51.57","1","0.0","1","null","6","null","6","271.09","1","null","6","41.200462","16.604997"],
    [1068,"2024-02-14 11:00:00","21","molfetta","13.75","1","45.94","1","0.0","1","null","6","null","6","468.02","1","null","6","41.200462","16.604997"],
    [1069,"2024-02-14 12:00:00","21","molfetta","14.41","1","44.37","1","0.0","1","null","6","null","6","557.33","1","null","6","41.200462","16.604997"],
    [1070,"2024-02-14 13:00:00","21","molfetta","13.71","1","46.68","1","0.0","1","null","6","null","6","262.59","1","null","6","41.200462","16.604997"],
    [1071,"2024-02-14 14:00:00","21","molfetta","12.92","1","49.72","1","0.0","1","null","6","null","6","56.07","1","null","6","41.200462","16.604997"],
    [1072,"2024-02-14 15:00:00","21","molfetta","12.79","1","51.39","1","0.0","1","null","6","null","6","45.8","1","null","6","41.200462","16.604997"],
    [1073,"2024-02-14 16:00:00","21","molfetta","12.88","1","51.86","1","0.0","1","null","6","null","6","38.12","1","null","6","41.200462","16.604997"],
    [1074,"2024-02-14 17:00:00","21","molfetta","12.8","1","52.36","1","0.0","1","null","6","null","6","24.31","1","null","6","41.200462","16.604997"],
    [1075,"2024-02-14 18:00:00","21","molfetta","12.57","1","57.06","1","0.0","1","null","6","null","6","0.0","5","null","6","41.200462","16.604997"],
    [1076,"2024-02-14 19:00:00","21","molfetta","12.39","1","57.68","1","0.0","1","null","6","null","6","0.0","1","null","6","41.200462","16.604997"],
    [1077,"2024-02-14 20:00:00","21","molfetta","12.2","1","56.43","1","0.0","1","null","6","null","6","0.0","1","null","6","41.200462","16.604997"],
    [1078,"2024-02-14 21:00:00","21","molfetta","10.17","1","55.32","1","0.0","1","null","6","null","6","0.0","1","null","6","41.200462","16.604997"],
    [1079,"2024-02-14 22:00:00","21","molfetta","9.74","1","58.76","1","0.0","1","null","6","null","6","0.0","1","null","6","41.200462","16.604997"],
    [1080,"2024-02-14 23:00:00","21","molfetta","9.6","1","64.99","1","0.0","1","null","6","null","6","0.0","1","null","6","41.200462","16.604997"],
    [1081,"2024-02-15 00:00:00","21","molfetta","9.64","1","66.13","1","0.0","1","null","6","null","6","0.0","1","null","6","41.200462","16.604997"],
    [1082,"2024-02-15 01:00:00","21","molfetta","9.41","1","69.39","1","0.0","1","null","6","null","6","0.0","1","null","6","41.200462","16.604997"],
    [1083,"2024-02-15 02:00:00","21","molfetta","9.1","1","70.46","1","0.0","1","null","6","null","6","0.0","1","null","6","41.200462","16.604997"],
    [1084,"2024-02-15 03:00:00","21","molfetta","8.82","1","71.7","1","0.0","1","null","6","null","6","0.0","1","null","6","41.200462","16.604997"],
    [1085,"2024-02-15 04:00:00","21","molfetta","8.92","1","70.31","1","0.0","1","null","6","null","6","0.0","1","null","6","41.200462","16.604997"],
    [1086,"2024-02-15 05:00:00","21","molfetta","8.89","1","67.34","1","0.0","1","null","6","null","6","0.0","1","null","6","41.200462","16.604997"],
    [1087,"2024-02-15 06:00:00","21","molfetta","8.79","1","64.94","1","0.0","1","null","6","null","6","0.0","1","null","6","41.200462","16.604997"],
    [1088,"2024-02-15 07:00:00","21","molfetta","8.65","1","63.08","1","0.0","1","null","6","null","6","0.0","5","null","6","41.200462","16.604997"],
    [1089,"2024-02-15 08:00:00","21","molfetta","9.12","1","60.3","1","0.0","1","null","6","null","6","25.27","1","null","6","41.200462","16.604997"],
    [1090,"2024-02-15 09:00:00","21","molfetta","11.0","1","56.32","1","0.0","1","null","6","null","6","76.13","1","null","6","41.200462","16.604997"],
    [1091,"2024-02-15 10:00:00","21","molfetta","14.3","1","50.77","1","0.0","1","null","6","null","6","415.26","1","null","6","41.200462","16.604997"],
    [1092,"2024-02-15 11:00:00","21","molfetta","16.7","1","45.68","1","0.0","1","null","6","null","6","540.6","1","null","6","41.200462","16.604997"],
    [1093,"2024-02-15 12:00:00","21","molfetta","17.48","1","44.7","1","0.0","1","null","6","null","6","614.15","1","null","6","41.200462","16.604997"],
    [1094,"2024-02-15 13:00:00","21","molfetta","16.08","1","49.51","1","0.0","1","null","6","null","6","260.08","1","null","6","41.200462","16.604997"],
    [1095,"2024-02-15 14:00:00","21","molfetta","14.79","1","55.28","1","0.0","1","null","6","null","6","53.51","1","null","6","41.200462","16.604997"],
    [1096,"2024-02-15 15:00:00","21","molfetta","14.81","1","57.49","1","0.0","1","null","6","null","6","44.36","1","null","6","41.200462","16.604997"],
    [1097,"2024-02-15 16:00:00","21","molfetta","14.53","1","65.91","1","0.0","1","null","6","null","6","37.97","1","null","6","41.200462","16.604997"],
    [1098,"2024-02-15 17:00:00","21","molfetta","13.88","1","76.22","1","0.0","1","null","6","null","6","24.56","1","null","6","41.200462","16.604997"],
    [1099,"2024-02-15 18:00:00","21","molfetta","13.28","1","80.67","1","0.0","1","null","6","null","6","0.0","5","null","6","41.200462","16.604997"],
    [1100,"2024-02-15 19:00:00","21","molfetta","13.03","1","80.66","1","0.0","1","null","6","null","6","0.0","1","null","6","41.200462","16.604997"],
    [1101,"2024-02-15 20:00:00","21","molfetta","12.67","1","80.44","1","0.0","1","null","6","null","6","0.0","1","null","6","41.200462","16.604997"],
    [1102,"2024-02-15 21:00:00","21","molfetta","11.84","1","81.86","1","0.0","1","null","6","null","6","0.0","1","null","6","41.200462","16.604997"],
    [1103,"2024-02-15 22:00:00","21","molfetta","10.49","1","84.33","1","0.0","1","null","6","null","6","0.0","1","null","6","41.200462","16.604997"],
    [1104,"2024-02-15 23:00:00","21","molfetta","10.43","1","76.37","1","0.0","1","null","6","null","6","0.0","1","null","6","41.200462","16.604997"],
    [1105,"2024-02-16 00:00:00","21","molfetta","9.92","1","67.94","1","0.0","1","null","6","null","6","0.0","1","null","6","41.200462","16.604997"],
    [1106,"2024-02-16 01:00:00","21","molfetta","9.76","1","65.64","1","0.0","1","null","6","null","6","0.0","1","null","6","41.200462","16.604997"],
    [1107,"2024-02-16 02:00:00","21","molfetta","10.16","1","62.24","1","0.0","1","null","6","null","6","0.0","1","null","6","41.200462","16.604997"],
    [1108,"2024-02-16 03:00:00","21","molfetta","9.36","1","65.43","1","0.0","1","null","6","null","6","0.0","1","null","6","41.200462","16.604997"],
    [1109,"2024-02-16 04:00:00","21","molfetta","8.66","1","67.82","1","0.0","1","null","6","null","6","0.0","1","null","6","41.200462","16.604997"],
    [1110,"2024-02-16 05:00:00","21","molfetta","8.05","1","69.57","1","0.0","1","null","6","null","6","0.0","1","null","6","41.200462","16.604997"],
    [1111,"2024-02-16 06:00:00","21","molfetta","7.58","1","69.16","1","0.0","1","null","6","null","6","0.0","1","null","6","41.200462","16.604997"],
    [1112,"2024-02-16 07:00:00","21","molfetta","7.66","1","67.29","1","0.0","1","null","6","null","6","0.0","5","null","6","41.200462","16.604997"],
    [1113,"2024-02-16 08:00:00","21","molfetta","8.14","1","64.65","1","0.0","1","null","6","null","6","26.49","1","null","6","41.200462","16.604997"],
    [1114,"2024-02-16 09:00:00","21","molfetta","9.88","1","60.81","1","0.0","1","null","6","null","6","69.99","1","null","6","41.200462","16.604997"],
    [1115,"2024-02-16 10:00:00","21","molfetta","16.99","1","42.78","1","0.0","1","null","6","null","6","422.31","1","null","6","41.200462","16.604997"],
    [1116,"2024-02-16 11:00:00","21","molfetta","20.92","1","28.48","1","0.0","1","null","6","null","6","543.12","1","null","6","41.200462","16.604997"],
    [1117,"2024-02-16 12:00:00","21","molfetta","19.67","1","36.16","1","0.0","1","null","6","null","6","616.51","1","null","6","41.200462","16.604997"],
    [1118,"2024-02-16 13:00:00","21","molfetta","17.59","1","48.91","1","0.0","1","null","6","null","6","256.02","1","null","6","41.200462","16.604997"],
    [1119,"2024-02-16 14:00:00","21","molfetta","13.87","1","67.31","1","0.0","1","null","6","null","6","50.81","1","null","6","41.200462","16.604997"],
    [1120,"2024-02-16 15:00:00","21","molfetta","13.95","1","75.13","1","0.0","1","null","6","null","6","43.08","1","null","6","41.200462","16.604997"],
    [1121,"2024-02-16 16:00:00","21","molfetta","13.85","1","82.23","1","0.0","1","null","6","null","6","36.86","1","null","6","41.200462","16.604997"],
    [1122,"2024-02-16 17:00:00","21","molfetta","13.38","1","81.82","1","0.0","1","null","6","null","6","23.43","1","null","6","41.200462","16.604997"],
    [1123,"2024-02-16 18:00:00","21","molfetta","12.79","1","81.74","1","0.0","1","null","6","null","6","0.0","5","null","6","41.200462","16.604997"],
    [1124,"2024-02-16 19:00:00","21","molfetta","12.01","1","79.36","1","0.0","1","null","6","null","6","0.0","1","null","6","41.200462","16.604997"],
    [1125,"2024-02-16 20:00:00","21","molfetta","11.57","1","73.75","1","0.0","1","null","6","null","6","0.0","1","null","6","41.200462","16.604997"],
    [1126,"2024-02-16 21:00:00","21","molfetta","10.85","1","74.63","1","0.0","1","null","6","null","6","0.0","1","null","6","41.200462","16.604997"],
    [1127,"2024-02-16 22:00:00","21","molfetta","10.43","1","71.69","1","0.0","1","null","6","null","6","0.0","1","null","6","41.200462","16.604997"],
    [1128,"2024-02-16 23:00:00","21","molfetta","10.08","1","70.24","1","0.0","1","null","6","null","6","0.0","1","null","6","41.200462","16.604997"],
    [1129,"2024-02-17 00:00:00","21","molfetta","9.84","1","73.17","1","0.0","1","null","6","null","6","0.0","1","null","6","41.200462","16.604997"],
    [1130,"2024-02-17 01:00:00","21","molfetta","9.7","1","75.61","1","0.0","1","null","6","null","6","0.0","1","null","6","41.200462","16.604997"],
    [1131,"2024-02-17 02:00:00","21","molfetta","9.21","1","73.78","1","0.0","1","null","6","null","6","0.0","1","null","6","41.200462","16.604997"],
    [1132,"2024-02-17 03:00:00","21","molfetta","9.61","1","72.54","1","0.0","1","null","6","null","6","0.0","1","null","6","41.200462","16.604997"],
    [1133,"2024-02-17 04:00:00","21","molfetta","9.58","1","70.22","1","0.0","1","null","6","null","6","0.0","1","null","6","41.200462","16.604997"],
    [1134,"2024-02-17 05:00:00","21","molfetta","9.38","1","70.41","1","0.0","1","null","6","null","6","0.0","1","null","6","41.200462","16.604997"],
    [1135,"2024-02-17 06:00:00","21","molfetta","8.18","1","74.84","1","0.0","1","null","6","null","6","0.0","1","null","6","41.200462","16.604997"],
    [1136,"2024-02-17 07:00:00","21","molfetta","7.45","1","78.59","1","0.0","1","null","6","null","6","0.0","5","null","6","41.200462","16.604997"],
    [1137,"2024-02-17 08:00:00","21","molfetta","7.4","1","80.41","1","0.0","1","null","6","null","6","28.27","1","null","6","41.200462","16.604997"],
    [1138,"2024-02-17 09:00:00","21","molfetta","9.17","1","79.25","1","0.0","1","null","6","null","6","80.37","1","null","6","41.200462","16.604997"],
    [1139,"2024-02-17 10:00:00","21","molfetta","13.01","1","69.71","1","0.0","1","null","6","null","6","325.81","1","null","6","41.200462","16.604997"],
    [1140,"2024-02-17 11:00:00","21","molfetta","14.41","1","66.62","1","0.0","1","null","6","null","6","412.13","1","null","6","41.200462","16.604997"],
    [1141,"2024-02-17 12:00:00","21","molfetta","15.67","1","66.98","1","0.0","1","null","6","null","6","551.46","1","null","6","41.200462","16.604997"],
    [1142,"2024-02-17 13:00:00","21","molfetta","15.45","1","70.55","1","0.0","1","null","6","null","6","228.35","1","null","6","41.200462","16.604997"],
    [1143,"2024-02-17 14:00:00","21","molfetta","13.79","1","78.42","1","0.0","1","null","6","null","6","68.02","1","null","6","41.200462","16.604997"],
    [1144,"2024-02-17 15:00:00","21","molfetta","13.23","1","82.2","1","0.0","1","null","6","null","6","58.85","1","null","6","41.200462","16.604997"],
    [1145,"2024-02-17 16:00:00","21","molfetta","12.98","1","85.88","1","0.0","1","null","6","null","6","46.34","1","null","6","41.200462","16.604997"],
    [1146,"2024-02-17 17:00:00","21","molfetta","12.88","1","88.36","1","0.0","1","null","6","null","6","27.82","1","null","6","41.200462","16.604997"],
    [1147,"2024-02-17 18:00:00","21","molfetta","12.84","1","90.16","1","0.0","1","null","6","null","6","5.09","1","null","6","41.200462","16.604997"],
    [1148,"2024-02-17 19:00:00","21","molfetta","12.71","1","91.47","1","0.0","1","null","6","null","6","0.0","1","null","6","41.200462","16.604997"],
    [1149,"2024-02-17 20:00:00","21","molfetta","12.0","1","92.7","1","0.0","1","null","6","null","6","0.0","1","null","6","41.200462","16.604997"],
    [1150,"2024-02-17 21:00:00","21","molfetta","11.71","1","93.93","1","0.0","1","null","6","null","6","0.0","1","null","6","41.200462","16.604997"],
    [1151,"2024-02-17 22:00:00","21","molfetta","11.55","1","94.34","1","0.0","1","null","6","null","6","0.0","1","null","6","41.200462","16.604997"],
    [1152,"2024-02-17 23:00:00","21","molfetta","11.69","1","94.57","1","0.0","1","null","6","null","6","0.0","1","null","6","41.200462","16.604997"],
    [1153,"2024-02-18 00:00:00","21","molfetta","11.99","1","94.5","1","0.0","1","null","6","null","6","0.0","1","null","6","41.200462","16.604997"],
    [1154,"2024-02-18 01:00:00","21","molfetta","11.8","1","93.27","1","0.0","1","null","6","null","6","0.0","1","null","6","41.200462","16.604997"],
    [1155,"2024-02-18 02:00:00","21","molfetta","10.76","1","91.28","1","0.0","1","null","6","null","6","0.0","1","null","6","41.200462","16.604997"],
    [1156,"2024-02-18 03:00:00","21","molfetta","9.88","1","90.96","1","0.0","1","null","6","null","6","0.0","1","null","6","41.200462","16.604997"],
    [1157,"2024-02-18 04:00:00","21","molfetta","9.15","1","90.12","1","0.0","1","null","6","null","6","0.0","1","null","6","41.200462","16.604997"],
    [1158,"2024-02-18 05:00:00","21","molfetta","8.55","1","89.24","1","0.0","1","null","6","null","6","0.0","1","null","6","41.200462","16.604997"],
    [1159,"2024-02-18 06:00:00","21","molfetta","8.03","1","89.12","1","0.0","1","null","6","null","6","0.0","1","null","6","41.200462","16.604997"],
    [1160,"2024-02-18 07:00:00","21","molfetta","8.18","1","89.22","1","0.0","1","null","6","null","6","0.0","5","null","6","41.200462","16.604997"],
    [1161,"2024-02-18 08:00:00","21","molfetta","8.58","1","87.22","1","0.0","1","null","6","null","6","28.05","1","null","6","41.200462","16.604997"],
    [1162,"2024-02-18 09:00:00","21","molfetta","10.07","1","82.79","1","0.0","1","null","6","null","6","80.15","1","null","6","41.200462","16.604997"],
    [1163,"2024-02-18 10:00:00","21","molfetta","13.69","1","65.66","1","0.0","1","null","6","null","6","401.43","1","null","6","41.200462","16.604997"],
    [1164,"2024-02-18 11:00:00","21","molfetta","16.62","1","57.6","1","0.0","1","null","6","null","6","510.29","1","null","6","41.200462","16.604997"],
    [1165,"2024-02-18 12:00:00","21","molfetta","17.17","1","58.66","1","0.0","1","null","6","null","6","573.39","1","null","6","41.200462","16.604997"],
    [1166,"2024-02-18 13:00:00","21","molfetta","15.83","1","63.53","1","0.0","1","null","6","null","6","243.94","1","null","6","41.200462","16.604997"],
    [1167,"2024-02-18 14:00:00","21","molfetta","13.83","1","76.34","1","0.0","1","null","6","null","6","77.72","1","null","6","41.200462","16.604997"],
    [1168,"2024-02-18 15:00:00","21","molfetta","13.59","1","80.35","1","0.0","1","null","6","null","6","77.82","1","null","6","41.200462","16.604997"],
    [1169,"2024-02-18 16:00:00","21","molfetta","13.63","1","76.86","1","0.0","1","null","6","null","6","57.37","1","null","6","41.200462","16.604997"],
    [1170,"2024-02-18 17:00:00","21","molfetta","13.34","1","77.05","1","0.0","1","null","6","null","6","37.51","1","null","6","41.200462","16.604997"],
    [1171,"2024-02-18 18:00:00","21","molfetta","12.68","1","73.25","1","0.0","1","null","6","null","6","5.93","1","null","6","41.200462","16.604997"],
    [1172,"2024-02-18 19:00:00","21","molfetta","12.48","1","72.49","1","0.0","1","null","6","null","6","0.0","1","null","6","41.200462","16.604997"],
    [1173,"2024-02-18 20:00:00","21","molfetta","12.59","1","71.55","1","0.0","1","null","6","null","6","0.0","1","null","6","41.200462","16.604997"],
    [1174,"2024-02-18 21:00:00","21","molfetta","12.43","1","73.21","1","0.0","1","null","6","null","6","0.0","1","null","6","41.200462","16.604997"],
    [1175,"2024-02-18 22:00:00","21","molfetta","12.3","1","76.28","1","0.0","1","null","6","null","6","0.0","1","null","6","41.200462","16.604997"],
    [1176,"2024-02-18 23:00:00","21","molfetta","11.89","1","80.3","1","0.0","1","null","6","null","6","0.0","1","null","6","41.200462","16.604997"],
    [1177,"2024-02-19 00:00:00","21","molfetta","11.78","1","84.07","1","0.0","1","null","6","null","6","0.0","1","null","6","41.200462","16.604997"],
    [1178,"2024-02-19 01:00:00","21","molfetta","11.62","1","85.03","1","0.0","1","null","6","null","6","0.0","1","null","6","41.200462","16.604997"],
    [1179,"2024-02-19 02:00:00","21","molfetta","10.98","1","85.16","1","0.0","1","null","6","null","6","0.0","1","null","6","41.200462","16.604997"],
    [1180,"2024-02-19 03:00:00","21","molfetta","10.22","1","80.73","1","0.0","1","null","6","null","6","0.0","1","null","6","41.200462","16.604997"],
    [1181,"2024-02-19 04:00:00","21","molfetta","9.58","1","76.52","1","0.0","1","null","6","null","6","0.0","1","null","6","41.200462","16.604997"],
    [1182,"2024-02-19 05:00:00","21","molfetta","9.24","1","75.81","1","0.0","1","null","6","null","6","0.0","1","null","6","41.200462","16.604997"],
    [1183,"2024-02-19 06:00:00","21","molfetta","8.91","1","75.05","1","0.0","1","null","6","null","6","0.0","1","null","6","41.200462","16.604997"],
    [1184,"2024-02-19 07:00:00","21","molfetta","8.96","1","76.29","1","0.0","1","null","6","null","6","0.0","5","null","6","41.200462","16.604997"],
    [1185,"2024-02-19 08:00:00","21","molfetta","9.42","1","74.74","1","0.0","1","null","6","null","6","27.59","1","null","6","41.200462","16.604997"],
    [1186,"2024-02-19 09:00:00","21","molfetta","11.26","1","68.87","1","0.0","1","null","6","null","6","71.65","1","null","6","41.200462","16.604997"],
    [1187,"2024-02-19 10:00:00","21","molfetta","16.6","1","52.39","1","0.0","1","null","6","null","6","397.06","1","null","6","41.200462","16.604997"],
    [1188,"2024-02-19 11:00:00","21","molfetta","19.04","1","51.73","1","0.0","1","null","6","null","6","518.42","1","null","6","41.200462","16.604997"],
    [1189,"2024-02-19 12:00:00","21","molfetta","18.38","1","55.96","1","0.0","1","null","6","null","6","581.45","1","null","6","41.200462","16.604997"],
    [1190,"2024-02-19 13:00:00","21","molfetta","17.72","1","56.5","1","0.0","1","null","6","null","6","319.82","1","null","6","41.200462","16.604997"],
    [1191,"2024-02-19 14:00:00","21","molfetta","15.15","1","62.76","1","0.0","1","null","6","null","6","97.48","1","null","6","41.200462","16.604997"],
    [1192,"2024-02-19 15:00:00","21","molfetta","14.85","1","70.01","1","0.0","1","null","6","null","6","104.99","1","null","6","41.200462","16.604997"],
    [1193,"2024-02-19 16:00:00","21","molfetta","15.19","1","70.49","1","0.0","1","null","6","null","6","128.86","1","null","6","41.200462","16.604997"],
    [1194,"2024-02-19 17:00:00","21","molfetta","14.65","1","73.77","1","0.0","1","null","6","null","6","43.9","1","null","6","41.200462","16.604997"],
    [1195,"2024-02-19 18:00:00","21","molfetta","13.97","1","80.47","1","0.0","1","null","6","null","6","7.26","1","null","6","41.200462","16.604997"],
    [1196,"2024-02-19 19:00:00","21","molfetta","13.38","1","81.51","1","0.0","1","null","6","null","6","0.0","1","null","6","41.200462","16.604997"],
    [1197,"2024-02-19 20:00:00","21","molfetta","12.82","1","82.77","1","0.0","1","null","6","null","6","0.0","1","null","6","41.200462","16.604997"],
    [1198,"2024-02-19 21:00:00","21","molfetta","12.55","1","83.9","1","0.0","1","null","6","null","6","0.0","1","null","6","41.200462","16.604997"],
    [1199,"2024-02-19 22:00:00","21","molfetta","12.44","1","83.09","1","0.0","1","null","6","null","6","0.0","1","null","6","41.200462","16.604997"],
    [1200,"2024-02-19 23:00:00","21","molfetta","12.35","1","83.66","1","0.0","1","null","6","null","6","0.0","1","null","6","41.200462","16.604997"],
    [1201,"2024-02-20 00:00:00","21","molfetta","12.45","1","84.53","1","0.0","1","null","6","null","6","0.0","5","null","6","41.200462","16.604997"],
    [1202,"2024-02-20 01:00:00","21","molfetta","12.09","1","84.72","1","0.0","1","null","6","null","6","0.0","1","null","6","41.200462","16.604997"],
    [1203,"2024-02-20 02:00:00","21","molfetta","11.7","1","86.35","1","0.0","1","null","6","null","6","0.0","1","null","6","41.200462","16.604997"],
    [1204,"2024-02-20 03:00:00","21","molfetta","11.19","1","88.1","1","0.0","1","null","6","null","6","0.0","1","null","6","41.200462","16.604997"],
    [1205,"2024-02-20 04:00:00","21","molfetta","11.05","1","88.69","1","0.0","1","null","6","null","6","0.0","1","null","6","41.200462","16.604997"],
    [1206,"2024-02-20 05:00:00","21","molfetta","10.82","1","87.32","1","0.0","1","null","6","null","6","0.0","1","null","6","41.200462","16.604997"],
    [1207,"2024-02-20 06:00:00","21","molfetta","10.6","1","86.03","1","0.0","1","null","6","null","6","0.0","1","null","6","41.200462","16.604997"],
    [1208,"2024-02-20 07:00:00","21","molfetta","10.95","1","84.53","1","0.0","1","null","6","null","6","0.0","5","null","6","41.200462","16.604997"],
    [1209,"2024-02-20 08:00:00","21","molfetta","11.09","1","83.74","1","0.0","1","null","6","null","6","31.44","1","null","6","41.200462","16.604997"],
    [1210,"2024-02-20 09:00:00","21","molfetta","12.02","1","79.5","1","0.0","1","null","6","null","6","117.28","1","null","6","41.200462","16.604997"],
    [1211,"2024-02-20 10:00:00","21","molfetta","14.25","1","70.59","1","0.0","1","null","6","null","6","211.12","1","null","6","41.200462","16.604997"],
    [1212,"2024-02-20 11:00:00","21","molfetta","14.67","1","70.9","1","0.0","1","null","6","null","6","254.09","1","null","6","41.200462","16.604997"],
    [1213,"2024-02-20 12:00:00","21","molfetta","16.64","1","60.88","1","0.0","1","null","6","null","6","481.6","1","null","6","41.200462","16.604997"],
    [1214,"2024-02-20 13:00:00","21","molfetta","17.53","1","56.84","1","0.0","1","null","6","null","6","243.77","1","null","6","41.200462","16.604997"],
    [1215,"2024-02-20 14:00:00","21","molfetta","15.5","1","64.26","1","0.0","1","null","6","null","6","85.76","1","null","6","41.200462","16.604997"],
    [1216,"2024-02-20 15:00:00","21","molfetta","14.92","1","68.27","1","0.0","1","null","6","null","6","65.62","1","null","6","41.200462","16.604997"],
    [1217,"2024-02-20 16:00:00","21","molfetta","14.62","1","72.54","1","0.0","1","null","6","null","6","54.8","1","null","6","41.200462","16.604997"],
    [1218,"2024-02-20 17:00:00","21","molfetta","14.3","1","77.73","1","0.0","1","null","6","null","6","59.16","1","null","6","41.200462","16.604997"],
    [1219,"2024-02-20 18:00:00","21","molfetta","13.79","1","83.67","1","0.0","1","null","6","null","6","10.3","1","null","6","41.200462","16.604997"],
    [1220,"2024-02-20 19:00:00","21","molfetta","13.42","1","86.15","1","0.0","1","null","6","null","6","0.0","1","null","6","41.200462","16.604997"],
    [1221,"2024-02-20 20:00:00","21","molfetta","13.45","1","84.66","1","0.0","1","null","6","null","6","0.0","1","null","6","41.200462","16.604997"],
    [1222,"2024-02-20 21:00:00","21","molfetta","13.03","1","85.83","1","0.0","1","null","6","null","6","0.0","1","null","6","41.200462","16.604997"],
    [1223,"2024-02-20 22:00:00","21","molfetta","12.79","1","86.06","1","0.0","1","null","6","null","6","0.0","1","null","6","41.200462","16.604997"],
    [1224,"2024-02-20 23:00:00","21","molfetta","12.13","1","85.32","1","0.0","1","null","6","null","6","0.0","1","null","6","41.200462","16.604997"],
    [1225,"2024-02-21 00:00:00","21","molfetta","12.01","1","84.27","1","0.0","1","null","6","null","6","0.0","1","null","6","41.200462","16.604997"],
    [1226,"2024-02-21 01:00:00","21","molfetta","11.46","1","84.31","1","0.0","1","null","6","null","6","0.0","1","null","6","41.200462","16.604997"],
    [1227,"2024-02-21 02:00:00","21","molfetta","10.73","1","78.72","1","0.0","1","null","6","null","6","0.0","1","null","6","41.200462","16.604997"],
    [1228,"2024-02-21 03:00:00","21","molfetta","10.52","1","75.26","1","0.0","1","null","6","null","6","0.0","1","null","6","41.200462","16.604997"],
    [1229,"2024-02-21 04:00:00","21","molfetta","10.2","1","74.79","1","0.0","1","null","6","null","6","0.0","1","null","6","41.200462","16.604997"],
    [1230,"2024-02-21 05:00:00","21","molfetta","9.87","1","76.43","1","0.0","1","null","6","null","6","0.0","1","null","6","41.200462","16.604997"],
    [1231,"2024-02-21 06:00:00","21","molfetta","9.57","1","77.95","1","0.0","1","null","6","null","6","0.0","1","null","6","41.200462","16.604997"],
    [1232,"2024-02-21 07:00:00","21","molfetta","9.53","1","80.06","1","0.0","1","null","6","null","6","0.0","5","null","6","41.200462","16.604997"],
    [1233,"2024-02-21 08:00:00","21","molfetta","9.85","1","81.0","1","0.0","1","null","6","null","6","27.82","1","null","6","41.200462","16.604997"],
    [1234,"2024-02-21 09:00:00","21","molfetta","11.43","1","75.22","1","0.0","1","null","6","null","6","80.05","1","null","6","41.200462","16.604997"],
    [1235,"2024-02-21 10:00:00","21","molfetta","12.6","1","72.62","1","0.0","1","null","6","null","6","162.23","1","null","6","41.200462","16.604997"],
    [1236,"2024-02-21 11:00:00","21","molfetta","13.26","1","71.03","1","0.0","1","null","6","null","6","212.98","1","null","6","41.200462","16.604997"],
    [1237,"2024-02-21 12:00:00","21","molfetta","15.5","1","63.09","1","0.0","1","null","6","null","6","550.04","1","null","6","41.200462","16.604997"],
    [1238,"2024-02-21 13:00:00","21","molfetta","15.74","1","62.3","1","0.0","1","null","6","null","6","253.82","1","null","6","41.200462","16.604997"],
    [1239,"2024-02-21 14:00:00","21","molfetta","14.23","1","72.1","1","0.0","1","null","6","null","6","69.42","1","null","6","41.200462","16.604997"],
    [1240,"2024-02-21 15:00:00","21","molfetta","14.12","1","75.96","1","0.0","1","null","6","null","6","56.11","1","null","6","41.200462","16.604997"],
    [1241,"2024-02-21 16:00:00","21","molfetta","14.05","1","78.76","1","0.0","1","null","6","null","6","53.87","1","null","6","41.200462","16.604997"],
    [1242,"2024-02-21 17:00:00","21","molfetta","13.63","1","76.33","1","0.0","1","null","6","null","6","30.4","1","null","6","41.200462","16.604997"],
    [1243,"2024-02-21 18:00:00","21","molfetta","13.03","1","72.59","1","0.0","1","null","6","null","6","6.36","1","null","6","41.200462","16.604997"],
    [1244,"2024-02-21 19:00:00","21","molfetta","12.77","1","68.99","1","0.0","1","null","6","null","6","0.0","1","null","6","41.200462","16.604997"],
    [1245,"2024-02-21 20:00:00","21","molfetta","12.44","1","67.67","1","0.0","1","null","6","null","6","0.0","1","null","6","41.200462","16.604997"],
    [1246,"2024-02-21 21:00:00","21","molfetta","11.47","1","68.53","1","0.0","1","null","6","null","6","0.0","1","null","6","41.200462","16.604997"],
    [1247,"2024-02-21 22:00:00","21","molfetta","10.57","1","70.11","1","0.0","1","null","6","null","6","0.0","1","null","6","41.200462","16.604997"],
    [1248,"2024-02-21 23:00:00","21","molfetta","9.68","1","72.59","1","0.0","1","null","6","null","6","0.0","1","null","6","41.200462","16.604997"],
    [1249,"2024-02-22 00:00:00","21","molfetta","9.03","1","73.13","1","0.0","1","null","6","null","6","0.0","1","null","6","41.200462","16.604997"],
    [1250,"2024-02-22 01:00:00","21","molfetta","8.32","1","72.23","1","0.0","1","null","6","null","6","0.0","1","null","6","41.200462","16.604997"],
    [1251,"2024-02-22 02:00:00","21","molfetta","8.07","1","67.59","1","0.0","1","null","6","null","6","0.0","1","null","6","41.200462","16.604997"],
    [1252,"2024-02-22 03:00:00","21","molfetta","8.04","1","68.14","1","0.0","1","null","6","null","6","0.0","1","null","6","41.200462","16.604997"],
    [1253,"2024-02-22 04:00:00","21","molfetta","7.97","1","67.19","1","0.0","1","null","6","null","6","0.0","1","null","6","41.200462","16.604997"],
    [1254,"2024-02-22 05:00:00","21","molfetta","7.77","1","65.8","1","0.0","1","null","6","null","6","0.0","1","null","6","41.200462","16.604997"],
    [1255,"2024-02-22 06:00:00","21","molfetta","7.64","1","65.99","1","0.0","1","null","6","null","6","0.0","1","null","6","41.200462","16.604997"],
    [1256,"2024-02-22 07:00:00","21","molfetta","7.92","1","68.84","1","0.0","1","null","6","null","6","0.0","5","null","6","41.200462","16.604997"],
    [1257,"2024-02-22 08:00:00","21","molfetta","8.74","1","68.31","1","0.0","1","null","6","null","6","35.55","1","null","6","41.200462","16.604997"],
    [1258,"2024-02-22 09:00:00","21","molfetta","11.13","1","60.83","1","0.0","1","null","6","null","6","67.36","1","null","6","41.200462","16.604997"],
    [1259,"2024-02-22 10:00:00","21","molfetta","17.3","1","42.38","1","0.0","1","null","6","null","6","437.06","1","null","6","41.200462","16.604997"],
    [1260,"2024-02-22 11:00:00","21","molfetta","21.5","1","30.59","1","0.0","1","null","6","null","6","569.33","1","null","6","41.200462","16.604997"],
    [1261,"2024-02-22 12:00:00","21","molfetta","21.54","1","29.48","1","0.0","1","null","6","null","6","556.47","1","null","6","41.200462","16.604997"],
    [1262,"2024-02-22 13:00:00","21","molfetta","20.34","1","30.05","1","0.0","1","null","6","null","6","271.27","1","null","6","41.200462","16.604997"],
    [1263,"2024-02-22 14:00:00","21","molfetta","18.94","1","34.75","1","0.0","1","null","6","null","6","190.95","1","null","6","41.200462","16.604997"],
    [1264,"2024-02-22 15:00:00","21","molfetta","19.09","1","32.65","1","0.0","1","null","6","null","6","129.79","1","null","6","41.200462","16.604997"],
    [1265,"2024-02-22 16:00:00","21","molfetta","18.83","1","34.78","1","0.0","1","null","6","null","6","97.36","1","null","6","41.200462","16.604997"],
    [1266,"2024-02-22 17:00:00","21","molfetta","17.57","1","41.84","1","0.0","1","null","6","null","6","71.83","1","null","6","41.200462","16.604997"],
    [1267,"2024-02-22 18:00:00","21","molfetta","15.93","1","48.7","1","0.0","1","null","6","null","6","10.52","1","null","6","41.200462","16.604997"],
    [1268,"2024-02-22 19:00:00","21","molfetta","14.25","1","54.6","1","0.0","1","null","6","null","6","0.0","1","null","6","41.200462","16.604997"],
    [1269,"2024-02-22 20:00:00","21","molfetta","13.12","1","61.28","1","0.0","1","null","6","null","6","0.0","1","null","6","41.200462","16.604997"],
    [1270,"2024-02-22 21:00:00","21","molfetta","12.19","1","66.82","1","0.0","1","null","6","null","6","0.0","1","null","6","41.200462","16.604997"],
    [1271,"2024-02-22 22:00:00","21","molfetta","11.59","1","67.35","1","0.0","1","null","6","null","6","0.0","1","null","6","41.200462","16.604997"],
    [1272,"2024-02-22 23:00:00","21","molfetta","11.38","1","61.82","1","0.0","1","null","6","null","6","0.0","1","null","6","41.200462","16.604997"],
    [1273,"2024-02-23 00:00:00","21","molfetta","11.18","1","59.7","1","0.0","1","null","6","null","6","0.0","1","null","6","41.200462","16.604997"],
    [1274,"2024-02-23 01:00:00","21","molfetta","10.88","1","58.65","1","0.0","1","null","6","null","6","0.0","1","null","6","41.200462","16.604997"],
    [1275,"2024-02-23 02:00:00","21","molfetta","11.14","1","57.2","1","0.0","1","null","6","null","6","0.0","1","null","6","41.200462","16.604997"],
    [1276,"2024-02-23 03:00:00","21","molfetta","11.16","1","56.53","1","0.0","1","null","6","null","6","0.0","1","null","6","41.200462","16.604997"],
    [1277,"2024-02-23 04:00:00","21","molfetta","10.87","1","56.8","1","0.0","1","null","6","null","6","0.0","1","null","6","41.200462","16.604997"],
    [1278,"2024-02-23 05:00:00","21","molfetta","10.4","1","59.04","1","0.0","1","null","6","null","6","0.0","1","null","6","41.200462","16.604997"],
    [1279,"2024-02-23 06:00:00","21","molfetta","10.6","1","59.35","1","0.0","1","null","6","null","6","0.0","1","null","6","41.200462","16.604997"],
    [1280,"2024-02-23 07:00:00","21","molfetta","10.34","1","62.06","1","0.0","1","null","6","null","6","0.0","5","null","6","41.200462","16.604997"],
    [1281,"2024-02-23 08:00:00","21","molfetta","10.98","1","61.36","1","0.0","1","null","6","null","6","34.92","1","null","6","41.200462","16.604997"],
    [1282,"2024-02-23 09:00:00","21","molfetta","12.36","1","58.78","1","0.0","1","null","6","null","6","102.3","1","null","6","41.200462","16.604997"],
    [1283,"2024-02-23 10:00:00","21","molfetta","14.06","1","54.67","1","0.0","1","null","6","null","6","104.24","1","null","6","41.200462","16.604997"],
    [1284,"2024-02-23 11:00:00","21","molfetta","15.41","1","55.28","1","0.0","1","null","6","null","6","189.85","1","null","6","41.200462","16.604997"],
    [1285,"2024-02-23 12:00:00","21","molfetta","18.07","1","41.88","1","0.0","1","null","6","null","6","356.28","1","null","6","41.200462","16.604997"],
    [1286,"2024-02-23 13:00:00","21","molfetta","19.71","1","34.54","1","0.0","1","null","6","null","6","354.95","1","null","6","41.200462","16.604997"],
    [1287,"2024-02-23 14:00:00","21","molfetta","19.16","1","32.44","1","0.0","1","null","6","null","6","240.36","1","null","6","41.200462","16.604997"],
    [1288,"2024-02-23 15:00:00","21","molfetta","18.2","1","39.8","1","0.0","1","null","6","null","6","137.9","1","null","6","41.200462","16.604997"],
    [1289,"2024-02-23 16:00:00","21","molfetta","17.22","1","46.72","1","0.0","1","null","6","null","6","75.18","1","null","6","41.200462","16.604997"],
    [1290,"2024-02-23 17:00:00","21","molfetta","16.43","1","44.64","1","0.0","1","null","6","null","6","19.62","1","null","6","41.200462","16.604997"],
    [1291,"2024-02-23 18:00:00","21","molfetta","15.91","1","46.54","1","0.0","1","null","6","null","6","0.0","5","null","6","41.200462","16.604997"],
    [1292,"2024-02-23 19:00:00","21","molfetta","15.26","1","51.86","1","0.0","1","null","6","null","6","0.0","1","null","6","41.200462","16.604997"],
    [1293,"2024-02-23 20:00:00","21","molfetta","14.97","1","52.58","1","0.0","1","null","6","null","6","0.0","1","null","6","41.200462","16.604997"],
    [1294,"2024-02-23 21:00:00","21","molfetta","14.88","1","51.15","1","0.0","1","null","6","null","6","0.0","1","null","6","41.200462","16.604997"],
    [1295,"2024-02-23 22:00:00","21","molfetta","15.15","1","49.99","1","0.0","1","null","6","null","6","0.0","1","null","6","41.200462","16.604997"],
    [1296,"2024-02-23 23:00:00","21","molfetta","15.57","1","49.2","1","0.0","1","null","6","null","6","0.0","1","null","6","41.200462","16.604997"],
    [1297,"2024-02-24 00:00:00","21","molfetta","15.9","1","48.17","1","0.0","1","null","6","null","6","0.0","1","null","6","41.200462","16.604997"],
    [1298,"2024-02-24 01:00:00","21","molfetta","16.02","1","49.48","1","0.0","1","null","6","null","6","0.0","1","null","6","41.200462","16.604997"],
    [1299,"2024-02-24 02:00:00","21","molfetta","15.65","1","53.19","1","0.0","1","null","6","null","6","0.0","1","null","6","41.200462","16.604997"],
    [1300,"2024-02-24 03:00:00","21","molfetta","15.44","1","56.4","1","0.0","1","null","6","null","6","0.0","1","null","6","41.200462","16.604997"],
    [1301,"2024-02-24 04:00:00","21","molfetta","15.18","1","61.76","1","0.0","1","null","6","null","6","0.0","1","null","6","41.200462","16.604997"],
    [1302,"2024-02-24 05:00:00","21","molfetta","15.08","1","60.85","1","0.0","1","null","6","null","6","0.0","1","null","6","41.200462","16.604997"],
    [1303,"2024-02-24 06:00:00","21","molfetta","14.67","1","62.57","1","0.0","1","null","6","null","6","0.0","1","null","6","41.200462","16.604997"],
    [1304,"2024-02-24 07:00:00","21","molfetta","14.23","1","68.48","1","0.0","1","null","6","null","6","0.0","1","null","6","41.200462","16.604997"],
    [1305,"2024-02-24 08:00:00","21","molfetta","13.71","1","75.08","1","0.0","1","null","6","null","6","8.1","1","null","6","41.200462","16.604997"],
    [1306,"2024-02-24 09:00:00","21","molfetta","13.75","1","77.99","1","0.0","1","null","6","null","6","42.55","1","null","6","41.200462","16.604997"],
    [1307,"2024-02-24 10:00:00","21","molfetta","14.42","1","76.65","1","0.0","1","null","6","null","6","47.56","1","null","6","41.200462","16.604997"],
    [1308,"2024-02-24 11:00:00","21","molfetta","13.84","1","74.06","1","0.4","1","null","6","null","6","84.55","1","null","6","41.200462","16.604997"],
    [1309,"2024-02-24 12:00:00","21","molfetta","13.74","1","70.74","1","0.2","1","null","6","null","6","109.24","1","null","6","41.200462","16.604997"],
    [1310,"2024-02-24 13:00:00","21","molfetta","13.39","1","72.88","1","0.0","1","null","6","null","6","90.25","1","null","6","41.200462","16.604997"],
    [1311,"2024-02-24 14:00:00","21","molfetta","14.13","1","70.52","1","0.0","1","null","6","null","6","221.8","1","null","6","41.200462","16.604997"],
    [1312,"2024-02-24 15:00:00","21","molfetta","14.89","1","66.13","1","0.0","1","null","6","null","6","240.77","1","null","6","41.200462","16.604997"],
    [1313,"2024-02-24 16:00:00","21","molfetta","14.27","1","72.83","1","0.0","1","null","6","null","6","95.98","1","null","6","41.200462","16.604997"],
    [1314,"2024-02-24 17:00:00","21","molfetta","13.78","1","76.08","1","0.0","1","null","6","null","6","52.28","1","null","6","41.200462","16.604997"],
    [1315,"2024-02-24 18:00:00","21","molfetta","12.86","1","81.66","1","2.4","1","null","6","null","6","0.0","5","null","6","41.200462","16.604997"],
    [1316,"2024-02-24 19:00:00","21","molfetta","12.1","1","91.0","1","0.0","1","null","6","null","6","0.0","1","null","6","41.200462","16.604997"],
    [1317,"2024-02-24 20:00:00","21","molfetta","11.61","1","93.73","1","0.0","1","null","6","null","6","0.0","1","null","6","41.200462","16.604997"],
    [1318,"2024-02-24 21:00:00","21","molfetta","11.33","1","92.32","1","0.0","1","null","6","null","6","0.0","1","null","6","41.200462","16.604997"],
    [1319,"2024-02-24 22:00:00","21","molfetta","11.51","1","90.54","1","0.0","1","null","6","null","6","0.0","1","null","6","41.200462","16.604997"],
    [1320,"2024-02-24 23:00:00","21","molfetta","11.72","1","90.01","1","0.0","1","null","6","null","6","0.0","1","null","6","41.200462","16.604997"],
    [1321,"2024-02-25 00:00:00","21","molfetta","11.81","1","90.53","1","0.0","1","null","6","null","6","0.0","1","null","6","41.200462","16.604997"],
    [1322,"2024-02-25 01:00:00","21","molfetta","11.95","1","89.28","1","0.0","1","null","6","null","6","0.0","1","null","6","41.200462","16.604997"],
    [1323,"2024-02-25 02:00:00","21","molfetta","11.96","1","88.55","1","0.0","1","null","6","null","6","0.0","5","null","6","41.200462","16.604997"],
    [1324,"2024-02-25 03:00:00","21","molfetta","12.05","1","83.74","1","1.2","1","null","6","null","6","0.0","5","null","6","41.200462","16.604997"],
    [1325,"2024-02-25 04:00:00","21","molfetta","11.18","1","87.76","1","0.0","1","null","6","null","6","0.0","1","null","6","41.200462","16.604997"],
    [1326,"2024-02-25 05:00:00","21","molfetta","10.47","1","91.88","1","0.0","1","null","6","null","6","0.0","5","null","6","41.200462","16.604997"],
    [1327,"2024-02-25 06:00:00","21","molfetta","10.38","1","92.93","1","0.0","1","null","6","null","6","0.0","5","null","6","41.200462","16.604997"],
    [1328,"2024-02-25 07:00:00","21","molfetta","10.75","1","91.65","1","0.0","1","null","6","null","6","0.0","5","null","6","41.200462","16.604997"],
    [1329,"2024-02-25 08:00:00","21","molfetta","11.01","1","89.74","1","0.0","1","null","6","null","6","32.72","1","null","6","41.200462","16.604997"],
    [1330,"2024-02-25 09:00:00","21","molfetta","11.43","1","89.88","1","0.0","1","null","6","null","6","90.62","1","null","6","41.200462","16.604997"],
    [1331,"2024-02-25 10:00:00","21","molfetta","11.85","1","88.42","1","0.0","1","null","6","null","6","143.11","1","null","6","41.200462","16.604997"],
    [1332,"2024-02-25 11:00:00","21","molfetta","12.68","1","84.28","1","0.0","1","null","6","null","6","157.98","1","null","6","41.200462","16.604997"],
    [1333,"2024-02-25 12:00:00","21","molfetta","12.61","1","81.75","1","0.0","1","null","6","null","6","103.0","1","null","6","41.200462","16.604997"],
    [1334,"2024-02-25 13:00:00","21","molfetta","12.25","1","82.16","1","0.4","1","null","6","null","6","33.96","1","null","6","41.200462","16.604997"],
    [1335,"2024-02-25 14:00:00","21","molfetta","11.38","1","87.94","1","4.6","1","null","6","null","6","14.61","1","null","6","41.200462","16.604997"],
    [1336,"2024-02-25 15:00:00","21","molfetta","11.01","1","92.84","1","3.4","1","null","6","null","6","23.72","1","null","6","41.200462","16.604997"],
    [1337,"2024-02-25 16:00:00","21","molfetta","10.79","1","96.33","1","3.4","1","null","6","null","6","14.5","1","null","6","41.200462","16.604997"],
    [1338,"2024-02-25 17:00:00","21","molfetta","10.87","1","99.04","1","1.2","1","null","6","null","6","13.09","1","null","6","41.200462","16.604997"],
    [1339,"2024-02-25 18:00:00","21","molfetta","10.92","1","99.99","1","1.2","1","null","6","null","6","0.0","5","null","6","41.200462","16.604997"],
    [1340,"2024-02-25 19:00:00","21","molfetta","10.98","1","100.0","1","0.0","1","null","6","null","6","0.0","1","null","6","41.200462","16.604997"],
    [1341,"2024-02-25 20:00:00","21","molfetta","11.1","1","100.0","1","0.6","1","null","6","null","6","0.0","1","null","6","41.200462","16.604997"],
    [1342,"2024-02-25 21:00:00","21","molfetta","11.02","1","100.0","1","0.2","1","null","6","null","6","0.0","1","null","6","41.200462","16.604997"],
    [1343,"2024-02-25 22:00:00","21","molfetta","11.12","1","null","3","0.0","1","null","6","null","6","0.0","1","null","6","41.200462","16.604997"],
    [1344,"2024-02-25 23:00:00","21","molfetta","10.84","1","100.0","1","0.2","1","null","6","null","6","0.0","5","null","6","41.200462","16.604997"],
    [1345,"2024-02-26 00:00:00","21","molfetta","10.85","1","null","3","0.0","1","null","6","null","6","0.0","5","null","6","41.200462","16.604997"],
    [1346,"2024-02-26 01:00:00","21","molfetta","10.86","1","null","3","0.0","1","null","6","null","6","0.0","5","null","6","41.200462","16.604997"],
    [1347,"2024-02-26 02:00:00","21","molfetta","10.85","1","100.0","1","0.0","1","null","6","null","6","0.0","5","null","6","41.200462","16.604997"],
    [1348,"2024-02-26 03:00:00","21","molfetta","10.65","1","99.82","1","0.0","1","null","6","null","6","0.0","5","null","6","41.200462","16.604997"],
    [1349,"2024-02-26 04:00:00","21","molfetta","10.5","1","98.3","1","0.0","1","null","6","null","6","0.0","5","null","6","41.200462","16.604997"],
    [1350,"2024-02-26 05:00:00","21","molfetta","10.45","1","95.3","1","0.0","1","null","6","null","6","0.0","5","null","6","41.200462","16.604997"],
    [1351,"2024-02-26 06:00:00","21","molfetta","10.08","1","91.64","1","0.0","1","null","6","null","6","0.0","1","null","6","41.200462","16.604997"],
    [1352,"2024-02-26 07:00:00","21","molfetta","9.77","1","88.58","1","0.0","1","null","6","null","6","0.0","5","null","6","41.200462","16.604997"],
    [1353,"2024-02-26 08:00:00","21","molfetta","9.91","1","84.82","1","0.0","1","null","6","null","6","37.2","1","null","6","41.200462","16.604997"],
    [1354,"2024-02-26 09:00:00","21","molfetta","11.15","1","80.91","1","0.0","1","null","6","null","6","85.81","1","null","6","41.200462","16.604997"],
    [1355,"2024-02-26 10:00:00","21","molfetta","14.53","1","71.77","1","0.0","1","null","6","null","6","394.92","1","null","6","41.200462","16.604997"],
    [1356,"2024-02-26 11:00:00","21","molfetta","17.22","1","60.81","1","0.0","1","null","6","null","6","573.83","1","null","6","41.200462","16.604997"],
    [1357,"2024-02-26 12:00:00","21","molfetta","17.69","1","61.29","1","0.0","1","null","6","null","6","642.32","1","null","6","41.200462","16.604997"],
    [1358,"2024-02-26 13:00:00","21","molfetta","16.52","1","65.65","1","0.0","1","null","6","null","6","346.57","1","null","6","41.200462","16.604997"],
    [1359,"2024-02-26 14:00:00","21","molfetta","14.31","1","73.49","1","0.0","1","null","6","null","6","82.57","1","null","6","41.200462","16.604997"],
    [1360,"2024-02-26 15:00:00","21","molfetta","14.8","1","73.58","1","0.0","1","null","6","null","6","128.6","1","null","6","41.200462","16.604997"],
    [1361,"2024-02-26 16:00:00","21","molfetta","14.86","1","75.36","1","0.0","1","null","6","null","6","103.42","1","null","6","41.200462","16.604997"],
    [1362,"2024-02-26 17:00:00","21","molfetta","14.71","1","79.84","1","0.0","1","null","6","null","6","60.55","1","null","6","41.200462","16.604997"],
    [1363,"2024-02-26 18:00:00","21","molfetta","14.04","1","84.13","1","0.0","1","null","6","null","6","11.26","1","null","6","41.200462","16.604997"],
    [1364,"2024-02-26 19:00:00","21","molfetta","13.4","1","86.79","1","0.0","1","null","6","null","6","0.0","1","null","6","41.200462","16.604997"],
    [1365,"2024-02-26 20:00:00","21","molfetta","13.06","1","89.06","1","0.0","1","null","6","null","6","0.0","1","null","6","41.200462","16.604997"],
    [1366,"2024-02-26 21:00:00","21","molfetta","12.8","1","90.33","1","0.0","1","null","6","null","6","0.0","1","null","6","41.200462","16.604997"],
    [1367,"2024-02-26 22:00:00","21","molfetta","12.76","1","91.33","1","0.0","1","null","6","null","6","0.0","1","null","6","41.200462","16.604997"],
    [1368,"2024-02-26 23:00:00","21","molfetta","12.3","1","92.09","1","0.0","1","null","6","null","6","0.0","1","null","6","41.200462","16.604997"],
    [1369,"2024-02-27 00:00:00","21","molfetta","12.18","1","90.99","1","0.0","1","null","6","null","6","0.0","1","null","6","41.200462","16.604997"],
    [1370,"2024-02-27 01:00:00","21","molfetta","12.03","1","87.13","1","0.0","1","null","6","null","6","0.0","1","null","6","41.200462","16.604997"],
    [1371,"2024-02-27 02:00:00","21","molfetta","11.81","1","83.06","1","0.0","1","null","6","null","6","0.0","1","null","6","41.200462","16.604997"],
    [1372,"2024-02-27 03:00:00","21","molfetta","11.07","1","82.81","1","0.0","1","null","6","null","6","0.0","1","null","6","41.200462","16.604997"],
    [1373,"2024-02-27 04:00:00","21","molfetta","10.13","1","83.66","1","0.0","1","null","6","null","6","0.0","1","null","6","41.200462","16.604997"],
    [1374,"2024-02-27 05:00:00","21","molfetta","9.71","1","86.23","1","0.0","1","null","6","null","6","0.0","1","null","6","41.200462","16.604997"],
    [1375,"2024-02-27 06:00:00","21","molfetta","10.34","1","87.96","1","0.0","1","null","6","null","6","0.0","1","null","6","41.200462","16.604997"],
    [1376,"2024-02-27 07:00:00","21","molfetta","10.21","1","90.17","1","0.0","1","null","6","null","6","0.0","5","null","6","41.200462","16.604997"],
    [1377,"2024-02-27 08:00:00","21","molfetta","10.37","1","92.26","1","0.0","1","null","6","null","6","39.1","1","null","6","41.200462","16.604997"],
    [1378,"2024-02-27 09:00:00","21","molfetta","12.49","1","92.71","1","0.0","1","null","6","null","6","72.21","1","null","6","41.200462","16.604997"],
    [1379,"2024-02-27 10:00:00","21","molfetta","16.44","1","72.49","1","0.0","1","null","6","null","6","373.27","1","null","6","41.200462","16.604997"],
    [1380,"2024-02-27 11:00:00","21","molfetta","19.9","1","50.7","1","0.0","1","null","6","null","6","605.56","1","null","6","41.200462","16.604997"],
    [1381,"2024-02-27 12:00:00","21","molfetta","20.93","1","46.28","1","0.0","1","null","6","null","6","655.05","1","null","6","41.200462","16.604997"],
    [1382,"2024-02-27 13:00:00","21","molfetta","20.03","1","47.82","1","0.0","1","null","6","null","6","357.31","1","null","6","41.200462","16.604997"],
    [1383,"2024-02-27 14:00:00","21","molfetta","18.9","1","52.66","1","0.0","1","null","6","null","6","175.98","1","null","6","41.200462","16.604997"],
    [1384,"2024-02-27 15:00:00","21","molfetta","18.61","1","55.2","1","0.0","1","null","6","null","6","146.38","1","null","6","41.200462","16.604997"],
    [1385,"2024-02-27 16:00:00","21","molfetta","18.06","1","59.42","1","0.0","1","null","6","null","6","137.04","1","null","6","41.200462","16.604997"],
    [1386,"2024-02-27 17:00:00","21","molfetta","17.35","1","63.34","1","0.0","1","null","6","null","6","80.87","1","null","6","41.200462","16.604997"],
    [1387,"2024-02-27 18:00:00","21","molfetta","16.45","1","68.88","1","0.0","1","null","6","null","6","16.43","1","null","6","41.200462","16.604997"],
    [1388,"2024-02-27 19:00:00","21","molfetta","15.88","1","71.81","1","0.0","1","null","6","null","6","0.0","1","null","6","41.200462","16.604997"],
    [1389,"2024-02-27 20:00:00","21","molfetta","15.88","1","72.65","1","0.0","1","null","6","null","6","0.0","1","null","6","41.200462","16.604997"],
    [1390,"2024-02-27 21:00:00","21","molfetta","15.85","1","72.99","1","0.0","1","null","6","null","6","0.0","1","null","6","41.200462","16.604997"],
    [1391,"2024-02-27 22:00:00","21","molfetta","15.6","1","74.81","1","0.0","1","null","6","null","6","0.0","1","null","6","41.200462","16.604997"],
    [1392,"2024-02-27 23:00:00","21","molfetta","15.28","1","77.77","1","0.0","1","null","6","null","6","0.0","1","null","6","41.200462","16.604997"],
    [1393,"2024-02-28 00:00:00","21","molfetta","15.12","1","79.04","1","0.0","1","null","6","null","6","0.0","1","null","6","41.200462","16.604997"],
    [1394,"2024-02-28 01:00:00","21","molfetta","15.19","1","78.43","1","0.0","1","null","6","null","6","0.0","1","null","6","41.200462","16.604997"],
    [1395,"2024-02-28 02:00:00","21","molfetta","15.14","1","77.94","1","0.0","1","null","6","null","6","0.0","1","null","6","41.200462","16.604997"],
    [1396,"2024-02-28 03:00:00","21","molfetta","15.29","1","73.89","1","0.0","1","null","6","null","6","0.0","1","null","6","41.200462","16.604997"],
    [1397,"2024-02-28 04:00:00","21","molfetta","15.19","1","71.03","1","0.0","1","null","6","null","6","0.0","1","null","6","41.200462","16.604997"],
    [1398,"2024-02-28 05:00:00","21","molfetta","15.02","1","71.53","1","0.0","1","null","6","null","6","0.0","1","null","6","41.200462","16.604997"],
    [1399,"2024-02-28 06:00:00","21","molfetta","14.91","1","72.28","1","0.0","1","null","6","null","6","0.0","1","null","6","41.200462","16.604997"],
    [1400,"2024-02-28 07:00:00","21","molfetta","14.77","1","72.38","1","0.0","1","null","6","null","6","0.0","5","null","6","41.200462","16.604997"],
    [1401,"2024-02-28 08:00:00","21","molfetta","14.63","1","73.57","1","0.0","1","null","6","null","6","49.58","1","null","6","41.200462","16.604997"],
    [1402,"2024-02-28 09:00:00","21","molfetta","15.88","1","70.34","1","0.0","1","null","6","null","6","112.7","1","null","6","41.200462","16.604997"],
    [1403,"2024-02-28 10:00:00","21","molfetta","18.73","1","58.02","1","0.0","1","null","6","null","6","475.59","1","null","6","41.200462","16.604997"],
    [1404,"2024-02-28 11:00:00","21","molfetta","19.02","1","54.47","1","0.0","1","null","6","null","6","284.59","1","null","6","41.200462","16.604997"],
    [1405,"2024-02-28 12:00:00","21","molfetta","19.31","1","56.88","1","0.0","1","null","6","null","6","334.27","1","null","6","41.200462","16.604997"],
    [1406,"2024-02-28 13:00:00","21","molfetta","18.65","1","58.1","1","0.0","1","null","6","null","6","216.56","1","null","6","41.200462","16.604997"],
    [1407,"2024-02-28 14:00:00","21","molfetta","19.77","1","51.44","1","0.0","1","null","6","null","6","249.7","1","null","6","41.200462","16.604997"],
    [1408,"2024-02-28 15:00:00","21","molfetta","19.04","1","60.54","1","0.0","1","null","6","null","6","165.18","1","null","6","41.200462","16.604997"],
    [1409,"2024-02-28 16:00:00","21","molfetta","18.13","1","63.34","1","0.0","1","null","6","null","6","121.09","1","null","6","41.200462","16.604997"],
    [1410,"2024-02-28 17:00:00","21","molfetta","17.92","1","58.35","1","0.0","1","null","6","null","6","73.45","1","null","6","41.200462","16.604997"],
    [1411,"2024-02-28 18:00:00","21","molfetta","17.59","1","59.31","1","0.0","1","null","6","null","6","17.71","1","null","6","41.200462","16.604997"],
    [1412,"2024-02-28 19:00:00","21","molfetta","16.82","1","63.19","1","0.0","1","null","6","null","6","0.0","1","null","6","41.200462","16.604997"],
    [1413,"2024-02-28 20:00:00","21","molfetta","16.34","1","65.69","1","0.0","1","null","6","null","6","0.0","1","null","6","41.200462","16.604997"],
    [1414,"2024-02-28 21:00:00","21","molfetta","16.29","1","69.58","1","0.0","1","null","6","null","6","0.0","1","null","6","41.200462","16.604997"],
    [1415,"2024-02-28 22:00:00","21","molfetta","15.63","1","82.12","1","0.0","1","null","6","null","6","0.0","1","null","6","41.200462","16.604997"],
    [1416,"2024-02-28 23:00:00","21","molfetta","15.1","1","79.81","1","0.0","1","null","6","null","6","0.0","1","null","6","41.200462","16.604997"],
    [1417,"2024-02-29 00:00:00","21","molfetta","15.23","1","81.14","1","0.0","1","null","6","null","6","0.0","1","null","6","41.200462","16.604997"],
    [1418,"2024-02-29 01:00:00","21","molfetta","15.8","1","67.88","1","0.0","1","null","6","null","6","0.0","1","null","6","41.200462","16.604997"],
    [1419,"2024-02-29 02:00:00","21","molfetta","16.21","1","63.04","1","0.0","1","null","6","null","6","0.0","1","null","6","41.200462","16.604997"],
    [1420,"2024-02-29 03:00:00","21","molfetta","15.77","1","72.85","1","0.0","1","null","6","null","6","0.0","1","null","6","41.200462","16.604997"],
    [1421,"2024-02-29 04:00:00","21","molfetta","15.27","1","83.52","1","0.0","1","null","6","null","6","0.0","1","null","6","41.200462","16.604997"],
    [1422,"2024-02-29 05:00:00","21","molfetta","15.16","1","84.66","1","0.0","1","null","6","null","6","0.0","1","null","6","41.200462","16.604997"],
    [1423,"2024-02-29 06:00:00","21","molfetta","15.43","1","80.11","1","0.0","1","null","6","null","6","0.0","1","null","6","41.200462","16.604997"],
    [1424,"2024-02-29 07:00:00","21","molfetta","15.45","1","77.06","1","0.0","1","null","6","null","6","0.0","5","null","6","41.200462","16.604997"],
    [1425,"2024-02-29 08:00:00","21","molfetta","15.39","1","77.94","1","0.0","1","null","6","null","6","41.31","1","null","6","41.200462","16.604997"],
    [1426,"2024-02-29 09:00:00","21","molfetta","16.04","1","78.08","1","0.0","1","null","6","null","6","109.24","1","null","6","41.200462","16.604997"],
    [1427,"2024-02-29 10:00:00","21","molfetta","16.74","1","73.05","1","0.0","1","null","6","null","6","101.13","1","null","6","41.200462","16.604997"],
    [1428,"2024-02-29 11:00:00","21","molfetta","17.46","1","66.56","1","0.0","1","null","6","null","6","90.31","1","null","6","41.200462","16.604997"],
    [1429,"2024-02-29 12:00:00","21","molfetta","17.14","1","71.83","1","0.0","1","null","6","null","6","118.63","1","null","6","41.200462","16.604997"],
    [1430,"2024-02-29 13:00:00","21","molfetta","17.64","1","73.05","1","0.0","1","null","6","null","6","150.33","1","null","6","41.200462","16.604997"],
    [1431,"2024-02-29 14:00:00","21","molfetta","14.69","1","85.07","1","1.2","1","null","6","null","6","28.34","1","null","6","41.200462","16.604997"],
    [1432,"2024-02-29 15:00:00","21","molfetta","12.47","1","93.43","1","9.0","1","null","6","null","6","12.44","1","null","6","41.200462","16.604997"],
    [1433,"2024-02-29 16:00:00","21","molfetta","12.56","1","97.22","1","2.2","1","null","6","null","6","12.51","1","null","6","41.200462","16.604997"],
    [1434,"2024-02-29 17:00:00","21","molfetta","12.88","1","99.08","1","0.6","1","null","6","null","6","10.51","1","null","6","41.200462","16.604997"],
    [1435,"2024-02-29 18:00:00","21","molfetta","13.22","1","99.86","1","0.2","1","null","6","null","6","0.0","5","null","6","41.200462","16.604997"],
    [1436,"2024-02-29 19:00:00","21","molfetta","13.23","1","99.84","1","1.0","1","null","6","null","6","0.0","1","null","6","41.200462","16.604997"],
    [1437,"2024-02-29 20:00:00","21","molfetta","13.09","1","99.99","1","1.6","1","null","6","null","6","0.0","1","null","6","41.200462","16.604997"],
    [1438,"2024-02-29 21:00:00","21","molfetta","12.7","1","100.0","1","1.4","1","null","6","null","6","0.0","1","null","6","41.200462","16.604997"],
    [1439,"2024-02-29 22:00:00","21","molfetta","12.24","1","100.0","1","0.6","1","null","6","null","6","0.0","1","null","6","41.200462","16.604997"],
    [1440,"2024-02-29 23:00:00","21","molfetta","12.23","1","null","3","0.0","1","null","6","null","6","0.0","1","null","6","41.200462","16.604997"],
    [1441,"2024-03-01 00:00:00","21","molfetta","11.95","1","null","3","0.0","1","null","6","null","6","0.0","1","null","6","41.200462","16.604997"],
    [1442,"2024-03-01 01:00:00","21","molfetta","11.66","1","null","3","0.2","1","null","6","null","6","0.0","1","null","6","41.200462","16.604997"],
    [1443,"2024-03-01 02:00:00","21","molfetta","11.21","1","null","3","0.0","1","null","6","null","6","0.0","1","null","6","41.200462","16.604997"],
    [1444,"2024-03-01 03:00:00","21","molfetta","10.88","1","null","3","0.0","1","null","6","null","6","0.0","1","null","6","41.200462","16.604997"],
    [1445,"2024-03-01 04:00:00","21","molfetta","10.51","1","null","3","0.0","1","null","6","null","6","0.0","1","null","6","41.200462","16.604997"],
    [1446,"2024-03-01 05:00:00","21","molfetta","9.95","1","99.96","1","0.0","1","null","6","null","6","0.0","1","null","6","41.200462","16.604997"],
    [1447,"2024-03-01 06:00:00","21","molfetta","9.33","1","99.56","1","0.0","1","null","6","null","6","0.0","1","null","6","41.200462","16.604997"],
    [1448,"2024-03-01 07:00:00","21","molfetta","8.91","1","98.21","1","0.0","1","null","6","null","6","0.0","5","null","6","41.200462","16.604997"],
    [1449,"2024-03-01 08:00:00","21","molfetta","9.18","1","96.34","1","0.0","1","null","6","null","6","45.1","1","null","6","41.200462","16.604997"],
    [1450,"2024-03-01 09:00:00","21","molfetta","11.29","1","88.58","1","0.0","1","null","6","null","6","72.52","1","null","6","41.200462","16.604997"],
    [1451,"2024-03-01 10:00:00","21","molfetta","15.87","1","65.46","1","0.0","1","null","6","null","6","420.72","1","null","6","41.200462","16.604997"],
    [1452,"2024-03-01 11:00:00","21","molfetta","19.83","1","42.77","1","0.0","1","null","6","null","6","628.05","1","null","6","41.200462","16.604997"],
    [1453,"2024-03-01 12:00:00","21","molfetta","21.59","1","35.97","1","0.0","1","null","6","null","6","696.51","1","null","6","41.200462","16.604997"],
    [1454,"2024-03-01 13:00:00","21","molfetta","21.97","1","31.81","1","0.0","1","null","6","null","6","554.69","1","null","6","41.200462","16.604997"],
    [1455,"2024-03-01 14:00:00","21","molfetta","19.2","1","31.49","1","0.0","1","null","6","null","6","68.07","1","null","6","41.200462","16.604997"],
    [1456,"2024-03-01 15:00:00","21","molfetta","18.86","1","33.05","1","0.0","1","null","6","null","6","101.1","1","null","6","41.200462","16.604997"],
    [1457,"2024-03-01 16:00:00","21","molfetta","17.56","1","54.08","1","0.0","1","null","6","null","6","97.54","1","null","6","41.200462","16.604997"],
    [1458,"2024-03-01 17:00:00","21","molfetta","16.84","1","67.56","1","0.0","1","null","6","null","6","51.68","1","null","6","41.200462","16.604997"],
    [1459,"2024-03-01 18:00:00","21","molfetta","16.23","1","63.44","1","0.0","1","null","6","null","6","14.44","1","null","6","41.200462","16.604997"],
    [1460,"2024-03-01 19:00:00","21","molfetta","15.26","1","56.05","1","0.0","1","null","6","null","6","0.0","1","null","6","41.200462","16.604997"],
    [1461,"2024-03-01 20:00:00","21","molfetta","14.12","1","60.38","1","0.0","1","null","6","null","6","0.0","1","null","6","41.200462","16.604997"],
    [1462,"2024-03-01 21:00:00","21","molfetta","13.1","1","67.62","1","0.0","1","null","6","null","6","0.0","1","null","6","41.200462","16.604997"],
    [1463,"2024-03-01 22:00:00","21","molfetta","12.77","1","73.4","1","0.0","1","null","6","null","6","0.0","1","null","6","41.200462","16.604997"],
    [1464,"2024-03-01 23:00:00","21","molfetta","12.26","1","77.94","1","0.0","1","null","6","null","6","0.0","1","null","6","41.200462","16.604997"],
    [1465,"2024-03-02 00:00:00","21","molfetta","12.07","1","77.14","1","0.0","1","null","6","null","6","0.0","1","null","6","41.200462","16.604997"],
    [1466,"2024-03-02 01:00:00","21","molfetta","11.68","1","77.96","1","0.0","1","null","6","null","6","0.0","1","null","6","41.200462","16.604997"],
    [1467,"2024-03-02 02:00:00","21","molfetta","10.53","1","81.6","1","0.0","1","null","6","null","6","0.0","1","null","6","41.200462","16.604997"],
    [1468,"2024-03-02 03:00:00","21","molfetta","10.15","1","81.71","1","0.0","1","null","6","null","6","0.0","1","null","6","41.200462","16.604997"],
    [1469,"2024-03-02 04:00:00","21","molfetta","9.73","1","83.06","1","0.0","1","null","6","null","6","0.0","1","null","6","41.200462","16.604997"],
    [1470,"2024-03-02 05:00:00","21","molfetta","9.77","1","84.43","1","0.0","1","null","6","null","6","0.0","1","null","6","41.200462","16.604997"],
    [1471,"2024-03-02 06:00:00","21","molfetta","9.39","1","84.81","1","0.0","1","null","6","null","6","0.0","1","null","6","41.200462","16.604997"],
    [1472,"2024-03-02 07:00:00","21","molfetta","9.07","1","85.54","1","0.0","1","null","6","null","6","0.0","5","null","6","41.200462","16.604997"],
    [1473,"2024-03-02 08:00:00","21","molfetta","9.36","1","85.35","1","0.0","1","null","6","null","6","47.32","1","null","6","41.200462","16.604997"],
    [1474,"2024-03-02 09:00:00","21","molfetta","11.69","1","80.52","1","0.0","1","null","6","null","6","73.38","1","null","6","41.200462","16.604997"],
    [1475,"2024-03-02 10:00:00","21","molfetta","16.86","1","60.73","1","0.0","1","null","6","null","6","414.67","1","null","6","41.200462","16.604997"],
    [1476,"2024-03-02 11:00:00","21","molfetta","19.83","1","52.58","1","0.0","1","null","6","null","6","604.24","1","null","6","41.200462","16.604997"],
    [1477,"2024-03-02 12:00:00","21","molfetta","20.59","1","48.21","1","0.0","1","null","6","null","6","685.18","1","null","6","41.200462","16.604997"],
    [1478,"2024-03-02 13:00:00","21","molfetta","20.08","1","46.98","1","0.0","1","null","6","null","6","585.82","1","null","6","41.200462","16.604997"],
    [1479,"2024-03-02 14:00:00","21","molfetta","16.4","1","58.44","1","0.0","1","null","6","null","6","139.15","1","null","6","41.200462","16.604997"],
    [1480,"2024-03-02 15:00:00","21","molfetta","16.2","1","64.73","1","0.0","1","null","6","null","6","147.82","1","null","6","41.200462","16.604997"],
    [1481,"2024-03-02 16:00:00","21","molfetta","16.27","1","68.24","1","0.0","1","null","6","null","6","123.09","1","null","6","41.200462","16.604997"],
    [1482,"2024-03-02 17:00:00","21","molfetta","15.78","1","69.84","1","0.0","1","null","6","null","6","59.06","1","null","6","41.200462","16.604997"],
    [1483,"2024-03-02 18:00:00","21","molfetta","15.57","1","70.68","1","0.0","1","null","6","null","6","13.82","1","null","6","41.200462","16.604997"],
    [1484,"2024-03-02 19:00:00","21","molfetta","14.96","1","73.35","1","0.0","1","null","6","null","6","0.0","1","null","6","41.200462","16.604997"],
    [1485,"2024-03-02 20:00:00","21","molfetta","14.19","1","78.47","1","0.0","1","null","6","null","6","0.0","1","null","6","41.200462","16.604997"],
    [1486,"2024-03-02 21:00:00","21","molfetta","13.41","1","77.71","1","0.0","1","null","6","null","6","0.0","1","null","6","41.200462","16.604997"],
    [1487,"2024-03-02 22:00:00","21","molfetta","13.0","1","67.45","1","0.0","1","null","6","null","6","0.0","1","null","6","41.200462","16.604997"],
    [1488,"2024-03-02 23:00:00","21","molfetta","13.1","1","61.24","1","0.0","1","null","6","null","6","0.0","1","null","6","41.200462","16.604997"],
    [1489,"2024-03-03 00:00:00","21","molfetta","12.49","1","61.43","1","0.0","1","null","6","null","6","0.0","1","null","6","41.200462","16.604997"],
    [1490,"2024-03-03 01:00:00","21","molfetta","11.72","1","62.73","1","0.0","1","null","6","null","6","0.0","1","null","6","41.200462","16.604997"],
    [1491,"2024-03-03 02:00:00","21","molfetta","11.75","1","59.38","1","0.0","1","null","6","null","6","0.0","1","null","6","41.200462","16.604997"],
    [1492,"2024-03-03 03:00:00","21","molfetta","12.03","1","55.65","1","0.0","1","null","6","null","6","0.0","1","null","6","41.200462","16.604997"],
    [1493,"2024-03-03 04:00:00","21","molfetta","11.14","1","58.86","1","0.0","1","null","6","null","6","0.0","1","null","6","41.200462","16.604997"],
    [1494,"2024-03-03 05:00:00","21","molfetta","10.94","1","59.81","1","0.0","1","null","6","null","6","0.0","1","null","6","41.200462","16.604997"],
    [1495,"2024-03-03 06:00:00","21","molfetta","10.94","1","58.73","1","0.0","1","null","6","null","6","0.0","1","null","6","41.200462","16.604997"],
    [1496,"2024-03-03 07:00:00","21","molfetta","11.27","1","55.91","1","0.0","1","null","6","null","6","0.0","5","null","6","41.200462","16.604997"],
    [1497,"2024-03-03 08:00:00","21","molfetta","11.66","1","55.91","1","0.0","1","null","6","null","6","48.95","1","null","6","41.200462","16.604997"],
    [1498,"2024-03-03 09:00:00","21","molfetta","13.59","1","50.8","1","0.0","1","null","6","null","6","72.05","1","null","6","41.200462","16.604997"],
    [1499,"2024-03-03 10:00:00","21","molfetta","18.63","1","37.14","1","0.0","1","null","6","null","6","417.82","1","null","6","41.200462","16.604997"],
    [1500,"2024-03-03 11:00:00","21","molfetta","22.08","1","30.38","1","0.0","1","null","6","null","6","596.16","1","null","6","41.200462","16.604997"],
    [1501,"2024-03-03 12:00:00","21","molfetta","21.35","1","29.31","1","0.0","1","null","6","null","6","598.81","1","null","6","41.200462","16.604997"],
    [1502,"2024-03-03 13:00:00","21","molfetta","20.81","1","33.8","1","0.0","1","null","6","null","6","579.72","1","null","6","41.200462","16.604997"],
    [1503,"2024-03-03 14:00:00","21","molfetta","19.2","1","39.18","1","0.0","1","null","6","null","6","79.71","1","null","6","41.200462","16.604997"],
    [1504,"2024-03-03 15:00:00","21","molfetta","18.65","1","42.22","1","0.0","1","null","6","null","6","63.61","1","null","6","41.200462","16.604997"],
    [1505,"2024-03-03 16:00:00","21","molfetta","18.29","1","44.8","1","0.0","1","null","6","null","6","52.05","1","null","6","41.200462","16.604997"],
    [1506,"2024-03-03 17:00:00","21","molfetta","17.31","1","49.8","1","0.0","1","null","6","null","6","37.29","1","null","6","41.200462","16.604997"],
    [1507,"2024-03-03 18:00:00","21","molfetta","15.83","1","56.52","1","0.0","1","null","6","null","6","13.53","1","null","6","41.200462","16.604997"],
    [1508,"2024-03-03 19:00:00","21","molfetta","14.37","1","64.1","1","0.0","1","null","6","null","6","0.0","1","null","6","41.200462","16.604997"],
    [1509,"2024-03-03 20:00:00","21","molfetta","13.61","1","69.94","1","0.0","1","null","6","null","6","0.0","1","null","6","41.200462","16.604997"],
    [1510,"2024-03-03 21:00:00","21","molfetta","13.43","1","73.65","1","0.0","1","null","6","null","6","0.0","1","null","6","41.200462","16.604997"],
    [1511,"2024-03-03 22:00:00","21","molfetta","13.5","1","74.86","1","0.0","1","null","6","null","6","0.0","1","null","6","41.200462","16.604997"],
    [1512,"2024-03-03 23:00:00","21","molfetta","12.98","1","77.51","1","0.0","1","null","6","null","6","0.0","1","null","6","41.200462","16.604997"],
    [1513,"2024-03-04 00:00:00","21","molfetta","12.63","1","80.53","1","0.0","1","null","6","null","6","0.0","1","null","6","41.200462","16.604997"],
    [1514,"2024-03-04 01:00:00","21","molfetta","12.54","1","82.96","1","0.0","1","null","6","null","6","0.0","1","null","6","41.200462","16.604997"],
    [1515,"2024-03-04 02:00:00","21","molfetta","12.93","1","83.64","1","0.0","1","null","6","null","6","0.0","1","null","6","41.200462","16.604997"],
    [1516,"2024-03-04 03:00:00","21","molfetta","13.09","1","83.85","1","0.0","1","null","6","null","6","0.0","1","null","6","41.200462","16.604997"],
    [1517,"2024-03-04 04:00:00","21","molfetta","13.05","1","84.28","1","0.0","1","null","6","null","6","0.0","1","null","6","41.200462","16.604997"],
    [1518,"2024-03-04 05:00:00","21","molfetta","13.64","1","81.72","1","0.0","1","null","6","null","6","0.0","1","null","6","41.200462","16.604997"],
    [1519,"2024-03-04 06:00:00","21","molfetta","13.77","1","81.5","1","0.0","1","null","6","null","6","0.0","1","null","6","41.200462","16.604997"],
    [1520,"2024-03-04 07:00:00","21","molfetta","14.06","1","81.31","1","0.0","1","null","6","null","6","0.0","5","null","6","41.200462","16.604997"],
    [1521,"2024-03-04 08:00:00","21","molfetta","13.29","1","83.52","1","0.0","1","null","6","null","6","10.04","1","null","6","41.200462","16.604997"],
    [1522,"2024-03-04 09:00:00","21","molfetta","11.74","1","87.65","1","0.6","1","null","6","null","6","26.86","1","null","6","41.200462","16.604997"],
    [1523,"2024-03-04 10:00:00","21","molfetta","11.25","1","84.82","1","0.0","1","null","6","null","6","54.91","1","null","6","41.200462","16.604997"],
    [1524,"2024-03-04 11:00:00","21","molfetta","11.37","1","74.19","1","0.2","1","null","6","null","6","19.13","1","null","6","41.200462","16.604997"],
    [1525,"2024-03-04 12:00:00","21","molfetta","10.63","1","77.31","1","2.8","1","null","6","null","6","46.59","1","null","6","41.200462","16.604997"],
    [1526,"2024-03-04 13:00:00","21","molfetta","10.77","1","82.73","1","0.2","1","null","6","null","6","153.99","1","null","6","41.200462","16.604997"],
    [1527,"2024-03-04 14:00:00","21","molfetta","11.21","1","84.55","1","0.0","1","null","6","null","6","121.73","1","null","6","41.200462","16.604997"],
    [1528,"2024-03-04 15:00:00","21","molfetta","11.48","1","86.12","1","0.0","1","null","6","null","6","138.75","1","null","6","41.200462","16.604997"],
    [1529,"2024-03-04 16:00:00","21","molfetta","12.17","1","84.12","1","0.0","1","null","6","null","6","135.41","1","null","6","41.200462","16.604997"],
    [1530,"2024-03-04 17:00:00","21","molfetta","12.33","1","81.1","1","0.0","1","null","6","null","6","87.32","1","null","6","41.200462","16.604997"],
    [1531,"2024-03-04 18:00:00","21","molfetta","11.91","1","81.3","1","0.0","1","null","6","null","6","15.96","1","null","6","41.200462","16.604997"],
    [1532,"2024-03-04 19:00:00","21","molfetta","11.12","1","80.93","1","0.0","1","null","6","null","6","0.0","5","null","6","41.200462","16.604997"],
    [1533,"2024-03-04 20:00:00","21","molfetta","10.4","1","79.72","1","0.0","1","null","6","null","6","0.0","1","null","6","41.200462","16.604997"],
    [1534,"2024-03-04 21:00:00","21","molfetta","10.0","1","77.79","1","0.0","1","null","6","null","6","0.0","1","null","6","41.200462","16.604997"],
    [1535,"2024-03-04 22:00:00","21","molfetta","9.9","1","75.42","1","0.0","1","null","6","null","6","0.0","1","null","6","41.200462","16.604997"],
    [1536,"2024-03-04 23:00:00","21","molfetta","9.85","1","76.16","1","0.0","1","null","6","null","6","0.0","1","null","6","41.200462","16.604997"],
    [1537,"2024-03-05 00:00:00","21","molfetta","9.62","1","79.9","1","0.0","1","null","6","null","6","0.0","1","null","6","41.200462","16.604997"],
    [1538,"2024-03-05 01:00:00","21","molfetta","9.29","1","84.13","1","0.0","1","null","6","null","6","0.0","1","null","6","41.200462","16.604997"],
    [1539,"2024-03-05 02:00:00","21","molfetta","9.05","1","85.66","1","0.0","1","null","6","null","6","0.0","1","null","6","41.200462","16.604997"],
    [1540,"2024-03-05 03:00:00","21","molfetta","8.92","1","85.74","1","0.0","1","null","6","null","6","0.0","1","null","6","41.200462","16.604997"],
    [1541,"2024-03-05 04:00:00","21","molfetta","8.92","1","86.1","1","0.0","1","null","6","null","6","0.0","1","null","6","41.200462","16.604997"],
    [1542,"2024-03-05 05:00:00","21","molfetta","8.84","1","87.3","1","0.0","1","null","6","null","6","0.0","1","null","6","41.200462","16.604997"],
    [1543,"2024-03-05 06:00:00","21","molfetta","8.66","1","87.83","1","0.0","1","null","6","null","6","0.0","1","null","6","41.200462","16.604997"],
    [1544,"2024-03-05 07:00:00","21","molfetta","8.43","1","83.74","1","0.0","1","null","6","null","6","0.0","5","null","6","41.200462","16.604997"],
    [1545,"2024-03-05 08:00:00","21","molfetta","8.51","1","75.85","1","0.0","1","null","6","null","6","42.31","1","null","6","41.200462","16.604997"],
    [1546,"2024-03-05 09:00:00","21","molfetta","10.57","1","68.06","1","0.0","1","null","6","null","6","131.7","1","null","6","41.200462","16.604997"],
    [1547,"2024-03-05 10:00:00","21","molfetta","12.55","1","63.2","1","0.0","1","null","6","null","6","187.0","1","null","6","41.200462","16.604997"],
    [1548,"2024-03-05 11:00:00","21","molfetta","12.73","1","63.45","1","0.0","1","null","6","null","6","141.98","1","null","6","41.200462","16.604997"],
    [1549,"2024-03-05 12:00:00","21","molfetta","13.39","1","63.04","1","0.0","1","null","6","null","6","191.07","1","null","6","41.200462","16.604997"],
    [1550,"2024-03-05 13:00:00","21","molfetta","14.4","1","60.92","1","0.0","1","null","6","null","6","213.85","1","null","6","41.200462","16.604997"],
    [1551,"2024-03-05 14:00:00","21","molfetta","15.95","1","55.97","1","0.0","1","null","6","null","6","286.47","1","null","6","41.200462","16.604997"],
    [1552,"2024-03-05 15:00:00","21","molfetta","16.19","1","55.49","1","0.0","1","null","6","null","6","131.88","1","null","6","41.200462","16.604997"],
    [1553,"2024-03-05 16:00:00","21","molfetta","15.69","1","66.58","1","0.0","1","null","6","null","6","77.49","1","null","6","41.200462","16.604997"],
    [1554,"2024-03-05 17:00:00","21","molfetta","15.29","1","71.59","1","0.0","1","null","6","null","6","43.36","1","null","6","41.200462","16.604997"],
    [1555,"2024-03-05 18:00:00","21","molfetta","14.59","1","74.0","1","0.0","1","null","6","null","6","14.82","1","null","6","41.200462","16.604997"],
    [1556,"2024-03-05 19:00:00","21","molfetta","13.77","1","74.82","1","0.0","1","null","6","null","6","0.0","1","null","6","41.200462","16.604997"],
    [1557,"2024-03-05 20:00:00","21","molfetta","13.16","1","74.53","1","0.0","1","null","6","null","6","0.0","1","null","6","41.200462","16.604997"],
    [1558,"2024-03-05 21:00:00","21","molfetta","12.6","1","74.92","1","0.0","1","null","6","null","6","0.0","1","null","6","41.200462","16.604997"],
    [1559,"2024-03-05 22:00:00","21","molfetta","12.22","1","74.48","1","0.0","1","null","6","null","6","0.0","1","null","6","41.200462","16.604997"],
    [1560,"2024-03-05 23:00:00","21","molfetta","12.23","1","71.77","1","0.0","1","null","6","null","6","0.0","1","null","6","41.200462","16.604997"],
    [1561,"2024-03-06 00:00:00","21","molfetta","12.24","1","69.28","1","0.0","1","null","6","null","6","0.0","1","null","6","41.200462","16.604997"],
    [1562,"2024-03-06 01:00:00","21","molfetta","11.98","1","67.98","1","0.0","1","null","6","null","6","0.0","1","null","6","41.200462","16.604997"],
    [1563,"2024-03-06 02:00:00","21","molfetta","11.69","1","67.37","1","0.0","1","null","6","null","6","0.0","1","null","6","41.200462","16.604997"],
    [1564,"2024-03-06 03:00:00","21","molfetta","11.53","1","65.95","1","0.0","1","null","6","null","6","0.0","1","null","6","41.200462","16.604997"],
    [1565,"2024-03-06 04:00:00","21","molfetta","11.55","1","63.71","1","0.0","1","null","6","null","6","0.0","1","null","6","41.200462","16.604997"],
    [1566,"2024-03-06 05:00:00","21","molfetta","11.24","1","63.44","1","0.0","1","null","6","null","6","0.0","1","null","6","41.200462","16.604997"],
    [1567,"2024-03-06 06:00:00","21","molfetta","11.22","1","63.58","1","0.0","1","null","6","null","6","0.0","1","null","6","41.200462","16.604997"],
    [1568,"2024-03-06 07:00:00","21","molfetta","11.28","1","63.39","1","0.0","1","null","6","null","6","6.1","1","null","6","41.200462","16.604997"],
    [1569,"2024-03-06 08:00:00","21","molfetta","11.58","1","64.18","1","0.0","1","null","6","null","6","53.64","1","null","6","41.200462","16.604997"],
    [1570,"2024-03-06 09:00:00","21","molfetta","13.0","1","62.69","1","0.0","1","null","6","null","6","83.43","1","null","6","41.200462","16.604997"],
    [1571,"2024-03-06 10:00:00","21","molfetta","15.21","1","62.74","1","0.0","1","null","6","null","6","403.12","1","null","6","41.200462","16.604997"],
    [1572,"2024-03-06 11:00:00","21","molfetta","17.81","1","56.94","1","0.0","1","null","6","null","6","442.52","1","null","6","41.200462","16.604997"],
    [1573,"2024-03-06 12:00:00","21","molfetta","17.2","1","58.74","1","0.0","1","null","6","null","6","393.97","1","null","6","41.200462","16.604997"],
    [1574,"2024-03-06 13:00:00","21","molfetta","18.6","1","53.43","1","0.0","1","null","6","null","6","307.38","1","null","6","41.200462","16.604997"],
    [1575,"2024-03-06 14:00:00","21","molfetta","16.73","1","60.17","1","0.0","1","null","6","null","6","176.13","1","null","6","41.200462","16.604997"],
    [1576,"2024-03-06 15:00:00","21","molfetta","16.13","1","62.22","1","0.0","1","null","6","null","6","88.64","1","null","6","41.200462","16.604997"],
    [1577,"2024-03-06 16:00:00","21","molfetta","16.26","1","61.07","1","0.0","1","null","6","null","6","87.68","1","null","6","41.200462","16.604997"],
    [1578,"2024-03-06 17:00:00","21","molfetta","15.99","1","67.24","1","0.0","1","null","6","null","6","57.68","1","null","6","41.200462","16.604997"],
    [1579,"2024-03-06 18:00:00","21","molfetta","15.44","1","59.53","1","0.0","1","null","6","null","6","24.0","1","null","6","41.200462","16.604997"],
    [1580,"2024-03-06 19:00:00","21","molfetta","15.01","1","39.84","1","0.0","1","null","6","null","6","0.0","5","null","6","41.200462","16.604997"],
    [1581,"2024-03-06 20:00:00","21","molfetta","14.18","1","39.04","1","0.0","1","null","6","null","6","0.0","1","null","6","41.200462","16.604997"],
    [1582,"2024-03-06 21:00:00","21","molfetta","13.11","1","42.29","1","0.0","1","null","6","null","6","0.0","1","null","6","41.200462","16.604997"],
    [1583,"2024-03-06 22:00:00","21","molfetta","12.34","1","46.16","1","0.0","1","null","6","null","6","0.0","1","null","6","41.200462","16.604997"],
    [1584,"2024-03-06 23:00:00","21","molfetta","11.87","1","47.76","1","0.0","1","null","6","null","6","0.0","1","null","6","41.200462","16.604997"],
    [1585,"2024-03-07 00:00:00","21","molfetta","10.92","1","52.87","1","0.0","1","null","6","null","6","0.0","1","null","6","41.200462","16.604997"],
    [1586,"2024-03-07 01:00:00","21","molfetta","10.07","1","56.47","1","0.0","1","null","6","null","6","0.0","1","null","6","41.200462","16.604997"],
    [1587,"2024-03-07 02:00:00","21","molfetta","9.91","1","54.45","1","0.0","1","null","6","null","6","0.0","1","null","6","41.200462","16.604997"],
    [1588,"2024-03-07 03:00:00","21","molfetta","9.33","1","57.14","1","0.0","1","null","6","null","6","0.0","1","null","6","41.200462","16.604997"],
    [1589,"2024-03-07 04:00:00","21","molfetta","8.78","1","62.61","1","0.0","1","null","6","null","6","0.0","1","null","6","41.200462","16.604997"],
    [1590,"2024-03-07 05:00:00","21","molfetta","9.03","1","61.02","1","0.0","1","null","6","null","6","0.0","1","null","6","41.200462","16.604997"],
    [1591,"2024-03-07 06:00:00","21","molfetta","8.72","1","58.64","1","0.0","1","null","6","null","6","0.0","1","null","6","41.200462","16.604997"],
    [1592,"2024-03-07 07:00:00","21","molfetta","8.34","1","56.51","1","0.0","1","null","6","null","6","7.76","1","null","6","41.200462","16.604997"],
    [1593,"2024-03-07 08:00:00","21","molfetta","9.1","1","56.57","1","0.0","1","null","6","null","6","51.87","1","null","6","41.200462","16.604997"],
    [1594,"2024-03-07 09:00:00","21","molfetta","11.89","1","49.39","1","0.0","1","null","6","null","6","68.65","1","null","6","41.200462","16.604997"],
    [1595,"2024-03-07 10:00:00","21","molfetta","14.31","1","40.98","1","0.0","1","null","6","null","6","424.3","1","null","6","41.200462","16.604997"],
    [1596,"2024-03-07 11:00:00","21","molfetta","17.01","1","38.14","1","0.0","1","null","6","null","6","665.35","1","null","6","41.200462","16.604997"],
    [1597,"2024-03-07 12:00:00","21","molfetta","16.67","1","42.53","1","0.0","1","null","6","null","6","586.89","1","null","6","41.200462","16.604997"],
    [1598,"2024-03-07 13:00:00","21","molfetta","16.53","1","43.2","1","0.0","1","null","6","null","6","613.84","1","null","6","41.200462","16.604997"],
    [1599,"2024-03-07 14:00:00","21","molfetta","15.29","1","46.41","1","0.0","1","null","6","null","6","211.57","1","null","6","41.200462","16.604997"],
    [1600,"2024-03-07 15:00:00","21","molfetta","14.83","1","46.82","1","0.0","1","null","6","null","6","140.38","1","null","6","41.200462","16.604997"],
    [1601,"2024-03-07 16:00:00","21","molfetta","14.54","1","47.44","1","0.0","1","null","6","null","6","69.23","1","null","6","41.200462","16.604997"],
    [1602,"2024-03-07 17:00:00","21","molfetta","14.16","1","52.19","1","0.0","1","null","6","null","6","74.12","1","null","6","41.200462","16.604997"],
    [1603,"2024-03-07 18:00:00","21","molfetta","13.11","1","62.21","1","0.0","1","null","6","null","6","20.08","1","null","6","41.200462","16.604997"],
    [1604,"2024-03-07 19:00:00","21","molfetta","12.55","1","66.3","1","0.0","1","null","6","null","6","0.0","5","null","6","41.200462","16.604997"],
    [1605,"2024-03-07 20:00:00","21","molfetta","12.42","1","67.21","1","0.0","1","null","6","null","6","0.0","1","null","6","41.200462","16.604997"],
    [1606,"2024-03-07 21:00:00","21","molfetta","12.15","1","66.91","1","0.0","1","null","6","null","6","0.0","1","null","6","41.200462","16.604997"],
    [1607,"2024-03-07 22:00:00","21","molfetta","11.29","1","69.88","1","0.0","1","null","6","null","6","0.0","1","null","6","41.200462","16.604997"],
    [1608,"2024-03-07 23:00:00","21","molfetta","10.26","1","72.54","1","0.0","1","null","6","null","6","0.0","1","null","6","41.200462","16.604997"],
    [1609,"2024-03-08 00:00:00","21","molfetta","10.08","1","74.72","1","0.0","1","null","6","null","6","0.0","1","null","6","41.200462","16.604997"],
    [1610,"2024-03-08 01:00:00","21","molfetta","9.9","1","75.03","1","0.0","1","null","6","null","6","0.0","1","null","6","41.200462","16.604997"],
    [1611,"2024-03-08 02:00:00","21","molfetta","10.04","1","74.21","1","0.0","1","null","6","null","6","0.0","1","null","6","41.200462","16.604997"],
    [1612,"2024-03-08 03:00:00","21","molfetta","10.22","1","73.45","1","0.0","1","null","6","null","6","0.0","1","null","6","41.200462","16.604997"],
    [1613,"2024-03-08 04:00:00","21","molfetta","10.42","1","73.17","1","0.0","1","null","6","null","6","0.0","1","null","6","41.200462","16.604997"],
    [1614,"2024-03-08 05:00:00","21","molfetta","9.94","1","74.56","1","0.0","1","null","6","null","6","0.0","1","null","6","41.200462","16.604997"],
    [1615,"2024-03-08 06:00:00","21","molfetta","9.25","1","76.58","1","0.0","1","null","6","null","6","0.0","1","null","6","41.200462","16.604997"],
    [1616,"2024-03-08 07:00:00","21","molfetta","8.87","1","76.93","1","0.0","1","null","6","null","6","9.04","1","null","6","41.200462","16.604997"],
    [1617,"2024-03-08 08:00:00","21","molfetta","9.48","1","75.38","1","0.0","1","null","6","null","6","54.71","1","null","6","41.200462","16.604997"],
    [1618,"2024-03-08 09:00:00","21","molfetta","11.05","1","71.96","1","0.0","1","null","6","null","6","72.6","1","null","6","41.200462","16.604997"],
    [1619,"2024-03-08 10:00:00","21","molfetta","13.36","1","63.02","1","0.0","1","null","6","null","6","416.24","1","null","6","41.200462","16.604997"],
    [1620,"2024-03-08 11:00:00","21","molfetta","17.85","1","51.06","1","0.0","1","null","6","null","6","672.91","1","null","6","41.200462","16.604997"],
    [1621,"2024-03-08 12:00:00","21","molfetta","17.89","1","51.34","1","0.0","1","null","6","null","6","720.93","1","null","6","41.200462","16.604997"],
    [1622,"2024-03-08 13:00:00","21","molfetta","17.66","1","52.27","1","0.0","1","null","6","null","6","713.02","1","null","6","41.200462","16.604997"],
    [1623,"2024-03-08 14:00:00","21","molfetta","15.31","1","59.65","1","0.0","1","null","6","null","6","187.81","1","null","6","41.200462","16.604997"],
    [1624,"2024-03-08 15:00:00","21","molfetta","14.65","1","60.75","1","0.0","1","null","6","null","6","113.4","1","null","6","41.200462","16.604997"],
    [1625,"2024-03-08 16:00:00","21","molfetta","14.33","1","63.24","1","0.0","1","null","6","null","6","60.24","1","null","6","41.200462","16.604997"],
    [1626,"2024-03-08 17:00:00","21","molfetta","14.1","1","63.51","1","0.0","1","null","6","null","6","46.54","1","null","6","41.200462","16.604997"],
    [1627,"2024-03-08 18:00:00","21","molfetta","13.66","1","64.44","1","0.0","1","null","6","null","6","17.82","1","null","6","41.200462","16.604997"],
    [1628,"2024-03-08 19:00:00","21","molfetta","12.92","1","67.64","1","0.0","1","null","6","null","6","0.0","1","null","6","41.200462","16.604997"],
    [1629,"2024-03-08 20:00:00","21","molfetta","12.01","1","64.89","1","0.0","1","null","6","null","6","0.0","1","null","6","41.200462","16.604997"],
    [1630,"2024-03-08 21:00:00","21","molfetta","11.5","1","67.97","1","0.0","1","null","6","null","6","0.0","1","null","6","41.200462","16.604997"],
    [1631,"2024-03-08 22:00:00","21","molfetta","11.58","1","71.62","1","0.0","1","null","6","null","6","0.0","1","null","6","41.200462","16.604997"],
    [1632,"2024-03-08 23:00:00","21","molfetta","11.88","1","74.56","1","0.0","1","null","6","null","6","0.0","1","null","6","41.200462","16.604997"],
    [1633,"2024-03-09 00:00:00","21","molfetta","12.09","1","76.65","1","0.0","1","null","6","null","6","0.0","1","null","6","41.200462","16.604997"],
    [1634,"2024-03-09 01:00:00","21","molfetta","11.95","1","79.49","1","0.0","1","null","6","null","6","0.0","1","null","6","41.200462","16.604997"],
    [1635,"2024-03-09 02:00:00","21","molfetta","12.14","1","81.8","1","0.0","1","null","6","null","6","0.0","1","null","6","41.200462","16.604997"],
    [1636,"2024-03-09 03:00:00","21","molfetta","12.5","1","82.46","1","0.0","1","null","6","null","6","0.0","1","null","6","41.200462","16.604997"],
    [1637,"2024-03-09 04:00:00","21","molfetta","12.54","1","84.01","1","0.2","1","null","6","null","6","0.0","1","null","6","41.200462","16.604997"],
    [1638,"2024-03-09 05:00:00","21","molfetta","12.35","1","88.08","1","0.0","1","null","6","null","6","0.0","1","null","6","41.200462","16.604997"],
    [1639,"2024-03-09 06:00:00","21","molfetta","12.74","1","89.68","1","0.0","1","null","6","null","6","0.0","1","null","6","41.200462","16.604997"],
    [1640,"2024-03-09 07:00:00","21","molfetta","13.12","1","88.74","1","0.0","1","null","6","null","6","0.0","5","null","6","41.200462","16.604997"],
    [1641,"2024-03-09 08:00:00","21","molfetta","13.22","1","89.01","1","0.0","1","null","6","null","6","43.18","1","null","6","41.200462","16.604997"],
    [1642,"2024-03-09 09:00:00","21","molfetta","14.31","1","89.38","1","0.0","1","null","6","null","6","139.83","1","null","6","41.200462","16.604997"],
    [1643,"2024-03-09 10:00:00","21","molfetta","16.62","1","81.96","1","0.0","1","null","6","null","6","252.38","1","null","6","41.200462","16.604997"],
    [1644,"2024-03-09 11:00:00","21","molfetta","17.37","1","68.25","1","0.4","1","null","6","null","6","89.37","1","null","6","41.200462","16.604997"],
    [1645,"2024-03-09 12:00:00","21","molfetta","16.72","1","75.9","1","0.0","1","null","6","null","6","84.45","1","null","6","41.200462","16.604997"],
    [1646,"2024-03-09 13:00:00","21","molfetta","17.38","1","77.77","1","0.0","1","null","6","null","6","174.66","1","null","6","41.200462","16.604997"],
    [1647,"2024-03-09 14:00:00","21","molfetta","18.18","1","75.11","1","0.2","1","null","6","null","6","110.59","1","null","6","41.200462","16.604997"],
    [1648,"2024-03-09 15:00:00","21","molfetta","17.08","1","79.94","1","0.0","1","null","6","null","6","151.85","1","null","6","41.200462","16.604997"],
    [1649,"2024-03-09 16:00:00","21","molfetta","16.99","1","77.03","1","0.0","1","null","6","null","6","111.19","1","null","6","41.200462","16.604997"],
    [1650,"2024-03-09 17:00:00","21","molfetta","16.72","1","73.31","1","0.0","1","null","6","null","6","76.71","1","null","6","41.200462","16.604997"],
    [1651,"2024-03-09 18:00:00","21","molfetta","16.17","1","73.53","1","0.0","1","null","6","null","6","19.93","1","null","6","41.200462","16.604997"],
    [1652,"2024-03-09 19:00:00","21","molfetta","15.17","1","76.4","1","0.0","1","null","6","null","6","0.0","5","null","6","41.200462","16.604997"],
    [1653,"2024-03-09 20:00:00","21","molfetta","14.53","1","77.79","1","0.0","1","null","6","null","6","0.0","1","null","6","41.200462","16.604997"],
    [1654,"2024-03-09 21:00:00","21","molfetta","13.78","1","79.22","1","0.0","1","null","6","null","6","0.0","1","null","6","41.200462","16.604997"],
    [1655,"2024-03-09 22:00:00","21","molfetta","13.44","1","77.53","1","0.0","1","null","6","null","6","0.0","1","null","6","41.200462","16.604997"],
    [1656,"2024-03-09 23:00:00","21","molfetta","12.95","1","80.55","1","0.0","1","null","6","null","6","0.0","1","null","6","41.200462","16.604997"],
    [1657,"2024-03-10 00:00:00","21","molfetta","12.28","1","85.1","1","0.0","1","null","6","null","6","0.0","1","null","6","41.200462","16.604997"],
    [1658,"2024-03-10 01:00:00","21","molfetta","11.64","1","88.72","1","0.0","1","null","6","null","6","0.0","1","null","6","41.200462","16.604997"],
    [1659,"2024-03-10 02:00:00","21","molfetta","11.57","1","91.42","1","0.0","1","null","6","null","6","0.0","1","null","6","41.200462","16.604997"],
    [1660,"2024-03-10 03:00:00","21","molfetta","11.84","1","93.33","1","0.0","1","null","6","null","6","0.0","1","null","6","41.200462","16.604997"],
    [1661,"2024-03-10 04:00:00","21","molfetta","12.7","1","91.1","1","0.0","1","null","6","null","6","0.0","1","null","6","41.200462","16.604997"],
    [1662,"2024-03-10 05:00:00","21","molfetta","12.66","1","86.55","1","0.0","1","null","6","null","6","0.0","1","null","6","41.200462","16.604997"],
    [1663,"2024-03-10 06:00:00","21","molfetta","12.75","1","85.18","1","0.0","1","null","6","null","6","0.0","1","null","6","41.200462","16.604997"],
    [1664,"2024-03-10 07:00:00","21","molfetta","13.02","1","85.32","1","0.0","1","null","6","null","6","10.32","1","null","6","41.200462","16.604997"],
    [1665,"2024-03-10 08:00:00","21","molfetta","14.12","1","82.07","1","0.0","1","null","6","null","6","87.57","1","null","6","41.200462","16.604997"],
    [1666,"2024-03-10 09:00:00","21","molfetta","16.18","1","71.22","1","0.0","1","null","6","null","6","121.74","1","null","6","41.200462","16.604997"],
    [1667,"2024-03-10 10:00:00","21","molfetta","16.11","1","70.48","1","0.0","1","null","6","null","6","82.0","1","null","6","41.200462","16.604997"],
    [1668,"2024-03-10 11:00:00","21","molfetta","16.32","1","70.15","1","0.0","1","null","6","null","6","104.81","1","null","6","41.200462","16.604997"],
    [1669,"2024-03-10 12:00:00","21","molfetta","16.85","1","67.1","1","0.0","1","null","6","null","6","147.89","1","null","6","41.200462","16.604997"],
    [1670,"2024-03-10 13:00:00","21","molfetta","17.28","1","64.95","1","0.0","1","null","6","null","6","138.6","1","null","6","41.200462","16.604997"],
    [1671,"2024-03-10 14:00:00","21","molfetta","17.25","1","64.73","1","0.0","1","null","6","null","6","108.39","1","null","6","41.200462","16.604997"],
    [1672,"2024-03-10 15:00:00","21","molfetta","17.15","1","65.32","1","0.0","1","null","6","null","6","123.77","1","null","6","41.200462","16.604997"],
    [1673,"2024-03-10 16:00:00","21","molfetta","17.04","1","65.45","1","0.0","1","null","6","null","6","110.56","1","null","6","41.200462","16.604997"],
    [1674,"2024-03-10 17:00:00","21","molfetta","16.71","1","67.47","1","0.0","1","null","6","null","6","80.73","1","null","6","41.200462","16.604997"],
    [1675,"2024-03-10 18:00:00","21","molfetta","16.25","1","69.87","1","0.0","1","null","6","null","6","27.74","1","null","6","41.200462","16.604997"],
    [1676,"2024-03-10 19:00:00","21","molfetta","15.77","1","72.44","1","0.0","1","null","6","null","6","0.0","5","null","6","41.200462","16.604997"],
    [1677,"2024-03-10 20:00:00","21","molfetta","15.55","1","73.82","1","0.0","1","null","6","null","6","0.0","1","null","6","41.200462","16.604997"],
    [1678,"2024-03-10 21:00:00","21","molfetta","15.44","1","75.08","1","0.0","1","null","6","null","6","0.0","1","null","6","41.200462","16.604997"],
    [1679,"2024-03-10 22:00:00","21","molfetta","15.46","1","76.12","1","0.0","1","null","6","null","6","0.0","1","null","6","41.200462","16.604997"],
    [1680,"2024-03-10 23:00:00","21","molfetta","15.58","1","75.9","1","0.0","1","null","6","null","6","0.0","1","null","6","41.200462","16.604997"],
    [1681,"2024-03-11 00:00:00","21","molfetta","15.8","1","75.59","1","0.0","1","null","6","null","6","0.0","1","null","6","41.200462","16.604997"],
    [1682,"2024-03-11 01:00:00","21","molfetta","15.96","1","74.43","1","0.0","1","null","6","null","6","0.0","1","null","6","41.200462","16.604997"],
    [1683,"2024-03-11 02:00:00","21","molfetta","15.97","1","74.64","1","0.0","1","null","6","null","6","0.0","1","null","6","41.200462","16.604997"],
    [1684,"2024-03-11 03:00:00","21","molfetta","15.92","1","75.33","1","0.0","1","null","6","null","6","0.0","1","null","6","41.200462","16.604997"],
    [1685,"2024-03-11 04:00:00","21","molfetta","15.97","1","75.62","1","0.0","1","null","6","null","6","0.0","1","null","6","41.200462","16.604997"],
    [1686,"2024-03-11 05:00:00","21","molfetta","15.81","1","76.41","1","0.0","1","null","6","null","6","0.0","1","null","6","41.200462","16.604997"],
    [1687,"2024-03-11 06:00:00","21","molfetta","15.92","1","75.91","1","0.0","1","null","6","null","6","0.0","1","null","6","41.200462","16.604997"],
    [1688,"2024-03-11 07:00:00","21","molfetta","14.22","1","82.29","1","2.0","1","null","6","null","6","0.0","5","null","6","41.200462","16.604997"],
    [1689,"2024-03-11 08:00:00","21","molfetta","12.5","1","90.55","1","0.0","1","null","6","null","6","16.74","1","null","6","41.200462","16.604997"],
    [1690,"2024-03-11 09:00:00","21","molfetta","13.08","1","89.01","1","0.0","1","null","6","null","6","75.27","1","null","6","41.200462","16.604997"],
    [1691,"2024-03-11 10:00:00","21","molfetta","16.86","1","66.23","1","0.0","1","null","6","null","6","417.09","1","null","6","41.200462","16.604997"],
    [1692,"2024-03-11 11:00:00","21","molfetta","20.12","1","42.93","1","0.0","1","null","6","null","6","689.82","1","null","6","41.200462","16.604997"],
    [1693,"2024-03-11 12:00:00","21","molfetta","20.44","1","38.79","1","0.0","1","null","6","null","6","735.89","1","null","6","41.200462","16.604997"],
    [1694,"2024-03-11 13:00:00","21","molfetta","19.5","1","51.68","1","0.0","1","null","6","null","6","747.54","1","null","6","41.200462","16.604997"],
    [1695,"2024-03-11 14:00:00","21","molfetta","16.83","1","61.94","1","0.0","1","null","6","null","6","400.24","1","null","6","41.200462","16.604997"],
    [1696,"2024-03-11 15:00:00","21","molfetta","16.02","1","65.66","1","0.0","1","null","6","null","6","152.14","1","null","6","41.200462","16.604997"],
    [1697,"2024-03-11 16:00:00","21","molfetta","15.73","1","70.65","1","0.0","1","null","6","null","6","170.18","1","null","6","41.200462","16.604997"],
    [1698,"2024-03-11 17:00:00","21","molfetta","15.88","1","69.47","1","0.0","1","null","6","null","6","93.29","1","null","6","41.200462","16.604997"],
    [1699,"2024-03-11 18:00:00","21","molfetta","15.32","1","70.59","1","0.0","1","null","6","null","6","18.01","1","null","6","41.200462","16.604997"],
    [1700,"2024-03-11 19:00:00","21","molfetta","14.93","1","72.71","1","0.0","1","null","6","null","6","0.0","5","null","6","41.200462","16.604997"],
    [1701,"2024-03-11 20:00:00","21","molfetta","14.46","1","73.97","1","0.0","1","null","6","null","6","0.0","1","null","6","41.200462","16.604997"],
    [1702,"2024-03-11 21:00:00","21","molfetta","14.35","1","60.71","1","0.0","1","null","6","null","6","0.0","1","null","6","41.200462","16.604997"],
    [1703,"2024-03-11 22:00:00","21","molfetta","13.87","1","56.35","1","0.0","1","null","6","null","6","0.0","1","null","6","41.200462","16.604997"],
    [1704,"2024-03-11 23:00:00","21","molfetta","12.89","1","61.0","1","0.0","1","null","6","null","6","0.0","1","null","6","41.200462","16.604997"],
    [1705,"2024-03-12 00:00:00","21","molfetta","11.79","1","65.51","1","0.0","1","null","6","null","6","0.0","1","null","6","41.200462","16.604997"],
    [1706,"2024-03-12 01:00:00","21","molfetta","12.14","1","62.05","1","0.0","1","null","6","null","6","0.0","1","null","6","41.200462","16.604997"],
    [1707,"2024-03-12 02:00:00","21","molfetta","12.29","1","60.92","1","0.0","1","null","6","null","6","0.0","1","null","6","41.200462","16.604997"],
    [1708,"2024-03-12 03:00:00","21","molfetta","11.37","1","66.34","1","0.0","1","null","6","null","6","0.0","1","null","6","41.200462","16.604997"],
    [1709,"2024-03-12 04:00:00","21","molfetta","11.8","1","57.85","1","0.0","1","null","6","null","6","0.0","1","null","6","41.200462","16.604997"],
    [1710,"2024-03-12 05:00:00","21","molfetta","12.24","1","53.59","1","0.0","1","null","6","null","6","0.0","1","null","6","41.200462","16.604997"],
    [1711,"2024-03-12 06:00:00","21","molfetta","11.79","1","56.28","1","0.0","1","null","6","null","6","0.0","1","null","6","41.200462","16.604997"],
    [1712,"2024-03-12 07:00:00","21","molfetta","10.9","1","60.82","1","0.0","1","null","6","null","6","10.1","1","null","6","41.200462","16.604997"],
    [1713,"2024-03-12 08:00:00","21","molfetta","11.88","1","60.66","1","0.0","1","null","6","null","6","90.86","1","null","6","41.200462","16.604997"],
    [1714,"2024-03-12 09:00:00","21","molfetta","13.57","1","56.86","1","0.0","1","null","6","null","6","162.47","1","null","6","41.200462","16.604997"],
    [1715,"2024-03-12 10:00:00","21","molfetta","14.88","1","52.12","1","0.0","1","null","6","null","6","329.21","1","null","6","41.200462","16.604997"],
    [1716,"2024-03-12 11:00:00","21","molfetta","17.19","1","45.89","1","0.0","1","null","6","null","6","646.52","1","null","6","41.200462","16.604997"],
    [1717,"2024-03-12 12:00:00","21","molfetta","17.1","1","47.73","1","0.0","1","null","6","null","6","462.64","1","null","6","41.200462","16.604997"],
    [1718,"2024-03-12 13:00:00","21","molfetta","16.52","1","54.12","1","0.0","1","null","6","null","6","416.31","1","null","6","41.200462","16.604997"],
    [1719,"2024-03-12 14:00:00","21","molfetta","15.88","1","60.23","1","0.0","1","null","6","null","6","346.3","1","null","6","41.200462","16.604997"],
    [1720,"2024-03-12 15:00:00","21","molfetta","15.05","1","61.73","1","0.0","1","null","6","null","6","156.64","1","null","6","41.200462","16.604997"],
    [1721,"2024-03-12 16:00:00","21","molfetta","14.52","1","65.02","1","0.0","1","null","6","null","6","133.99","1","null","6","41.200462","16.604997"],
    [1722,"2024-03-12 17:00:00","21","molfetta","14.32","1","67.39","1","0.0","1","null","6","null","6","75.79","1","null","6","41.200462","16.604997"],
    [1723,"2024-03-12 18:00:00","21","molfetta","14.07","1","65.31","1","0.0","1","null","6","null","6","28.52","1","null","6","41.200462","16.604997"],
    [1724,"2024-03-12 19:00:00","21","molfetta","13.78","1","63.66","1","0.0","1","null","6","null","6","0.0","5","null","6","41.200462","16.604997"],
    [1725,"2024-03-12 20:00:00","21","molfetta","13.44","1","67.78","1","0.0","1","null","6","null","6","0.0","1","null","6","41.200462","16.604997"],
    [1726,"2024-03-12 21:00:00","21","molfetta","12.5","1","71.08","1","0.0","1","null","6","null","6","0.0","1","null","6","41.200462","16.604997"],
    [1727,"2024-03-12 22:00:00","21","molfetta","11.81","1","70.68","1","0.0","1","null","6","null","6","0.0","1","null","6","41.200462","16.604997"],
    [1728,"2024-03-12 23:00:00","21","molfetta","11.44","1","70.6","1","0.0","1","null","6","null","6","0.0","1","null","6","41.200462","16.604997"],
    [1729,"2024-03-13 00:00:00","21","molfetta","11.49","1","70.45","1","0.0","1","null","6","null","6","0.0","1","null","6","41.200462","16.604997"],
    [1730,"2024-03-13 01:00:00","21","molfetta","11.57","1","72.81","1","0.0","1","null","6","null","6","0.0","1","null","6","41.200462","16.604997"],
    [1731,"2024-03-13 02:00:00","21","molfetta","11.4","1","72.0","1","0.0","1","null","6","null","6","0.0","1","null","6","41.200462","16.604997"],
    [1732,"2024-03-13 03:00:00","21","molfetta","11.48","1","68.96","1","0.0","1","null","6","null","6","0.0","1","null","6","41.200462","16.604997"],
    [1733,"2024-03-13 04:00:00","21","molfetta","11.51","1","65.38","1","0.0","1","null","6","null","6","0.0","1","null","6","41.200462","16.604997"],
    [1734,"2024-03-13 05:00:00","21","molfetta","11.34","1","64.25","1","0.0","1","null","6","null","6","0.0","1","null","6","41.200462","16.604997"],
    [1735,"2024-03-13 06:00:00","21","molfetta","10.78","1","65.63","1","0.0","1","null","6","null","6","0.0","1","null","6","41.200462","16.604997"],
    [1736,"2024-03-13 07:00:00","21","molfetta","10.45","1","67.78","1","0.0","1","null","6","null","6","7.66","1","null","6","41.200462","16.604997"],
    [1737,"2024-03-13 08:00:00","21","molfetta","11.08","1","67.28","1","0.0","1","null","6","null","6","54.45","1","null","6","41.200462","16.604997"],
    [1738,"2024-03-13 09:00:00","21","molfetta","13.1","1","62.07","1","0.0","1","null","6","null","6","75.98","1","null","6","41.200462","16.604997"],
    [1739,"2024-03-13 10:00:00","21","molfetta","15.52","1","53.73","1","0.0","1","null","6","null","6","412.52","1","null","6","41.200462","16.604997"],
    [1740,"2024-03-13 11:00:00","21","molfetta","18.44","1","45.39","1","0.0","1","null","6","null","6","694.84","1","null","6","41.200462","16.604997"],
    [1741,"2024-03-13 12:00:00","21","molfetta","19.19","1","46.28","1","0.0","1","null","6","null","6","765.88","1","null","6","41.200462","16.604997"],
    [1742,"2024-03-13 13:00:00","21","molfetta","18.86","1","48.95","1","0.0","1","null","6","null","6","768.52","1","null","6","41.200462","16.604997"],
    [1743,"2024-03-13 14:00:00","21","molfetta","18.27","1","52.83","1","0.0","1","null","6","null","6","479.69","1","null","6","41.200462","16.604997"],
    [1744,"2024-03-13 15:00:00","21","molfetta","17.27","1","56.36","1","0.0","1","null","6","null","6","358.06","1","null","6","41.200462","16.604997"],
    [1745,"2024-03-13 16:00:00","21","molfetta","15.31","1","63.6","1","0.0","1","null","6","null","6","62.74","1","null","6","41.200462","16.604997"],
    [1746,"2024-03-13 17:00:00","21","molfetta","14.86","1","65.4","1","0.0","1","null","6","null","6","35.65","1","null","6","41.200462","16.604997"],
    [1747,"2024-03-13 18:00:00","21","molfetta","14.36","1","66.97","1","0.0","1","null","6","null","6","12.68","1","null","6","41.200462","16.604997"],
    [1748,"2024-03-13 19:00:00","21","molfetta","14.13","1","66.73","1","0.0","1","null","6","null","6","0.0","5","null","6","41.200462","16.604997"],
    [1749,"2024-03-13 20:00:00","21","molfetta","14.05","1","65.43","1","0.0","1","null","6","null","6","0.0","1","null","6","41.200462","16.604997"],
    [1750,"2024-03-13 21:00:00","21","molfetta","13.44","1","69.58","1","0.0","1","null","6","null","6","0.0","1","null","6","41.200462","16.604997"],
    [1751,"2024-03-13 22:00:00","21","molfetta","12.38","1","69.9","1","0.0","1","null","6","null","6","0.0","1","null","6","41.200462","16.604997"],
    [1752,"2024-03-13 23:00:00","21","molfetta","11.93","1","69.65","1","0.0","1","null","6","null","6","0.0","1","null","6","41.200462","16.604997"],
    [1753,"2024-03-14 00:00:00","21","molfetta","11.42","1","67.62","1","0.0","1","null","6","null","6","0.0","1","null","6","41.200462","16.604997"],
    [1754,"2024-03-14 01:00:00","21","molfetta","10.95","1","62.77","1","0.0","1","null","6","null","6","0.0","1","null","6","41.200462","16.604997"],
    [1755,"2024-03-14 02:00:00","21","molfetta","10.99","1","57.06","1","0.0","1","null","6","null","6","0.0","1","null","6","41.200462","16.604997"],
    [1756,"2024-03-14 03:00:00","21","molfetta","10.97","1","53.26","1","0.0","1","null","6","null","6","0.0","1","null","6","41.200462","16.604997"],
    [1757,"2024-03-14 04:00:00","21","molfetta","10.97","1","50.29","1","0.0","1","null","6","null","6","0.0","1","null","6","41.200462","16.604997"],
    [1758,"2024-03-14 05:00:00","21","molfetta","10.89","1","48.32","1","0.0","1","null","6","null","6","0.0","1","null","6","41.200462","16.604997"],
    [1759,"2024-03-14 06:00:00","21","molfetta","10.47","1","48.75","1","0.0","1","null","6","null","6","0.0","1","null","6","41.200462","16.604997"],
    [1760,"2024-03-14 07:00:00","21","molfetta","10.45","1","47.96","1","0.0","1","null","6","null","6","15.83","1","null","6","41.200462","16.604997"],
    [1761,"2024-03-14 08:00:00","21","molfetta","11.78","1","44.47","1","0.0","1","null","6","null","6","60.89","1","null","6","41.200462","16.604997"],
    [1762,"2024-03-14 09:00:00","21","molfetta","13.88","1","40.21","1","0.0","1","null","6","null","6","70.92","1","null","6","41.200462","16.604997"],
    [1763,"2024-03-14 10:00:00","21","molfetta","16.65","1","37.53","1","0.0","1","null","6","null","6","442.21","1","null","6","41.200462","16.604997"],
    [1764,"2024-03-14 11:00:00","21","molfetta","19.79","1","37.37","1","0.0","1","null","6","null","6","714.57","1","null","6","41.200462","16.604997"],
    [1765,"2024-03-14 12:00:00","21","molfetta","19.63","1","42.88","1","0.0","1","null","6","null","6","784.88","1","null","6","41.200462","16.604997"],
    [1766,"2024-03-14 13:00:00","21","molfetta","21.34","1","36.55","1","0.0","1","null","6","null","6","787.03","1","null","6","41.200462","16.604997"],
    [1767,"2024-03-14 14:00:00","21","molfetta","18.28","1","48.2","1","0.0","1","null","6","null","6","445.32","1","null","6","41.200462","16.604997"],
    [1768,"2024-03-14 15:00:00","21","molfetta","16.96","1","53.01","1","0.0","1","null","6","null","6","372.76","1","null","6","41.200462","16.604997"],
    [1769,"2024-03-14 16:00:00","21","molfetta","15.31","1","64.99","1","0.0","1","null","6","null","6","55.95","1","null","6","41.200462","16.604997"],
    [1770,"2024-03-14 17:00:00","21","molfetta","15.14","1","70.66","1","0.0","1","null","6","null","6","44.01","1","null","6","41.200462","16.604997"],
    [1771,"2024-03-14 18:00:00","21","molfetta","14.65","1","74.03","1","0.0","1","null","6","null","6","18.3","1","null","6","41.200462","16.604997"],
    [1772,"2024-03-14 19:00:00","21","molfetta","14.14","1","69.56","1","0.0","1","null","6","null","6","0.0","5","null","6","41.200462","16.604997"],
    [1773,"2024-03-14 20:00:00","21","molfetta","13.98","1","61.89","1","0.0","1","null","6","null","6","0.0","1","null","6","41.200462","16.604997"],
    [1774,"2024-03-14 21:00:00","21","molfetta","13.29","1","53.89","1","0.0","1","null","6","null","6","0.0","1","null","6","41.200462","16.604997"],
    [1775,"2024-03-14 22:00:00","21","molfetta","12.23","1","53.17","1","0.0","1","null","6","null","6","0.0","1","null","6","41.200462","16.604997"],
    [1776,"2024-03-14 23:00:00","21","molfetta","11.73","1","54.92","1","0.0","1","null","6","null","6","0.0","1","null","6","41.200462","16.604997"],
    [1777,"2024-03-15 00:00:00","21","molfetta","11.43","1","57.5","1","0.0","1","null","6","null","6","0.0","1","null","6","41.200462","16.604997"],
    [1778,"2024-03-15 01:00:00","21","molfetta","11.24","1","61.06","1","0.0","1","null","6","null","6","0.0","1","null","6","41.200462","16.604997"],
    [1779,"2024-03-15 02:00:00","21","molfetta","11.24","1","66.8","1","0.0","1","null","6","null","6","0.0","1","null","6","41.200462","16.604997"],
    [1780,"2024-03-15 03:00:00","21","molfetta","10.28","1","71.06","1","0.0","1","null","6","null","6","0.0","1","null","6","41.200462","16.604997"],
    [1781,"2024-03-15 04:00:00","21","molfetta","9.73","1","73.75","1","0.0","1","null","6","null","6","0.0","1","null","6","41.200462","16.604997"],
    [1782,"2024-03-15 05:00:00","21","molfetta","9.02","1","76.92","1","0.0","1","null","6","null","6","0.0","1","null","6","41.200462","16.604997"],
    [1783,"2024-03-15 06:00:00","21","molfetta","8.99","1","79.58","1","0.0","1","null","6","null","6","0.0","1","null","6","41.200462","16.604997"],
    [1784,"2024-03-15 07:00:00","21","molfetta","9.42","1","80.76","1","0.0","1","null","6","null","6","18.23","1","null","6","41.200462","16.604997"],
    [1785,"2024-03-15 08:00:00","21","molfetta","10.56","1","78.07","1","0.0","1","null","6","null","6","61.98","1","null","6","41.200462","16.604997"],
    [1786,"2024-03-15 09:00:00","21","molfetta","12.62","1","71.56","1","0.0","1","null","6","null","6","74.97","1","null","6","41.200462","16.604997"],
    [1787,"2024-03-15 10:00:00","21","molfetta","16.03","1","62.18","1","0.0","1","null","6","null","6","406.98","1","null","6","41.200462","16.604997"],
    [1788,"2024-03-15 11:00:00","21","molfetta","18.29","1","56.6","1","0.0","1","null","6","null","6","559.33","1","null","6","41.200462","16.604997"],
    [1789,"2024-03-15 12:00:00","21","molfetta","21.38","1","49.03","1","0.0","1","null","6","null","6","746.83","1","null","6","41.200462","16.604997"],
    [1790,"2024-03-15 13:00:00","21","molfetta","21.43","1","49.47","1","0.0","1","null","6","null","6","749.68","1","null","6","41.200462","16.604997"],
    [1791,"2024-03-15 14:00:00","21","molfetta","20.51","1","53.9","1","0.0","1","null","6","null","6","464.98","1","null","6","41.200462","16.604997"],
    [1792,"2024-03-15 15:00:00","21","molfetta","18.63","1","61.72","1","0.0","1","null","6","null","6","395.24","1","null","6","41.200462","16.604997"],
    [1793,"2024-03-15 16:00:00","21","molfetta","16.65","1","67.16","1","0.0","1","null","6","null","6","64.43","1","null","6","41.200462","16.604997"],
    [1794,"2024-03-15 17:00:00","21","molfetta","16.19","1","69.22","1","0.0","1","null","6","null","6","49.87","1","null","6","41.200462","16.604997"],
    [1795,"2024-03-15 18:00:00","21","molfetta","15.65","1","71.11","1","0.0","1","null","6","null","6","25.64","1","null","6","41.200462","16.604997"],
    [1796,"2024-03-15 19:00:00","21","molfetta","14.88","1","68.77","1","0.0","1","null","6","null","6","0.0","5","null","6","41.200462","16.604997"],
    [1797,"2024-03-15 20:00:00","21","molfetta","14.43","1","73.36","1","0.0","1","null","6","null","6","0.0","1","null","6","41.200462","16.604997"],
    [1798,"2024-03-15 21:00:00","21","molfetta","14.04","1","71.84","1","0.0","1","null","6","null","6","0.0","1","null","6","41.200462","16.604997"],
    [1799,"2024-03-15 22:00:00","21","molfetta","14.54","1","65.78","1","0.0","1","null","6","null","6","0.0","1","null","6","41.200462","16.604997"],
    [1800,"2024-03-15 23:00:00","21","molfetta","14.47","1","65.05","1","0.0","1","null","6","null","6","0.0","1","null","6","41.200462","16.604997"],
    [1801,"2024-03-16 00:00:00","21","molfetta","14.28","1","65.34","1","0.0","1","null","6","null","6","0.0","1","null","6","41.200462","16.604997"],
    [1802,"2024-03-16 01:00:00","21","molfetta","14.0","1","65.59","1","0.0","1","null","6","null","6","0.0","1","null","6","41.200462","16.604997"],
    [1803,"2024-03-16 02:00:00","21","molfetta","13.8","1","64.74","1","0.0","1","null","6","null","6","0.0","1","null","6","41.200462","16.604997"],
    [1804,"2024-03-16 03:00:00","21","molfetta","13.39","1","65.24","1","0.0","1","null","6","null","6","0.0","1","null","6","41.200462","16.604997"],
    [1805,"2024-03-16 04:00:00","21","molfetta","12.72","1","67.55","1","0.0","1","null","6","null","6","0.0","1","null","6","41.200462","16.604997"],
    [1806,"2024-03-16 05:00:00","21","molfetta","12.27","1","69.33","1","0.0","1","null","6","null","6","0.0","1","null","6","41.200462","16.604997"],
    [1807,"2024-03-16 06:00:00","21","molfetta","11.66","1","70.82","1","0.0","1","null","6","null","6","0.0","1","null","6","41.200462","16.604997"],
    [1808,"2024-03-16 07:00:00","21","molfetta","12.37","1","65.05","1","0.0","1","null","6","null","6","24.57","1","null","6","41.200462","16.604997"],
    [1809,"2024-03-16 08:00:00","21","molfetta","14.05","1","58.22","1","0.0","1","null","6","null","6","95.76","1","null","6","41.200462","16.604997"],
    [1810,"2024-03-16 09:00:00","21","molfetta","15.64","1","53.22","1","0.0","1","null","6","null","6","124.13","1","null","6","41.200462","16.604997"],
    [1811,"2024-03-16 10:00:00","21","molfetta","17.65","1","51.44","1","0.0","1","null","6","null","6","361.46","1","null","6","41.200462","16.604997"],
    [1812,"2024-03-16 11:00:00","21","molfetta","18.32","1","57.93","1","0.0","1","null","6","null","6","534.58","1","null","6","41.200462","16.604997"],
    [1813,"2024-03-16 12:00:00","21","molfetta","18.32","1","60.9","1","0.0","1","null","6","null","6","652.12","1","null","6","41.200462","16.604997"],
    [1814,"2024-03-16 13:00:00","21","molfetta","17.84","1","62.05","1","0.0","1","null","6","null","6","544.76","1","null","6","41.200462","16.604997"],
    [1815,"2024-03-16 14:00:00","21","molfetta","17.91","1","62.21","1","0.0","1","null","6","null","6","385.82","1","null","6","41.200462","16.604997"],
    [1816,"2024-03-16 15:00:00","21","molfetta","17.85","1","65.06","1","0.0","1","null","6","null","6","394.33","1","null","6","41.200462","16.604997"],
    [1817,"2024-03-16 16:00:00","21","molfetta","16.34","1","70.63","1","0.0","1","null","6","null","6","97.31","1","null","6","41.200462","16.604997"],
    [1818,"2024-03-16 17:00:00","21","molfetta","15.65","1","74.24","1","0.0","1","null","6","null","6","52.8","1","null","6","41.200462","16.604997"],
    [1819,"2024-03-16 18:00:00","21","molfetta","15.3","1","78.32","1","0.0","1","null","6","null","6","21.92","1","null","6","41.200462","16.604997"],
    [1820,"2024-03-16 19:00:00","21","molfetta","14.97","1","84.73","1","0.0","1","null","6","null","6","0.0","5","null","6","41.200462","16.604997"],
    [1821,"2024-03-16 20:00:00","21","molfetta","14.6","1","88.35","1","0.0","1","null","6","null","6","0.0","1","null","6","41.200462","16.604997"],
    [1822,"2024-03-16 21:00:00","21","molfetta","14.33","1","89.43","1","0.0","1","null","6","null","6","0.0","1","null","6","41.200462","16.604997"],
    [1823,"2024-03-16 22:00:00","21","molfetta","14.09","1","89.29","1","0.0","1","null","6","null","6","0.0","1","null","6","41.200462","16.604997"],
    [1824,"2024-03-16 23:00:00","21","molfetta","13.86","1","89.15","1","0.0","1","null","6","null","6","0.0","1","null","6","41.200462","16.604997"],
    [1825,"2024-03-17 00:00:00","21","molfetta","13.33","1","89.42","1","0.0","1","null","6","null","6","0.0","1","null","6","41.200462","16.604997"],
    [1826,"2024-03-17 01:00:00","21","molfetta","13.23","1","89.13","1","0.0","1","null","6","null","6","0.0","1","null","6","41.200462","16.604997"],
    [1827,"2024-03-17 02:00:00","21","molfetta","13.25","1","88.8","1","0.0","1","null","6","null","6","0.0","1","null","6","41.200462","16.604997"],
    [1828,"2024-03-17 03:00:00","21","molfetta","13.11","1","85.54","1","0.0","1","null","6","null","6","0.0","1","null","6","41.200462","16.604997"],
    [1829,"2024-03-17 04:00:00","21","molfetta","12.9","1","83.36","1","0.0","1","null","6","null","6","0.0","1","null","6","41.200462","16.604997"],
    [1830,"2024-03-17 05:00:00","21","molfetta","12.84","1","82.69","1","0.0","1","null","6","null","6","0.0","1","null","6","41.200462","16.604997"],
    [1831,"2024-03-17 06:00:00","21","molfetta","12.59","1","83.13","1","0.0","1","null","6","null","6","0.0","1","null","6","41.200462","16.604997"],
    [1832,"2024-03-17 07:00:00","21","molfetta","12.24","1","84.01","1","0.0","1","null","6","null","6","19.78","1","null","6","41.200462","16.604997"],
    [1833,"2024-03-17 08:00:00","21","molfetta","13.1","1","82.06","1","0.0","1","null","6","null","6","72.94","1","null","6","41.200462","16.604997"],
    [1834,"2024-03-17 09:00:00","21","molfetta","14.72","1","75.24","1","0.0","1","null","6","null","6","93.88","1","null","6","41.200462","16.604997"],
    [1835,"2024-03-17 10:00:00","21","molfetta","16.99","1","66.04","1","0.0","1","null","6","null","6","477.48","1","null","6","41.200462","16.604997"],
    [1836,"2024-03-17 11:00:00","21","molfetta","19.61","1","57.64","1","0.0","1","null","6","null","6","674.11","1","null","6","41.200462","16.604997"],
    [1837,"2024-03-17 12:00:00","21","molfetta","19.69","1","55.28","1","0.0","1","null","6","null","6","744.55","1","null","6","41.200462","16.604997"],
    [1838,"2024-03-17 13:00:00","21","molfetta","20.51","1","53.48","1","0.0","1","null","6","null","6","768.31","1","null","6","41.200462","16.604997"],
    [1839,"2024-03-17 14:00:00","21","molfetta","19.47","1","56.3","1","0.0","1","null","6","null","6","556.67","1","null","6","41.200462","16.604997"],
    [1840,"2024-03-17 15:00:00","21","molfetta","18.46","1","59.85","1","0.0","1","null","6","null","6","471.99","1","null","6","41.200462","16.604997"],
    [1841,"2024-03-17 16:00:00","21","molfetta","16.23","1","68.46","1","0.0","1","null","6","null","6","60.6","1","null","6","41.200462","16.604997"],
    [1842,"2024-03-17 17:00:00","21","molfetta","16.07","1","72.03","1","0.0","1","null","6","null","6","44.29","1","null","6","41.200462","16.604997"],
    [1843,"2024-03-17 18:00:00","21","molfetta","15.51","1","80.8","1","0.0","1","null","6","null","6","22.28","1","null","6","41.200462","16.604997"],
    [1844,"2024-03-17 19:00:00","21","molfetta","14.76","1","86.77","1","0.0","1","null","6","null","6","0.0","5","null","6","41.200462","16.604997"],
    [1845,"2024-03-17 20:00:00","21","molfetta","14.15","1","89.63","1","0.0","1","null","6","null","6","0.0","1","null","6","41.200462","16.604997"],
    [1846,"2024-03-17 21:00:00","21","molfetta","13.4","1","89.84","1","0.0","1","null","6","null","6","0.0","1","null","6","41.200462","16.604997"],
    [1847,"2024-03-17 22:00:00","21","molfetta","12.9","1","87.19","1","0.0","1","null","6","null","6","0.0","1","null","6","41.200462","16.604997"],
    [1848,"2024-03-17 23:00:00","21","molfetta","13.38","1","70.14","1","0.0","1","null","6","null","6","0.0","1","null","6","41.200462","16.604997"],
    [1849,"2024-03-18 00:00:00","21","molfetta","12.93","1","68.31","1","0.0","1","null","6","null","6","0.0","1","null","6","41.200462","16.604997"],
    [1850,"2024-03-18 01:00:00","21","molfetta","12.69","1","68.93","1","0.0","1","null","6","null","6","0.0","1","null","6","41.200462","16.604997"],
    [1851,"2024-03-18 02:00:00","21","molfetta","12.24","1","70.62","1","0.0","1","null","6","null","6","0.0","1","null","6","41.200462","16.604997"],
    [1852,"2024-03-18 03:00:00","21","molfetta","11.61","1","72.12","1","0.0","1","null","6","null","6","0.0","1","null","6","41.200462","16.604997"],
    [1853,"2024-03-18 04:00:00","21","molfetta","11.41","1","73.23","1","0.0","1","null","6","null","6","0.0","1","null","6","41.200462","16.604997"],
    [1854,"2024-03-18 05:00:00","21","molfetta","11.67","1","74.08","1","0.0","1","null","6","null","6","0.0","1","null","6","41.200462","16.604997"],
    [1855,"2024-03-18 06:00:00","21","molfetta","11.17","1","76.88","1","0.0","1","null","6","null","6","0.0","1","null","6","41.200462","16.604997"],
    [1856,"2024-03-18 07:00:00","21","molfetta","11.72","1","74.58","1","0.0","1","null","6","null","6","21.16","1","null","6","41.200462","16.604997"],
    [1857,"2024-03-18 08:00:00","21","molfetta","12.39","1","74.44","1","0.0","1","null","6","null","6","72.38","1","null","6","41.200462","16.604997"],
    [1858,"2024-03-18 09:00:00","21","molfetta","15.39","1","66.43","1","0.0","1","null","6","null","6","108.42","1","null","6","41.200462","16.604997"],
    [1859,"2024-03-18 10:00:00","21","molfetta","18.26","1","58.52","1","0.0","1","null","6","null","6","493.06","1","null","6","41.200462","16.604997"],
    [1860,"2024-03-18 11:00:00","21","molfetta","22.22","1","49.18","1","0.0","1","null","6","null","6","663.21","1","null","6","41.200462","16.604997"],
    [1861,"2024-03-18 12:00:00","21","molfetta","22.33","1","47.48","1","0.0","1","null","6","null","6","683.53","1","null","6","41.200462","16.604997"],
    [1862,"2024-03-18 13:00:00","21","molfetta","22.97","1","46.79","1","0.0","1","null","6","null","6","651.55","1","null","6","41.200462","16.604997"],
    [1863,"2024-03-18 14:00:00","21","molfetta","21.44","1","47.22","1","0.0","1","null","6","null","6","341.35","1","null","6","41.200462","16.604997"],
    [1864,"2024-03-18 15:00:00","21","molfetta","20.28","1","50.38","1","0.0","1","null","6","null","6","290.72","1","null","6","41.200462","16.604997"],
    [1865,"2024-03-18 16:00:00","21","molfetta","19.0","1","56.18","1","0.0","1","null","6","null","6","122.07","1","null","6","41.200462","16.604997"],
    [1866,"2024-03-18 17:00:00","21","molfetta","18.65","1","55.65","1","0.0","1","null","6","null","6","76.99","1","null","6","41.200462","16.604997"],
    [1867,"2024-03-18 18:00:00","21","molfetta","19.09","1","46.04","1","0.0","1","null","6","null","6","22.2","1","null","6","41.200462","16.604997"],
    [1868,"2024-03-18 19:00:00","21","molfetta","18.41","1","48.96","1","0.0","1","null","6","null","6","0.0","5","null","6","41.200462","16.604997"],
    [1869,"2024-03-18 20:00:00","21","molfetta","17.71","1","53.39","1","0.0","1","null","6","null","6","0.0","1","null","6","41.200462","16.604997"],
    [1870,"2024-03-18 21:00:00","21","molfetta","16.91","1","61.89","1","0.0","1","null","6","null","6","0.0","1","null","6","41.200462","16.604997"],
    [1871,"2024-03-18 22:00:00","21","molfetta","15.38","1","76.04","1","0.8","1","null","6","null","6","0.0","1","null","6","41.200462","16.604997"],
    [1872,"2024-03-18 23:00:00","21","molfetta","14.32","1","87.56","1","1.2","1","null","6","null","6","0.0","1","null","6","41.200462","16.604997"],
    [1873,"2024-03-19 00:00:00","21","molfetta","13.88","1","91.25","1","0.6","1","null","6","null","6","0.0","1","null","6","41.200462","16.604997"],
    [1874,"2024-03-19 01:00:00","21","molfetta","13.89","1","93.51","1","0.2","1","null","6","null","6","0.0","1","null","6","41.200462","16.604997"],
    [1875,"2024-03-19 02:00:00","21","molfetta","13.54","1","93.95","1","0.0","1","null","6","null","6","0.0","5","null","6","41.200462","16.604997"],
    [1876,"2024-03-19 03:00:00","21","molfetta","13.39","1","93.94","1","0.0","1","null","6","null","6","0.0","1","null","6","41.200462","16.604997"],
    [1877,"2024-03-19 04:00:00","21","molfetta","13.33","1","94.14","1","0.4","1","null","6","null","6","0.0","1","null","6","41.200462","16.604997"],
    [1878,"2024-03-19 05:00:00","21","molfetta","13.03","1","96.0","1","0.2","1","null","6","null","6","0.0","1","null","6","41.200462","16.604997"],
    [1879,"2024-03-19 06:00:00","21","molfetta","13.13","1","97.07","1","0.2","1","null","6","null","6","0.0","5","null","6","41.200462","16.604997"],
    [1880,"2024-03-19 07:00:00","21","molfetta","13.17","1","97.62","1","0.6","1","null","6","null","6","5.83","1","null","6","41.200462","16.604997"],
    [1881,"2024-03-19 08:00:00","21","molfetta","13.11","1","97.17","1","0.2","1","null","6","null","6","47.75","1","null","6","41.200462","16.604997"],
    [1882,"2024-03-19 09:00:00","21","molfetta","13.26","1","95.31","1","0.2","1","null","6","null","6","49.77","1","null","6","41.200462","16.604997"],
    [1883,"2024-03-19 10:00:00","21","molfetta","13.01","1","96.43","1","0.6","1","null","6","null","6","46.79","1","null","6","41.200462","16.604997"],
    [1884,"2024-03-19 11:00:00","21","molfetta","13.32","1","96.0","1","0.4","1","null","6","null","6","188.2","1","null","6","41.200462","16.604997"],
    [1885,"2024-03-19 12:00:00","21","molfetta","14.48","1","90.77","1","0.0","1","null","6","null","6","233.02","1","null","6","41.200462","16.604997"],
    [1886,"2024-03-19 13:00:00","21","molfetta","14.74","1","83.72","1","0.0","1","null","6","null","6","224.86","1","null","6","41.200462","16.604997"],
    [1887,"2024-03-19 14:00:00","21","molfetta","14.61","1","83.83","1","0.0","1","null","6","null","6","142.29","1","null","6","41.200462","16.604997"],
    [1888,"2024-03-19 15:00:00","21","molfetta","16.46","1","78.29","1","0.0","1","null","6","null","6","370.92","1","null","6","41.200462","16.604997"],
    [1889,"2024-03-19 16:00:00","21","molfetta","16.1","1","74.59","1","0.0","1","null","6","null","6","56.07","1","null","6","41.200462","16.604997"],
    [1890,"2024-03-19 17:00:00","21","molfetta","15.65","1","78.96","1","0.0","1","null","6","null","6","64.3","1","null","6","41.200462","16.604997"],
    [1891,"2024-03-19 18:00:00","21","molfetta","15.07","1","81.23","1","0.0","1","null","6","null","6","20.09","1","null","6","41.200462","16.604997"],
    [1892,"2024-03-19 19:00:00","21","molfetta","14.68","1","82.51","1","0.0","1","null","6","null","6","0.0","5","null","6","41.200462","16.604997"],
    [1893,"2024-03-19 20:00:00","21","molfetta","14.0","1","84.37","1","0.0","1","null","6","null","6","0.0","1","null","6","41.200462","16.604997"],
    [1894,"2024-03-19 21:00:00","21","molfetta","13.01","1","82.63","1","0.0","1","null","6","null","6","0.0","1","null","6","41.200462","16.604997"],
    [1895,"2024-03-19 22:00:00","21","molfetta","12.93","1","73.17","1","0.0","1","null","6","null","6","0.0","1","null","6","41.200462","16.604997"],
    [1896,"2024-03-19 23:00:00","21","molfetta","12.78","1","68.4","1","0.0","1","null","6","null","6","0.0","1","null","6","41.200462","16.604997"],
    [1897,"2024-03-20 00:00:00","21","molfetta","12.37","1","70.34","1","0.0","1","null","6","null","6","0.0","1","null","6","41.200462","16.604997"],
    [1898,"2024-03-20 01:00:00","21","molfetta","12.13","1","70.71","1","0.0","1","null","6","null","6","0.0","1","null","6","41.200462","16.604997"],
    [1899,"2024-03-20 02:00:00","21","molfetta","11.64","1","72.53","1","0.0","1","null","6","null","6","0.0","1","null","6","41.200462","16.604997"],
    [1900,"2024-03-20 03:00:00","21","molfetta","11.21","1","74.87","1","0.0","1","null","6","null","6","0.0","1","null","6","41.200462","16.604997"],
    [1901,"2024-03-20 04:00:00","21","molfetta","10.62","1","78.13","1","0.0","1","null","6","null","6","0.0","1","null","6","41.200462","16.604997"],
    [1902,"2024-03-20 05:00:00","21","molfetta","9.99","1","80.22","1","0.0","1","null","6","null","6","0.0","1","null","6","41.200462","16.604997"],
    [1903,"2024-03-20 06:00:00","21","molfetta","9.61","1","80.18","1","0.0","1","null","6","null","6","0.0","1","null","6","41.200462","16.604997"],
    [1904,"2024-03-20 07:00:00","21","molfetta","9.46","1","78.79","1","0.0","1","null","6","null","6","24.38","1","null","6","41.200462","16.604997"],
    [1905,"2024-03-20 08:00:00","21","molfetta","10.76","1","72.34","1","0.0","1","null","6","null","6","69.54","1","null","6","41.200462","16.604997"],
    [1906,"2024-03-20 09:00:00","21","molfetta","12.66","1","64.91","1","0.0","1","null","6","null","6","79.6","1","null","6","41.200462","16.604997"],
    [1907,"2024-03-20 10:00:00","21","molfetta","15.46","1","59.2","1","0.0","1","null","6","null","6","575.62","1","null","6","41.200462","16.604997"],
    [1908,"2024-03-20 11:00:00","21","molfetta","17.69","1","51.13","1","0.0","1","null","6","null","6","729.4","1","null","6","41.200462","16.604997"],
    [1909,"2024-03-20 12:00:00","21","molfetta","18.25","1","48.49","1","0.0","1","null","6","null","6","792.92","1","null","6","41.200462","16.604997"],
    [1910,"2024-03-20 13:00:00","21","molfetta","19.17","1","44.72","1","0.0","1","null","6","null","6","805.4","1","null","6","41.200462","16.604997"],
    [1911,"2024-03-20 14:00:00","21","molfetta","18.61","1","43.25","1","0.0","1","null","6","null","6","744.5","1","null","6","41.200462","16.604997"],
    [1912,"2024-03-20 15:00:00","21","molfetta","17.9","1","44.54","1","0.0","1","null","6","null","6","585.39","1","null","6","41.200462","16.604997"],
    [1913,"2024-03-20 16:00:00","21","molfetta","15.27","1","52.13","1","0.0","1","null","6","null","6","59.49","1","null","6","41.200462","16.604997"],
    [1914,"2024-03-20 17:00:00","21","molfetta","14.66","1","53.24","1","0.0","1","null","6","null","6","43.2","1","null","6","41.200462","16.604997"],
    [1915,"2024-03-20 18:00:00","21","molfetta","14.17","1","52.33","1","0.0","1","null","6","null","6","19.25","1","null","6","41.200462","16.604997"],
    [1916,"2024-03-20 19:00:00","21","molfetta","13.62","1","52.22","1","0.0","1","null","6","null","6","0.0","5","null","6","41.200462","16.604997"],
    [1917,"2024-03-20 20:00:00","21","molfetta","13.37","1","53.48","1","0.0","1","null","6","null","6","0.0","1","null","6","41.200462","16.604997"],
    [1918,"2024-03-20 21:00:00","21","molfetta","12.62","1","59.89","1","0.0","1","null","6","null","6","0.0","1","null","6","41.200462","16.604997"],
    [1919,"2024-03-20 22:00:00","21","molfetta","11.48","1","64.23","1","0.0","1","null","6","null","6","0.0","1","null","6","41.200462","16.604997"],
    [1920,"2024-03-20 23:00:00","21","molfetta","10.55","1","68.13","1","0.0","1","null","6","null","6","0.0","1","null","6","41.200462","16.604997"],
    [1921,"2024-03-21 00:00:00","21","molfetta","10.44","1","60.22","1","0.0","1","null","6","null","6","0.0","1","null","6","41.200462","16.604997"],
    [1922,"2024-03-21 01:00:00","21","molfetta","10.32","1","55.36","1","0.0","1","null","6","null","6","0.0","1","null","6","41.200462","16.604997"],
    [1923,"2024-03-21 02:00:00","21","molfetta","9.68","1","54.55","1","0.0","1","null","6","null","6","0.0","1","null","6","41.200462","16.604997"],
    [1924,"2024-03-21 03:00:00","21","molfetta","9.52","1","49.54","1","0.0","1","null","6","null","6","0.0","1","null","6","41.200462","16.604997"],
    [1925,"2024-03-21 04:00:00","21","molfetta","8.57","1","52.51","1","0.0","1","null","6","null","6","0.0","1","null","6","41.200462","16.604997"],
    [1926,"2024-03-21 05:00:00","21","molfetta","7.87","1","54.11","1","0.0","1","null","6","null","6","0.0","1","null","6","41.200462","16.604997"],
    [1927,"2024-03-21 06:00:00","21","molfetta","8.13","1","53.48","1","0.0","1","null","6","null","6","0.0","1","null","6","41.200462","16.604997"],
    [1928,"2024-03-21 07:00:00","21","molfetta","8.31","1","54.65","1","0.0","1","null","6","null","6","25.9","1","null","6","41.200462","16.604997"],
    [1929,"2024-03-21 08:00:00","21","molfetta","9.71","1","53.29","1","0.0","1","null","6","null","6","68.27","1","null","6","41.200462","16.604997"],
    [1930,"2024-03-21 09:00:00","21","molfetta","12.32","1","43.25","1","0.0","1","null","6","null","6","73.77","1","null","6","41.200462","16.604997"],
    [1931,"2024-03-21 10:00:00","21","molfetta","14.32","1","47.13","1","0.0","1","null","6","null","6","600.02","1","null","6","41.200462","16.604997"],
    [1932,"2024-03-21 11:00:00","21","molfetta","17.89","1","42.36","1","0.0","1","null","6","null","6","756.69","1","null","6","41.200462","16.604997"],
    [1933,"2024-03-21 12:00:00","21","molfetta","18.48","1","46.87","1","0.0","1","null","6","null","6","813.4","1","null","6","41.200462","16.604997"],
    [1934,"2024-03-21 13:00:00","21","molfetta","19.69","1","44.83","1","0.0","1","null","6","null","6","792.33","1","null","6","41.200462","16.604997"],
    [1935,"2024-03-21 14:00:00","21","molfetta","20.31","1","40.59","1","0.0","1","null","6","null","6","726.07","1","null","6","41.200462","16.604997"],
    [1936,"2024-03-21 15:00:00","21","molfetta","20.27","1","37.45","1","0.0","1","null","6","null","6","598.75","1","null","6","41.200462","16.604997"],
    [1937,"2024-03-21 16:00:00","21","molfetta","16.67","1","45.48","1","0.0","1","null","6","null","6","56.12","1","null","6","41.200462","16.604997"],
    [1938,"2024-03-21 17:00:00","21","molfetta","16.07","1","41.08","1","0.0","1","null","6","null","6","42.91","1","null","6","41.200462","16.604997"],
    [1939,"2024-03-21 18:00:00","21","molfetta","16.07","1","35.8","1","0.0","1","null","6","null","6","19.09","1","null","6","41.200462","16.604997"],
    [1940,"2024-03-21 19:00:00","21","molfetta","15.2","1","42.55","1","0.0","1","null","6","null","6","0.0","5","null","6","41.200462","16.604997"],
    [1941,"2024-03-21 20:00:00","21","molfetta","14.21","1","42.38","1","0.0","1","null","6","null","6","0.0","1","null","6","41.200462","16.604997"],
    [1942,"2024-03-21 21:00:00","21","molfetta","13.97","1","41.86","1","0.0","1","null","6","null","6","0.0","1","null","6","41.200462","16.604997"],
    [1943,"2024-03-21 22:00:00","21","molfetta","13.98","1","46.24","1","0.0","1","null","6","null","6","0.0","1","null","6","41.200462","16.604997"],
    [1944,"2024-03-21 23:00:00","21","molfetta","13.62","1","56.23","1","0.0","1","null","6","null","6","0.0","1","null","6","41.200462","16.604997"],
    [1945,"2024-03-22 00:00:00","21","molfetta","13.7","1","57.98","1","0.0","1","null","6","null","6","0.0","1","null","6","41.200462","16.604997"],
    [1946,"2024-03-22 01:00:00","21","molfetta","12.73","1","68.23","1","0.0","1","null","6","null","6","0.0","1","null","6","41.200462","16.604997"],
    [1947,"2024-03-22 02:00:00","21","molfetta","12.51","1","71.98","1","0.0","1","null","6","null","6","0.0","1","null","6","41.200462","16.604997"],
    [1948,"2024-03-22 03:00:00","21","molfetta","13.61","1","68.65","1","0.0","1","null","6","null","6","0.0","1","null","6","41.200462","16.604997"],
    [1949,"2024-03-22 04:00:00","21","molfetta","14.7","1","62.35","1","0.0","1","null","6","null","6","0.0","1","null","6","41.200462","16.604997"],
    [1950,"2024-03-22 05:00:00","21","molfetta","14.63","1","67.1","1","0.0","1","null","6","null","6","0.0","1","null","6","41.200462","16.604997"],
    [1951,"2024-03-22 06:00:00","21","molfetta","14.3","1","73.05","1","0.0","1","null","6","null","6","0.0","5","null","6","41.200462","16.604997"],
    [1952,"2024-03-22 07:00:00","21","molfetta","14.05","1","80.33","1","0.0","1","null","6","null","6","25.72","1","null","6","41.200462","16.604997"],
    [1953,"2024-03-22 08:00:00","21","molfetta","14.63","1","83.52","1","0.0","1","null","6","null","6","104.73","1","null","6","41.200462","16.604997"],
    [1954,"2024-03-22 09:00:00","21","molfetta","15.46","1","82.82","1","0.0","1","null","6","null","6","120.19","1","null","6","41.200462","16.604997"],
    [1955,"2024-03-22 10:00:00","21","molfetta","15.86","1","82.82","1","0.0","1","null","6","null","6","359.89","1","null","6","41.200462","16.604997"],
    [1956,"2024-03-22 11:00:00","21","molfetta","17.66","1","72.31","1","0.0","1","null","6","null","6","529.37","1","null","6","41.200462","16.604997"],
    [1957,"2024-03-22 12:00:00","21","molfetta","18.54","1","66.59","1","0.0","1","null","6","null","6","447.75","1","null","6","41.200462","16.604997"],
    [1958,"2024-03-22 13:00:00","21","molfetta","17.83","1","66.33","1","0.0","1","null","6","null","6","425.17","1","null","6","41.200462","16.604997"],
    [1959,"2024-03-22 14:00:00","21","molfetta","17.83","1","67.77","1","0.0","1","null","6","null","6","397.0","1","null","6","41.200462","16.604997"],
    [1960,"2024-03-22 15:00:00","21","molfetta","18.34","1","66.92","1","0.0","1","null","6","null","6","477.58","1","null","6","41.200462","16.604997"],
    [1961,"2024-03-22 16:00:00","21","molfetta","16.94","1","69.25","1","0.0","1","null","6","null","6","85.09","1","null","6","41.200462","16.604997"],
    [1962,"2024-03-22 17:00:00","21","molfetta","16.19","1","70.92","1","0.0","1","null","6","null","6","53.42","1","null","6","41.200462","16.604997"],
    [1963,"2024-03-22 18:00:00","21","molfetta","15.62","1","74.29","1","0.0","1","null","6","null","6","23.93","1","null","6","41.200462","16.604997"],
    [1964,"2024-03-22 19:00:00","21","molfetta","15.13","1","81.57","1","0.0","1","null","6","null","6","0.0","5","null","6","41.200462","16.604997"],
    [1965,"2024-03-22 20:00:00","21","molfetta","14.76","1","87.18","1","0.0","1","null","6","null","6","0.0","1","null","6","41.200462","16.604997"],
    [1966,"2024-03-22 21:00:00","21","molfetta","13.77","1","88.04","1","0.0","1","null","6","null","6","0.0","1","null","6","41.200462","16.604997"],
    [1967,"2024-03-22 22:00:00","21","molfetta","12.66","1","84.11","1","0.0","1","null","6","null","6","0.0","1","null","6","41.200462","16.604997"],
    [1968,"2024-03-22 23:00:00","21","molfetta","12.71","1","78.11","1","0.0","1","null","6","null","6","0.0","1","null","6","41.200462","16.604997"],
    [1969,"2024-03-23 00:00:00","21","molfetta","12.58","1","79.14","1","0.0","1","null","6","null","6","0.0","1","null","6","41.200462","16.604997"],
    [1970,"2024-03-23 01:00:00","21","molfetta","12.45","1","78.66","1","0.0","1","null","6","null","6","0.0","1","null","6","41.200462","16.604997"],
    [1971,"2024-03-23 02:00:00","21","molfetta","12.35","1","76.9","1","0.0","1","null","6","null","6","0.0","1","null","6","41.200462","16.604997"],
    [1972,"2024-03-23 03:00:00","21","molfetta","12.26","1","75.44","1","0.0","1","null","6","null","6","0.0","1","null","6","41.200462","16.604997"],
    [1973,"2024-03-23 04:00:00","21","molfetta","12.14","1","74.17","1","0.0","1","null","6","null","6","0.0","1","null","6","41.200462","16.604997"],
    [1974,"2024-03-23 05:00:00","21","molfetta","12.13","1","72.7","1","0.0","1","null","6","null","6","0.0","1","null","6","41.200462","16.604997"],
    [1975,"2024-03-23 06:00:00","21","molfetta","11.44","1","70.08","1","0.0","1","null","6","null","6","0.0","5","null","6","41.200462","16.604997"],
    [1976,"2024-03-23 07:00:00","21","molfetta","10.89","1","70.32","1","0.0","1","null","6","null","6","28.63","1","null","6","41.200462","16.604997"],
    [1977,"2024-03-23 08:00:00","21","molfetta","12.46","1","65.17","1","0.0","1","null","6","null","6","71.96","1","null","6","41.200462","16.604997"],
    [1978,"2024-03-23 09:00:00","21","molfetta","15.45","1","59.76","1","0.0","1","null","6","null","6","93.24","1","null","6","41.200462","16.604997"],
    [1979,"2024-03-23 10:00:00","21","molfetta","19.21","1","48.16","1","0.0","1","null","6","null","6","596.78","1","null","6","41.200462","16.604997"],
    [1980,"2024-03-23 11:00:00","21","molfetta","21.94","1","43.17","1","0.0","1","null","6","null","6","727.87","1","null","6","41.200462","16.604997"],
    [1981,"2024-03-23 12:00:00","21","molfetta","22.0","1","48.06","1","0.0","1","null","6","null","6","784.72","1","null","6","41.200462","16.604997"],
    [1982,"2024-03-23 13:00:00","21","molfetta","22.64","1","48.19","1","0.0","1","null","6","null","6","790.85","1","null","6","41.200462","16.604997"],
    [1983,"2024-03-23 14:00:00","21","molfetta","21.96","1","52.0","1","0.0","1","null","6","null","6","729.51","1","null","6","41.200462","16.604997"],
    [1984,"2024-03-23 15:00:00","21","molfetta","21.4","1","54.4","1","0.0","1","null","6","null","6","622.69","1","null","6","41.200462","16.604997"],
    [1985,"2024-03-23 16:00:00","21","molfetta","18.8","1","61.98","1","0.0","1","null","6","null","6","115.13","1","null","6","41.200462","16.604997"],
    [1986,"2024-03-23 17:00:00","21","molfetta","20.05","1","45.62","1","0.0","1","null","6","null","6","93.58","1","null","6","41.200462","16.604997"],
    [1987,"2024-03-23 18:00:00","21","molfetta","20.03","1","36.3","1","0.0","1","null","6","null","6","11.32","1","null","6","41.200462","16.604997"],
    [1988,"2024-03-23 19:00:00","21","molfetta","18.36","1","38.59","1","0.0","1","null","6","null","6","0.0","5","null","6","41.200462","16.604997"],
    [1989,"2024-03-23 20:00:00","21","molfetta","16.93","1","43.54","1","0.0","1","null","6","null","6","0.0","1","null","6","41.200462","16.604997"],
    [1990,"2024-03-23 21:00:00","21","molfetta","16.49","1","51.72","1","0.0","1","null","6","null","6","0.0","1","null","6","41.200462","16.604997"],
    [1991,"2024-03-23 22:00:00","21","molfetta","15.53","1","54.87","1","0.0","1","null","6","null","6","0.0","1","null","6","41.200462","16.604997"],
    [1992,"2024-03-23 23:00:00","21","molfetta","14.86","1","60.56","1","0.0","1","null","6","null","6","0.0","1","null","6","41.200462","16.604997"],
    [1993,"2024-03-24 00:00:00","21","molfetta","14.16","1","64.37","1","0.0","1","null","6","null","6","0.0","1","null","6","41.200462","16.604997"],
    [1994,"2024-03-24 01:00:00","21","molfetta","13.69","1","65.28","1","0.0","1","null","6","null","6","0.0","1","null","6","41.200462","16.604997"],
    [1995,"2024-03-24 02:00:00","21","molfetta","13.13","1","66.46","1","0.0","1","null","6","null","6","0.0","1","null","6","41.200462","16.604997"],
    [1996,"2024-03-24 03:00:00","21","molfetta","12.72","1","66.08","1","0.0","1","null","6","null","6","0.0","1","null","6","41.200462","16.604997"],
    [1997,"2024-03-24 04:00:00","21","molfetta","12.25","1","64.81","1","0.0","1","null","6","null","6","0.0","1","null","6","41.200462","16.604997"],
    [1998,"2024-03-24 05:00:00","21","molfetta","11.94","1","64.97","1","0.0","1","null","6","null","6","0.0","1","null","6","41.200462","16.604997"],
    [1999,"2024-03-24 06:00:00","21","molfetta","11.48","1","66.84","1","0.0","1","null","6","null","6","0.0","5","null","6","41.200462","16.604997"],
    [2000,"2024-03-24 07:00:00","21","molfetta","11.86","1","67.67","1","0.0","1","null","6","null","6","45.02","1","null","6","41.200462","16.604997"],
    [2001,"2024-03-24 08:00:00","21","molfetta","14.09","1","62.47","1","0.0","1","null","6","null","6","119.99","1","null","6","41.200462","16.604997"],
    [2002,"2024-03-24 09:00:00","21","molfetta","17.01","1","56.24","1","0.0","1","null","6","null","6","207.39","1","null","6","41.200462","16.604997"],
    [2003,"2024-03-24 10:00:00","21","molfetta","18.7","1","50.46","1","0.0","1","null","6","null","6","332.16","1","null","6","41.200462","16.604997"],
    [2004,"2024-03-24 11:00:00","21","molfetta","19.59","1","47.39","1","0.0","1","null","6","null","6","426.23","1","null","6","41.200462","16.604997"],
    [2005,"2024-03-24 12:00:00","21","molfetta","22.75","1","39.05","1","0.0","1","null","6","null","6","717.86","1","null","6","41.200462","16.604997"],
    [2006,"2024-03-24 13:00:00","21","molfetta","23.92","1","29.37","1","0.0","1","null","6","null","6","526.47","1","null","6","41.200462","16.604997"],
    [2007,"2024-03-24 14:00:00","21","molfetta","24.37","1","25.84","1","0.0","1","null","6","null","6","550.29","1","null","6","41.200462","16.604997"],
    [2008,"2024-03-24 15:00:00","21","molfetta","25.34","1","25.77","1","0.0","1","null","6","null","6","624.95","1","null","6","41.200462","16.604997"],
    [2009,"2024-03-24 16:00:00","21","molfetta","23.32","1","29.35","1","0.0","1","null","6","null","6","129.02","1","null","6","41.200462","16.604997"],
    [2010,"2024-03-24 17:00:00","21","molfetta","21.88","1","32.32","1","0.0","1","null","6","null","6","54.16","1","null","6","41.200462","16.604997"],
    [2011,"2024-03-24 18:00:00","21","molfetta","20.57","1","33.46","1","0.0","1","null","6","null","6","27.61","1","null","6","41.200462","16.604997"],
    [2012,"2024-03-24 19:00:00","21","molfetta","18.98","1","32.58","1","0.0","1","null","6","null","6","0.0","5","null","6","41.200462","16.604997"],
    [2013,"2024-03-24 20:00:00","21","molfetta","17.67","1","32.27","1","0.0","1","null","6","null","6","0.0","1","null","6","41.200462","16.604997"],
    [2014,"2024-03-24 21:00:00","21","molfetta","16.37","1","37.77","1","0.0","1","null","6","null","6","0.0","1","null","6","41.200462","16.604997"],
    [2015,"2024-03-24 22:00:00","21","molfetta","15.41","1","39.85","1","0.0","1","null","6","null","6","0.0","1","null","6","41.200462","16.604997"],
    [2016,"2024-03-24 23:00:00","21","molfetta","14.67","1","59.68","1","0.0","1","null","6","null","6","0.0","1","null","6","41.200462","16.604997"],
    [2017,"2024-03-25 00:00:00","21","molfetta","13.75","1","66.85","1","0.0","1","null","6","null","6","0.0","1","null","6","41.200462","16.604997"],
    [2018,"2024-03-25 01:00:00","21","molfetta","13.28","1","62.46","1","0.0","1","null","6","null","6","0.0","1","null","6","41.200462","16.604997"],
    [2019,"2024-03-25 02:00:00","21","molfetta","12.87","1","64.59","1","0.0","1","null","6","null","6","0.0","1","null","6","41.200462","16.604997"],
    [2020,"2024-03-25 03:00:00","21","molfetta","12.33","1","68.37","1","0.0","1","null","6","null","6","0.0","1","null","6","41.200462","16.604997"],
    [2021,"2024-03-25 04:00:00","21","molfetta","11.82","1","66.13","1","0.0","1","null","6","null","6","0.0","1","null","6","41.200462","16.604997"],
    [2022,"2024-03-25 05:00:00","21","molfetta","11.37","1","66.04","1","0.0","1","null","6","null","6","0.0","1","null","6","41.200462","16.604997"],
    [2023,"2024-03-25 06:00:00","21","molfetta","11.24","1","61.72","1","0.0","1","null","6","null","6","0.0","5","null","6","41.200462","16.604997"],
    [2024,"2024-03-25 07:00:00","21","molfetta","11.28","1","58.99","1","0.0","1","null","6","null","6","32.67","1","null","6","41.200462","16.604997"],
    [2025,"2024-03-25 08:00:00","21","molfetta","12.6","1","55.27","1","0.0","1","null","6","null","6","70.97","1","null","6","41.200462","16.604997"],
    [2026,"2024-03-25 09:00:00","21","molfetta","14.16","1","52.4","1","0.0","1","null","6","null","6","121.8","1","null","6","41.200462","16.604997"],
    [2027,"2024-03-25 10:00:00","21","molfetta","16.94","1","44.89","1","0.0","1","null","6","null","6","644.97","1","null","6","41.200462","16.604997"],
    [2028,"2024-03-25 11:00:00","21","molfetta","18.62","1","41.71","1","0.0","1","null","6","null","6","782.69","1","null","6","41.200462","16.604997"],
    [2029,"2024-03-25 12:00:00","21","molfetta","19.67","1","39.4","1","0.0","1","null","6","null","6","844.66","1","null","6","41.200462","16.604997"],
    [2030,"2024-03-25 13:00:00","21","molfetta","19.56","1","41.01","1","0.0","1","null","6","null","6","844.2","1","null","6","41.200462","16.604997"],
    [2031,"2024-03-25 14:00:00","21","molfetta","19.29","1","41.17","1","0.0","1","null","6","null","6","559.07","1","null","6","41.200462","16.604997"],
    [2032,"2024-03-25 15:00:00","21","molfetta","18.4","1","40.99","1","0.0","1","null","6","null","6","555.04","1","null","6","41.200462","16.604997"],
    [2033,"2024-03-25 16:00:00","21","molfetta","16.39","1","45.64","1","0.0","1","null","6","null","6","180.96","1","null","6","41.200462","16.604997"],
    [2034,"2024-03-25 17:00:00","21","molfetta","15.71","1","45.93","1","0.0","1","null","6","null","6","126.58","1","null","6","41.200462","16.604997"],
    [2035,"2024-03-25 18:00:00","21","molfetta","15.46","1","48.22","1","0.0","1","null","6","null","6","45.27","1","null","6","41.200462","16.604997"],
    [2036,"2024-03-25 19:00:00","21","molfetta","14.64","1","52.15","1","0.0","1","null","6","null","6","0.0","5","null","6","41.200462","16.604997"],
    [2037,"2024-03-25 20:00:00","21","molfetta","14.04","1","49.89","1","0.0","1","null","6","null","6","0.0","1","null","6","41.200462","16.604997"],
    [2038,"2024-03-25 21:00:00","21","molfetta","13.87","1","47.59","1","0.0","1","null","6","null","6","0.0","1","null","6","41.200462","16.604997"],
    [2039,"2024-03-25 22:00:00","21","molfetta","13.6","1","48.65","1","0.0","1","null","6","null","6","0.0","1","null","6","41.200462","16.604997"],
    [2040,"2024-03-25 23:00:00","21","molfetta","13.27","1","49.55","1","0.0","1","null","6","null","6","0.0","1","null","6","41.200462","16.604997"],
    [2041,"2024-03-26 00:00:00","21","molfetta","12.48","1","52.41","1","0.0","1","null","6","null","6","0.0","1","null","6","41.200462","16.604997"],
    [2042,"2024-03-26 01:00:00","21","molfetta","12.09","1","49.11","1","0.0","1","null","6","null","6","0.0","1","null","6","41.200462","16.604997"],
    [2043,"2024-03-26 02:00:00","21","molfetta","12.89","1","41.61","1","0.0","1","null","6","null","6","0.0","1","null","6","41.200462","16.604997"],
    [2044,"2024-03-26 03:00:00","21","molfetta","12.57","1","48.86","1","0.0","1","null","6","null","6","0.0","1","null","6","41.200462","16.604997"],
    [2045,"2024-03-26 04:00:00","21","molfetta","12.25","1","63.55","1","0.0","1","null","6","null","6","0.0","1","null","6","41.200462","16.604997"],
    [2046,"2024-03-26 05:00:00","21","molfetta","12.62","1","70.9","1","0.0","1","null","6","null","6","0.0","1","null","6","41.200462","16.604997"],
    [2047,"2024-03-26 06:00:00","21","molfetta","13.32","1","74.81","1","0.2","1","null","6","null","6","0.0","1","null","6","41.200462","16.604997"],
    [2048,"2024-03-26 07:00:00","21","molfetta","13.08","1","84.12","1","0.4","1","null","6","null","6","0.0","5","null","6","41.200462","16.604997"],
    [2049,"2024-03-26 08:00:00","21","molfetta","12.78","1","87.57","1","0.4","1","null","6","null","6","14.73","1","null","6","41.200462","16.604997"],
    [2050,"2024-03-26 09:00:00","21","molfetta","12.52","1","89.92","1","0.6","1","null","6","null","6","48.57","1","null","6","41.200462","16.604997"],
    [2051,"2024-03-26 10:00:00","21","molfetta","12.72","1","92.57","1","0.0","1","null","6","null","6","60.69","1","null","6","41.200462","16.604997"],
    [2052,"2024-03-26 11:00:00","21","molfetta","13.44","1","94.29","1","0.4","1","null","6","null","6","74.46","1","null","6","41.200462","16.604997"],
    [2053,"2024-03-26 12:00:00","21","molfetta","13.8","1","94.63","1","0.4","1","null","6","null","6","60.01","1","null","6","41.200462","16.604997"],
    [2054,"2024-03-26 13:00:00","21","molfetta","13.6","1","94.78","1","0.4","1","null","6","null","6","56.91","1","null","6","41.200462","16.604997"],
    [2055,"2024-03-26 14:00:00","21","molfetta","13.77","1","94.59","1","0.0","1","null","6","null","6","59.94","1","null","6","41.200462","16.604997"],
    [2056,"2024-03-26 15:00:00","21","molfetta","14.74","1","93.59","1","0.0","1","null","6","null","6","68.76","1","null","6","41.200462","16.604997"],
    [2057,"2024-03-26 16:00:00","21","molfetta","15.28","1","93.74","1","0.0","1","null","6","null","6","37.33","1","null","6","41.200462","16.604997"],
    [2058,"2024-03-26 17:00:00","21","molfetta","15.68","1","95.19","1","0.2","1","null","6","null","6","26.11","1","null","6","41.200462","16.604997"],
    [2059,"2024-03-26 18:00:00","21","molfetta","15.63","1","96.45","1","0.0","1","null","6","null","6","29.3","1","null","6","41.200462","16.604997"],
    [2060,"2024-03-26 19:00:00","21","molfetta","15.24","1","97.6","1","0.0","1","null","6","null","6","0.0","5","null","6","41.200462","16.604997"],
    [2061,"2024-03-26 20:00:00","21","molfetta","14.75","1","98.2","1","0.0","1","null","6","null","6","0.0","1","null","6","41.200462","16.604997"],
    [2062,"2024-03-26 21:00:00","21","molfetta","14.59","1","97.47","1","0.0","1","null","6","null","6","0.0","1","null","6","41.200462","16.604997"],
    [2063,"2024-03-26 22:00:00","21","molfetta","14.19","1","96.52","1","0.0","1","null","6","null","6","0.0","1","null","6","41.200462","16.604997"],
    [2064,"2024-03-26 23:00:00","21","molfetta","13.86","1","96.13","1","0.0","1","null","6","null","6","0.0","1","null","6","41.200462","16.604997"],
    [2065,"2024-03-27 00:00:00","21","molfetta","13.46","1","95.6","1","0.0","1","null","6","null","6","0.0","1","null","6","41.200462","16.604997"],
    [2066,"2024-03-27 01:00:00","21","molfetta","13.03","1","95.15","1","0.0","1","null","6","null","6","0.0","1","null","6","41.200462","16.604997"],
    [2067,"2024-03-27 02:00:00","21","molfetta","13.45","1","92.77","1","0.0","1","null","6","null","6","0.0","1","null","6","41.200462","16.604997"],
    [2068,"2024-03-27 03:00:00","21","molfetta","13.75","1","89.31","1","0.0","1","null","6","null","6","0.0","1","null","6","41.200462","16.604997"],
    [2069,"2024-03-27 04:00:00","21","molfetta","13.59","1","88.27","1","0.0","1","null","6","null","6","0.0","1","null","6","41.200462","16.604997"],
    [2070,"2024-03-27 05:00:00","21","molfetta","13.49","1","87.01","1","0.0","1","null","6","null","6","0.0","1","null","6","41.200462","16.604997"],
    [2071,"2024-03-27 06:00:00","21","molfetta","13.38","1","86.35","1","0.0","1","null","6","null","6","0.0","5","null","6","41.200462","16.604997"],
    [2072,"2024-03-27 07:00:00","21","molfetta","13.81","1","87.36","1","0.0","1","null","6","null","6","32.57","1","null","6","41.200462","16.604997"],
    [2073,"2024-03-27 08:00:00","21","molfetta","15.23","1","87.89","1","0.0","1","null","6","null","6","134.44","1","null","6","41.200462","16.604997"],
    [2074,"2024-03-27 09:00:00","21","molfetta","18.17","1","75.93","1","0.0","1","null","6","null","6","242.76","1","null","6","41.200462","16.604997"],
    [2075,"2024-03-27 10:00:00","21","molfetta","21.86","1","61.23","1","0.0","1","null","6","null","6","547.64","1","null","6","41.200462","16.604997"],
    [2076,"2024-03-27 11:00:00","21","molfetta","23.91","1","54.92","1","0.0","1","null","6","null","6","597.37","1","null","6","41.200462","16.604997"],
    [2077,"2024-03-27 12:00:00","21","molfetta","23.3","1","54.48","1","0.0","1","null","6","null","6","416.26","1","null","6","41.200462","16.604997"],
    [2078,"2024-03-27 13:00:00","21","molfetta","22.23","1","58.97","1","0.0","1","null","6","null","6","395.4","1","null","6","41.200462","16.604997"],
    [2079,"2024-03-27 14:00:00","21","molfetta","22.44","1","57.61","1","0.0","1","null","6","null","6","296.62","1","null","6","41.200462","16.604997"],
    [2080,"2024-03-27 15:00:00","21","molfetta","21.59","1","60.3","1","0.0","1","null","6","null","6","226.15","1","null","6","41.200462","16.604997"],
    [2081,"2024-03-27 16:00:00","21","molfetta","20.35","1","67.21","1","0.0","1","null","6","null","6","130.08","1","null","6","41.200462","16.604997"],
    [2082,"2024-03-27 17:00:00","21","molfetta","20.1","1","68.92","1","0.0","1","null","6","null","6","127.07","1","null","6","41.200462","16.604997"],
    [2083,"2024-03-27 18:00:00","21","molfetta","19.89","1","68.89","1","0.0","1","null","6","null","6","54.92","1","null","6","41.200462","16.604997"],
    [2084,"2024-03-27 19:00:00","21","molfetta","17.16","1","70.55","1","1.2","1","null","6","null","6","0.0","5","null","6","41.200462","16.604997"],
    [2085,"2024-03-27 20:00:00","21","molfetta","14.0","1","80.47","1","0.2","1","null","6","null","6","0.0","5","null","6","41.200462","16.604997"],
    [2086,"2024-03-27 21:00:00","21","molfetta","13.73","1","75.85","1","0.0","1","null","6","null","6","0.0","5","null","6","41.200462","16.604997"],
    [2087,"2024-03-27 22:00:00","21","molfetta","14.31","1","65.06","1","0.0","1","null","6","null","6","0.0","5","null","6","41.200462","16.604997"],
    [2088,"2024-03-27 23:00:00","21","molfetta","14.08","1","66.71","1","0.0","1","null","6","null","6","0.0","1","null","6","41.200462","16.604997"],
    [2089,"2024-03-28 00:00:00","21","molfetta","13.67","1","62.67","1","0.0","1","null","6","null","6","0.0","1","null","6","41.200462","16.604997"],
    [2090,"2024-03-28 01:00:00","21","molfetta","13.2","1","60.27","1","0.0","1","null","6","null","6","0.0","1","null","6","41.200462","16.604997"],
    [2091,"2024-03-28 02:00:00","21","molfetta","12.24","1","62.5","1","0.0","1","null","6","null","6","0.0","1","null","6","41.200462","16.604997"],
    [2092,"2024-03-28 03:00:00","21","molfetta","12.42","1","62.21","1","0.0","1","null","6","null","6","0.0","1","null","6","41.200462","16.604997"],
    [2093,"2024-03-28 04:00:00","21","molfetta","12.28","1","61.56","1","0.0","1","null","6","null","6","0.0","1","null","6","41.200462","16.604997"],
    [2094,"2024-03-28 05:00:00","21","molfetta","11.8","1","63.5","1","0.0","1","null","6","null","6","0.0","1","null","6","41.200462","16.604997"],
    [2095,"2024-03-28 06:00:00","21","molfetta","11.61","1","64.62","1","0.0","1","null","6","null","6","0.0","5","null","6","41.200462","16.604997"],
    [2096,"2024-03-28 07:00:00","21","molfetta","12.43","1","61.1","1","0.0","1","null","6","null","6","39.84","1","null","6","41.200462","16.604997"],
    [2097,"2024-03-28 08:00:00","21","molfetta","15.25","1","51.06","1","0.0","1","null","6","null","6","96.92","1","null","6","41.200462","16.604997"],
    [2098,"2024-03-28 09:00:00","21","molfetta","17.39","1","45.16","1","0.0","1","null","6","null","6","240.0","1","null","6","41.200462","16.604997"],
    [2099,"2024-03-28 10:00:00","21","molfetta","20.13","1","39.15","1","0.0","1","null","6","null","6","611.36","1","null","6","41.200462","16.604997"],
    [2100,"2024-03-28 11:00:00","21","molfetta","23.29","1","32.5","1","0.0","1","null","6","null","6","754.39","1","null","6","41.200462","16.604997"],
    [2101,"2024-03-28 12:00:00","21","molfetta","23.78","1","32.08","1","0.0","1","null","6","null","6","677.9","1","null","6","41.200462","16.604997"],
    [2102,"2024-03-28 13:00:00","21","molfetta","24.82","1","29.44","1","0.0","1","null","6","null","6","734.94","1","null","6","41.200462","16.604997"],
    [2103,"2024-03-28 14:00:00","21","molfetta","25.35","1","28.29","1","0.0","1","null","6","null","6","649.37","1","null","6","41.200462","16.604997"],
    [2104,"2024-03-28 15:00:00","21","molfetta","26.2","1","27.34","1","0.0","1","null","6","null","6","666.5","1","null","6","41.200462","16.604997"],
    [2105,"2024-03-28 16:00:00","21","molfetta","24.29","1","28.43","1","0.0","1","null","6","null","6","211.87","1","null","6","41.200462","16.604997"],
    [2106,"2024-03-28 17:00:00","21","molfetta","22.28","1","32.69","1","0.0","1","null","6","null","6","91.81","1","null","6","41.200462","16.604997"],
    [2107,"2024-03-28 18:00:00","21","molfetta","20.85","1","37.72","1","0.0","1","null","6","null","6","44.25","1","null","6","41.200462","16.604997"],
    [2108,"2024-03-28 19:00:00","21","molfetta","19.79","1","39.97","1","0.0","1","null","6","null","6","0.0","5","null","6","41.200462","16.604997"],
    [2109,"2024-03-28 20:00:00","21","molfetta","19.05","1","42.0","1","0.0","1","null","6","null","6","0.0","1","null","6","41.200462","16.604997"],
    [2110,"2024-03-28 21:00:00","21","molfetta","18.45","1","42.41","1","0.0","1","null","6","null","6","0.0","1","null","6","41.200462","16.604997"],
    [2111,"2024-03-28 22:00:00","21","molfetta","18.45","1","40.27","1","0.0","1","null","6","null","6","0.0","1","null","6","41.200462","16.604997"],
    [2112,"2024-03-28 23:00:00","21","molfetta","18.17","1","41.98","1","0.0","1","null","6","null","6","0.0","1","null","6","41.200462","16.604997"],
    [2113,"2024-03-29 00:00:00","21","molfetta","17.52","1","48.57","1","0.0","1","null","6","null","6","0.0","1","null","6","41.200462","16.604997"],
    [2114,"2024-03-29 01:00:00","21","molfetta","17.29","1","47.19","1","0.0","1","null","6","null","6","0.0","1","null","6","41.200462","16.604997"],
    [2115,"2024-03-29 02:00:00","21","molfetta","16.15","1","52.12","1","0.0","1","null","6","null","6","0.0","1","null","6","41.200462","16.604997"],
    [2116,"2024-03-29 03:00:00","21","molfetta","15.17","1","53.77","1","0.0","1","null","6","null","6","0.0","1","null","6","41.200462","16.604997"],
    [2117,"2024-03-29 04:00:00","21","molfetta","14.52","1","56.42","1","0.0","1","null","6","null","6","0.0","1","null","6","41.200462","16.604997"],
    [2118,"2024-03-29 05:00:00","21","molfetta","14.0","1","58.45","1","0.0","1","null","6","null","6","0.0","1","null","6","41.200462","16.604997"],
    [2119,"2024-03-29 06:00:00","21","molfetta","13.39","1","61.7","1","0.0","1","null","6","null","6","0.0","5","null","6","41.200462","16.604997"],
    [2120,"2024-03-29 07:00:00","21","molfetta","14.33","1","57.84","1","0.0","1","null","6","null","6","46.54","1","null","6","41.200462","16.604997"],
    [2121,"2024-03-29 08:00:00","21","molfetta","17.01","1","48.7","1","0.0","1","null","6","null","6","129.19","1","null","6","41.200462","16.604997"],
    [2122,"2024-03-29 09:00:00","21","molfetta","19.06","1","44.11","1","0.0","1","null","6","null","6","227.76","1","null","6","41.200462","16.604997"],
    [2123,"2024-03-29 10:00:00","21","molfetta","22.57","1","35.21","1","0.0","1","null","6","null","6","419.82","1","null","6","41.200462","16.604997"],
    [2124,"2024-03-29 11:00:00","21","molfetta","24.94","1","31.51","1","0.0","1","null","6","null","6","566.89","1","null","6","41.200462","16.604997"],
    [2125,"2024-03-29 12:00:00","21","molfetta","27.62","1","28.41","1","0.0","1","null","6","null","6","796.3","1","null","6","41.200462","16.604997"],
    [2126,"2024-03-29 13:00:00","21","molfetta","25.19","1","43.84","1","0.0","1","null","6","null","6","806.82","1","null","6","41.200462","16.604997"],
    [2127,"2024-03-29 14:00:00","21","molfetta","24.99","1","39.94","1","0.0","1","null","6","null","6","728.07","1","null","6","41.200462","16.604997"],
    [2128,"2024-03-29 15:00:00","21","molfetta","24.22","1","41.81","1","0.0","1","null","6","null","6","619.52","1","null","6","41.200462","16.604997"],
    [2129,"2024-03-29 16:00:00","21","molfetta","21.64","1","56.69","1","0.0","1","null","6","null","6","263.39","1","null","6","41.200462","16.604997"],
    [2130,"2024-03-29 17:00:00","21","molfetta","22.53","1","44.16","1","0.0","1","null","6","null","6","61.72","1","null","6","41.200462","16.604997"],
    [2131,"2024-03-29 18:00:00","21","molfetta","22.3","1","35.72","1","0.0","1","null","6","null","6","27.26","1","null","6","41.200462","16.604997"],
    [2132,"2024-03-29 19:00:00","21","molfetta","20.4","1","40.55","1","0.0","1","null","6","null","6","0.0","5","null","6","41.200462","16.604997"],
    [2133,"2024-03-29 20:00:00","21","molfetta","18.68","1","49.13","1","0.0","1","null","6","null","6","0.0","1","null","6","41.200462","16.604997"],
    [2134,"2024-03-29 21:00:00","21","molfetta","17.62","1","48.77","1","0.0","1","null","6","null","6","0.0","1","null","6","41.200462","16.604997"],
    [2135,"2024-03-29 22:00:00","21","molfetta","17.6","1","44.06","1","0.0","1","null","6","null","6","0.0","1","null","6","41.200462","16.604997"],
    [2136,"2024-03-29 23:00:00","21","molfetta","17.39","1","44.54","1","0.0","1","null","6","null","6","0.0","1","null","6","41.200462","16.604997"],
    [2137,"2024-03-30 00:00:00","21","molfetta","16.91","1","47.66","1","0.0","1","null","6","null","6","0.0","1","null","6","41.200462","16.604997"],
    [2138,"2024-03-30 01:00:00","21","molfetta","16.33","1","52.34","1","0.0","1","null","6","null","6","0.0","1","null","6","41.200462","16.604997"],
    [2139,"2024-03-30 02:00:00","21","molfetta","15.68","1","66.13","1","0.0","1","null","6","null","6","0.0","1","null","6","41.200462","16.604997"],
    [2140,"2024-03-30 03:00:00","21","molfetta","14.59","1","70.47","1","0.0","1","null","6","null","6","0.0","1","null","6","41.200462","16.604997"],
    [2141,"2024-03-30 04:00:00","21","molfetta","13.5","1","76.9","1","0.0","1","null","6","null","6","0.0","1","null","6","41.200462","16.604997"],
    [2142,"2024-03-30 05:00:00","21","molfetta","12.97","1","83.17","1","0.0","1","null","6","null","6","0.0","1","null","6","41.200462","16.604997"],
    [2143,"2024-03-30 06:00:00","21","molfetta","12.29","1","87.97","1","0.0","1","null","6","null","6","0.0","5","null","6","41.200462","16.604997"],
    [2144,"2024-03-30 07:00:00","21","molfetta","13.36","1","91.41","1","0.0","1","null","6","null","6","47.72","1","null","6","41.200462","16.604997"],
    [2145,"2024-03-30 08:00:00","21","molfetta","15.9","1","82.39","1","0.0","1","null","6","null","6","85.93","1","null","6","41.200462","16.604997"],
    [2146,"2024-03-30 09:00:00","21","molfetta","18.43","1","64.24","1","0.0","1","null","6","null","6","235.38","1","null","6","41.200462","16.604997"],
    [2147,"2024-03-30 10:00:00","21","molfetta","22.1","1","50.39","1","0.0","1","null","6","null","6","603.41","1","null","6","41.200462","16.604997"],
    [2148,"2024-03-30 11:00:00","21","molfetta","24.56","1","43.16","1","0.0","1","null","6","null","6","652.67","1","null","6","41.200462","16.604997"],
    [2149,"2024-03-30 12:00:00","21","molfetta","25.3","1","39.69","1","0.0","1","null","6","null","6","638.32","1","null","6","41.200462","16.604997"],
    [2150,"2024-03-30 13:00:00","21","molfetta","24.35","1","40.11","1","0.0","1","null","6","null","6","631.5","1","null","6","41.200462","16.604997"],
    [2151,"2024-03-30 14:00:00","21","molfetta","24.67","1","38.03","1","0.0","1","null","6","null","6","530.34","1","null","6","41.200462","16.604997"],
    [2152,"2024-03-30 15:00:00","21","molfetta","23.99","1","38.28","1","0.0","1","null","6","null","6","412.65","1","null","6","41.200462","16.604997"],
    [2153,"2024-03-30 16:00:00","21","molfetta","22.8","1","37.26","1","0.0","1","null","6","null","6","259.07","1","null","6","41.200462","16.604997"],
    [2154,"2024-03-30 17:00:00","21","molfetta","21.02","1","38.28","1","0.0","1","null","6","null","6","144.82","1","null","6","41.200462","16.604997"],
    [2155,"2024-03-30 18:00:00","21","molfetta","19.47","1","42.96","1","0.0","1","null","6","null","6","57.71","1","null","6","41.200462","16.604997"],
    [2156,"2024-03-30 19:00:00","21","molfetta","18.26","1","48.4","1","0.0","1","null","6","null","6","0.0","5","null","6","41.200462","16.604997"],
    [2157,"2024-03-30 20:00:00","21","molfetta","17.67","1","51.4","1","0.0","1","null","6","null","6","0.0","1","null","6","41.200462","16.604997"],
    [2158,"2024-03-30 21:00:00","21","molfetta","17.26","1","55.78","1","0.0","1","null","6","null","6","0.0","1","null","6","41.200462","16.604997"],
    [2159,"2024-03-30 22:00:00","21","molfetta","16.89","1","61.37","1","0.0","1","null","6","null","6","0.0","1","null","6","41.200462","16.604997"],
    [2160,"2024-03-30 23:00:00","21","molfetta","16.78","1","63.91","1","0.0","1","null","6","null","6","0.0","1","null","6","41.200462","16.604997"],
    [2161,"2024-03-31 00:00:00","21","molfetta","16.7","1","66.86","1","0.0","1","null","6","null","6","0.0","1","null","6","41.200462","16.604997"],
    [2162,"2024-03-31 01:00:00","21","molfetta","16.67","1","67.82","1","0.0","1","null","6","null","6","0.0","1","null","6","41.200462","16.604997"],
    [2163,"2024-03-31 03:00:00","21","molfetta","16.88","1","66.47","1","0.0","1","null","6","null","6","0.0","1","null","6","41.200462","16.604997"],
    [2164,"2024-03-31 03:00:00","21","molfetta","16.91","1","66.14","1","0.0","1","null","6","null","6","0.0","1","null","6","41.200462","16.604997"],
    [2165,"2024-03-31 04:00:00","21","molfetta","16.77","1","69.77","1","0.0","1","null","6","null","6","0.0","1","null","6","41.200462","16.604997"],
    [2166,"2024-03-31 05:00:00","21","molfetta","16.73","1","72.21","1","0.0","1","null","6","null","6","0.0","1","null","6","41.200462","16.604997"],
    [2167,"2024-03-31 06:00:00","21","molfetta","16.61","1","74.93","1","0.0","1","null","6","null","6","0.0","5","null","6","41.200462","16.604997"],
    [2168,"2024-03-31 07:00:00","21","molfetta","16.77","1","74.9","1","0.0","1","null","6","null","6","32.69","1","null","6","41.200462","16.604997"],
    [2169,"2024-03-31 08:00:00","21","molfetta","17.47","1","72.93","1","0.0","1","null","6","null","6","104.32","1","null","6","41.200462","16.604997"],
    [2170,"2024-03-31 09:00:00","21","molfetta","19.0","1","67.67","1","0.0","1","null","6","null","6","269.81","1","null","6","41.200462","16.604997"],
    [2171,"2024-03-31 10:00:00","21","molfetta","21.2","1","59.79","1","0.0","1","null","6","null","6","444.54","1","null","6","41.200462","16.604997"],
    [2172,"2024-03-31 11:00:00","21","molfetta","22.81","1","52.62","1","0.0","1","null","6","null","6","434.89","1","null","6","41.200462","16.604997"],
    [2173,"2024-03-31 12:00:00","21","molfetta","23.42","1","50.59","1","0.0","1","null","6","null","6","453.55","1","null","6","41.200462","16.604997"],
    [2174,"2024-03-31 13:00:00","21","molfetta","22.57","1","53.05","1","0.0","1","null","6","null","6","320.32","1","null","6","41.200462","16.604997"],
    [2175,"2024-03-31 14:00:00","21","molfetta","21.87","1","56.39","1","0.0","1","null","6","null","6","273.98","1","null","6","41.200462","16.604997"],
    [2176,"2024-03-31 15:00:00","21","molfetta","23.92","1","51.48","1","0.0","1","null","6","null","6","482.33","1","null","6","41.200462","16.604997"],
    [2177,"2024-03-31 16:00:00","21","molfetta","23.07","1","54.74","1","0.0","1","null","6","null","6","274.88","1","null","6","41.200462","16.604997"],
    [2178,"2024-03-31 17:00:00","21","molfetta","20.64","1","64.09","1","0.0","1","null","6","null","6","126.07","1","null","6","41.200462","16.604997"],
    [2179,"2024-03-31 18:00:00","21","molfetta","19.44","1","68.83","1","0.0","1","null","6","null","6","32.98","1","null","6","41.200462","16.604997"],
    [2180,"2024-03-31 19:00:00","21","molfetta","18.81","1","71.63","1","0.0","1","null","6","null","6","0.0","5","null","6","41.200462","16.604997"],
    [2181,"2024-03-31 20:00:00","21","molfetta","18.27","1","74.95","1","0.0","1","null","6","null","6","0.0","1","null","6","41.200462","16.604997"],
    [2182,"2024-03-31 21:00:00","21","molfetta","17.87","1","77.16","1","0.0","1","null","6","null","6","0.0","1","null","6","41.200462","16.604997"],
    [2183,"2024-03-31 22:00:00","21","molfetta","17.68","1","76.93","1","0.0","1","null","6","null","6","0.0","1","null","6","41.200462","16.604997"],
    [2184,"2024-03-31 23:00:00","21","molfetta","17.41","1","77.9","1","0.0","1","null","6","null","6","0.0","1","null","6","41.200462","16.604997"],
    [2185,"2024-04-01 00:00:00","21","molfetta","17.5","1","77.46","1","0.0","1","null","6","null","6","0.0","1","null","6","41.200462","16.604997"],
    [2186,"2024-04-01 01:00:00","21","molfetta","17.31","1","77.92","1","0.0","1","null","6","null","6","0.0","1","null","6","41.200462","16.604997"],
    [2187,"2024-04-01 02:00:00","21","molfetta","16.83","1","80.29","1","0.0","1","null","6","null","6","0.0","1","null","6","41.200462","16.604997"],
    [2188,"2024-04-01 03:00:00","21","molfetta","16.57","1","81.39","1","0.0","1","null","6","null","6","0.0","1","null","6","41.200462","16.604997"],
    [2189,"2024-04-01 04:00:00","21","molfetta","16.43","1","82.48","1","0.0","1","null","6","null","6","0.0","1","null","6","41.200462","16.604997"],
    [2190,"2024-04-01 05:00:00","21","molfetta","16.12","1","84.0","1","0.0","1","null","6","null","6","0.0","1","null","6","41.200462","16.604997"],
    [2191,"2024-04-01 06:00:00","21","molfetta","16.01","1","85.6","1","0.0","1","null","6","null","6","0.0","5","null","6","41.200462","16.604997"],
    [2192,"2024-04-01 07:00:00","21","molfetta","16.49","1","83.83","1","0.0","1","null","6","null","6","51.6","1","null","6","41.200462","16.604997"],
    [2193,"2024-04-01 08:00:00","21","molfetta","17.77","1","76.17","1","0.0","1","null","6","null","6","121.1","1","null","6","41.200462","16.604997"],
    [2194,"2024-04-01 09:00:00","21","molfetta","19.5","1","66.8","1","0.0","1","null","6","null","6","277.76","1","null","6","41.200462","16.604997"],
    [2195,"2024-04-01 10:00:00","21","molfetta","21.31","1","60.15","1","0.0","1","null","6","null","6","591.53","1","null","6","41.200462","16.604997"],
    [2196,"2024-04-01 11:00:00","21","molfetta","24.27","1","49.29","1","0.0","1","null","6","null","6","696.67","1","null","6","41.200462","16.604997"],
    [2197,"2024-04-01 12:00:00","21","molfetta","25.73","1","44.49","1","0.0","1","null","6","null","6","648.06","1","null","6","41.200462","16.604997"],
    [2198,"2024-04-01 13:00:00","21","molfetta","26.35","1","42.71","1","0.0","1","null","6","null","6","674.63","1","null","6","41.200462","16.604997"],
    [2199,"2024-04-01 14:00:00","21","molfetta","27.99","1","39.36","1","0.0","1","null","6","null","6","695.93","1","null","6","41.200462","16.604997"],
    [2200,"2024-04-01 15:00:00","21","molfetta","27.33","1","39.11","1","0.0","1","null","6","null","6","556.08","1","null","6","41.200462","16.604997"],
    [2201,"2024-04-01 16:00:00","21","molfetta","26.95","1","42.88","1","0.0","1","null","6","null","6","325.03","1","null","6","41.200462","16.604997"],
    [2202,"2024-04-01 17:00:00","21","molfetta","24.89","1","47.31","1","0.0","1","null","6","null","6","117.48","1","null","6","41.200462","16.604997"],
    [2203,"2024-04-01 18:00:00","21","molfetta","22.45","1","56.03","1","0.0","1","null","6","null","6","63.21","1","null","6","41.200462","16.604997"],
    [2204,"2024-04-01 19:00:00","21","molfetta","20.42","1","62.48","1","0.0","1","null","6","null","6","6.2","1","null","6","41.200462","16.604997"],
    [2205,"2024-04-01 20:00:00","21","molfetta","19.13","1","67.01","1","0.0","1","null","6","null","6","0.0","1","null","6","41.200462","16.604997"],
    [2206,"2024-04-01 21:00:00","21","molfetta","18.69","1","68.76","1","0.0","1","null","6","null","6","0.0","1","null","6","41.200462","16.604997"],
    [2207,"2024-04-01 22:00:00","21","molfetta","18.57","1","45.95","1","0.0","1","null","6","null","6","0.0","1","null","6","41.200462","16.604997"],
    [2208,"2024-04-01 23:00:00","21","molfetta","17.31","1","46.7","1","0.0","1","null","6","null","6","0.0","1","null","6","41.200462","16.604997"],
    [2209,"2024-04-02 00:00:00","21","molfetta","17.22","1","49.05","1","0.0","1","null","6","null","6","0.0","1","null","6","41.200462","16.604997"],
    [2210,"2024-04-02 01:00:00","21","molfetta","17.54","1","47.68","1","0.0","1","null","6","null","6","0.0","1","null","6","41.200462","16.604997"],
    [2211,"2024-04-02 02:00:00","21","molfetta","16.8","1","53.05","1","0.0","1","null","6","null","6","0.0","1","null","6","41.200462","16.604997"],
    [2212,"2024-04-02 03:00:00","21","molfetta","15.23","1","55.69","1","0.0","1","null","6","null","6","0.0","1","null","6","41.200462","16.604997"],
    [2213,"2024-04-02 04:00:00","21","molfetta","14.55","1","56.39","1","0.0","1","null","6","null","6","0.0","1","null","6","41.200462","16.604997"],
    [2214,"2024-04-02 05:00:00","21","molfetta","13.73","1","59.2","1","0.0","1","null","6","null","6","0.0","1","null","6","41.200462","16.604997"],
    [2215,"2024-04-02 06:00:00","21","molfetta","13.72","1","59.67","1","0.0","1","null","6","null","6","0.0","5","null","6","41.200462","16.604997"],
    [2216,"2024-04-02 07:00:00","21","molfetta","13.74","1","58.23","1","0.0","1","null","6","null","6","40.29","1","null","6","41.200462","16.604997"],
    [2217,"2024-04-02 08:00:00","21","molfetta","15.26","1","49.97","1","0.0","1","null","6","null","6","127.82","1","null","6","41.200462","16.604997"],
    [2218,"2024-04-02 09:00:00","21","molfetta","17.82","1","41.71","1","0.0","1","null","6","null","6","253.93","1","null","6","41.200462","16.604997"],
    [2219,"2024-04-02 10:00:00","21","molfetta","20.18","1","35.06","1","0.0","1","null","6","null","6","671.27","1","null","6","41.200462","16.604997"],
    [2220,"2024-04-02 11:00:00","21","molfetta","22.48","1","24.76","1","0.0","1","null","6","null","6","805.04","1","null","6","41.200462","16.604997"],
    [2221,"2024-04-02 12:00:00","21","molfetta","23.67","1","22.33","1","0.0","1","null","6","null","6","867.54","1","null","6","41.200462","16.604997"],
    [2222,"2024-04-02 13:00:00","21","molfetta","24.44","1","23.37","1","0.0","1","null","6","null","6","867.48","1","null","6","41.200462","16.604997"],
    [2223,"2024-04-02 14:00:00","21","molfetta","23.67","1","26.83","1","0.0","1","null","6","null","6","777.87","1","null","6","41.200462","16.604997"],
    [2224,"2024-04-02 15:00:00","21","molfetta","24.88","1","26.8","1","0.0","1","null","6","null","6","709.49","1","null","6","41.200462","16.604997"],
    [2225,"2024-04-02 16:00:00","21","molfetta","21.08","1","49.6","1","0.0","1","null","6","null","6","298.51","1","null","6","41.200462","16.604997"],
    [2226,"2024-04-02 17:00:00","21","molfetta","17.64","1","66.55","1","0.0","1","null","6","null","6","77.48","1","null","6","41.200462","16.604997"],
    [2227,"2024-04-02 18:00:00","21","molfetta","17.11","1","64.69","1","0.0","1","null","6","null","6","31.73","1","null","6","41.200462","16.604997"],
    [2228,"2024-04-02 19:00:00","21","molfetta","16.56","1","63.05","1","0.0","1","null","6","null","6","0.0","5","null","6","41.200462","16.604997"],
    [2229,"2024-04-02 20:00:00","21","molfetta","16.08","1","69.99","1","0.0","1","null","6","null","6","0.0","1","null","6","41.200462","16.604997"],
    [2230,"2024-04-02 21:00:00","21","molfetta","15.51","1","72.23","1","0.0","1","null","6","null","6","0.0","1","null","6","41.200462","16.604997"],
    [2231,"2024-04-02 22:00:00","21","molfetta","14.99","1","62.61","1","0.0","1","null","6","null","6","0.0","1","null","6","41.200462","16.604997"],
    [2232,"2024-04-02 23:00:00","21","molfetta","14.87","1","54.21","1","0.0","1","null","6","null","6","0.0","1","null","6","41.200462","16.604997"],
    [2233,"2024-04-03 00:00:00","21","molfetta","14.52","1","55.29","1","0.0","1","null","6","null","6","0.0","1","null","6","41.200462","16.604997"],
    [2234,"2024-04-03 01:00:00","21","molfetta","12.93","1","62.21","1","0.0","1","null","6","null","6","0.0","1","null","6","41.200462","16.604997"],
    [2235,"2024-04-03 02:00:00","21","molfetta","12.52","1","62.84","1","0.0","1","null","6","null","6","0.0","1","null","6","41.200462","16.604997"],
    [2236,"2024-04-03 03:00:00","21","molfetta","11.84","1","64.22","1","0.0","1","null","6","null","6","0.0","1","null","6","41.200462","16.604997"],
    [2237,"2024-04-03 04:00:00","21","molfetta","11.48","1","65.15","1","0.0","1","null","6","null","6","0.0","1","null","6","41.200462","16.604997"],
    [2238,"2024-04-03 05:00:00","21","molfetta","10.84","1","67.85","1","0.0","1","null","6","null","6","0.0","1","null","6","41.200462","16.604997"],
    [2239,"2024-04-03 06:00:00","21","molfetta","10.57","1","69.3","1","0.0","1","null","6","null","6","0.0","5","null","6","41.200462","16.604997"],
    [2240,"2024-04-03 07:00:00","21","molfetta","11.3","1","67.63","1","0.0","1","null","6","null","6","54.77","1","null","6","41.200462","16.604997"],
    [2241,"2024-04-03 08:00:00","21","molfetta","14.35","1","54.65","1","0.0","1","null","6","null","6","108.48","1","null","6","41.200462","16.604997"],
    [2242,"2024-04-03 09:00:00","21","molfetta","16.31","1","48.45","1","0.0","1","null","6","null","6","302.66","1","null","6","41.200462","16.604997"],
    [2243,"2024-04-03 10:00:00","21","molfetta","19.81","1","46.7","1","0.0","1","null","6","null","6","662.49","1","null","6","41.200462","16.604997"],
    [2244,"2024-04-03 11:00:00","21","molfetta","21.64","1","45.57","1","0.0","1","null","6","null","6","695.82","1","null","6","41.200462","16.604997"],
    [2245,"2024-04-03 12:00:00","21","molfetta","21.26","1","47.73","1","0.0","1","null","6","null","6","696.57","1","null","6","41.200462","16.604997"],
    [2246,"2024-04-03 13:00:00","21","molfetta","20.03","1","51.42","1","0.0","1","null","6","null","6","428.51","1","null","6","41.200462","16.604997"],
    [2247,"2024-04-03 14:00:00","21","molfetta","19.82","1","54.9","1","0.0","1","null","6","null","6","397.1","1","null","6","41.200462","16.604997"],
    [2248,"2024-04-03 15:00:00","21","molfetta","18.59","1","61.83","1","0.0","1","null","6","null","6","248.37","1","null","6","41.200462","16.604997"],
    [2249,"2024-04-03 16:00:00","21","molfetta","18.01","1","66.86","1","0.0","1","null","6","null","6","156.88","1","null","6","41.200462","16.604997"],
    [2250,"2024-04-03 17:00:00","21","molfetta","18.05","1","68.79","1","0.0","1","null","6","null","6","129.35","1","null","6","41.200462","16.604997"],
    [2251,"2024-04-03 18:00:00","21","molfetta","17.49","1","72.92","1","0.0","1","null","6","null","6","50.99","1","null","6","41.200462","16.604997"],
    [2252,"2024-04-03 19:00:00","21","molfetta","16.36","1","81.28","1","0.0","1","null","6","null","6","0.0","5","null","6","41.200462","16.604997"],
    [2253,"2024-04-03 20:00:00","21","molfetta","16.27","1","65.52","1","0.0","1","null","6","null","6","0.0","1","null","6","41.200462","16.604997"],
    [2254,"2024-04-03 21:00:00","21","molfetta","16.86","1","44.24","1","0.0","1","null","6","null","6","0.0","1","null","6","41.200462","16.604997"],
    [2255,"2024-04-03 22:00:00","21","molfetta","16.22","1","46.83","1","0.0","1","null","6","null","6","0.0","1","null","6","41.200462","16.604997"],
    [2256,"2024-04-03 23:00:00","21","molfetta","16.02","1","47.0","1","0.0","1","null","6","null","6","0.0","1","null","6","41.200462","16.604997"],
    [2257,"2024-04-04 00:00:00","21","molfetta","15.14","1","50.4","1","0.0","1","null","6","null","6","0.0","1","null","6","41.200462","16.604997"],
    [2258,"2024-04-04 01:00:00","21","molfetta","15.58","1","42.24","1","0.0","1","null","6","null","6","0.0","1","null","6","41.200462","16.604997"],
    [2259,"2024-04-04 02:00:00","21","molfetta","15.29","1","43.13","1","0.0","1","null","6","null","6","0.0","1","null","6","41.200462","16.604997"],
    [2260,"2024-04-04 03:00:00","21","molfetta","15.28","1","45.18","1","0.0","1","null","6","null","6","0.0","1","null","6","41.200462","16.604997"],
    [2261,"2024-04-04 04:00:00","21","molfetta","14.73","1","49.3","1","0.0","1","null","6","null","6","0.0","1","null","6","41.200462","16.604997"],
    [2262,"2024-04-04 05:00:00","21","molfetta","14.43","1","52.9","1","0.0","1","null","6","null","6","0.0","1","null","6","41.200462","16.604997"],
    [2263,"2024-04-04 06:00:00","21","molfetta","14.42","1","54.28","1","0.0","1","null","6","null","6","0.0","5","null","6","41.200462","16.604997"],
    [2264,"2024-04-04 07:00:00","21","molfetta","15.08","1","51.95","1","0.0","1","null","6","null","6","46.91","1","null","6","41.200462","16.604997"],
    [2265,"2024-04-04 08:00:00","21","molfetta","16.78","1","48.24","1","0.0","1","null","6","null","6","73.79","1","null","6","41.200462","16.604997"],
    [2266,"2024-04-04 09:00:00","21","molfetta","18.04","1","52.33","1","0.0","1","null","6","null","6","304.12","1","null","6","41.200462","16.604997"],
    [2267,"2024-04-04 10:00:00","21","molfetta","20.88","1","49.28","1","0.0","1","null","6","null","6","684.66","1","null","6","41.200462","16.604997"],
    [2268,"2024-04-04 11:00:00","21","molfetta","22.38","1","39.13","1","0.0","1","null","6","null","6","793.5","1","null","6","41.200462","16.604997"],
    [2269,"2024-04-04 12:00:00","21","molfetta","22.83","1","47.04","1","0.0","1","null","6","null","6","861.48","1","null","6","41.200462","16.604997"],
    [2270,"2024-04-04 13:00:00","21","molfetta","21.81","1","53.11","1","0.0","1","null","6","null","6","850.43","1","null","6","41.200462","16.604997"],
    [2271,"2024-04-04 14:00:00","21","molfetta","22.49","1","47.25","1","0.0","1","null","6","null","6","780.52","1","null","6","41.200462","16.604997"],
    [2272,"2024-04-04 15:00:00","21","molfetta","21.9","1","49.45","1","0.0","1","null","6","null","6","670.07","1","null","6","41.200462","16.604997"],
    [2273,"2024-04-04 16:00:00","21","molfetta","20.87","1","54.73","1","0.0","1","null","6","null","6","421.12","1","null","6","41.200462","16.604997"],
    [2274,"2024-04-04 17:00:00","21","molfetta","17.63","1","67.7","1","0.0","1","null","6","null","6","52.69","1","null","6","41.200462","16.604997"],
    [2275,"2024-04-04 18:00:00","21","molfetta","17.01","1","69.92","1","0.0","1","null","6","null","6","27.77","1","null","6","41.200462","16.604997"],
    [2276,"2024-04-04 19:00:00","21","molfetta","16.91","1","61.46","1","0.0","1","null","6","null","6","0.0","5","null","6","41.200462","16.604997"],
    [2277,"2024-04-04 20:00:00","21","molfetta","16.38","1","60.88","1","0.0","1","null","6","null","6","0.0","1","null","6","41.200462","16.604997"],
    [2278,"2024-04-04 21:00:00","21","molfetta","16.05","1","59.32","1","0.0","1","null","6","null","6","0.0","1","null","6","41.200462","16.604997"],
    [2279,"2024-04-04 22:00:00","21","molfetta","15.68","1","57.09","1","0.0","1","null","6","null","6","0.0","1","null","6","41.200462","16.604997"],
    [2280,"2024-04-04 23:00:00","21","molfetta","15.56","1","56.53","1","0.0","1","null","6","null","6","0.0","1","null","6","41.200462","16.604997"],
    [2281,"2024-04-05 00:00:00","21","molfetta","15.68","1","55.21","1","0.0","1","null","6","null","6","0.0","1","null","6","41.200462","16.604997"],
    [2282,"2024-04-05 01:00:00","21","molfetta","16.13","1","52.69","1","0.0","1","null","6","null","6","0.0","1","null","6","41.200462","16.604997"],
    [2283,"2024-04-05 02:00:00","21","molfetta","15.13","1","58.2","1","0.0","1","null","6","null","6","0.0","1","null","6","41.200462","16.604997"],
    [2284,"2024-04-05 03:00:00","21","molfetta","14.63","1","59.88","1","0.0","1","null","6","null","6","0.0","1","null","6","41.200462","16.604997"],
    [2285,"2024-04-05 04:00:00","21","molfetta","15.14","1","50.86","1","0.0","1","null","6","null","6","0.0","1","null","6","41.200462","16.604997"],
    [2286,"2024-04-05 05:00:00","21","molfetta","14.6","1","55.52","1","0.0","1","null","6","null","6","0.0","1","null","6","41.200462","16.604997"],
    [2287,"2024-04-05 06:00:00","21","molfetta","13.6","1","60.0","1","0.0","1","null","6","null","6","0.0","5","null","6","41.200462","16.604997"],
    [2288,"2024-04-05 07:00:00","21","molfetta","13.78","1","59.45","1","0.0","1","null","6","null","6","50.67","1","null","6","41.200462","16.604997"],
    [2289,"2024-04-05 08:00:00","21","molfetta","15.92","1","49.74","1","0.0","1","null","6","null","6","75.53","1","null","6","41.200462","16.604997"],
    [2290,"2024-04-05 09:00:00","21","molfetta","16.86","1","54.36","1","0.0","1","null","6","null","6","299.55","1","null","6","41.200462","16.604997"],
    [2291,"2024-04-05 10:00:00","21","molfetta","19.11","1","56.11","1","0.0","1","null","6","null","6","649.12","1","null","6","41.200462","16.604997"],
    [2292,"2024-04-05 11:00:00","21","molfetta","21.1","1","52.66","1","0.0","1","null","6","null","6","794.78","1","null","6","41.200462","16.604997"],
    [2293,"2024-04-05 12:00:00","21","molfetta","21.44","1","49.03","1","0.0","1","null","6","null","6","861.08","1","null","6","41.200462","16.604997"],
    [2294,"2024-04-05 13:00:00","21","molfetta","21.46","1","53.37","1","0.0","1","null","6","null","6","844.56","1","null","6","41.200462","16.604997"],
    [2295,"2024-04-05 14:00:00","21","molfetta","22.01","1","58.14","1","0.0","1","null","6","null","6","676.22","1","null","6","41.200462","16.604997"],
    [2296,"2024-04-05 15:00:00","21","molfetta","21.49","1","63.04","1","0.0","1","null","6","null","6","562.03","1","null","6","41.200462","16.604997"],
    [2297,"2024-04-05 16:00:00","21","molfetta","21.57","1","51.38","1","0.0","1","null","6","null","6","363.65","1","null","6","41.200462","16.604997"],
    [2298,"2024-04-05 17:00:00","21","molfetta","19.25","1","56.64","1","0.0","1","null","6","null","6","64.86","1","null","6","41.200462","16.604997"],
    [2299,"2024-04-05 18:00:00","21","molfetta","18.59","1","51.03","1","0.0","1","null","6","null","6","27.91","1","null","6","41.200462","16.604997"],
    [2300,"2024-04-05 19:00:00","21","molfetta","18.19","1","43.13","1","0.0","1","null","6","null","6","0.0","5","null","6","41.200462","16.604997"],
    [2301,"2024-04-05 20:00:00","21","molfetta","17.45","1","44.07","1","0.0","1","null","6","null","6","0.0","1","null","6","41.200462","16.604997"],
    [2302,"2024-04-05 21:00:00","21","molfetta","16.7","1","47.59","1","0.0","1","null","6","null","6","0.0","1","null","6","41.200462","16.604997"],
    [2303,"2024-04-05 22:00:00","21","molfetta","15.94","1","53.21","1","0.0","1","null","6","null","6","0.0","1","null","6","41.200462","16.604997"],
    [2304,"2024-04-05 23:00:00","21","molfetta","15.65","1","56.68","1","0.0","1","null","6","null","6","0.0","1","null","6","41.200462","16.604997"],
    [2305,"2024-04-06 00:00:00","21","molfetta","15.65","1","56.04","1","0.0","1","null","6","null","6","0.0","1","null","6","41.200462","16.604997"],
    [2306,"2024-04-06 01:00:00","21","molfetta","15.83","1","55.87","1","0.0","1","null","6","null","6","0.0","1","null","6","41.200462","16.604997"],
    [2307,"2024-04-06 02:00:00","21","molfetta","15.13","1","58.67","1","0.0","1","null","6","null","6","0.0","1","null","6","41.200462","16.604997"],
    [2308,"2024-04-06 03:00:00","21","molfetta","13.92","1","63.99","1","0.0","1","null","6","null","6","0.0","1","null","6","41.200462","16.604997"],
    [2309,"2024-04-06 04:00:00","21","molfetta","13.82","1","65.24","1","0.0","1","null","6","null","6","0.0","1","null","6","41.200462","16.604997"],
    [2310,"2024-04-06 05:00:00","21","molfetta","13.73","1","63.45","1","0.0","1","null","6","null","6","0.0","1","null","6","41.200462","16.604997"],
    [2311,"2024-04-06 06:00:00","21","molfetta","12.67","1","67.95","1","0.0","1","null","6","null","6","5.38","1","null","6","41.200462","16.604997"],
    [2312,"2024-04-06 07:00:00","21","molfetta","13.39","1","67.71","1","0.0","1","null","6","null","6","70.14","1","null","6","41.200462","16.604997"],
    [2313,"2024-04-06 08:00:00","21","molfetta","16.07","1","66.23","1","0.0","1","null","6","null","6","144.16","1","null","6","41.200462","16.604997"],
    [2314,"2024-04-06 09:00:00","21","molfetta","17.87","1","63.77","1","0.0","1","null","6","null","6","282.81","1","null","6","41.200462","16.604997"],
    [2315,"2024-04-06 10:00:00","21","molfetta","19.71","1","61.37","1","0.0","1","null","6","null","6","546.16","1","null","6","41.200462","16.604997"],
    [2316,"2024-04-06 11:00:00","21","molfetta","21.23","1","56.79","1","0.0","1","null","6","null","6","661.26","1","null","6","41.200462","16.604997"],
    [2317,"2024-04-06 12:00:00","21","molfetta","22.27","1","52.48","1","0.0","1","null","6","null","6","698.13","1","null","6","41.200462","16.604997"],
    [2318,"2024-04-06 13:00:00","21","molfetta","22.91","1","43.32","1","0.0","1","null","6","null","6","642.05","1","null","6","41.200462","16.604997"],
    [2319,"2024-04-06 14:00:00","21","molfetta","22.87","1","44.59","1","0.0","1","null","6","null","6","667.62","1","null","6","41.200462","16.604997"],
    [2320,"2024-04-06 15:00:00","21","molfetta","24.36","1","36.89","1","0.0","1","null","6","null","6","627.74","1","null","6","41.200462","16.604997"],
    [2321,"2024-04-06 16:00:00","21","molfetta","23.07","1","47.03","1","0.0","1","null","6","null","6","488.78","1","null","6","41.200462","16.604997"],
    [2322,"2024-04-06 17:00:00","21","molfetta","20.26","1","47.66","1","0.0","1","null","6","null","6","53.87","1","null","6","41.200462","16.604997"],
    [2323,"2024-04-06 18:00:00","21","molfetta","19.57","1","44.88","1","0.0","1","null","6","null","6","27.91","1","null","6","41.200462","16.604997"],
    [2324,"2024-04-06 19:00:00","21","molfetta","19.0","1","44.32","1","0.0","1","null","6","null","6","0.0","5","null","6","41.200462","16.604997"],
    [2325,"2024-04-06 20:00:00","21","molfetta","18.75","1","44.4","1","0.0","1","null","6","null","6","0.0","1","null","6","41.200462","16.604997"],
    [2326,"2024-04-06 21:00:00","21","molfetta","18.0","1","46.69","1","0.0","1","null","6","null","6","0.0","1","null","6","41.200462","16.604997"],
    [2327,"2024-04-06 22:00:00","21","molfetta","17.56","1","49.01","1","0.0","1","null","6","null","6","0.0","1","null","6","41.200462","16.604997"],
    [2328,"2024-04-06 23:00:00","21","molfetta","16.98","1","51.48","1","0.0","1","null","6","null","6","0.0","1","null","6","41.200462","16.604997"],
    [2329,"2024-04-07 00:00:00","21","molfetta","16.37","1","53.25","1","0.0","1","null","6","null","6","0.0","1","null","6","41.200462","16.604997"],
    [2330,"2024-04-07 01:00:00","21","molfetta","16.63","1","50.57","1","0.0","1","null","6","null","6","0.0","1","null","6","41.200462","16.604997"],
    [2331,"2024-04-07 02:00:00","21","molfetta","15.66","1","55.77","1","0.0","1","null","6","null","6","0.0","1","null","6","41.200462","16.604997"],
    [2332,"2024-04-07 03:00:00","21","molfetta","15.69","1","58.11","1","0.0","1","null","6","null","6","0.0","1","null","6","41.200462","16.604997"],
    [2333,"2024-04-07 04:00:00","21","molfetta","15.56","1","62.88","1","0.0","1","null","6","null","6","0.0","1","null","6","41.200462","16.604997"],
    [2334,"2024-04-07 05:00:00","21","molfetta","15.55","1","65.77","1","0.0","1","null","6","null","6","0.0","1","null","6","41.200462","16.604997"],
    [2335,"2024-04-07 06:00:00","21","molfetta","14.83","1","69.27","1","0.0","1","null","6","null","6","0.0","5","null","6","41.200462","16.604997"],
    [2336,"2024-04-07 07:00:00","21","molfetta","15.71","1","68.58","1","0.0","1","null","6","null","6","52.4","1","null","6","41.200462","16.604997"],
    [2337,"2024-04-07 08:00:00","21","molfetta","17.79","1","59.64","1","0.0","1","null","6","null","6","77.02","1","null","6","41.200462","16.604997"],
    [2338,"2024-04-07 09:00:00","21","molfetta","20.01","1","58.07","1","0.0","1","null","6","null","6","360.16","1","null","6","41.200462","16.604997"],
    [2339,"2024-04-07 10:00:00","21","molfetta","22.71","1","52.9","1","0.0","1","null","6","null","6","695.31","1","null","6","41.200462","16.604997"],
    [2340,"2024-04-07 11:00:00","21","molfetta","23.78","1","48.7","1","0.0","1","null","6","null","6","798.32","1","null","6","41.200462","16.604997"],
    [2341,"2024-04-07 12:00:00","21","molfetta","23.44","1","52.01","1","0.0","1","null","6","null","6","870.31","1","null","6","41.200462","16.604997"],
    [2342,"2024-04-07 13:00:00","21","molfetta","24.48","1","43.23","1","0.0","1","null","6","null","6","862.36","1","null","6","41.200462","16.604997"],
    [2343,"2024-04-07 14:00:00","21","molfetta","23.73","1","47.39","1","0.0","1","null","6","null","6","797.22","1","null","6","41.200462","16.604997"],
    [2344,"2024-04-07 15:00:00","21","molfetta","24.03","1","46.34","1","0.0","1","null","6","null","6","685.1","1","null","6","41.200462","16.604997"],
    [2345,"2024-04-07 16:00:00","21","molfetta","23.59","1","46.26","1","0.0","1","null","6","null","6","511.72","1","null","6","41.200462","16.604997"],
    [2346,"2024-04-07 17:00:00","21","molfetta","20.25","1","51.05","1","0.0","1","null","6","null","6","53.17","1","null","6","41.200462","16.604997"],
    [2347,"2024-04-07 18:00:00","21","molfetta","19.65","1","50.27","1","0.0","1","null","6","null","6","30.89","1","null","6","41.200462","16.604997"],
    [2348,"2024-04-07 19:00:00","21","molfetta","19.68","1","49.76","1","0.0","1","null","6","null","6","5.19","1","null","6","41.200462","16.604997"],
    [2349,"2024-04-07 20:00:00","21","molfetta","19.22","1","51.56","1","0.0","1","null","6","null","6","0.0","1","null","6","41.200462","16.604997"],
    [2350,"2024-04-07 21:00:00","21","molfetta","17.96","1","55.58","1","0.0","1","null","6","null","6","0.0","1","null","6","41.200462","16.604997"],
    [2351,"2024-04-07 22:00:00","21","molfetta","17.64","1","52.35","1","0.0","1","null","6","null","6","0.0","1","null","6","41.200462","16.604997"],
    [2352,"2024-04-07 23:00:00","21","molfetta","17.45","1","49.07","1","0.0","1","null","6","null","6","0.0","1","null","6","41.200462","16.604997"],
    [2353,"2024-04-08 00:00:00","21","molfetta","16.43","1","50.82","1","0.0","1","null","6","null","6","0.0","1","null","6","41.200462","16.604997"],
    [2354,"2024-04-08 01:00:00","21","molfetta","15.28","1","51.99","1","0.0","1","null","6","null","6","0.0","1","null","6","41.200462","16.604997"],
    [2355,"2024-04-08 02:00:00","21","molfetta","15.2","1","48.93","1","0.0","1","null","6","null","6","0.0","1","null","6","41.200462","16.604997"],
    [2356,"2024-04-08 03:00:00","21","molfetta","15.6","1","44.57","1","0.0","1","null","6","null","6","0.0","1","null","6","41.200462","16.604997"],
    [2357,"2024-04-08 04:00:00","21","molfetta","14.6","1","49.19","1","0.0","1","null","6","null","6","0.0","1","null","6","41.200462","16.604997"],
    [2358,"2024-04-08 05:00:00","21","molfetta","13.63","1","52.66","1","0.0","1","null","6","null","6","0.0","1","null","6","41.200462","16.604997"],
    [2359,"2024-04-08 06:00:00","21","molfetta","13.49","1","51.97","1","0.0","1","null","6","null","6","6.2","1","null","6","41.200462","16.604997"],
    [2360,"2024-04-08 07:00:00","21","molfetta","14.48","1","49.85","1","0.0","1","null","6","null","6","60.16","1","null","6","41.200462","16.604997"],
    [2361,"2024-04-08 08:00:00","21","molfetta","17.41","1","48.41","1","0.0","1","null","6","null","6","77.17","1","null","6","41.200462","16.604997"],
    [2362,"2024-04-08 09:00:00","21","molfetta","19.8","1","49.78","1","0.0","1","null","6","null","6","370.63","1","null","6","41.200462","16.604997"],
    [2363,"2024-04-08 10:00:00","21","molfetta","23.15","1","43.93","1","0.0","1","null","6","null","6","672.26","1","null","6","41.200462","16.604997"],
    [2364,"2024-04-08 11:00:00","21","molfetta","23.49","1","47.3","1","0.0","1","null","6","null","6","775.9","1","null","6","41.200462","16.604997"],
    [2365,"2024-04-08 12:00:00","21","molfetta","23.9","1","52.59","1","0.0","1","null","6","null","6","850.19","1","null","6","41.200462","16.604997"],
    [2366,"2024-04-08 13:00:00","21","molfetta","24.12","1","54.55","1","0.0","1","null","6","null","6","836.66","1","null","6","41.200462","16.604997"],
    [2367,"2024-04-08 14:00:00","21","molfetta","24.05","1","53.25","1","0.0","1","null","6","null","6","759.13","1","null","6","41.200462","16.604997"],
    [2368,"2024-04-08 15:00:00","21","molfetta","24.21","1","56.0","1","0.0","1","null","6","null","6","650.47","1","null","6","41.200462","16.604997"],
    [2369,"2024-04-08 16:00:00","21","molfetta","22.99","1","62.05","1","0.0","1","null","6","null","6","399.07","1","null","6","41.200462","16.604997"],
    [2370,"2024-04-08 17:00:00","21","molfetta","20.66","1","68.52","1","0.0","1","null","6","null","6","110.32","1","null","6","41.200462","16.604997"],
    [2371,"2024-04-08 18:00:00","21","molfetta","20.23","1","69.61","1","0.0","1","null","6","null","6","45.5","1","null","6","41.200462","16.604997"],
    [2372,"2024-04-08 19:00:00","21","molfetta","19.85","1","69.13","1","0.0","1","null","6","null","6","0.0","5","null","6","41.200462","16.604997"],
    [2373,"2024-04-08 20:00:00","21","molfetta","20.81","1","45.19","1","0.0","1","null","6","null","6","0.0","1","null","6","41.200462","16.604997"],
    [2374,"2024-04-08 21:00:00","21","molfetta","20.17","1","44.91","1","0.0","1","null","6","null","6","0.0","1","null","6","41.200462","16.604997"],
    [2375,"2024-04-08 22:00:00","21","molfetta","19.76","1","45.87","1","0.0","1","null","6","null","6","0.0","1","null","6","41.200462","16.604997"],
    [2376,"2024-04-08 23:00:00","21","molfetta","19.5","1","47.06","1","0.0","1","null","6","null","6","0.0","1","null","6","41.200462","16.604997"],
    [2377,"2024-04-09 00:00:00","21","molfetta","19.12","1","48.89","1","0.0","1","null","6","null","6","0.0","1","null","6","41.200462","16.604997"],
    [2378,"2024-04-09 01:00:00","21","molfetta","18.92","1","50.03","1","0.0","1","null","6","null","6","0.0","1","null","6","41.200462","16.604997"],
    [2379,"2024-04-09 02:00:00","21","molfetta","17.88","1","56.65","1","0.0","1","null","6","null","6","0.0","1","null","6","41.200462","16.604997"],
    [2380,"2024-04-09 03:00:00","21","molfetta","16.89","1","59.61","1","0.0","1","null","6","null","6","0.0","1","null","6","41.200462","16.604997"],
    [2381,"2024-04-09 04:00:00","21","molfetta","16.25","1","62.26","1","0.0","1","null","6","null","6","0.0","1","null","6","41.200462","16.604997"],
    [2382,"2024-04-09 05:00:00","21","molfetta","15.72","1","67.12","1","0.0","1","null","6","null","6","0.0","1","null","6","41.200462","16.604997"],
    [2383,"2024-04-09 06:00:00","21","molfetta","15.78","1","69.72","1","0.0","1","null","6","null","6","6.75","1","null","6","41.200462","16.604997"],
    [2384,"2024-04-09 07:00:00","21","molfetta","16.62","1","65.41","1","0.0","1","null","6","null","6","60.36","1","null","6","41.200462","16.604997"],
    [2385,"2024-04-09 08:00:00","21","molfetta","18.67","1","60.35","1","0.0","1","null","6","null","6","89.62","1","null","6","41.200462","16.604997"],
    [2386,"2024-04-09 09:00:00","21","molfetta","19.14","1","73.15","1","0.0","1","null","6","null","6","381.43","1","null","6","41.200462","16.604997"],
    [2387,"2024-04-09 10:00:00","21","molfetta","20.25","1","75.58","1","0.0","1","null","6","null","6","640.26","1","null","6","41.200462","16.604997"],
    [2388,"2024-04-09 11:00:00","21","molfetta","22.51","1","67.3","1","0.0","1","null","6","null","6","763.68","1","null","6","41.200462","16.604997"],
    [2389,"2024-04-09 12:00:00","21","molfetta","24.88","1","48.08","1","0.0","1","null","6","null","6","831.34","1","null","6","41.200462","16.604997"],
    [2390,"2024-04-09 13:00:00","21","molfetta","25.45","1","53.3","1","0.0","1","null","6","null","6","794.39","1","null","6","41.200462","16.604997"],
    [2391,"2024-04-09 14:00:00","21","molfetta","25.69","1","53.26","1","0.0","1","null","6","null","6","678.88","1","null","6","41.200462","16.604997"],
    [2392,"2024-04-09 15:00:00","21","molfetta","26.14","1","52.51","1","0.0","1","null","6","null","6","656.15","1","null","6","41.200462","16.604997"],
    [2393,"2024-04-09 16:00:00","21","molfetta","25.83","1","53.57","1","0.0","1","null","6","null","6","467.55","1","null","6","41.200462","16.604997"],
    [2394,"2024-04-09 17:00:00","21","molfetta","22.4","1","64.24","1","0.0","1","null","6","null","6","100.65","1","null","6","41.200462","16.604997"],
    [2395,"2024-04-09 18:00:00","21","molfetta","21.15","1","67.82","1","0.0","1","null","6","null","6","41.2","1","null","6","41.200462","16.604997"],
    [2396,"2024-04-09 19:00:00","21","molfetta","23.72","1","26.34","1","0.0","1","null","6","null","6","0.0","5","null","6","41.200462","16.604997"],
    [2397,"2024-04-09 20:00:00","21","molfetta","22.64","1","27.58","1","0.0","1","null","6","null","6","0.0","1","null","6","41.200462","16.604997"],
    [2398,"2024-04-09 21:00:00","21","molfetta","21.85","1","25.97","1","0.0","1","null","6","null","6","0.0","1","null","6","41.200462","16.604997"],
    [2399,"2024-04-09 22:00:00","21","molfetta","21.34","1","26.67","1","0.0","1","null","6","null","6","0.0","1","null","6","41.200462","16.604997"],
    [2400,"2024-04-09 23:00:00","21","molfetta","20.54","1","32.5","1","0.0","1","null","6","null","6","0.0","1","null","6","41.200462","16.604997"],
    [2401,"2024-04-10 00:00:00","21","molfetta","19.69","1","40.51","1","0.0","1","null","6","null","6","0.0","1","null","6","41.200462","16.604997"],
    [2402,"2024-04-10 01:00:00","21","molfetta","18.59","1","48.74","1","0.0","1","null","6","null","6","0.0","1","null","6","41.200462","16.604997"],
    [2403,"2024-04-10 02:00:00","21","molfetta","18.42","1","41.54","1","0.0","1","null","6","null","6","0.0","1","null","6","41.200462","16.604997"],
    [2404,"2024-04-10 03:00:00","21","molfetta","18.17","1","39.92","1","0.0","1","null","6","null","6","0.0","1","null","6","41.200462","16.604997"],
    [2405,"2024-04-10 04:00:00","21","molfetta","17.75","1","41.28","1","0.0","1","null","6","null","6","0.0","1","null","6","41.200462","16.604997"],
    [2406,"2024-04-10 05:00:00","21","molfetta","16.94","1","44.08","1","0.0","1","null","6","null","6","0.0","1","null","6","41.200462","16.604997"],
    [2407,"2024-04-10 06:00:00","21","molfetta","16.32","1","45.8","1","0.0","1","null","6","null","6","5.37","1","null","6","41.200462","16.604997"],
    [2408,"2024-04-10 07:00:00","21","molfetta","17.03","1","47.55","1","0.0","1","null","6","null","6","62.49","1","null","6","41.200462","16.604997"],
    [2409,"2024-04-10 08:00:00","21","molfetta","18.6","1","48.58","1","0.0","1","null","6","null","6","117.63","1","null","6","41.200462","16.604997"],
    [2410,"2024-04-10 09:00:00","21","molfetta","19.96","1","50.32","1","0.0","1","null","6","null","6","303.61","1","null","6","41.200462","16.604997"],
    [2411,"2024-04-10 10:00:00","21","molfetta","21.56","1","48.71","1","0.0","1","null","6","null","6","386.0","1","null","6","41.200462","16.604997"],
    [2412,"2024-04-10 11:00:00","21","molfetta","21.56","1","55.77","1","0.0","1","null","6","null","6","465.29","1","null","6","41.200462","16.604997"],
    [2413,"2024-04-10 12:00:00","21","molfetta","23.16","1","57.22","1","0.0","1","null","6","null","6","689.26","1","null","6","41.200462","16.604997"],
    [2414,"2024-04-10 13:00:00","21","molfetta","22.84","1","64.92","1","0.0","1","null","6","null","6","586.66","1","null","6","41.200462","16.604997"],
    [2415,"2024-04-10 14:00:00","21","molfetta","24.04","1","61.59","1","0.0","1","null","6","null","6","660.17","1","null","6","41.200462","16.604997"],
    [2416,"2024-04-10 15:00:00","21","molfetta","22.6","1","65.91","1","0.0","1","null","6","null","6","338.62","1","null","6","41.200462","16.604997"],
    [2417,"2024-04-10 16:00:00","21","molfetta","22.05","1","66.17","1","0.0","1","null","6","null","6","278.94","1","null","6","41.200462","16.604997"],
    [2418,"2024-04-10 17:00:00","21","molfetta","20.98","1","65.22","1","0.0","1","null","6","null","6","143.7","1","null","6","41.200462","16.604997"],
    [2419,"2024-04-10 18:00:00","21","molfetta","21.22","1","48.19","1","0.0","1","null","6","null","6","66.84","1","null","6","41.200462","16.604997"],
    [2420,"2024-04-10 19:00:00","21","molfetta","20.13","1","49.09","1","0.0","1","null","6","null","6","0.0","5","null","6","41.200462","16.604997"],
    [2421,"2024-04-10 20:00:00","21","molfetta","19.0","1","47.76","1","0.0","1","null","6","null","6","0.0","1","null","6","41.200462","16.604997"],
    [2422,"2024-04-10 21:00:00","21","molfetta","18.6","1","45.11","1","0.0","1","null","6","null","6","0.0","1","null","6","41.200462","16.604997"],
    [2423,"2024-04-10 22:00:00","21","molfetta","18.1","1","46.37","1","0.0","1","null","6","null","6","0.0","1","null","6","41.200462","16.604997"],
    [2424,"2024-04-10 23:00:00","21","molfetta","17.77","1","46.53","1","0.0","1","null","6","null","6","0.0","1","null","6","41.200462","16.604997"],
    [2425,"2024-04-11 00:00:00","21","molfetta","18.02","1","42.92","1","0.0","1","null","6","null","6","0.0","1","null","6","41.200462","16.604997"],
    [2426,"2024-04-11 01:00:00","21","molfetta","17.61","1","40.39","1","0.0","1","null","6","null","6","0.0","1","null","6","41.200462","16.604997"],
    [2427,"2024-04-11 02:00:00","21","molfetta","17.16","1","39.38","1","0.0","1","null","6","null","6","0.0","1","null","6","41.200462","16.604997"],
    [2428,"2024-04-11 03:00:00","21","molfetta","16.91","1","38.25","1","0.0","1","null","6","null","6","0.0","1","null","6","41.200462","16.604997"],
    [2429,"2024-04-11 04:00:00","21","molfetta","16.73","1","36.87","1","0.0","1","null","6","null","6","0.0","1","null","6","41.200462","16.604997"],
    [2430,"2024-04-11 05:00:00","21","molfetta","16.65","1","35.02","1","0.0","1","null","6","null","6","0.0","1","null","6","41.200462","16.604997"],
    [2431,"2024-04-11 06:00:00","21","molfetta","16.46","1","41.04","1","0.0","1","null","6","null","6","7.3","1","null","6","41.200462","16.604997"],
    [2432,"2024-04-11 07:00:00","21","molfetta","16.76","1","46.35","1","0.0","1","null","6","null","6","81.43","1","null","6","41.200462","16.604997"],
    [2433,"2024-04-11 08:00:00","21","molfetta","18.07","1","50.8","1","0.0","1","null","6","null","6","175.92","1","null","6","41.200462","16.604997"],
    [2434,"2024-04-11 09:00:00","21","molfetta","20.03","1","50.34","1","0.0","1","null","6","null","6","415.51","1","null","6","41.200462","16.604997"],
    [2435,"2024-04-11 10:00:00","21","molfetta","21.3","1","48.07","1","0.0","1","null","6","null","6","366.88","1","null","6","41.200462","16.604997"],
    [2436,"2024-04-11 11:00:00","21","molfetta","21.12","1","54.49","1","0.0","1","null","6","null","6","350.98","1","null","6","41.200462","16.604997"],
    [2437,"2024-04-11 12:00:00","21","molfetta","20.67","1","62.03","1","0.0","1","null","6","null","6","346.52","1","null","6","41.200462","16.604997"],
    [2438,"2024-04-11 13:00:00","21","molfetta","20.65","1","63.78","1","0.0","1","null","6","null","6","421.23","1","null","6","41.200462","16.604997"],
    [2439,"2024-04-11 14:00:00","21","molfetta","22.91","1","52.98","1","0.0","1","null","6","null","6","569.95","1","null","6","41.200462","16.604997"],
    [2440,"2024-04-11 15:00:00","21","molfetta","22.89","1","50.32","1","0.0","1","null","6","null","6","435.95","1","null","6","41.200462","16.604997"],
    [2441,"2024-04-11 16:00:00","21","molfetta","23.3","1","50.51","1","0.0","1","null","6","null","6","420.38","1","null","6","41.200462","16.604997"],
    [2442,"2024-04-11 17:00:00","21","molfetta","21.82","1","52.95","1","0.0","1","null","6","null","6","135.1","1","null","6","41.200462","16.604997"],
    [2443,"2024-04-11 18:00:00","21","molfetta","20.7","1","56.33","1","0.0","1","null","6","null","6","73.09","1","null","6","41.200462","16.604997"],
    [2444,"2024-04-11 19:00:00","21","molfetta","19.64","1","63.73","1","0.0","1","null","6","null","6","8.01","1","null","6","41.200462","16.604997"],
    [2445,"2024-04-11 20:00:00","21","molfetta","19.3","1","54.74","1","0.0","1","null","6","null","6","0.0","1","null","6","41.200462","16.604997"],
    [2446,"2024-04-11 21:00:00","21","molfetta","18.54","1","55.89","1","0.0","1","null","6","null","6","0.0","1","null","6","41.200462","16.604997"],
    [2447,"2024-04-11 22:00:00","21","molfetta","17.82","1","59.05","1","0.0","1","null","6","null","6","0.0","1","null","6","41.200462","16.604997"],
    [2448,"2024-04-11 23:00:00","21","molfetta","17.13","1","63.8","1","0.0","1","null","6","null","6","0.0","1","null","6","41.200462","16.604997"],
    [2449,"2024-04-12 00:00:00","21","molfetta","16.78","1","66.65","1","0.0","1","null","6","null","6","0.0","1","null","6","41.200462","16.604997"],
    [2450,"2024-04-12 01:00:00","21","molfetta","16.49","1","69.65","1","0.0","1","null","6","null","6","0.0","1","null","6","41.200462","16.604997"],
    [2451,"2024-04-12 02:00:00","21","molfetta","16.21","1","67.67","1","0.0","1","null","6","null","6","0.0","1","null","6","41.200462","16.604997"],
    [2452,"2024-04-12 03:00:00","21","molfetta","16.18","1","61.98","1","0.0","1","null","6","null","6","0.0","1","null","6","41.200462","16.604997"],
    [2453,"2024-04-12 04:00:00","21","molfetta","16.21","1","58.1","1","0.0","1","null","6","null","6","0.0","1","null","6","41.200462","16.604997"],
    [2454,"2024-04-12 05:00:00","21","molfetta","16.17","1","56.8","1","0.0","1","null","6","null","6","0.0","1","null","6","41.200462","16.604997"],
    [2455,"2024-04-12 06:00:00","21","molfetta","16.01","1","57.69","1","0.0","1","null","6","null","6","7.32","1","null","6","41.200462","16.604997"],
    [2456,"2024-04-12 07:00:00","21","molfetta","16.91","1","56.63","1","0.0","1","null","6","null","6","81.58","1","null","6","41.200462","16.604997"],
    [2457,"2024-04-12 08:00:00","21","molfetta","18.62","1","52.42","1","0.0","1","null","6","null","6","89.0","1","null","6","41.200462","16.604997"],
    [2458,"2024-04-12 09:00:00","21","molfetta","20.91","1","47.13","1","0.0","1","null","6","null","6","432.58","1","null","6","41.200462","16.604997"],
    [2459,"2024-04-12 10:00:00","21","molfetta","23.02","1","50.91","1","0.0","1","null","6","null","6","688.06","1","null","6","41.200462","16.604997"],
    [2460,"2024-04-12 11:00:00","21","molfetta","22.88","1","56.76","1","0.0","1","null","6","null","6","787.44","1","null","6","41.200462","16.604997"],
    [2461,"2024-04-12 12:00:00","21","molfetta","24.45","1","50.29","1","0.0","1","null","6","null","6","854.86","1","null","6","41.200462","16.604997"],
    [2462,"2024-04-12 13:00:00","21","molfetta","25.18","1","49.83","1","0.0","1","null","6","null","6","848.54","1","null","6","41.200462","16.604997"],
    [2463,"2024-04-12 14:00:00","21","molfetta","24.32","1","54.66","1","0.0","1","null","6","null","6","787.36","1","null","6","41.200462","16.604997"],
    [2464,"2024-04-12 15:00:00","21","molfetta","23.6","1","61.13","1","0.0","1","null","6","null","6","673.55","1","null","6","41.200462","16.604997"],
    [2465,"2024-04-12 16:00:00","21","molfetta","23.01","1","66.15","1","0.0","1","null","6","null","6","513.55","1","null","6","41.200462","16.604997"],
    [2466,"2024-04-12 17:00:00","21","molfetta","20.79","1","68.82","1","0.0","1","null","6","null","6","144.03","1","null","6","41.200462","16.604997"],
    [2467,"2024-04-12 18:00:00","21","molfetta","19.75","1","67.24","1","0.0","1","null","6","null","6","39.82","1","null","6","41.200462","16.604997"],
    [2468,"2024-04-12 19:00:00","21","molfetta","18.81","1","70.41","1","0.0","1","null","6","null","6","7.19","1","null","6","41.200462","16.604997"],
    [2469,"2024-04-12 20:00:00","21","molfetta","18.82","1","68.92","1","0.0","1","null","6","null","6","0.0","1","null","6","41.200462","16.604997"],
    [2470,"2024-04-12 21:00:00","21","molfetta","18.66","1","69.53","1","0.0","1","null","6","null","6","0.0","1","null","6","41.200462","16.604997"],
    [2471,"2024-04-12 22:00:00","21","molfetta","18.26","1","66.65","1","0.0","1","null","6","null","6","0.0","1","null","6","41.200462","16.604997"],
    [2472,"2024-04-12 23:00:00","21","molfetta","18.3","1","56.26","1","0.0","1","null","6","null","6","0.0","1","null","6","41.200462","16.604997"],
    [2473,"2024-04-13 00:00:00","21","molfetta","17.79","1","56.75","1","0.0","1","null","6","null","6","0.0","1","null","6","41.200462","16.604997"],
    [2474,"2024-04-13 01:00:00","21","molfetta","17.13","1","58.17","1","0.0","1","null","6","null","6","0.0","1","null","6","41.200462","16.604997"],
    [2475,"2024-04-13 02:00:00","21","molfetta","17.07","1","59.02","1","0.0","1","null","6","null","6","0.0","1","null","6","41.200462","16.604997"],
    [2476,"2024-04-13 03:00:00","21","molfetta","16.98","1","59.81","1","0.0","1","null","6","null","6","0.0","1","null","6","41.200462","16.604997"],
    [2477,"2024-04-13 04:00:00","21","molfetta","17.04","1","59.7","1","0.0","1","null","6","null","6","0.0","1","null","6","41.200462","16.604997"],
    [2478,"2024-04-13 05:00:00","21","molfetta","17.12","1","57.8","1","0.0","1","null","6","null","6","0.0","1","null","6","41.200462","16.604997"],
    [2479,"2024-04-13 06:00:00","21","molfetta","17.21","1","55.33","1","0.0","1","null","6","null","6","7.95","1","null","6","41.200462","16.604997"],
    [2480,"2024-04-13 07:00:00","21","molfetta","18.21","1","51.21","1","0.0","1","null","6","null","6","88.12","1","null","6","41.200462","16.604997"],
    [2481,"2024-04-13 08:00:00","21","molfetta","19.94","1","47.79","1","0.0","1","null","6","null","6","89.53","1","null","6","41.200462","16.604997"],
    [2482,"2024-04-13 09:00:00","21","molfetta","22.47","1","40.7","1","0.0","1","null","6","null","6","444.96","1","null","6","41.200462","16.604997"],
    [2483,"2024-04-13 10:00:00","21","molfetta","24.47","1","44.58","1","0.0","1","null","6","null","6","683.8","1","null","6","41.200462","16.604997"],
    [2484,"2024-04-13 11:00:00","21","molfetta","26.07","1","41.0","1","0.0","1","null","6","null","6","785.26","1","null","6","41.200462","16.604997"],
    [2485,"2024-04-13 12:00:00","21","molfetta","24.46","1","52.04","1","0.0","1","null","6","null","6","846.48","1","null","6","41.200462","16.604997"],
    [2486,"2024-04-13 13:00:00","21","molfetta","25.14","1","48.25","1","0.0","1","null","6","null","6","837.11","1","null","6","41.200462","16.604997"],
    [2487,"2024-04-13 14:00:00","21","molfetta","25.14","1","49.16","1","0.0","1","null","6","null","6","775.12","1","null","6","41.200462","16.604997"],
    [2488,"2024-04-13 15:00:00","21","molfetta","24.68","1","54.18","1","0.0","1","null","6","null","6","665.11","1","null","6","41.200462","16.604997"],
    [2489,"2024-04-13 16:00:00","21","molfetta","24.04","1","57.04","1","0.0","1","null","6","null","6","513.8","1","null","6","41.200462","16.604997"],
    [2490,"2024-04-13 17:00:00","21","molfetta","22.3","1","59.92","1","0.0","1","null","6","null","6","164.38","1","null","6","41.200462","16.604997"],
    [2491,"2024-04-13 18:00:00","21","molfetta","20.88","1","58.8","1","0.0","1","null","6","null","6","49.33","1","null","6","41.200462","16.604997"],
    [2492,"2024-04-13 19:00:00","21","molfetta","20.44","1","57.52","1","0.0","1","null","6","null","6","10.49","1","null","6","41.200462","16.604997"],
    [2493,"2024-04-13 20:00:00","21","molfetta","19.99","1","57.74","1","0.0","1","null","6","null","6","0.0","1","null","6","41.200462","16.604997"],
    [2494,"2024-04-13 21:00:00","21","molfetta","19.34","1","59.74","1","0.0","1","null","6","null","6","0.0","1","null","6","41.200462","16.604997"],
    [2495,"2024-04-13 22:00:00","21","molfetta","18.53","1","61.13","1","0.0","1","null","6","null","6","0.0","1","null","6","41.200462","16.604997"],
    [2496,"2024-04-13 23:00:00","21","molfetta","18.1","1","66.73","1","0.0","1","null","6","null","6","0.0","1","null","6","41.200462","16.604997"],
    [2497,"2024-04-14 00:00:00","21","molfetta","17.93","1","61.59","1","0.0","1","null","6","null","6","0.0","1","null","6","41.200462","16.604997"],
    [2498,"2024-04-14 01:00:00","21","molfetta","18.11","1","52.92","1","0.0","1","null","6","null","6","0.0","1","null","6","41.200462","16.604997"],
    [2499,"2024-04-14 02:00:00","21","molfetta","17.66","1","53.8","1","0.0","1","null","6","null","6","0.0","1","null","6","41.200462","16.604997"],
    [2500,"2024-04-14 03:00:00","21","molfetta","17.6","1","52.82","1","0.0","1","null","6","null","6","0.0","1","null","6","41.200462","16.604997"],
    [2501,"2024-04-14 04:00:00","21","molfetta","17.88","1","51.29","1","0.0","1","null","6","null","6","0.0","1","null","6","41.200462","16.604997"],
    [2502,"2024-04-14 05:00:00","21","molfetta","18.01","1","50.72","1","0.0","1","null","6","null","6","0.0","1","null","6","41.200462","16.604997"],
    [2503,"2024-04-14 06:00:00","21","molfetta","17.85","1","50.56","1","0.0","1","null","6","null","6","8.98","1","null","6","41.200462","16.604997"],
    [2504,"2024-04-14 07:00:00","21","molfetta","19.03","1","47.55","1","0.0","1","null","6","null","6","94.33","1","null","6","41.200462","16.604997"],
    [2505,"2024-04-14 08:00:00","21","molfetta","21.45","1","42.17","1","0.0","1","null","6","null","6","89.07","1","null","6","41.200462","16.604997"],
    [2506,"2024-04-14 09:00:00","21","molfetta","23.79","1","42.21","1","0.0","1","null","6","null","6","469.68","1","null","6","41.200462","16.604997"],
    [2507,"2024-04-14 10:00:00","21","molfetta","26.11","1","41.29","1","0.0","1","null","6","null","6","700.18","1","null","6","41.200462","16.604997"],
    [2508,"2024-04-14 11:00:00","21","molfetta","25.16","1","47.92","1","0.0","1","null","6","null","6","802.84","1","null","6","41.200462","16.604997"],
    [2509,"2024-04-14 12:00:00","21","molfetta","25.75","1","44.02","1","0.0","1","null","6","null","6","864.06","1","null","6","41.200462","16.604997"],
    [2510,"2024-04-14 13:00:00","21","molfetta","26.44","1","38.32","1","0.0","1","null","6","null","6","857.37","1","null","6","41.200462","16.604997"],
    [2511,"2024-04-14 14:00:00","21","molfetta","26.41","1","35.75","1","0.0","1","null","6","null","6","792.4","1","null","6","41.200462","16.604997"],
    [2512,"2024-04-14 15:00:00","21","molfetta","26.05","1","41.56","1","0.0","1","null","6","null","6","681.62","1","null","6","41.200462","16.604997"],
    [2513,"2024-04-14 16:00:00","21","molfetta","25.73","1","44.25","1","0.0","1","null","6","null","6","525.33","1","null","6","41.200462","16.604997"],
    [2514,"2024-04-14 17:00:00","21","molfetta","24.17","1","42.0","1","0.0","1","null","6","null","6","182.49","1","null","6","41.200462","16.604997"],
    [2515,"2024-04-14 18:00:00","21","molfetta","22.54","1","39.9","1","0.0","1","null","6","null","6","39.37","1","null","6","41.200462","16.604997"],
    [2516,"2024-04-14 19:00:00","21","molfetta","22.12","1","40.38","1","0.0","1","null","6","null","6","6.92","1","null","6","41.200462","16.604997"],
    [2517,"2024-04-14 20:00:00","21","molfetta","21.78","1","38.95","1","0.0","1","null","6","null","6","0.0","1","null","6","41.200462","16.604997"],
    [2518,"2024-04-14 21:00:00","21","molfetta","21.08","1","41.95","1","0.0","1","null","6","null","6","0.0","1","null","6","41.200462","16.604997"],
    [2519,"2024-04-14 22:00:00","21","molfetta","21.2","1","39.73","1","0.0","1","null","6","null","6","0.0","1","null","6","41.200462","16.604997"],
    [2520,"2024-04-14 23:00:00","21","molfetta","20.46","1","45.37","1","0.0","1","null","6","null","6","0.0","1","null","6","41.200462","16.604997"],
    [2521,"2024-04-15 00:00:00","21","molfetta","19.8","1","55.86","1","0.0","1","null","6","null","6","0.0","1","null","6","41.200462","16.604997"],
    [2522,"2024-04-15 01:00:00","21","molfetta","19.11","1","61.52","1","0.0","1","null","6","null","6","0.0","1","null","6","41.200462","16.604997"],
    [2523,"2024-04-15 02:00:00","21","molfetta","18.58","1","52.67","1","0.0","1","null","6","null","6","0.0","1","null","6","41.200462","16.604997"],
    [2524,"2024-04-15 03:00:00","21","molfetta","17.8","1","55.45","1","0.0","1","null","6","null","6","0.0","1","null","6","41.200462","16.604997"],
    [2525,"2024-04-15 04:00:00","21","molfetta","17.28","1","56.93","1","0.0","1","null","6","null","6","0.0","1","null","6","41.200462","16.604997"],
    [2526,"2024-04-15 05:00:00","21","molfetta","16.78","1","56.94","1","0.0","1","null","6","null","6","0.0","1","null","6","41.200462","16.604997"],
    [2527,"2024-04-15 06:00:00","21","molfetta","17.3","1","52.48","1","0.0","1","null","6","null","6","23.34","1","null","6","41.200462","16.604997"],
    [2528,"2024-04-15 07:00:00","21","molfetta","19.2","1","45.28","1","0.0","1","null","6","null","6","89.13","1","null","6","41.200462","16.604997"],
    [2529,"2024-04-15 08:00:00","21","molfetta","20.91","1","46.62","1","0.0","1","null","6","null","6","147.01","1","null","6","41.200462","16.604997"],
    [2530,"2024-04-15 09:00:00","21","molfetta","21.42","1","55.12","1","0.0","1","null","6","null","6","285.56","1","null","6","41.200462","16.604997"],
    [2531,"2024-04-15 10:00:00","21","molfetta","24.96","1","42.71","1","0.0","1","null","6","null","6","571.46","1","null","6","41.200462","16.604997"],
    [2532,"2024-04-15 11:00:00","21","molfetta","26.18","1","43.48","1","0.0","1","null","6","null","6","461.79","1","null","6","41.200462","16.604997"],
    [2533,"2024-04-15 12:00:00","21","molfetta","25.02","1","44.65","1","0.0","1","null","6","null","6","360.64","1","null","6","41.200462","16.604997"],
    [2534,"2024-04-15 13:00:00","21","molfetta","27.32","1","39.23","1","0.0","1","null","6","null","6","745.88","1","null","6","41.200462","16.604997"],
    [2535,"2024-04-15 14:00:00","21","molfetta","27.31","1","37.95","1","0.0","1","null","6","null","6","378.53","1","null","6","41.200462","16.604997"],
    [2536,"2024-04-15 15:00:00","21","molfetta","27.64","1","31.95","1","0.0","1","null","6","null","6","339.91","1","null","6","41.200462","16.604997"],
    [2537,"2024-04-15 16:00:00","21","molfetta","27.82","1","33.21","1","0.0","1","null","6","null","6","289.71","1","null","6","41.200462","16.604997"],
    [2538,"2024-04-15 17:00:00","21","molfetta","26.64","1","33.36","1","0.0","1","null","6","null","6","162.89","1","null","6","41.200462","16.604997"],
    [2539,"2024-04-15 18:00:00","21","molfetta","26.83","1","29.57","1","0.0","1","null","6","null","6","62.95","1","null","6","41.200462","16.604997"],
    [2540,"2024-04-15 19:00:00","21","molfetta","26.16","1","29.95","1","0.0","1","null","6","null","6","5.6","1","null","6","41.200462","16.604997"],
    [2541,"2024-04-15 20:00:00","21","molfetta","25.17","1","31.93","1","0.0","1","null","6","null","6","0.0","1","null","6","41.200462","16.604997"],
    [2542,"2024-04-15 21:00:00","21","molfetta","24.72","1","33.02","1","0.0","1","null","6","null","6","0.0","1","null","6","41.200462","16.604997"],
    [2543,"2024-04-15 22:00:00","21","molfetta","25.06","1","27.25","1","0.0","1","null","6","null","6","0.0","1","null","6","41.200462","16.604997"],
    [2544,"2024-04-15 23:00:00","21","molfetta","24.51","1","28.87","1","0.0","1","null","6","null","6","0.0","1","null","6","41.200462","16.604997"],
    [2545,"2024-04-16 00:00:00","21","molfetta","23.51","1","32.77","1","0.0","1","null","6","null","6","0.0","1","null","6","41.200462","16.604997"],
    [2546,"2024-04-16 01:00:00","21","molfetta","22.67","1","40.53","1","0.0","1","null","6","null","6","0.0","1","null","6","41.200462","16.604997"],
    [2547,"2024-04-16 02:00:00","21","molfetta","22.11","1","39.29","1","0.0","1","null","6","null","6","0.0","1","null","6","41.200462","16.604997"],
    [2548,"2024-04-16 03:00:00","21","molfetta","22.11","1","39.22","1","0.0","1","null","6","null","6","0.0","1","null","6","41.200462","16.604997"],
    [2549,"2024-04-16 04:00:00","21","molfetta","21.74","1","38.87","1","0.0","1","null","6","null","6","0.0","1","null","6","41.200462","16.604997"],
    [2550,"2024-04-16 05:00:00","21","molfetta","21.42","1","39.84","1","0.0","1","null","6","null","6","0.0","1","null","6","41.200462","16.604997"],
    [2551,"2024-04-16 06:00:00","21","molfetta","21.18","1","39.38","1","0.0","1","null","6","null","6","0.0","5","null","6","41.200462","16.604997"],
    [2552,"2024-04-16 07:00:00","21","molfetta","21.59","1","40.9","1","0.0","1","null","6","null","6","28.26","1","null","6","41.200462","16.604997"],
    [2553,"2024-04-16 08:00:00","21","molfetta","22.03","1","41.15","1","0.0","1","null","6","null","6","45.73","1","null","6","41.200462","16.604997"],
    [2554,"2024-04-16 09:00:00","21","molfetta","23.25","1","37.64","1","0.0","1","null","6","null","6","131.14","1","null","6","41.200462","16.604997"],
    [2555,"2024-04-16 10:00:00","21","molfetta","25.42","1","35.33","1","0.0","1","null","6","null","6","281.05","1","null","6","41.200462","16.604997"],
    [2556,"2024-04-16 11:00:00","21","molfetta","28.68","1","28.71","1","0.0","1","null","6","null","6","368.76","1","null","6","41.200462","16.604997"],
    [2557,"2024-04-16 12:00:00","21","molfetta","29.51","1","23.54","1","0.0","1","null","6","null","6","276.07","1","null","6","41.200462","16.604997"],
    [2558,"2024-04-16 13:00:00","21","molfetta","29.8","1","23.88","1","0.0","1","null","6","null","6","269.18","1","null","6","41.200462","16.604997"],
    [2559,"2024-04-16 14:00:00","21","molfetta","29.2","1","24.62","1","0.0","1","null","6","null","6","146.85","1","null","6","41.200462","16.604997"],
    [2560,"2024-04-16 15:00:00","21","molfetta","27.58","1","31.08","1","0.0","1","null","6","null","6","97.23","1","null","6","41.200462","16.604997"],
    [2561,"2024-04-16 16:00:00","21","molfetta","24.96","1","41.65","1","0.0","1","null","6","null","6","53.55","1","null","6","41.200462","16.604997"],
    [2562,"2024-04-16 17:00:00","21","molfetta","21.19","1","52.93","1","0.0","1","null","6","null","6","31.97","1","null","6","41.200462","16.604997"],
    [2563,"2024-04-16 18:00:00","21","molfetta","21.04","1","51.4","1","0.0","1","null","6","null","6","17.7","1","null","6","41.200462","16.604997"],
    [2564,"2024-04-16 19:00:00","21","molfetta","20.22","1","65.56","1","0.0","1","null","6","null","6","0.0","5","null","6","41.200462","16.604997"],
    [2565,"2024-04-16 20:00:00","21","molfetta","18.96","1","75.09","1","0.0","1","null","6","null","6","0.0","1","null","6","41.200462","16.604997"],
    [2566,"2024-04-16 21:00:00","21","molfetta","18.53","1","76.74","1","0.0","1","null","6","null","6","0.0","1","null","6","41.200462","16.604997"],
    [2567,"2024-04-16 22:00:00","21","molfetta","18.34","1","73.29","1","0.0","1","null","6","null","6","0.0","1","null","6","41.200462","16.604997"],
    [2568,"2024-04-16 23:00:00","21","molfetta","18.3","1","70.93","1","0.0","1","null","6","null","6","0.0","1","null","6","41.200462","16.604997"],
    [2569,"2024-04-17 00:00:00","21","molfetta","17.94","1","72.25","1","0.0","1","null","6","null","6","0.0","1","null","6","41.200462","16.604997"],
    [2570,"2024-04-17 01:00:00","21","molfetta","17.54","1","75.02","1","0.0","1","null","6","null","6","0.0","1","null","6","41.200462","16.604997"],
    [2571,"2024-04-17 02:00:00","21","molfetta","17.72","1","72.66","1","0.0","1","null","6","null","6","0.0","1","null","6","41.200462","16.604997"],
    [2572,"2024-04-17 03:00:00","21","molfetta","17.91","1","69.83","1","0.0","1","null","6","null","6","0.0","1","null","6","41.200462","16.604997"],
    [2573,"2024-04-17 04:00:00","21","molfetta","17.99","1","66.78","1","0.0","1","null","6","null","6","0.0","1","null","6","41.200462","16.604997"],
    [2574,"2024-04-17 05:00:00","21","molfetta","17.22","1","63.81","1","0.0","1","null","6","null","6","0.0","1","null","6","41.200462","16.604997"],
    [2575,"2024-04-17 06:00:00","21","molfetta","16.74","1","60.45","1","0.0","1","null","6","null","6","0.0","5","null","6","41.200462","16.604997"],
    [2576,"2024-04-17 07:00:00","21","molfetta","16.1","1","63.23","1","0.0","1","null","6","null","6","54.82","1","null","6","41.200462","16.604997"],
    [2577,"2024-04-17 08:00:00","21","molfetta","16.47","1","59.44","1","0.0","1","null","6","null","6","118.56","1","null","6","41.200462","16.604997"],
    [2578,"2024-04-17 09:00:00","21","molfetta","18.33","1","49.04","1","0.0","1","null","6","null","6","491.78","1","null","6","41.200462","16.604997"],
    [2579,"2024-04-17 10:00:00","21","molfetta","19.33","1","48.89","1","0.0","1","null","6","null","6","569.82","1","null","6","41.200462","16.604997"],
    [2580,"2024-04-17 11:00:00","21","molfetta","19.24","1","54.23","1","0.0","1","null","6","null","6","579.42","1","null","6","41.200462","16.604997"],
    [2581,"2024-04-17 12:00:00","21","molfetta","19.22","1","51.47","1","0.0","1","null","6","null","6","462.09","1","null","6","41.200462","16.604997"],
    [2582,"2024-04-17 13:00:00","21","molfetta","19.21","1","46.18","1","0.0","1","null","6","null","6","509.31","1","null","6","41.200462","16.604997"],
    [2583,"2024-04-17 14:00:00","21","molfetta","19.63","1","41.99","1","0.0","1","null","6","null","6","577.78","1","null","6","41.200462","16.604997"],
    [2584,"2024-04-17 15:00:00","21","molfetta","17.45","1","53.82","1","0.0","1","null","6","null","6","192.15","1","null","6","41.200462","16.604997"],
    [2585,"2024-04-17 16:00:00","21","molfetta","17.53","1","54.76","1","0.0","1","null","6","null","6","355.98","1","null","6","41.200462","16.604997"],
    [2586,"2024-04-17 17:00:00","21","molfetta","17.18","1","50.0","1","0.0","1","null","6","null","6","107.34","1","null","6","41.200462","16.604997"],
    [2587,"2024-04-17 18:00:00","21","molfetta","15.5","1","54.12","1","0.0","1","null","6","null","6","10.13","1","null","6","41.200462","16.604997"],
    [2588,"2024-04-17 19:00:00","21","molfetta","14.51","1","50.04","1","0.0","1","null","6","null","6","0.0","5","null","6","41.200462","16.604997"],
    [2589,"2024-04-17 20:00:00","21","molfetta","14.42","1","46.88","1","0.0","1","null","6","null","6","0.0","1","null","6","41.200462","16.604997"],
    [2590,"2024-04-17 21:00:00","21","molfetta","14.18","1","46.82","1","0.0","1","null","6","null","6","0.0","1","null","6","41.200462","16.604997"],
    [2591,"2024-04-17 22:00:00","21","molfetta","13.85","1","45.85","1","0.0","1","null","6","null","6","0.0","1","null","6","41.200462","16.604997"],
    [2592,"2024-04-17 23:00:00","21","molfetta","13.4","1","49.43","1","0.0","1","null","6","null","6","0.0","1","null","6","41.200462","16.604997"],
    [2593,"2024-04-18 00:00:00","21","molfetta","12.97","1","53.82","1","0.0","1","null","6","null","6","0.0","1","null","6","41.200462","16.604997"],
    [2594,"2024-04-18 01:00:00","21","molfetta","12.83","1","54.6","1","0.0","1","null","6","null","6","0.0","1","null","6","41.200462","16.604997"],
    [2595,"2024-04-18 02:00:00","21","molfetta","12.36","1","55.75","1","0.0","1","null","6","null","6","0.0","1","null","6","41.200462","16.604997"],
    [2596,"2024-04-18 03:00:00","21","molfetta","12.17","1","55.85","1","0.0","1","null","6","null","6","0.0","1","null","6","41.200462","16.604997"],
    [2597,"2024-04-18 04:00:00","21","molfetta","12.26","1","55.37","1","0.0","1","null","6","null","6","0.0","1","null","6","41.200462","16.604997"],
    [2598,"2024-04-18 05:00:00","21","molfetta","12.05","1","55.77","1","0.0","1","null","6","null","6","0.0","1","null","6","41.200462","16.604997"],
    [2599,"2024-04-18 06:00:00","21","molfetta","12.0","1","55.91","1","0.0","1","null","6","null","6","11.26","1","null","6","41.200462","16.604997"],
    [2600,"2024-04-18 07:00:00","21","molfetta","13.3","1","52.3","1","0.0","1","null","6","null","6","108.88","1","null","6","41.200462","16.604997"],
    [2601,"2024-04-18 08:00:00","21","molfetta","14.87","1","48.19","1","0.0","1","null","6","null","6","80.52","1","null","6","41.200462","16.604997"],
    [2602,"2024-04-18 09:00:00","21","molfetta","17.21","1","41.11","1","0.0","1","null","6","null","6","499.0","1","null","6","41.200462","16.604997"],
    [2603,"2024-04-18 10:00:00","21","molfetta","18.71","1","37.26","1","0.0","1","null","6","null","6","640.65","1","null","6","41.200462","16.604997"],
    [2604,"2024-04-18 11:00:00","21","molfetta","18.61","1","40.09","1","0.0","1","null","6","null","6","330.95","1","null","6","41.200462","16.604997"],
    [2605,"2024-04-18 12:00:00","21","molfetta","18.24","1","42.75","1","0.0","1","null","6","null","6","749.95","1","null","6","41.200462","16.604997"],
    [2606,"2024-04-18 13:00:00","21","molfetta","17.01","1","47.04","1","0.0","1","null","6","null","6","206.11","1","null","6","41.200462","16.604997"],
    [2607,"2024-04-18 14:00:00","21","molfetta","17.18","1","46.15","1","0.0","1","null","6","null","6","471.47","1","null","6","41.200462","16.604997"],
    [2608,"2024-04-18 15:00:00","21","molfetta","17.65","1","41.48","1","0.0","1","null","6","null","6","267.68","1","null","6","41.200462","16.604997"],
    [2609,"2024-04-18 16:00:00","21","molfetta","16.14","1","50.15","1","0.0","1","null","6","null","6","67.99","1","null","6","41.200462","16.604997"],
    [2610,"2024-04-18 17:00:00","21","molfetta","13.41","1","70.67","1","0.4","1","null","6","null","6","34.66","1","null","6","41.200462","16.604997"],
    [2611,"2024-04-18 18:00:00","21","molfetta","13.03","1","72.91","1","0.0","1","null","6","null","6","14.75","1","null","6","41.200462","16.604997"],
    [2612,"2024-04-18 19:00:00","21","molfetta","13.54","1","70.59","1","0.0","1","null","6","null","6","0.0","5","null","6","41.200462","16.604997"],
    [2613,"2024-04-18 20:00:00","21","molfetta","13.43","1","67.84","1","0.0","1","null","6","null","6","0.0","1","null","6","41.200462","16.604997"],
    [2614,"2024-04-18 21:00:00","21","molfetta","13.31","1","68.84","1","0.0","1","null","6","null","6","0.0","1","null","6","41.200462","16.604997"],
    [2615,"2024-04-18 22:00:00","21","molfetta","13.08","1","69.44","1","0.0","1","null","6","null","6","0.0","1","null","6","41.200462","16.604997"],
    [2616,"2024-04-18 23:00:00","21","molfetta","12.42","1","74.21","1","0.0","1","null","6","null","6","0.0","1","null","6","41.200462","16.604997"],
    [2617,"2024-04-19 00:00:00","21","molfetta","11.89","1","77.97","1","0.0","1","null","6","null","6","0.0","1","null","6","41.200462","16.604997"],
    [2618,"2024-04-19 01:00:00","21","molfetta","11.6","1","80.18","1","0.0","1","null","6","null","6","0.0","1","null","6","41.200462","16.604997"],
    [2619,"2024-04-19 02:00:00","21","molfetta","11.01","1","81.38","1","0.0","1","null","6","null","6","0.0","1","null","6","41.200462","16.604997"],
    [2620,"2024-04-19 03:00:00","21","molfetta","11.22","1","79.3","1","0.0","1","null","6","null","6","0.0","1","null","6","41.200462","16.604997"],
    [2621,"2024-04-19 04:00:00","21","molfetta","11.0","1","79.9","1","0.0","1","null","6","null","6","0.0","1","null","6","41.200462","16.604997"],
    [2622,"2024-04-19 05:00:00","21","molfetta","10.83","1","82.54","1","0.0","1","null","6","null","6","0.0","1","null","6","41.200462","16.604997"],
    [2623,"2024-04-19 06:00:00","21","molfetta","10.82","1","83.9","1","0.0","1","null","6","null","6","0.0","5","null","6","41.200462","16.604997"],
    [2624,"2024-04-19 07:00:00","21","molfetta","11.27","1","86.21","1","2.4","1","null","6","null","6","0.0","5","null","6","41.200462","16.604997"],
    [2625,"2024-04-19 08:00:00","21","molfetta","10.53","1","91.85","1","1.4","1","null","6","null","6","17.74","1","null","6","41.200462","16.604997"],
    [2626,"2024-04-19 09:00:00","21","molfetta","10.21","1","94.03","1","0.6","1","null","6","null","6","66.63","1","null","6","41.200462","16.604997"],
    [2627,"2024-04-19 10:00:00","21","molfetta","10.44","1","93.16","1","0.2","1","null","6","null","6","188.97","1","null","6","41.200462","16.604997"],
    [2628,"2024-04-19 11:00:00","21","molfetta","11.32","1","91.33","1","0.0","1","null","6","null","6","185.09","1","null","6","41.200462","16.604997"],
    [2629,"2024-04-19 12:00:00","21","molfetta","11.43","1","86.23","1","0.8","1","null","6","null","6","186.3","1","null","6","41.200462","16.604997"],
    [2630,"2024-04-19 13:00:00","21","molfetta","11.83","1","74.91","1","0.0","1","null","6","null","6","207.14","1","null","6","41.200462","16.604997"],
    [2631,"2024-04-19 14:00:00","21","molfetta","13.52","1","70.93","1","0.0","1","null","6","null","6","300.45","1","null","6","41.200462","16.604997"],
    [2632,"2024-04-19 15:00:00","21","molfetta","13.46","1","69.39","1","0.0","1","null","6","null","6","171.12","1","null","6","41.200462","16.604997"],
    [2633,"2024-04-19 16:00:00","21","molfetta","14.62","1","63.43","1","0.0","1","null","6","null","6","293.37","1","null","6","41.200462","16.604997"],
    [2634,"2024-04-19 17:00:00","21","molfetta","15.1","1","51.67","1","0.0","1","null","6","null","6","172.32","1","null","6","41.200462","16.604997"],
    [2635,"2024-04-19 18:00:00","21","molfetta","15.08","1","46.57","1","0.0","1","null","6","null","6","48.03","1","null","6","41.200462","16.604997"],
    [2636,"2024-04-19 19:00:00","21","molfetta","14.71","1","45.96","1","0.0","1","null","6","null","6","8.97","1","null","6","41.200462","16.604997"],
    [2637,"2024-04-19 20:00:00","21","molfetta","14.36","1","43.59","1","0.0","1","null","6","null","6","0.0","1","null","6","41.200462","16.604997"],
    [2638,"2024-04-19 21:00:00","21","molfetta","13.71","1","47.3","1","0.0","1","null","6","null","6","0.0","1","null","6","41.200462","16.604997"],
    [2639,"2024-04-19 22:00:00","21","molfetta","11.58","1","55.12","1","0.0","1","null","6","null","6","0.0","1","null","6","41.200462","16.604997"],
    [2640,"2024-04-19 23:00:00","21","molfetta","11.04","1","56.58","1","0.0","1","null","6","null","6","0.0","1","null","6","41.200462","16.604997"],
    [2641,"2024-04-20 00:00:00","21","molfetta","10.69","1","59.16","1","0.0","1","null","6","null","6","0.0","1","null","6","41.200462","16.604997"],
    [2642,"2024-04-20 01:00:00","21","molfetta","10.64","1","60.03","1","0.0","1","null","6","null","6","0.0","1","null","6","41.200462","16.604997"],
    [2643,"2024-04-20 02:00:00","21","molfetta","10.23","1","62.66","1","0.0","1","null","6","null","6","0.0","1","null","6","41.200462","16.604997"],
    [2644,"2024-04-20 03:00:00","21","molfetta","10.35","1","59.89","1","0.0","1","null","6","null","6","0.0","1","null","6","41.200462","16.604997"],
    [2645,"2024-04-20 04:00:00","21","molfetta","9.99","1","58.12","1","0.0","1","null","6","null","6","0.0","1","null","6","41.200462","16.604997"],
    [2646,"2024-04-20 05:00:00","21","molfetta","9.56","1","54.86","1","0.0","1","null","6","null","6","0.0","1","null","6","41.200462","16.604997"],
    [2647,"2024-04-20 06:00:00","21","molfetta","10.11","1","51.8","1","0.0","1","null","6","null","6","16.85","1","null","6","41.200462","16.604997"],
    [2648,"2024-04-20 07:00:00","21","molfetta","12.9","1","49.81","1","0.0","1","null","6","null","6","120.54","1","null","6","41.200462","16.604997"],
    [2649,"2024-04-20 08:00:00","21","molfetta","15.1","1","43.61","1","0.0","1","null","6","null","6","81.27","1","null","6","41.200462","16.604997"],
    [2650,"2024-04-20 09:00:00","21","molfetta","17.74","1","34.26","1","0.0","1","null","6","null","6","547.19","1","null","6","41.200462","16.604997"],
    [2651,"2024-04-20 10:00:00","21","molfetta","19.23","1","30.92","1","0.0","1","null","6","null","6","630.1","1","null","6","41.200462","16.604997"],
    [2652,"2024-04-20 11:00:00","21","molfetta","19.74","1","36.3","1","0.0","1","null","6","null","6","669.13","1","null","6","41.200462","16.604997"],
    [2653,"2024-04-20 12:00:00","21","molfetta","20.37","1","38.36","1","0.0","1","null","6","null","6","909.65","1","null","6","41.200462","16.604997"],
    [2654,"2024-04-20 13:00:00","21","molfetta","19.68","1","39.77","1","0.0","1","null","6","null","6","457.83","1","null","6","41.200462","16.604997"],
    [2655,"2024-04-20 14:00:00","21","molfetta","19.73","1","44.62","1","0.0","1","null","6","null","6","475.37","1","null","6","41.200462","16.604997"],
    [2656,"2024-04-20 15:00:00","21","molfetta","19.18","1","45.1","1","0.0","1","null","6","null","6","308.56","1","null","6","41.200462","16.604997"],
    [2657,"2024-04-20 16:00:00","21","molfetta","16.77","1","53.93","1","0.2","1","null","6","null","6","50.17","1","null","6","41.200462","16.604997"],
    [2658,"2024-04-20 17:00:00","21","molfetta","13.47","1","78.72","1","2.2","1","null","6","null","6","24.28","1","null","6","41.200462","16.604997"],
    [2659,"2024-04-20 18:00:00","21","molfetta","12.78","1","84.94","1","0.2","1","null","6","null","6","27.14","1","null","6","41.200462","16.604997"],
    [2660,"2024-04-20 19:00:00","21","molfetta","12.82","1","83.68","1","0.8","1","null","6","null","6","0.0","5","null","6","41.200462","16.604997"],
    [2661,"2024-04-20 20:00:00","21","molfetta","12.5","1","90.43","1","0.2","1","null","6","null","6","0.0","1","null","6","41.200462","16.604997"],
    [2662,"2024-04-20 21:00:00","21","molfetta","12.23","1","93.17","1","0.0","1","null","6","null","6","0.0","1","null","6","41.200462","16.604997"],
    [2663,"2024-04-20 22:00:00","21","molfetta","12.07","1","94.23","1","0.0","1","null","6","null","6","0.0","1","null","6","41.200462","16.604997"],
    [2664,"2024-04-20 23:00:00","21","molfetta","11.86","1","93.48","1","0.0","1","null","6","null","6","0.0","1","null","6","41.200462","16.604997"],
    [2665,"2024-04-21 00:00:00","21","molfetta","11.73","1","93.15","1","0.0","1","null","6","null","6","0.0","1","null","6","41.200462","16.604997"],
    [2666,"2024-04-21 01:00:00","21","molfetta","11.73","1","92.29","1","0.0","1","null","6","null","6","0.0","1","null","6","41.200462","16.604997"],
    [2667,"2024-04-21 02:00:00","21","molfetta","11.56","1","90.96","1","0.0","1","null","6","null","6","0.0","5","null","6","41.200462","16.604997"],
    [2668,"2024-04-21 03:00:00","21","molfetta","10.31","1","89.32","1","0.0","1","null","6","null","6","0.0","5","null","6","41.200462","16.604997"],
    [2669,"2024-04-21 04:00:00","21","molfetta","9.98","1","84.79","1","0.0","1","null","6","null","6","0.0","5","null","6","41.200462","16.604997"],
    [2670,"2024-04-21 05:00:00","21","molfetta","9.8","1","81.28","1","0.0","1","null","6","null","6","0.0","5","null","6","41.200462","16.604997"],
    [2671,"2024-04-21 06:00:00","21","molfetta","9.65","1","77.08","1","0.0","1","null","6","null","6","16.21","1","null","6","41.200462","16.604997"],
    [2672,"2024-04-21 07:00:00","21","molfetta","10.71","1","71.01","1","0.0","1","null","6","null","6","153.88","1","null","6","41.200462","16.604997"],
    [2673,"2024-04-21 08:00:00","21","molfetta","11.45","1","65.88","1","0.0","1","null","6","null","6","188.91","1","null","6","41.200462","16.604997"],
    [2674,"2024-04-21 09:00:00","21","molfetta","12.0","1","65.82","1","0.2","1","null","6","null","6","233.11","1","null","6","41.200462","16.604997"],
    [2675,"2024-04-21 10:00:00","21","molfetta","10.66","1","83.01","1","0.2","1","null","6","null","6","133.96","1","null","6","41.200462","16.604997"],
    [2676,"2024-04-21 11:00:00","21","molfetta","12.33","1","80.24","1","0.0","1","null","6","null","6","316.05","1","null","6","41.200462","16.604997"],
    [2677,"2024-04-21 12:00:00","21","molfetta","13.05","1","75.39","1","0.0","1","null","6","null","6","252.07","1","null","6","41.200462","16.604997"],
    [2678,"2024-04-21 13:00:00","21","molfetta","14.16","1","63.12","1","0.0","1","null","6","null","6","331.33","1","null","6","41.200462","16.604997"],
    [2679,"2024-04-21 14:00:00","21","molfetta","13.8","1","62.1","1","0.0","1","null","6","null","6","214.77","1","null","6","41.200462","16.604997"],
    [2680,"2024-04-21 15:00:00","21","molfetta","15.56","1","55.7","1","0.0","1","null","6","null","6","437.46","1","null","6","41.200462","16.604997"],
    [2681,"2024-04-21 16:00:00","21","molfetta","16.85","1","53.42","1","0.0","1","null","6","null","6","412.85","1","null","6","41.200462","16.604997"],
    [2682,"2024-04-21 17:00:00","21","molfetta","14.51","1","66.58","1","0.0","1","null","6","null","6","86.38","1","null","6","41.200462","16.604997"],
    [2683,"2024-04-21 18:00:00","21","molfetta","13.97","1","70.21","1","0.0","1","null","6","null","6","53.38","1","null","6","41.200462","16.604997"],
    [2684,"2024-04-21 19:00:00","21","molfetta","13.54","1","66.24","1","0.0","1","null","6","null","6","11.42","1","null","6","41.200462","16.604997"],
    [2685,"2024-04-21 20:00:00","21","molfetta","13.23","1","64.38","1","0.0","1","null","6","null","6","0.0","1","null","6","41.200462","16.604997"],
    [2686,"2024-04-21 21:00:00","21","molfetta","12.34","1","69.25","1","0.0","1","null","6","null","6","0.0","1","null","6","41.200462","16.604997"],
    [2687,"2024-04-21 22:00:00","21","molfetta","11.06","1","72.26","1","0.0","1","null","6","null","6","0.0","1","null","6","41.200462","16.604997"],
    [2688,"2024-04-21 23:00:00","21","molfetta","10.14","1","77.15","1","0.0","1","null","6","null","6","0.0","1","null","6","41.200462","16.604997"],
    [2689,"2024-04-22 00:00:00","21","molfetta","9.68","1","78.37","1","0.0","1","null","6","null","6","0.0","1","null","6","41.200462","16.604997"],
    [2690,"2024-04-22 01:00:00","21","molfetta","9.12","1","78.2","1","0.0","1","null","6","null","6","0.0","1","null","6","41.200462","16.604997"],
    [2691,"2024-04-22 02:00:00","21","molfetta","9.02","1","76.45","1","0.0","1","null","6","null","6","0.0","1","null","6","41.200462","16.604997"],
    [2692,"2024-04-22 03:00:00","21","molfetta","8.79","1","76.94","1","0.0","1","null","6","null","6","0.0","1","null","6","41.200462","16.604997"],
    [2693,"2024-04-22 04:00:00","21","molfetta","8.76","1","77.28","1","0.0","1","null","6","null","6","0.0","1","null","6","41.200462","16.604997"],
    [2694,"2024-04-22 05:00:00","21","molfetta","8.62","1","77.4","1","0.0","1","null","6","null","6","0.0","1","null","6","41.200462","16.604997"],
    [2695,"2024-04-22 06:00:00","21","molfetta","8.65","1","76.93","1","0.0","1","null","6","null","6","13.52","1","null","6","41.200462","16.604997"],
    [2696,"2024-04-22 07:00:00","21","molfetta","10.03","1","73.24","1","0.0","1","null","6","null","6","97.78","1","null","6","41.200462","16.604997"],
    [2697,"2024-04-22 08:00:00","21","molfetta","13.01","1","63.18","1","0.0","1","null","6","null","6","136.86","1","null","6","41.200462","16.604997"],
    [2698,"2024-04-22 09:00:00","21","molfetta","16.56","1","47.89","1","0.0","1","null","6","null","6","508.08","1","null","6","41.200462","16.604997"],
    [2699,"2024-04-22 10:00:00","21","molfetta","18.93","1","38.99","1","0.0","1","null","6","null","6","582.97","1","null","6","41.200462","16.604997"],
    [2700,"2024-04-22 11:00:00","21","molfetta","19.66","1","38.02","1","0.0","1","null","6","null","6","672.63","1","null","6","41.200462","16.604997"],
    [2701,"2024-04-22 12:00:00","21","molfetta","20.1","1","47.62","1","0.0","1","null","6","null","6","679.84","1","null","6","41.200462","16.604997"],
    [2702,"2024-04-22 13:00:00","21","molfetta","19.28","1","50.06","1","0.0","1","null","6","null","6","580.65","1","null","6","41.200462","16.604997"],
    [2703,"2024-04-22 14:00:00","21","molfetta","19.33","1","51.0","1","0.0","1","null","6","null","6","599.56","1","null","6","41.200462","16.604997"],
    [2704,"2024-04-22 15:00:00","21","molfetta","20.05","1","51.19","1","0.0","1","null","6","null","6","664.81","1","null","6","41.200462","16.604997"],
    [2705,"2024-04-22 16:00:00","21","molfetta","19.95","1","52.22","1","0.0","1","null","6","null","6","520.88","1","null","6","41.200462","16.604997"],
    [2706,"2024-04-22 17:00:00","21","molfetta","18.38","1","55.08","1","0.0","1","null","6","null","6","243.93","1","null","6","41.200462","16.604997"],
    [2707,"2024-04-22 18:00:00","21","molfetta","16.73","1","62.7","1","0.0","1","null","6","null","6","72.46","1","null","6","41.200462","16.604997"],
    [2708,"2024-04-22 19:00:00","21","molfetta","16.18","1","68.87","1","0.0","1","null","6","null","6","19.73","1","null","6","41.200462","16.604997"],
    [2709,"2024-04-22 20:00:00","21","molfetta","15.73","1","68.41","1","0.0","1","null","6","null","6","0.0","1","null","6","41.200462","16.604997"],
    [2710,"2024-04-22 21:00:00","21","molfetta","15.16","1","69.43","1","0.0","1","null","6","null","6","0.0","1","null","6","41.200462","16.604997"],
    [2711,"2024-04-22 22:00:00","21","molfetta","14.67","1","67.05","1","0.0","1","null","6","null","6","0.0","1","null","6","41.200462","16.604997"],
    [2712,"2024-04-22 23:00:00","21","molfetta","14.46","1","67.29","1","0.0","1","null","6","null","6","0.0","1","null","6","41.200462","16.604997"],
    [2713,"2024-04-23 00:00:00","21","molfetta","13.98","1","69.53","1","0.0","1","null","6","null","6","0.0","1","null","6","41.200462","16.604997"],
    [2714,"2024-04-23 01:00:00","21","molfetta","12.93","1","69.99","1","0.0","1","null","6","null","6","0.0","1","null","6","41.200462","16.604997"],
    [2715,"2024-04-23 02:00:00","21","molfetta","12.27","1","68.45","1","0.0","1","null","6","null","6","0.0","1","null","6","41.200462","16.604997"],
    [2716,"2024-04-23 03:00:00","21","molfetta","11.84","1","66.42","1","0.0","1","null","6","null","6","0.0","1","null","6","41.200462","16.604997"],
    [2717,"2024-04-23 04:00:00","21","molfetta","11.54","1","63.45","1","0.0","1","null","6","null","6","0.0","1","null","6","41.200462","16.604997"],
    [2718,"2024-04-23 05:00:00","21","molfetta","11.75","1","63.57","1","0.0","1","null","6","null","6","0.0","1","null","6","41.200462","16.604997"],
    [2719,"2024-04-23 06:00:00","21","molfetta","11.94","1","62.55","1","0.0","1","null","6","null","6","19.9","1","null","6","41.200462","16.604997"],
    [2720,"2024-04-23 07:00:00","21","molfetta","12.81","1","61.94","1","0.0","1","null","6","null","6","117.64","1","null","6","41.200462","16.604997"],
    [2721,"2024-04-23 08:00:00","21","molfetta","15.08","1","54.14","1","0.0","1","null","6","null","6","163.8","1","null","6","41.200462","16.604997"],
    [2722,"2024-04-23 09:00:00","21","molfetta","18.17","1","51.37","1","0.0","1","null","6","null","6","487.54","1","null","6","41.200462","16.604997"],
    [2723,"2024-04-23 10:00:00","21","molfetta","20.14","1","41.94","1","0.0","1","null","6","null","6","475.41","1","null","6","41.200462","16.604997"],
    [2724,"2024-04-23 11:00:00","21","molfetta","19.29","1","51.25","1","0.0","1","null","6","null","6","591.46","1","null","6","41.200462","16.604997"],
    [2725,"2024-04-23 12:00:00","21","molfetta","19.32","1","50.79","1","0.0","1","null","6","null","6","568.24","1","null","6","41.200462","16.604997"],
    [2726,"2024-04-23 13:00:00","21","molfetta","20.17","1","45.91","1","0.0","1","null","6","null","6","912.29","1","null","6","41.200462","16.604997"],
    [2727,"2024-04-23 14:00:00","21","molfetta","21.07","1","51.67","1","0.0","1","null","6","null","6","860.24","1","null","6","41.200462","16.604997"],
    [2728,"2024-04-23 15:00:00","21","molfetta","21.22","1","50.02","1","0.0","1","null","6","null","6","716.11","1","null","6","41.200462","16.604997"],
    [2729,"2024-04-23 16:00:00","21","molfetta","19.91","1","54.17","1","0.0","1","null","6","null","6","330.0","1","null","6","41.200462","16.604997"],
    [2730,"2024-04-23 17:00:00","21","molfetta","18.54","1","57.54","1","0.0","1","null","6","null","6","165.03","1","null","6","41.200462","16.604997"],
    [2731,"2024-04-23 18:00:00","21","molfetta","17.9","1","57.9","1","0.0","1","null","6","null","6","70.33","1","null","6","41.200462","16.604997"],
    [2732,"2024-04-23 19:00:00","21","molfetta","17.8","1","50.79","1","0.0","1","null","6","null","6","18.62","1","null","6","41.200462","16.604997"],
    [2733,"2024-04-23 20:00:00","21","molfetta","16.84","1","34.35","1","0.0","1","null","6","null","6","0.0","1","null","6","41.200462","16.604997"],
    [2734,"2024-04-23 21:00:00","21","molfetta","15.36","1","37.27","1","0.0","1","null","6","null","6","0.0","1","null","6","41.200462","16.604997"],
    [2735,"2024-04-23 22:00:00","21","molfetta","14.34","1","43.45","1","0.0","1","null","6","null","6","0.0","1","null","6","41.200462","16.604997"],
    [2736,"2024-04-23 23:00:00","21","molfetta","13.62","1","45.02","1","0.0","1","null","6","null","6","0.0","1","null","6","41.200462","16.604997"],
    [2737,"2024-04-24 00:00:00","21","molfetta","13.25","1","44.28","1","0.0","1","null","6","null","6","0.0","1","null","6","41.200462","16.604997"],
    [2738,"2024-04-24 01:00:00","21","molfetta","12.59","1","48.2","1","0.0","1","null","6","null","6","0.0","1","null","6","41.200462","16.604997"],
    [2739,"2024-04-24 02:00:00","21","molfetta","12.21","1","49.64","1","0.0","1","null","6","null","6","0.0","1","null","6","41.200462","16.604997"],
    [2740,"2024-04-24 03:00:00","21","molfetta","12.04","1","44.53","1","0.0","1","null","6","null","6","0.0","1","null","6","41.200462","16.604997"],
    [2741,"2024-04-24 04:00:00","21","molfetta","11.37","1","49.73","1","0.0","1","null","6","null","6","0.0","1","null","6","41.200462","16.604997"],
    [2742,"2024-04-24 05:00:00","21","molfetta","9.82","1","58.33","1","0.0","1","null","6","null","6","0.0","1","null","6","41.200462","16.604997"],
    [2743,"2024-04-24 06:00:00","21","molfetta","9.37","1","61.18","1","0.0","1","null","6","null","6","24.51","1","null","6","41.200462","16.604997"],
    [2744,"2024-04-24 07:00:00","21","molfetta","12.48","1","50.44","1","0.0","1","null","6","null","6","134.36","1","null","6","41.200462","16.604997"],
    [2745,"2024-04-24 08:00:00","21","molfetta","13.52","1","49.11","1","0.0","1","null","6","null","6","138.35","1","null","6","41.200462","16.604997"],
    [2746,"2024-04-24 09:00:00","21","molfetta","15.7","1","46.25","1","0.0","1","null","6","null","6","342.64","1","null","6","41.200462","16.604997"],
    [2747,"2024-04-24 10:00:00","21","molfetta","17.62","1","41.7","1","0.0","1","null","6","null","6","383.16","1","null","6","41.200462","16.604997"],
    [2748,"2024-04-24 11:00:00","21","molfetta","12.75","1","72.92","1","0.4","1","null","6","null","6","268.71","1","null","6","41.200462","16.604997"],
    [2749,"2024-04-24 12:00:00","21","molfetta","13.57","1","75.81","1","0.0","1","null","6","null","6","377.12","1","null","6","41.200462","16.604997"],
    [2750,"2024-04-24 13:00:00","21","molfetta","16.5","1","65.57","1","0.0","1","null","6","null","6","510.19","1","null","6","41.200462","16.604997"],
    [2751,"2024-04-24 14:00:00","21","molfetta","16.67","1","62.0","1","0.0","1","null","6","null","6","465.24","1","null","6","41.200462","16.604997"],
    [2752,"2024-04-24 15:00:00","21","molfetta","17.28","1","57.08","1","0.0","1","null","6","null","6","630.37","1","null","6","41.200462","16.604997"],
    [2753,"2024-04-24 16:00:00","21","molfetta","18.4","1","51.39","1","0.0","1","null","6","null","6","557.08","1","null","6","41.200462","16.604997"],
    [2754,"2024-04-24 17:00:00","21","molfetta","18.12","1","50.92","1","0.0","1","null","6","null","6","277.64","1","null","6","41.200462","16.604997"],
    [2755,"2024-04-24 18:00:00","21","molfetta","16.14","1","58.23","1","0.0","1","null","6","null","6","98.84","1","null","6","41.200462","16.604997"],
    [2756,"2024-04-24 19:00:00","21","molfetta","15.07","1","62.9","1","0.0","1","null","6","null","6","16.02","1","null","6","41.200462","16.604997"],
    [2757,"2024-04-24 20:00:00","21","molfetta","14.54","1","66.52","1","0.0","1","null","6","null","6","0.0","1","null","6","41.200462","16.604997"],
    [2758,"2024-04-24 21:00:00","21","molfetta","13.94","1","68.86","1","0.0","1","null","6","null","6","0.0","1","null","6","41.200462","16.604997"],
    [2759,"2024-04-24 22:00:00","21","molfetta","13.31","1","64.28","1","0.0","1","null","6","null","6","0.0","1","null","6","41.200462","16.604997"],
    [2760,"2024-04-24 23:00:00","21","molfetta","12.61","1","55.16","1","0.0","1","null","6","null","6","0.0","1","null","6","41.200462","16.604997"],
    [2761,"2024-04-25 00:00:00","21","molfetta","11.51","1","59.45","1","0.0","1","null","6","null","6","0.0","1","null","6","41.200462","16.604997"],
    [2762,"2024-04-25 01:00:00","21","molfetta","10.47","1","65.2","1","0.0","1","null","6","null","6","0.0","1","null","6","41.200462","16.604997"],
    [2763,"2024-04-25 02:00:00","21","molfetta","9.67","1","67.79","1","0.0","1","null","6","null","6","0.0","1","null","6","41.200462","16.604997"],
    [2764,"2024-04-25 03:00:00","21","molfetta","9.96","1","60.1","1","0.0","1","null","6","null","6","0.0","1","null","6","41.200462","16.604997"],
    [2765,"2024-04-25 04:00:00","21","molfetta","10.12","1","58.16","1","0.0","1","null","6","null","6","0.0","1","null","6","41.200462","16.604997"],
    [2766,"2024-04-25 05:00:00","21","molfetta","10.06","1","59.04","1","0.0","1","null","6","null","6","0.0","1","null","6","41.200462","16.604997"],
    [2767,"2024-04-25 06:00:00","21","molfetta","10.54","1","59.63","1","0.0","1","null","6","null","6","21.41","1","null","6","41.200462","16.604997"],
    [2768,"2024-04-25 07:00:00","21","molfetta","12.49","1","53.79","1","0.0","1","null","6","null","6","186.9","1","null","6","41.200462","16.604997"],
    [2769,"2024-04-25 08:00:00","21","molfetta","13.71","1","48.82","1","0.0","1","null","6","null","6","148.64","1","null","6","41.200462","16.604997"],
    [2770,"2024-04-25 09:00:00","21","molfetta","15.69","1","41.96","1","0.0","1","null","6","null","6","638.74","1","null","6","41.200462","16.604997"],
    [2771,"2024-04-25 10:00:00","21","molfetta","17.67","1","37.07","1","0.0","1","null","6","null","6","789.22","1","null","6","41.200462","16.604997"],
    [2772,"2024-04-25 11:00:00","21","molfetta","18.99","1","41.61","1","0.0","1","null","6","null","6","854.33","1","null","6","41.200462","16.604997"],
    [2773,"2024-04-25 12:00:00","21","molfetta","18.83","1","44.88","1","0.0","1","null","6","null","6","939.9","1","null","6","41.200462","16.604997"],
    [2774,"2024-04-25 13:00:00","21","molfetta","19.22","1","46.79","1","0.0","1","null","6","null","6","933.94","1","null","6","41.200462","16.604997"],
    [2775,"2024-04-25 14:00:00","21","molfetta","19.8","1","45.42","1","0.0","1","null","6","null","6","869.94","1","null","6","41.200462","16.604997"],
    [2776,"2024-04-25 15:00:00","21","molfetta","18.32","1","49.34","1","0.0","1","null","6","null","6","425.27","1","null","6","41.200462","16.604997"],
    [2777,"2024-04-25 16:00:00","21","molfetta","17.84","1","50.11","1","0.0","1","null","6","null","6","290.39","1","null","6","41.200462","16.604997"],
    [2778,"2024-04-25 17:00:00","21","molfetta","17.21","1","52.55","1","0.0","1","null","6","null","6","132.2","1","null","6","41.200462","16.604997"],
    [2779,"2024-04-25 18:00:00","21","molfetta","16.71","1","54.02","1","0.0","1","null","6","null","6","89.0","1","null","6","41.200462","16.604997"],
    [2780,"2024-04-25 19:00:00","21","molfetta","15.66","1","57.97","1","0.0","1","null","6","null","6","12.53","1","null","6","41.200462","16.604997"],
    [2781,"2024-04-25 20:00:00","21","molfetta","15.04","1","60.74","1","0.0","1","null","6","null","6","0.0","1","null","6","41.200462","16.604997"],
    [2782,"2024-04-25 21:00:00","21","molfetta","14.66","1","62.33","1","0.0","1","null","6","null","6","0.0","1","null","6","41.200462","16.604997"],
    [2783,"2024-04-25 22:00:00","21","molfetta","14.06","1","63.92","1","0.0","1","null","6","null","6","0.0","1","null","6","41.200462","16.604997"],
    [2784,"2024-04-25 23:00:00","21","molfetta","14.26","1","60.42","1","0.0","1","null","6","null","6","0.0","1","null","6","41.200462","16.604997"],
    [2785,"2024-04-26 00:00:00","21","molfetta","14.22","1","59.57","1","0.0","1","null","6","null","6","0.0","1","null","6","41.200462","16.604997"],
    [2786,"2024-04-26 01:00:00","21","molfetta","13.35","1","61.28","1","0.0","1","null","6","null","6","0.0","1","null","6","41.200462","16.604997"],
    [2787,"2024-04-26 02:00:00","21","molfetta","12.84","1","61.44","1","0.0","1","null","6","null","6","0.0","1","null","6","41.200462","16.604997"],
    [2788,"2024-04-26 03:00:00","21","molfetta","12.6","1","61.75","1","0.0","1","null","6","null","6","0.0","1","null","6","41.200462","16.604997"],
    [2789,"2024-04-26 04:00:00","21","molfetta","12.31","1","60.14","1","0.0","1","null","6","null","6","0.0","1","null","6","41.200462","16.604997"],
    [2790,"2024-04-26 05:00:00","21","molfetta","11.38","1","61.12","1","0.0","1","null","6","null","6","0.0","1","null","6","41.200462","16.604997"],
    [2791,"2024-04-26 06:00:00","21","molfetta","10.86","1","63.22","1","0.0","1","null","6","null","6","31.07","1","null","6","41.200462","16.604997"],
    [2792,"2024-04-26 07:00:00","21","molfetta","13.18","1","56.11","1","0.0","1","null","6","null","6","221.45","1","null","6","41.200462","16.604997"],
    [2793,"2024-04-26 08:00:00","21","molfetta","16.49","1","41.65","1","0.0","1","null","6","null","6","238.13","1","null","6","41.200462","16.604997"],
    [2794,"2024-04-26 09:00:00","21","molfetta","17.56","1","38.39","1","0.0","1","null","6","null","6","236.77","1","null","6","41.200462","16.604997"],
    [2795,"2024-04-26 10:00:00","21","molfetta","18.92","1","35.92","1","0.0","1","null","6","null","6","557.26","1","null","6","41.200462","16.604997"],
    [2796,"2024-04-26 11:00:00","21","molfetta","20.17","1","33.99","1","0.0","1","null","6","null","6","404.88","1","null","6","41.200462","16.604997"],
    [2797,"2024-04-26 12:00:00","21","molfetta","20.52","1","32.1","1","0.0","1","null","6","null","6","410.03","1","null","6","41.200462","16.604997"],
    [2798,"2024-04-26 13:00:00","21","molfetta","21.18","1","36.88","1","0.0","1","null","6","null","6","533.14","1","null","6","41.200462","16.604997"],
    [2799,"2024-04-26 14:00:00","21","molfetta","20.57","1","45.22","1","0.0","1","null","6","null","6","479.72","1","null","6","41.200462","16.604997"],
    [2800,"2024-04-26 15:00:00","21","molfetta","20.24","1","45.67","1","0.0","1","null","6","null","6","402.55","1","null","6","41.200462","16.604997"],
    [2801,"2024-04-26 16:00:00","21","molfetta","18.73","1","55.36","1","0.0","1","null","6","null","6","197.89","1","null","6","41.200462","16.604997"],
    [2802,"2024-04-26 17:00:00","21","molfetta","17.85","1","64.09","1","0.0","1","null","6","null","6","116.33","1","null","6","41.200462","16.604997"],
    [2803,"2024-04-26 18:00:00","21","molfetta","18.0","1","65.96","1","0.0","1","null","6","null","6","107.2","1","null","6","41.200462","16.604997"],
    [2804,"2024-04-26 19:00:00","21","molfetta","17.5","1","70.84","1","0.0","1","null","6","null","6","29.05","1","null","6","41.200462","16.604997"],
    [2805,"2024-04-26 20:00:00","21","molfetta","16.28","1","69.21","1","0.0","1","null","6","null","6","0.0","5","null","6","41.200462","16.604997"],
    [2806,"2024-04-26 21:00:00","21","molfetta","15.22","1","72.19","1","0.0","1","null","6","null","6","0.0","1","null","6","41.200462","16.604997"],
    [2807,"2024-04-26 22:00:00","21","molfetta","14.58","1","73.51","1","0.0","1","null","6","null","6","0.0","1","null","6","41.200462","16.604997"],
    [2808,"2024-04-26 23:00:00","21","molfetta","14.32","1","73.63","1","0.0","1","null","6","null","6","0.0","1","null","6","41.200462","16.604997"],
    [2809,"2024-04-27 00:00:00","21","molfetta","14.71","1","76.03","1","0.0","1","null","6","null","6","0.0","1","null","6","41.200462","16.604997"],
    [2810,"2024-04-27 01:00:00","21","molfetta","14.83","1","75.83","1","0.0","1","null","6","null","6","0.0","1","null","6","41.200462","16.604997"],
    [2811,"2024-04-27 02:00:00","21","molfetta","14.44","1","77.79","1","0.0","1","null","6","null","6","0.0","1","null","6","41.200462","16.604997"],
    [2812,"2024-04-27 03:00:00","21","molfetta","13.61","1","81.14","1","0.0","1","null","6","null","6","0.0","1","null","6","41.200462","16.604997"],
    [2813,"2024-04-27 04:00:00","21","molfetta","12.87","1","81.08","1","0.0","1","null","6","null","6","0.0","1","null","6","41.200462","16.604997"],
    [2814,"2024-04-27 05:00:00","21","molfetta","12.36","1","81.42","1","0.0","1","null","6","null","6","0.0","1","null","6","41.200462","16.604997"],
    [2815,"2024-04-27 06:00:00","21","molfetta","11.75","1","81.79","1","0.0","1","null","6","null","6","23.05","1","null","6","41.200462","16.604997"],
    [2816,"2024-04-27 07:00:00","21","molfetta","13.59","1","76.93","1","0.0","1","null","6","null","6","199.2","1","null","6","41.200462","16.604997"],
    [2817,"2024-04-27 08:00:00","21","molfetta","16.64","1","65.44","1","0.0","1","null","6","null","6","173.88","1","null","6","41.200462","16.604997"],
    [2818,"2024-04-27 09:00:00","21","molfetta","19.23","1","59.2","1","0.0","1","null","6","null","6","611.05","1","null","6","41.200462","16.604997"],
    [2819,"2024-04-27 10:00:00","21","molfetta","20.04","1","59.72","1","0.0","1","null","6","null","6","763.97","1","null","6","41.200462","16.604997"],
    [2820,"2024-04-27 11:00:00","21","molfetta","20.29","1","63.07","1","0.0","1","null","6","null","6","854.0","1","null","6","41.200462","16.604997"],
    [2821,"2024-04-27 12:00:00","21","molfetta","21.29","1","59.68","1","0.0","1","null","6","null","6","916.76","1","null","6","41.200462","16.604997"],
    [2822,"2024-04-27 13:00:00","21","molfetta","22.31","1","57.32","1","0.0","1","null","6","null","6","910.69","1","null","6","41.200462","16.604997"],
    [2823,"2024-04-27 14:00:00","21","molfetta","23.09","1","52.61","1","0.0","1","null","6","null","6","845.5","1","null","6","41.200462","16.604997"],
    [2824,"2024-04-27 15:00:00","21","molfetta","23.62","1","49.96","1","0.0","1","null","6","null","6","739.25","1","null","6","41.200462","16.604997"],
    [2825,"2024-04-27 16:00:00","21","molfetta","23.29","1","50.37","1","0.0","1","null","6","null","6","584.79","1","null","6","41.200462","16.604997"],
    [2826,"2024-04-27 17:00:00","21","molfetta","22.6","1","51.12","1","0.0","1","null","6","null","6","384.73","1","null","6","41.200462","16.604997"],
    [2827,"2024-04-27 18:00:00","21","molfetta","19.93","1","61.18","1","0.0","1","null","6","null","6","94.1","1","null","6","41.200462","16.604997"],
    [2828,"2024-04-27 19:00:00","21","molfetta","18.07","1","69.58","1","0.0","1","null","6","null","6","13.73","1","null","6","41.200462","16.604997"],
    [2829,"2024-04-27 20:00:00","21","molfetta","17.23","1","73.43","1","0.0","1","null","6","null","6","0.0","1","null","6","41.200462","16.604997"],
    [2830,"2024-04-27 21:00:00","21","molfetta","16.51","1","76.65","1","0.0","1","null","6","null","6","0.0","1","null","6","41.200462","16.604997"],
    [2831,"2024-04-27 22:00:00","21","molfetta","15.73","1","74.83","1","0.0","1","null","6","null","6","0.0","1","null","6","41.200462","16.604997"],
    [2832,"2024-04-27 23:00:00","21","molfetta","15.26","1","69.39","1","0.0","1","null","6","null","6","0.0","1","null","6","41.200462","16.604997"],
    [2833,"2024-04-28 00:00:00","21","molfetta","14.92","1","68.59","1","0.0","1","null","6","null","6","0.0","1","null","6","41.200462","16.604997"],
    [2834,"2024-04-28 01:00:00","21","molfetta","14.63","1","66.71","1","0.0","1","null","6","null","6","0.0","1","null","6","41.200462","16.604997"],
    [2835,"2024-04-28 02:00:00","21","molfetta","13.64","1","65.96","1","0.0","1","null","6","null","6","0.0","1","null","6","41.200462","16.604997"],
    [2836,"2024-04-28 03:00:00","21","molfetta","13.31","1","64.39","1","0.0","1","null","6","null","6","0.0","1","null","6","41.200462","16.604997"],
    [2837,"2024-04-28 04:00:00","21","molfetta","13.64","1","62.49","1","0.0","1","null","6","null","6","0.0","1","null","6","41.200462","16.604997"],
    [2838,"2024-04-28 05:00:00","21","molfetta","13.94","1","58.48","1","0.0","1","null","6","null","6","0.0","1","null","6","41.200462","16.604997"],
    [2839,"2024-04-28 06:00:00","21","molfetta","13.13","1","61.74","1","0.0","1","null","6","null","6","26.64","1","null","6","41.200462","16.604997"],
    [2840,"2024-04-28 07:00:00","21","molfetta","15.31","1","58.2","1","0.0","1","null","6","null","6","216.74","1","null","6","41.200462","16.604997"],
    [2841,"2024-04-28 08:00:00","21","molfetta","17.57","1","57.17","1","0.0","1","null","6","null","6","184.93","1","null","6","41.200462","16.604997"],
    [2842,"2024-04-28 09:00:00","21","molfetta","19.05","1","64.35","1","0.0","1","null","6","null","6","629.31","1","null","6","41.200462","16.604997"],
    [2843,"2024-04-28 10:00:00","21","molfetta","21.13","1","59.14","1","0.0","1","null","6","null","6","781.17","1","null","6","41.200462","16.604997"],
    [2844,"2024-04-28 11:00:00","21","molfetta","21.53","1","60.07","1","0.0","1","null","6","null","6","882.81","1","null","6","41.200462","16.604997"],
    [2845,"2024-04-28 12:00:00","21","molfetta","22.42","1","52.54","1","0.0","1","null","6","null","6","943.67","1","null","6","41.200462","16.604997"],
    [2846,"2024-04-28 13:00:00","21","molfetta","23.63","1","45.95","1","0.0","1","null","6","null","6","929.22","1","null","6","41.200462","16.604997"],
    [2847,"2024-04-28 14:00:00","21","molfetta","24.18","1","51.07","1","0.0","1","null","6","null","6","867.69","1","null","6","41.200462","16.604997"],
    [2848,"2024-04-28 15:00:00","21","molfetta","24.25","1","54.22","1","0.0","1","null","6","null","6","760.41","1","null","6","41.200462","16.604997"],
    [2849,"2024-04-28 16:00:00","21","molfetta","24.24","1","51.19","1","0.0","1","null","6","null","6","610.37","1","null","6","41.200462","16.604997"],
    [2850,"2024-04-28 17:00:00","21","molfetta","23.68","1","55.55","1","0.0","1","null","6","null","6","413.29","1","null","6","41.200462","16.604997"],
    [2851,"2024-04-28 18:00:00","21","molfetta","20.85","1","64.88","1","0.0","1","null","6","null","6","113.58","1","null","6","41.200462","16.604997"],
    [2852,"2024-04-28 19:00:00","21","molfetta","18.67","1","72.96","1","0.0","1","null","6","null","6","12.55","1","null","6","41.200462","16.604997"],
    [2853,"2024-04-28 20:00:00","21","molfetta","17.73","1","77.26","1","0.0","1","null","6","null","6","0.0","1","null","6","41.200462","16.604997"],
    [2854,"2024-04-28 21:00:00","21","molfetta","17.15","1","75.9","1","0.0","1","null","6","null","6","0.0","1","null","6","41.200462","16.604997"],
    [2855,"2024-04-28 22:00:00","21","molfetta","16.54","1","73.64","1","0.0","1","null","6","null","6","0.0","1","null","6","41.200462","16.604997"],
    [2856,"2024-04-28 23:00:00","21","molfetta","15.99","1","72.41","1","0.0","1","null","6","null","6","0.0","1","null","6","41.200462","16.604997"],
    [2857,"2024-04-29 00:00:00","21","molfetta","15.13","1","70.03","1","0.0","1","null","6","null","6","0.0","1","null","6","41.200462","16.604997"],
    [2858,"2024-04-29 01:00:00","21","molfetta","14.72","1","67.48","1","0.0","1","null","6","null","6","0.0","1","null","6","41.200462","16.604997"],
    [2859,"2024-04-29 02:00:00","21","molfetta","14.51","1","67.24","1","0.0","1","null","6","null","6","0.0","1","null","6","41.200462","16.604997"],
    [2860,"2024-04-29 03:00:00","21","molfetta","14.02","1","70.75","1","0.0","1","null","6","null","6","0.0","1","null","6","41.200462","16.604997"],
    [2861,"2024-04-29 04:00:00","21","molfetta","13.55","1","71.84","1","0.0","1","null","6","null","6","0.0","1","null","6","41.200462","16.604997"],
    [2862,"2024-04-29 05:00:00","21","molfetta","14.18","1","68.11","1","0.0","1","null","6","null","6","0.0","1","null","6","41.200462","16.604997"],
    [2863,"2024-04-29 06:00:00","21","molfetta","14.3","1","70.87","1","0.0","1","null","6","null","6","28.86","1","null","6","41.200462","16.604997"],
    [2864,"2024-04-29 07:00:00","21","molfetta","16.07","1","71.97","1","0.0","1","null","6","null","6","217.4","1","null","6","41.200462","16.604997"],
    [2865,"2024-04-29 08:00:00","21","molfetta","17.39","1","69.2","1","0.0","1","null","6","null","6","202.34","1","null","6","41.200462","16.604997"],
    [2866,"2024-04-29 09:00:00","21","molfetta","20.17","1","63.68","1","0.0","1","null","6","null","6","625.67","1","null","6","41.200462","16.604997"],
    [2867,"2024-04-29 10:00:00","21","molfetta","21.81","1","59.06","1","0.0","1","null","6","null","6","775.74","1","null","6","41.200462","16.604997"],
    [2868,"2024-04-29 11:00:00","21","molfetta","22.18","1","56.42","1","0.0","1","null","6","null","6","870.25","1","null","6","41.200462","16.604997"],
    [2869,"2024-04-29 12:00:00","21","molfetta","22.61","1","57.52","1","0.0","1","null","6","null","6","928.73","1","null","6","41.200462","16.604997"],
    [2870,"2024-04-29 13:00:00","21","molfetta","23.27","1","55.16","1","0.0","1","null","6","null","6","916.14","1","null","6","41.200462","16.604997"],
    [2871,"2024-04-29 14:00:00","21","molfetta","23.04","1","56.32","1","0.0","1","null","6","null","6","853.53","1","null","6","41.200462","16.604997"],
    [2872,"2024-04-29 15:00:00","21","molfetta","24.29","1","52.92","1","0.0","1","null","6","null","6","744.43","1","null","6","41.200462","16.604997"],
    [2873,"2024-04-29 16:00:00","21","molfetta","24.38","1","53.83","1","0.0","1","null","6","null","6","587.51","1","null","6","41.200462","16.604997"],
    [2874,"2024-04-29 17:00:00","21","molfetta","24.33","1","58.1","1","0.0","1","null","6","null","6","391.0","1","null","6","41.200462","16.604997"],
    [2875,"2024-04-29 18:00:00","21","molfetta","21.59","1","67.68","1","0.0","1","null","6","null","6","132.24","1","null","6","41.200462","16.604997"],
    [2876,"2024-04-29 19:00:00","21","molfetta","19.0","1","78.86","1","0.0","1","null","6","null","6","15.31","1","null","6","41.200462","16.604997"],
    [2877,"2024-04-29 20:00:00","21","molfetta","18.04","1","80.16","1","0.0","1","null","6","null","6","0.0","1","null","6","41.200462","16.604997"],
    [2878,"2024-04-29 21:00:00","21","molfetta","17.81","1","77.83","1","0.0","1","null","6","null","6","0.0","1","null","6","41.200462","16.604997"],
    [2879,"2024-04-29 22:00:00","21","molfetta","17.15","1","76.03","1","0.0","1","null","6","null","6","0.0","1","null","6","41.200462","16.604997"],
    [2880,"2024-04-29 23:00:00","21","molfetta","16.61","1","74.21","1","0.0","1","null","6","null","6","0.0","1","null","6","41.200462","16.604997"],
    [2881,"2024-04-30 00:00:00","21","molfetta","16.12","1","71.52","1","0.0","1","null","6","null","6","0.0","1","null","6","41.200462","16.604997"],
    [2882,"2024-04-30 01:00:00","21","molfetta","16.45","1","63.43","1","0.0","1","null","6","null","6","0.0","1","null","6","41.200462","16.604997"],
    [2883,"2024-04-30 02:00:00","21","molfetta","16.49","1","59.45","1","0.0","1","null","6","null","6","0.0","1","null","6","41.200462","16.604997"],
    [2884,"2024-04-30 03:00:00","21","molfetta","15.86","1","62.64","1","0.0","1","null","6","null","6","0.0","1","null","6","41.200462","16.604997"],
    [2885,"2024-04-30 04:00:00","21","molfetta","14.79","1","64.52","1","0.0","1","null","6","null","6","0.0","1","null","6","41.200462","16.604997"],
    [2886,"2024-04-30 05:00:00","21","molfetta","13.74","1","65.11","1","0.0","1","null","6","null","6","0.0","1","null","6","41.200462","16.604997"],
    [2887,"2024-04-30 06:00:00","21","molfetta","13.45","1","64.59","1","0.0","1","null","6","null","6","27.49","1","null","6","41.200462","16.604997"],
    [2888,"2024-04-30 07:00:00","21","molfetta","16.17","1","56.76","1","0.0","1","null","6","null","6","219.17","1","null","6","41.200462","16.604997"],
    [2889,"2024-04-30 08:00:00","21","molfetta","18.68","1","55.64","1","0.0","1","null","6","null","6","210.4","1","null","6","41.200462","16.604997"],
    [2890,"2024-04-30 09:00:00","21","molfetta","20.3","1","55.9","1","0.0","1","null","6","null","6","630.58","1","null","6","41.200462","16.604997"],
    [2891,"2024-04-30 10:00:00","21","molfetta","21.17","1","58.74","1","0.0","1","null","6","null","6","781.3","1","null","6","41.200462","16.604997"],
    [2892,"2024-04-30 11:00:00","21","molfetta","22.04","1","56.3","1","0.0","1","null","6","null","6","829.36","1","null","6","41.200462","16.604997"],
    [2893,"2024-04-30 12:00:00","21","molfetta","22.61","1","59.67","1","0.0","1","null","6","null","6","893.41","1","null","6","41.200462","16.604997"],
    [2894,"2024-04-30 13:00:00","21","molfetta","22.58","1","61.79","1","0.0","1","null","6","null","6","877.42","1","null","6","41.200462","16.604997"],
    [2895,"2024-04-30 14:00:00","21","molfetta","23.11","1","66.03","1","0.0","1","null","6","null","6","853.1","1","null","6","41.200462","16.604997"],
    [2896,"2024-04-30 15:00:00","21","molfetta","24.17","1","64.39","1","0.0","1","null","6","null","6","697.36","1","null","6","41.200462","16.604997"],
    [2897,"2024-04-30 16:00:00","21","molfetta","24.51","1","59.74","1","0.0","1","null","6","null","6","520.76","1","null","6","41.200462","16.604997"],
    [2898,"2024-04-30 17:00:00","21","molfetta","23.75","1","62.45","1","0.0","1","null","6","null","6","311.74","1","null","6","41.200462","16.604997"],
    [2899,"2024-04-30 18:00:00","21","molfetta","21.66","1","71.6","1","0.0","1","null","6","null","6","93.02","1","null","6","41.200462","16.604997"],
    [2900,"2024-04-30 19:00:00","21","molfetta","20.0","1","80.26","1","0.0","1","null","6","null","6","21.24","1","null","6","41.200462","16.604997"],
    [2901,"2024-04-30 20:00:00","21","molfetta","19.47","1","78.13","1","0.0","1","null","6","null","6","0.0","1","null","6","41.200462","16.604997"],
    [2902,"2024-04-30 21:00:00","21","molfetta","19.21","1","71.23","1","0.0","1","null","6","null","6","0.0","1","null","6","41.200462","16.604997"],
    [2903,"2024-04-30 22:00:00","21","molfetta","19.07","1","58.95","1","0.0","1","null","6","null","6","0.0","1","null","6","41.200462","16.604997"],
    [2904,"2024-04-30 23:00:00","21","molfetta","19.07","1","53.49","1","0.0","1","null","6","null","6","0.0","1","null","6","41.200462","16.604997"],
    [2905,"2024-05-01 00:00:00","21","molfetta","18.54","1","54.27","1","0.0","1","null","6","null","6","0.0","1","null","6","41.200462","16.604997"],
    [2906,"2024-05-01 01:00:00","21","molfetta","17.72","1","54.15","1","0.0","1","null","6","null","6","0.0","1","null","6","41.200462","16.604997"],
    [2907,"2024-05-01 02:00:00","21","molfetta","17.1","1","61.14","1","0.0","1","null","6","null","6","0.0","1","null","6","41.200462","16.604997"],
    [2908,"2024-05-01 03:00:00","21","molfetta","16.78","1","61.15","1","0.0","1","null","6","null","6","0.0","1","null","6","41.200462","16.604997"],
    [2909,"2024-05-01 04:00:00","21","molfetta","17.1","1","57.27","1","0.0","1","null","6","null","6","0.0","1","null","6","41.200462","16.604997"],
    [2910,"2024-05-01 05:00:00","21","molfetta","17.63","1","53.95","1","0.0","1","null","6","null","6","0.0","5","null","6","41.200462","16.604997"],
    [2911,"2024-05-01 06:00:00","21","molfetta","18.35","1","52.79","1","0.0","1","null","6","null","6","21.68","1","null","6","41.200462","16.604997"],
    [2912,"2024-05-01 07:00:00","21","molfetta","18.04","1","62.21","1","0.0","1","null","6","null","6","17.44","1","null","6","41.200462","16.604997"],
    [2913,"2024-05-01 08:00:00","21","molfetta","18.55","1","64.47","1","0.0","1","null","6","null","6","135.95","1","null","6","41.200462","16.604997"],
    [2914,"2024-05-01 09:00:00","21","molfetta","21.41","1","49.9","1","0.0","1","null","6","null","6","216.83","1","null","6","41.200462","16.604997"],
    [2915,"2024-05-01 10:00:00","21","molfetta","25.68","1","31.93","1","0.0","1","null","6","null","6","655.74","1","null","6","41.200462","16.604997"],
    [2916,"2024-05-01 11:00:00","21","molfetta","28.22","1","28.45","1","0.0","1","null","6","null","6","827.7","1","null","6","41.200462","16.604997"],
    [2917,"2024-05-01 12:00:00","21","molfetta","28.54","5","null","6","0.0","5","null","6","null","6","null","6","null","6","41.200462","16.604997"],
    [2918,"2024-05-01 13:00:00","21","molfetta","28.85","1","33.3","1","0.0","1","null","6","null","6","857.17","1","null","6","41.200462","16.604997"],
    [2919,"2024-05-01 14:00:00","21","molfetta","29.48","1","31.74","1","0.0","1","null","6","null","6","695.26","1","null","6","41.200462","16.604997"],
    [2920,"2024-05-01 15:00:00","21","molfetta","27.89","1","37.28","1","0.0","1","null","6","null","6","447.98","1","null","6","41.200462","16.604997"],
    [2921,"2024-05-01 16:00:00","21","molfetta","26.91","1","43.74","1","0.0","1","null","6","null","6","218.22","1","null","6","41.200462","16.604997"],
    [2922,"2024-05-01 17:00:00","21","molfetta","24.87","1","52.46","1","0.0","1","null","6","null","6","226.44","1","null","6","41.200462","16.604997"],
    [2923,"2024-05-01 18:00:00","21","molfetta","24.3","1","54.48","1","0.0","1","null","6","null","6","121.84","1","null","6","41.200462","16.604997"],
    [2924,"2024-05-01 19:00:00","21","molfetta","22.38","1","60.24","1","0.0","1","null","6","null","6","22.99","1","null","6","41.200462","16.604997"],
    [2925,"2024-05-01 20:00:00","21","molfetta","21.33","1","63.38","1","0.0","1","null","6","null","6","0.0","1","null","6","41.200462","16.604997"],
    [2926,"2024-05-01 21:00:00","21","molfetta","20.56","1","65.18","1","0.0","1","null","6","null","6","0.0","1","null","6","41.200462","16.604997"],
    [2927,"2024-05-01 22:00:00","21","molfetta","20.07","1","66.99","1","0.0","1","null","6","null","6","0.0","1","null","6","41.200462","16.604997"],
    [2928,"2024-05-01 23:00:00","21","molfetta","19.11","1","69.71","1","0.0","1","null","6","null","6","0.0","1","null","6","41.200462","16.604997"],
    [2929,"2024-05-02 00:00:00","21","molfetta","18.31","1","71.65","1","0.0","1","null","6","null","6","0.0","1","null","6","41.200462","16.604997"],
    [2930,"2024-05-02 01:00:00","21","molfetta","17.37","1","68.33","1","0.0","1","null","6","null","6","0.0","1","null","6","41.200462","16.604997"],
    [2931,"2024-05-02 02:00:00","21","molfetta","16.79","1","61.22","1","0.0","1","null","6","null","6","0.0","1","null","6","41.200462","16.604997"],
    [2932,"2024-05-02 03:00:00","21","molfetta","17.74","1","53.85","1","0.0","1","null","6","null","6","0.0","1","null","6","41.200462","16.604997"],
    [2933,"2024-05-02 04:00:00","21","molfetta","16.94","1","57.2","1","0.0","1","null","6","null","6","0.0","1","null","6","41.200462","16.604997"],
    [2934,"2024-05-02 05:00:00","21","molfetta","16.13","1","60.87","1","0.0","1","null","6","null","6","0.0","5","null","6","41.200462","16.604997"],
    [2935,"2024-05-02 06:00:00","21","molfetta","16.75","1","57.79","1","0.0","1","null","6","null","6","43.27","1","null","6","41.200462","16.604997"],
    [2936,"2024-05-02 07:00:00","21","molfetta","19.7","1","48.68","1","0.0","1","null","6","null","6","209.08","1","null","6","41.200462","16.604997"],
    [2937,"2024-05-02 08:00:00","21","molfetta","21.77","1","42.76","1","0.0","1","null","6","null","6","317.75","1","null","6","41.200462","16.604997"],
    [2938,"2024-05-02 09:00:00","21","molfetta","24.54","1","35.57","1","0.0","1","null","6","null","6","649.11","1","null","6","41.200462","16.604997"],
    [2939,"2024-05-02 10:00:00","21","molfetta","25.27","1","36.13","1","0.0","1","null","6","null","6","645.55","1","null","6","41.200462","16.604997"],
    [2940,"2024-05-02 11:00:00","21","molfetta","24.39","1","44.35","1","0.0","1","null","6","null","6","802.32","1","null","6","41.200462","16.604997"],
    [2941,"2024-05-02 12:00:00","21","molfetta","25.53","1","45.1","1","0.0","1","null","6","null","6","840.28","1","null","6","41.200462","16.604997"],
    [2942,"2024-05-02 13:00:00","21","molfetta","24.92","1","46.85","1","0.0","1","null","6","null","6","599.0","1","null","6","41.200462","16.604997"],
    [2943,"2024-05-02 14:00:00","21","molfetta","23.54","1","46.26","1","0.0","1","null","6","null","6","292.96","1","null","6","41.200462","16.604997"],
    [2944,"2024-05-02 15:00:00","21","molfetta","21.81","1","48.08","1","0.0","1","null","6","null","6","90.82","1","null","6","41.200462","16.604997"],
    [2945,"2024-05-02 16:00:00","21","molfetta","20.84","1","51.35","1","0.0","1","null","6","null","6","68.96","1","null","6","41.200462","16.604997"],
    [2946,"2024-05-02 17:00:00","21","molfetta","19.57","1","54.0","1","0.0","1","null","6","null","6","68.21","1","null","6","41.200462","16.604997"],
    [2947,"2024-05-02 18:00:00","21","molfetta","18.17","1","50.41","1","0.0","1","null","6","null","6","33.66","1","null","6","41.200462","16.604997"],
    [2948,"2024-05-02 19:00:00","21","molfetta","18.1","1","52.05","1","0.0","1","null","6","null","6","0.0","5","null","6","41.200462","16.604997"],
    [2949,"2024-05-02 20:00:00","21","molfetta","17.33","1","48.28","1","0.0","1","null","6","null","6","0.0","1","null","6","41.200462","16.604997"],
    [2950,"2024-05-02 21:00:00","21","molfetta","16.31","1","48.61","1","0.0","1","null","6","null","6","0.0","1","null","6","41.200462","16.604997"],
    [2951,"2024-05-02 22:00:00","21","molfetta","16.33","1","47.77","1","0.0","1","null","6","null","6","0.0","1","null","6","41.200462","16.604997"],
    [2952,"2024-05-02 23:00:00","21","molfetta","16.14","1","50.24","1","0.0","1","null","6","null","6","0.0","1","null","6","41.200462","16.604997"],
    [2953,"2024-05-03 00:00:00","21","molfetta","15.3","1","54.98","1","0.0","1","null","6","null","6","0.0","1","null","6","41.200462","16.604997"],
    [2954,"2024-05-03 01:00:00","21","molfetta","14.63","1","58.08","1","0.0","1","null","6","null","6","0.0","1","null","6","41.200462","16.604997"],
    [2955,"2024-05-03 02:00:00","21","molfetta","14.9","1","54.23","1","0.0","1","null","6","null","6","0.0","1","null","6","41.200462","16.604997"],
    [2956,"2024-05-03 03:00:00","21","molfetta","14.5","1","54.61","1","0.0","1","null","6","null","6","0.0","1","null","6","41.200462","16.604997"],
    [2957,"2024-05-03 04:00:00","21","molfetta","14.36","1","51.16","1","0.0","1","null","6","null","6","0.0","1","null","6","41.200462","16.604997"],
    [2958,"2024-05-03 05:00:00","21","molfetta","14.06","1","51.78","1","0.0","1","null","6","null","6","0.0","5","null","6","41.200462","16.604997"],
    [2959,"2024-05-03 06:00:00","21","molfetta","14.45","1","51.51","1","0.0","1","null","6","null","6","42.96","1","null","6","41.200462","16.604997"],
    [2960,"2024-05-03 07:00:00","21","molfetta","16.55","1","47.68","1","0.0","1","null","6","null","6","244.29","1","null","6","41.200462","16.604997"],
    [2961,"2024-05-03 08:00:00","21","molfetta","17.47","1","43.12","1","0.0","1","null","6","null","6","335.1","1","null","6","41.200462","16.604997"],
    [2962,"2024-05-03 09:00:00","21","molfetta","19.51","1","37.35","1","0.0","1","null","6","null","6","679.61","1","null","6","41.200462","16.604997"],
    [2963,"2024-05-03 10:00:00","21","molfetta","20.41","1","36.64","1","0.0","1","null","6","null","6","643.21","1","null","6","41.200462","16.604997"],
    [2964,"2024-05-03 11:00:00","21","molfetta","20.9","1","35.24","1","0.0","1","null","6","null","6","605.76","1","null","6","41.200462","16.604997"],
    [2965,"2024-05-03 12:00:00","21","molfetta","21.96","1","32.79","1","0.0","1","null","6","null","6","521.24","1","null","6","41.200462","16.604997"],
    [2966,"2024-05-03 13:00:00","21","molfetta","21.6","1","33.69","1","0.0","1","null","6","null","6","298.31","1","null","6","41.200462","16.604997"],
    [2967,"2024-05-03 14:00:00","21","molfetta","20.57","1","43.64","1","0.0","1","null","6","null","6","229.4","1","null","6","41.200462","16.604997"],
    [2968,"2024-05-03 15:00:00","21","molfetta","21.37","1","35.78","1","0.0","1","null","6","null","6","246.08","1","null","6","41.200462","16.604997"],
    [2969,"2024-05-03 16:00:00","21","molfetta","21.0","1","37.55","1","0.0","1","null","6","null","6","213.59","1","null","6","41.200462","16.604997"],
    [2970,"2024-05-03 17:00:00","21","molfetta","21.13","1","37.55","1","0.0","1","null","6","null","6","350.82","1","null","6","41.200462","16.604997"],
    [2971,"2024-05-03 18:00:00","21","molfetta","19.82","1","40.78","1","0.0","1","null","6","null","6","75.5","1","null","6","41.200462","16.604997"],
    [2972,"2024-05-03 19:00:00","21","molfetta","18.55","1","44.6","1","0.0","1","null","6","null","6","9.85","1","null","6","41.200462","16.604997"],
    [2973,"2024-05-03 20:00:00","21","molfetta","17.58","1","47.16","1","0.0","1","null","6","null","6","0.0","1","null","6","41.200462","16.604997"],
    [2974,"2024-05-03 21:00:00","21","molfetta","16.99","1","52.92","1","0.0","1","null","6","null","6","0.0","1","null","6","41.200462","16.604997"],
    [2975,"2024-05-03 22:00:00","21","molfetta","16.59","1","56.58","1","0.0","1","null","6","null","6","0.0","1","null","6","41.200462","16.604997"],
    [2976,"2024-05-03 23:00:00","21","molfetta","15.98","1","60.13","1","0.0","1","null","6","null","6","0.0","1","null","6","41.200462","16.604997"],
    [2977,"2024-05-04 00:00:00","21","molfetta","15.29","1","63.53","1","0.0","1","null","6","null","6","0.0","1","null","6","41.200462","16.604997"],
    [2978,"2024-05-04 01:00:00","21","molfetta","14.75","1","65.7","1","0.0","1","null","6","null","6","0.0","1","null","6","41.200462","16.604997"],
    [2979,"2024-05-04 02:00:00","21","molfetta","14.27","1","65.02","1","0.0","1","null","6","null","6","0.0","1","null","6","41.200462","16.604997"],
    [2980,"2024-05-04 03:00:00","21","molfetta","14.36","1","62.46","1","0.0","1","null","6","null","6","0.0","1","null","6","41.200462","16.604997"],
    [2981,"2024-05-04 04:00:00","21","molfetta","14.25","1","62.01","1","0.0","1","null","6","null","6","0.0","1","null","6","41.200462","16.604997"],
    [2982,"2024-05-04 05:00:00","21","molfetta","14.04","1","62.31","1","0.0","1","null","6","null","6","0.0","5","null","6","41.200462","16.604997"],
    [2983,"2024-05-04 06:00:00","21","molfetta","14.31","1","60.8","1","0.0","1","null","6","null","6","44.3","1","null","6","41.200462","16.604997"],
    [2984,"2024-05-04 07:00:00","21","molfetta","16.55","1","52.43","1","0.0","1","null","6","null","6","249.25","1","null","6","41.200462","16.604997"],
    [2985,"2024-05-04 08:00:00","21","molfetta","18.02","1","46.86","1","0.0","1","null","6","null","6","347.47","1","null","6","41.200462","16.604997"],
    [2986,"2024-05-04 09:00:00","21","molfetta","20.65","1","41.1","1","0.0","1","null","6","null","6","663.1","1","null","6","41.200462","16.604997"],
    [2987,"2024-05-04 10:00:00","21","molfetta","21.75","1","43.29","1","0.0","1","null","6","null","6","783.45","1","null","6","41.200462","16.604997"],
    [2988,"2024-05-04 11:00:00","21","molfetta","21.44","1","44.68","1","0.0","1","null","6","null","6","894.76","1","null","6","41.200462","16.604997"],
    [2989,"2024-05-04 12:00:00","21","molfetta","22.4","1","45.25","1","0.0","1","null","6","null","6","939.43","1","null","6","41.200462","16.604997"],
    [2990,"2024-05-04 13:00:00","21","molfetta","22.95","1","48.54","1","0.0","1","null","6","null","6","912.03","1","null","6","41.200462","16.604997"],
    [2991,"2024-05-04 14:00:00","21","molfetta","21.23","1","58.21","1","0.0","1","null","6","null","6","846.74","1","null","6","41.200462","16.604997"],
    [2992,"2024-05-04 15:00:00","21","molfetta","20.62","1","61.76","1","0.0","1","null","6","null","6","738.32","1","null","6","41.200462","16.604997"],
    [2993,"2024-05-04 16:00:00","21","molfetta","21.03","1","62.27","1","0.0","1","null","6","null","6","579.5","1","null","6","41.200462","16.604997"],
    [2994,"2024-05-04 17:00:00","21","molfetta","20.75","1","63.89","1","0.0","1","null","6","null","6","388.49","1","null","6","41.200462","16.604997"],
    [2995,"2024-05-04 18:00:00","21","molfetta","19.11","1","68.5","1","0.0","1","null","6","null","6","127.9","1","null","6","41.200462","16.604997"],
    [2996,"2024-05-04 19:00:00","21","molfetta","17.88","1","74.52","1","0.0","1","null","6","null","6","11.29","1","null","6","41.200462","16.604997"],
    [2997,"2024-05-04 20:00:00","21","molfetta","17.71","1","77.06","1","0.0","1","null","6","null","6","0.0","1","null","6","41.200462","16.604997"],
    [2998,"2024-05-04 21:00:00","21","molfetta","17.61","1","74.49","1","0.0","1","null","6","null","6","0.0","1","null","6","41.200462","16.604997"],
    [2999,"2024-05-04 22:00:00","21","molfetta","16.9","1","66.73","1","0.0","1","null","6","null","6","0.0","1","null","6","41.200462","16.604997"],
    [3000,"2024-05-04 23:00:00","21","molfetta","16.41","1","64.44","1","0.0","1","null","6","null","6","0.0","1","null","6","41.200462","16.604997"],
    [3001,"2024-05-05 00:00:00","21","molfetta","16.16","1","63.0","1","0.0","1","null","6","null","6","0.0","1","null","6","41.200462","16.604997"],
    [3002,"2024-05-05 01:00:00","21","molfetta","15.76","1","63.61","1","0.0","1","null","6","null","6","0.0","1","null","6","41.200462","16.604997"],
    [3003,"2024-05-05 02:00:00","21","molfetta","15.57","1","62.95","1","0.0","1","null","6","null","6","0.0","1","null","6","41.200462","16.604997"],
    [3004,"2024-05-05 03:00:00","21","molfetta","15.44","1","63.14","1","0.0","1","null","6","null","6","0.0","1","null","6","41.200462","16.604997"],
    [3005,"2024-05-05 04:00:00","21","molfetta","15.33","1","63.13","1","0.0","1","null","6","null","6","0.0","1","null","6","41.200462","16.604997"],
    [3006,"2024-05-05 05:00:00","21","molfetta","15.2","1","63.85","1","0.0","1","null","6","null","6","0.0","5","null","6","41.200462","16.604997"],
    [3007,"2024-05-05 06:00:00","21","molfetta","15.78","1","62.78","1","0.0","1","null","6","null","6","47.85","1","null","6","41.200462","16.604997"],
    [3008,"2024-05-05 07:00:00","21","molfetta","18.4","1","55.02","1","0.0","1","null","6","null","6","249.51","1","null","6","41.200462","16.604997"],
    [3009,"2024-05-05 08:00:00","21","molfetta","20.06","1","51.23","1","0.0","1","null","6","null","6","360.17","1","null","6","41.200462","16.604997"],
    [3010,"2024-05-05 09:00:00","21","molfetta","22.47","1","49.45","1","0.0","1","null","6","null","6","671.49","1","null","6","41.200462","16.604997"],
    [3011,"2024-05-05 10:00:00","21","molfetta","22.39","1","52.29","1","0.0","1","null","6","null","6","808.34","1","null","6","41.200462","16.604997"],
    [3012,"2024-05-05 11:00:00","21","molfetta","22.09","1","54.33","1","0.0","1","null","6","null","6","900.26","1","null","6","41.200462","16.604997"],
    [3013,"2024-05-05 12:00:00","21","molfetta","23.19","1","49.85","1","0.0","1","null","6","null","6","941.58","1","null","6","41.200462","16.604997"],
    [3014,"2024-05-05 13:00:00","21","molfetta","23.06","1","50.09","1","0.0","1","null","6","null","6","916.37","1","null","6","41.200462","16.604997"],
    [3015,"2024-05-05 14:00:00","21","molfetta","23.41","1","52.06","1","0.0","1","null","6","null","6","847.28","1","null","6","41.200462","16.604997"],
    [3016,"2024-05-05 15:00:00","21","molfetta","23.97","1","53.66","1","0.0","1","null","6","null","6","735.83","1","null","6","41.200462","16.604997"],
    [3017,"2024-05-05 16:00:00","21","molfetta","24.11","1","55.09","1","0.0","1","null","6","null","6","573.97","1","null","6","41.200462","16.604997"],
    [3018,"2024-05-05 17:00:00","21","molfetta","23.12","1","59.07","1","0.0","1","null","6","null","6","306.75","1","null","6","41.200462","16.604997"],
    [3019,"2024-05-05 18:00:00","21","molfetta","20.21","1","68.34","1","0.0","1","null","6","null","6","63.04","1","null","6","41.200462","16.604997"],
    [3020,"2024-05-05 19:00:00","21","molfetta","19.52","1","72.2","1","0.0","1","null","6","null","6","7.25","1","null","6","41.200462","16.604997"],
    [3021,"2024-05-05 20:00:00","21","molfetta","19.13","1","72.56","1","0.0","1","null","6","null","6","0.0","1","null","6","41.200462","16.604997"],
    [3022,"2024-05-05 21:00:00","21","molfetta","18.5","1","62.25","1","0.0","1","null","6","null","6","0.0","1","null","6","41.200462","16.604997"],
    [3023,"2024-05-05 22:00:00","21","molfetta","18.58","1","51.85","1","0.0","1","null","6","null","6","0.0","1","null","6","41.200462","16.604997"],
    [3024,"2024-05-05 23:00:00","21","molfetta","18.35","1","49.61","1","0.0","1","null","6","null","6","0.0","1","null","6","41.200462","16.604997"],
    [3025,"2024-05-06 00:00:00","21","molfetta","18.36","1","46.27","1","0.0","1","null","6","null","6","0.0","1","null","6","41.200462","16.604997"],
    [3026,"2024-05-06 01:00:00","21","molfetta","17.95","1","46.1","1","0.0","1","null","6","null","6","0.0","1","null","6","41.200462","16.604997"],
    [3027,"2024-05-06 02:00:00","21","molfetta","16.84","1","51.56","1","0.0","1","null","6","null","6","0.0","1","null","6","41.200462","16.604997"],
    [3028,"2024-05-06 03:00:00","21","molfetta","16.17","1","58.05","1","0.0","1","null","6","null","6","0.0","1","null","6","41.200462","16.604997"],
    [3029,"2024-05-06 04:00:00","21","molfetta","15.28","1","63.25","1","0.0","1","null","6","null","6","0.0","1","null","6","41.200462","16.604997"],
    [3030,"2024-05-06 05:00:00","21","molfetta","15.21","1","65.03","1","0.0","1","null","6","null","6","0.0","5","null","6","41.200462","16.604997"],
    [3031,"2024-05-06 06:00:00","21","molfetta","15.18","1","65.59","1","0.0","1","null","6","null","6","34.51","1","null","6","41.200462","16.604997"],
    [3032,"2024-05-06 07:00:00","21","molfetta","19.33","1","52.86","1","0.0","1","null","6","null","6","241.41","1","null","6","41.200462","16.604997"],
    [3033,"2024-05-06 08:00:00","21","molfetta","20.75","1","50.63","1","0.0","1","null","6","null","6","375.87","1","null","6","41.200462","16.604997"],
    [3034,"2024-05-06 09:00:00","21","molfetta","23.01","1","49.06","1","0.0","1","null","6","null","6","648.51","1","null","6","41.200462","16.604997"],
    [3035,"2024-05-06 10:00:00","21","molfetta","24.22","1","49.16","1","0.0","1","null","6","null","6","781.84","1","null","6","41.200462","16.604997"],
    [3036,"2024-05-06 11:00:00","21","molfetta","24.58","1","49.77","1","0.0","1","null","6","null","6","857.77","1","null","6","41.200462","16.604997"],
    [3037,"2024-05-06 12:00:00","21","molfetta","24.79","1","50.31","1","0.0","1","null","6","null","6","885.35","1","null","6","41.200462","16.604997"],
    [3038,"2024-05-06 13:00:00","21","molfetta","24.9","1","53.5","1","0.0","1","null","6","null","6","845.79","1","null","6","41.200462","16.604997"],
    [3039,"2024-05-06 14:00:00","21","molfetta","24.76","1","57.24","1","0.0","1","null","6","null","6","796.82","1","null","6","41.200462","16.604997"],
    [3040,"2024-05-06 15:00:00","21","molfetta","25.35","1","55.75","1","0.0","1","null","6","null","6","713.22","1","null","6","41.200462","16.604997"],
    [3041,"2024-05-06 16:00:00","21","molfetta","24.92","1","56.1","1","0.0","1","null","6","null","6","477.06","1","null","6","41.200462","16.604997"],
    [3042,"2024-05-06 17:00:00","21","molfetta","24.36","1","56.22","1","0.0","1","null","6","null","6","305.08","1","null","6","41.200462","16.604997"],
    [3043,"2024-05-06 18:00:00","21","molfetta","25.32","1","41.9","1","0.0","1","null","6","null","6","106.08","1","null","6","41.200462","16.604997"],
    [3044,"2024-05-06 19:00:00","21","molfetta","24.65","1","35.61","1","0.0","1","null","6","null","6","14.09","1","null","6","41.200462","16.604997"],
    [3045,"2024-05-06 20:00:00","21","molfetta","22.53","1","41.69","1","0.0","1","null","6","null","6","0.0","1","null","6","41.200462","16.604997"],
    [3046,"2024-05-06 21:00:00","21","molfetta","20.98","1","41.36","1","0.0","1","null","6","null","6","0.0","1","null","6","41.200462","16.604997"],
    [3047,"2024-05-06 22:00:00","21","molfetta","20.27","1","42.09","1","0.0","1","null","6","null","6","0.0","1","null","6","41.200462","16.604997"],
    [3048,"2024-05-06 23:00:00","21","molfetta","20.01","1","38.59","1","0.0","1","null","6","null","6","0.0","1","null","6","41.200462","16.604997"],
    [3049,"2024-05-07 00:00:00","21","molfetta","19.68","1","39.08","1","0.0","1","null","6","null","6","0.0","1","null","6","41.200462","16.604997"],
    [3050,"2024-05-07 01:00:00","21","molfetta","19.32","1","41.64","1","0.0","1","null","6","null","6","0.0","1","null","6","41.200462","16.604997"],
    [3051,"2024-05-07 02:00:00","21","molfetta","18.87","1","44.85","1","0.0","1","null","6","null","6","0.0","1","null","6","41.200462","16.604997"],
    [3052,"2024-05-07 03:00:00","21","molfetta","18.32","1","46.97","1","0.0","1","null","6","null","6","0.0","1","null","6","41.200462","16.604997"],
    [3053,"2024-05-07 04:00:00","21","molfetta","17.84","1","51.74","1","0.0","1","null","6","null","6","0.0","1","null","6","41.200462","16.604997"],
    [3054,"2024-05-07 05:00:00","21","molfetta","16.94","1","63.88","1","0.0","1","null","6","null","6","0.0","5","null","6","41.200462","16.604997"],
    [3055,"2024-05-07 06:00:00","21","molfetta","17.38","1","63.06","1","0.0","1","null","6","null","6","38.52","1","null","6","41.200462","16.604997"],
    [3056,"2024-05-07 07:00:00","21","molfetta","18.83","1","60.29","1","0.0","1","null","6","null","6","166.59","1","null","6","41.200462","16.604997"],
    [3057,"2024-05-07 08:00:00","21","molfetta","20.72","1","60.01","1","0.0","1","null","6","null","6","231.67","1","null","6","41.200462","16.604997"],
    [3058,"2024-05-07 09:00:00","21","molfetta","21.15","1","58.3","1","0.0","1","null","6","null","6","378.25","1","null","6","41.200462","16.604997"],
    [3059,"2024-05-07 10:00:00","21","molfetta","23.13","1","54.75","1","0.0","1","null","6","null","6","594.89","1","null","6","41.200462","16.604997"],
    [3060,"2024-05-07 11:00:00","21","molfetta","24.09","1","57.3","1","0.0","1","null","6","null","6","716.74","1","null","6","41.200462","16.604997"],
    [3061,"2024-05-07 12:00:00","21","molfetta","25.03","1","61.3","1","0.0","1","null","6","null","6","785.38","1","null","6","41.200462","16.604997"],
    [3062,"2024-05-07 13:00:00","21","molfetta","25.21","1","62.62","1","0.0","1","null","6","null","6","849.27","1","null","6","41.200462","16.604997"],
    [3063,"2024-05-07 14:00:00","21","molfetta","25.81","1","58.51","1","0.0","1","null","6","null","6","744.79","1","null","6","41.200462","16.604997"],
    [3064,"2024-05-07 15:00:00","21","molfetta","25.09","1","62.36","1","0.0","1","null","6","null","6","595.63","1","null","6","41.200462","16.604997"],
    [3065,"2024-05-07 16:00:00","21","molfetta","24.22","1","64.99","1","0.0","1","null","6","null","6","340.76","1","null","6","41.200462","16.604997"],
    [3066,"2024-05-07 17:00:00","21","molfetta","24.06","1","56.04","1","0.0","1","null","6","null","6","199.71","1","null","6","41.200462","16.604997"],
    [3067,"2024-05-07 18:00:00","21","molfetta","25.58","1","38.13","1","0.0","1","null","6","null","6","86.96","1","null","6","41.200462","16.604997"],
    [3068,"2024-05-07 19:00:00","21","molfetta","24.55","1","43.86","1","0.0","1","null","6","null","6","10.17","1","null","6","41.200462","16.604997"],
    [3069,"2024-05-07 20:00:00","21","molfetta","23.22","1","51.72","1","0.0","1","null","6","null","6","0.0","1","null","6","41.200462","16.604997"],
    [3070,"2024-05-07 21:00:00","21","molfetta","22.31","1","56.23","1","0.0","1","null","6","null","6","0.0","1","null","6","41.200462","16.604997"],
    [3071,"2024-05-07 22:00:00","21","molfetta","22.51","1","53.12","1","0.0","1","null","6","null","6","0.0","1","null","6","41.200462","16.604997"],
    [3072,"2024-05-07 23:00:00","21","molfetta","22.3","1","43.84","1","0.0","1","null","6","null","6","0.0","1","null","6","41.200462","16.604997"],
    [3073,"2024-05-08 00:00:00","21","molfetta","21.73","1","40.58","1","0.0","1","null","6","null","6","0.0","1","null","6","41.200462","16.604997"],
    [3074,"2024-05-08 01:00:00","21","molfetta","21.14","1","41.07","1","0.0","1","null","6","null","6","0.0","1","null","6","41.200462","16.604997"],
    [3075,"2024-05-08 02:00:00","21","molfetta","19.7","1","52.87","1","0.0","1","null","6","null","6","0.0","1","null","6","41.200462","16.604997"],
    [3076,"2024-05-08 03:00:00","21","molfetta","19.16","1","48.2","1","0.0","1","null","6","null","6","0.0","1","null","6","41.200462","16.604997"],
    [3077,"2024-05-08 04:00:00","21","molfetta","17.74","1","57.09","1","0.0","1","null","6","null","6","0.0","1","null","6","41.200462","16.604997"],
    [3078,"2024-05-08 05:00:00","21","molfetta","16.58","1","62.64","1","0.0","1","null","6","null","6","0.0","5","null","6","41.200462","16.604997"],
    [3079,"2024-05-08 06:00:00","21","molfetta","16.6","1","62.38","1","0.0","1","null","6","null","6","56.03","1","null","6","41.200462","16.604997"],
    [3080,"2024-05-08 07:00:00","21","molfetta","20.35","1","50.32","1","0.0","1","null","6","null","6","242.18","1","null","6","41.200462","16.604997"],
    [3081,"2024-05-08 08:00:00","21","molfetta","21.4","1","52.36","1","0.0","1","null","6","null","6","385.12","1","null","6","41.200462","16.604997"],
    [3082,"2024-05-08 09:00:00","21","molfetta","22.32","1","65.26","1","0.0","1","null","6","null","6","626.32","1","null","6","41.200462","16.604997"],
    [3083,"2024-05-08 10:00:00","21","molfetta","23.05","1","65.86","1","0.0","1","null","6","null","6","738.3","1","null","6","41.200462","16.604997"],
    [3084,"2024-05-08 11:00:00","21","molfetta","23.0","1","65.13","1","0.0","1","null","6","null","6","847.71","1","null","6","41.200462","16.604997"],
    [3085,"2024-05-08 12:00:00","21","molfetta","23.43","1","63.47","1","0.0","1","null","6","null","6","880.05","1","null","6","41.200462","16.604997"],
    [3086,"2024-05-08 13:00:00","21","molfetta","23.51","1","64.31","1","0.0","1","null","6","null","6","798.45","1","null","6","41.200462","16.604997"],
    [3087,"2024-05-08 14:00:00","21","molfetta","23.3","1","65.87","1","0.0","1","null","6","null","6","716.76","1","null","6","41.200462","16.604997"],
    [3088,"2024-05-08 15:00:00","21","molfetta","23.23","1","63.68","1","0.0","1","null","6","null","6","452.38","1","null","6","41.200462","16.604997"],
    [3089,"2024-05-08 16:00:00","21","molfetta","21.75","1","68.93","1","0.0","1","null","6","null","6","219.35","1","null","6","41.200462","16.604997"],
    [3090,"2024-05-08 17:00:00","21","molfetta","21.04","1","74.23","1","0.0","1","null","6","null","6","148.99","1","null","6","41.200462","16.604997"],
    [3091,"2024-05-08 18:00:00","21","molfetta","20.2","1","78.54","1","0.0","1","null","6","null","6","63.2","1","null","6","41.200462","16.604997"],
    [3092,"2024-05-08 19:00:00","21","molfetta","19.57","1","80.38","1","0.0","1","null","6","null","6","14.18","1","null","6","41.200462","16.604997"],
    [3093,"2024-05-08 20:00:00","21","molfetta","19.1","1","83.78","1","0.0","1","null","6","null","6","0.0","1","null","6","41.200462","16.604997"],
    [3094,"2024-05-08 21:00:00","21","molfetta","18.96","1","85.27","1","0.0","1","null","6","null","6","0.0","1","null","6","41.200462","16.604997"],
    [3095,"2024-05-08 22:00:00","21","molfetta","18.97","1","86.1","1","0.0","1","null","6","null","6","0.0","1","null","6","41.200462","16.604997"],
    [3096,"2024-05-08 23:00:00","21","molfetta","18.69","1","86.65","1","0.0","1","null","6","null","6","0.0","1","null","6","41.200462","16.604997"],
    [3097,"2024-05-09 00:00:00","21","molfetta","18.66","1","84.16","1","0.0","1","null","6","null","6","0.0","1","null","6","41.200462","16.604997"],
    [3098,"2024-05-09 01:00:00","21","molfetta","18.32","1","82.3","1","0.0","1","null","6","null","6","0.0","1","null","6","41.200462","16.604997"],
    [3099,"2024-05-09 02:00:00","21","molfetta","18.11","1","81.32","1","0.0","1","null","6","null","6","0.0","1","null","6","41.200462","16.604997"],
    [3100,"2024-05-09 03:00:00","21","molfetta","17.51","1","82.27","1","0.0","1","null","6","null","6","0.0","1","null","6","41.200462","16.604997"],
    [3101,"2024-05-09 04:00:00","21","molfetta","17.25","1","81.81","1","0.0","1","null","6","null","6","0.0","1","null","6","41.200462","16.604997"],
    [3102,"2024-05-09 05:00:00","21","molfetta","17.27","1","80.89","1","0.0","1","null","6","null","6","0.0","5","null","6","41.200462","16.604997"],
    [3103,"2024-05-09 06:00:00","21","molfetta","17.4","1","80.42","1","0.0","1","null","6","null","6","36.45","1","null","6","41.200462","16.604997"],
    [3104,"2024-05-09 07:00:00","21","molfetta","18.99","1","71.39","1","0.0","1","null","6","null","6","217.05","1","null","6","41.200462","16.604997"],
    [3105,"2024-05-09 08:00:00","21","molfetta","20.69","1","62.68","1","0.0","1","null","6","null","6","357.74","1","null","6","41.200462","16.604997"],
    [3106,"2024-05-09 09:00:00","21","molfetta","22.72","1","55.36","1","0.0","1","null","6","null","6","507.68","1","null","6","41.200462","16.604997"],
    [3107,"2024-05-09 10:00:00","21","molfetta","24.96","1","51.85","1","0.0","1","null","6","null","6","780.91","1","null","6","41.200462","16.604997"],
    [3108,"2024-05-09 11:00:00","21","molfetta","25.3","1","55.06","1","0.0","1","null","6","null","6","876.3","1","null","6","41.200462","16.604997"],
    [3109,"2024-05-09 12:00:00","21","molfetta","25.34","1","54.98","1","0.0","1","null","6","null","6","889.42","1","null","6","41.200462","16.604997"],
    [3110,"2024-05-09 13:00:00","21","molfetta","23.47","1","63.27","1","0.0","1","null","6","null","6","499.18","1","null","6","41.200462","16.604997"],
    [3111,"2024-05-09 14:00:00","21","molfetta","23.9","1","66.52","1","0.0","1","null","6","null","6","761.18","1","null","6","41.200462","16.604997"],
    [3112,"2024-05-09 15:00:00","21","molfetta","24.67","1","67.26","1","0.0","1","null","6","null","6","683.84","1","null","6","41.200462","16.604997"],
    [3113,"2024-05-09 16:00:00","21","molfetta","24.05","1","70.38","1","0.0","1","null","6","null","6","481.89","1","null","6","41.200462","16.604997"],
    [3114,"2024-05-09 17:00:00","21","molfetta","22.33","1","76.14","1","0.0","1","null","6","null","6","304.21","1","null","6","41.200462","16.604997"],
    [3115,"2024-05-09 18:00:00","21","molfetta","21.78","1","72.98","1","0.0","1","null","6","null","6","82.96","1","null","6","41.200462","16.604997"],
    [3116,"2024-05-09 19:00:00","21","molfetta","20.97","1","74.93","1","0.0","1","null","6","null","6","17.31","1","null","6","41.200462","16.604997"],
    [3117,"2024-05-09 20:00:00","21","molfetta","20.83","1","70.16","1","0.0","1","null","6","null","6","0.0","1","null","6","41.200462","16.604997"],
    [3118,"2024-05-09 21:00:00","21","molfetta","20.92","1","68.79","1","0.0","1","null","6","null","6","0.0","1","null","6","41.200462","16.604997"],
    [3119,"2024-05-09 22:00:00","21","molfetta","20.85","1","68.64","1","1.2","1","null","6","null","6","0.0","1","null","6","41.200462","16.604997"],
    [3120,"2024-05-09 23:00:00","21","molfetta","18.56","1","84.77","1","1.0","1","null","6","null","6","0.0","5","null","6","41.200462","16.604997"],
    [3121,"2024-05-10 00:00:00","21","molfetta","18.32","1","85.24","1","0.0","1","null","6","null","6","0.0","5","null","6","41.200462","16.604997"],
    [3122,"2024-05-10 01:00:00","21","molfetta","18.06","1","84.72","1","0.0","1","null","6","null","6","0.0","5","null","6","41.200462","16.604997"],
    [3123,"2024-05-10 02:00:00","21","molfetta","17.7","1","81.96","1","0.0","1","null","6","null","6","0.0","1","null","6","41.200462","16.604997"],
    [3124,"2024-05-10 03:00:00","21","molfetta","17.36","1","81.01","1","0.0","1","null","6","null","6","0.0","1","null","6","41.200462","16.604997"],
    [3125,"2024-05-10 04:00:00","21","molfetta","17.16","1","82.83","1","0.0","1","null","6","null","6","0.0","1","null","6","41.200462","16.604997"],
    [3126,"2024-05-10 05:00:00","21","molfetta","17.04","1","81.87","1","0.0","1","null","6","null","6","0.0","5","null","6","41.200462","16.604997"],
    [3127,"2024-05-10 06:00:00","21","molfetta","17.26","1","79.77","1","0.0","1","null","6","null","6","51.35","1","null","6","41.200462","16.604997"],
    [3128,"2024-05-10 07:00:00","21","molfetta","19.11","1","70.94","1","0.0","1","null","6","null","6","264.75","1","null","6","41.200462","16.604997"],
    [3129,"2024-05-10 08:00:00","21","molfetta","20.53","1","62.95","1","0.0","1","null","6","null","6","387.37","1","null","6","41.200462","16.604997"],
    [3130,"2024-05-10 09:00:00","21","molfetta","23.01","1","55.72","1","0.0","1","null","6","null","6","615.3","1","null","6","41.200462","16.604997"],
    [3131,"2024-05-10 10:00:00","21","molfetta","23.95","1","52.5","1","0.0","1","null","6","null","6","758.45","1","null","6","41.200462","16.604997"],
    [3132,"2024-05-10 11:00:00","21","molfetta","24.69","1","51.24","1","0.0","1","null","6","null","6","855.26","1","null","6","41.200462","16.604997"],
    [3133,"2024-05-10 12:00:00","21","molfetta","24.9","1","49.03","1","0.0","1","null","6","null","6","906.05","1","null","6","41.200462","16.604997"],
    [3134,"2024-05-10 13:00:00","21","molfetta","25.01","1","45.98","1","0.0","1","null","6","null","6","906.61","1","null","6","41.200462","16.604997"],
    [3135,"2024-05-10 14:00:00","21","molfetta","25.49","1","39.02","1","0.0","1","null","6","null","6","851.18","1","null","6","41.200462","16.604997"],
    [3136,"2024-05-10 15:00:00","21","molfetta","25.89","1","44.57","1","0.0","1","null","6","null","6","657.24","1","null","6","41.200462","16.604997"],
    [3137,"2024-05-10 16:00:00","21","molfetta","24.46","1","56.98","1","0.0","1","null","6","null","6","578.85","1","null","6","41.200462","16.604997"],
    [3138,"2024-05-10 17:00:00","21","molfetta","22.71","1","62.12","1","0.0","1","null","6","null","6","290.8","1","null","6","41.200462","16.604997"],
    [3139,"2024-05-10 18:00:00","21","molfetta","22.61","1","57.4","1","0.0","1","null","6","null","6","180.66","1","null","6","41.200462","16.604997"],
    [3140,"2024-05-10 19:00:00","21","molfetta","21.12","1","60.97","1","0.0","1","null","6","null","6","22.19","1","null","6","41.200462","16.604997"],
    [3141,"2024-05-10 20:00:00","21","molfetta","20.83","1","57.45","1","0.0","1","null","6","null","6","0.0","5","null","6","41.200462","16.604997"],
    [3142,"2024-05-10 21:00:00","21","molfetta","20.85","1","54.07","1","0.0","1","null","6","null","6","0.0","1","null","6","41.200462","16.604997"],
    [3143,"2024-05-10 22:00:00","21","molfetta","20.13","1","53.39","1","0.0","1","null","6","null","6","0.0","1","null","6","41.200462","16.604997"],
    [3144,"2024-05-10 23:00:00","21","molfetta","19.43","1","52.29","1","0.0","1","null","6","null","6","0.0","1","null","6","41.200462","16.604997"],
    [3145,"2024-05-11 00:00:00","21","molfetta","19.24","1","52.02","1","0.0","1","null","6","null","6","0.0","1","null","6","41.200462","16.604997"],
    [3146,"2024-05-11 01:00:00","21","molfetta","18.6","1","57.21","1","0.0","1","null","6","null","6","0.0","1","null","6","41.200462","16.604997"],
    [3147,"2024-05-11 02:00:00","21","molfetta","18.04","1","57.93","1","0.0","1","null","6","null","6","0.0","1","null","6","41.200462","16.604997"],
    [3148,"2024-05-11 03:00:00","21","molfetta","17.61","1","54.77","1","0.0","1","null","6","null","6","0.0","1","null","6","41.200462","16.604997"],
    [3149,"2024-05-11 04:00:00","21","molfetta","17.16","1","55.59","1","0.0","1","null","6","null","6","0.0","1","null","6","41.200462","16.604997"],
    [3150,"2024-05-11 05:00:00","21","molfetta","17.1","1","57.84","1","0.0","1","null","6","null","6","0.0","5","null","6","41.200462","16.604997"],
    [3151,"2024-05-11 06:00:00","21","molfetta","17.61","1","54.99","1","0.0","1","null","6","null","6","43.77","1","null","6","41.200462","16.604997"],
    [3152,"2024-05-11 07:00:00","21","molfetta","18.6","1","55.03","1","0.0","1","null","6","null","6","175.52","1","null","6","41.200462","16.604997"],
    [3153,"2024-05-11 08:00:00","21","molfetta","20.97","1","58.39","1","0.0","1","null","6","null","6","453.94","1","null","6","41.200462","16.604997"],
    [3154,"2024-05-11 09:00:00","21","molfetta","23.13","1","55.45","1","0.0","1","null","6","null","6","667.2","1","null","6","41.200462","16.604997"],
    [3155,"2024-05-11 10:00:00","21","molfetta","24.02","1","53.2","1","0.0","1","null","6","null","6","817.64","1","null","6","41.200462","16.604997"],
    [3156,"2024-05-11 11:00:00","21","molfetta","24.05","1","58.33","1","0.0","1","null","6","null","6","900.75","1","null","6","41.200462","16.604997"],
    [3157,"2024-05-11 12:00:00","21","molfetta","24.03","1","63.27","1","0.0","1","null","6","null","6","955.21","1","null","6","41.200462","16.604997"],
    [3158,"2024-05-11 13:00:00","21","molfetta","23.99","1","61.79","1","0.0","1","null","6","null","6","941.46","1","null","6","41.200462","16.604997"],
    [3159,"2024-05-11 14:00:00","21","molfetta","24.28","1","54.59","1","0.0","1","null","6","null","6","876.53","1","null","6","41.200462","16.604997"],
    [3160,"2024-05-11 15:00:00","21","molfetta","24.85","1","46.2","1","0.0","1","null","6","null","6","758.74","1","null","6","41.200462","16.604997"],
    [3161,"2024-05-11 16:00:00","21","molfetta","24.85","1","47.18","1","0.0","1","null","6","null","6","490.16","1","null","6","41.200462","16.604997"],
    [3162,"2024-05-11 17:00:00","21","molfetta","23.8","1","48.87","1","0.0","1","null","6","null","6","374.99","1","null","6","41.200462","16.604997"],
    [3163,"2024-05-11 18:00:00","21","molfetta","24.6","1","46.76","1","0.0","1","null","6","null","6","215.61","1","null","6","41.200462","16.604997"],
    [3164,"2024-05-11 19:00:00","21","molfetta","21.58","1","54.21","1","0.0","1","null","6","null","6","21.4","1","null","6","41.200462","16.604997"],
    [3165,"2024-05-11 20:00:00","21","molfetta","19.84","1","57.83","1","0.0","1","null","6","null","6","0.0","1","null","6","41.200462","16.604997"],
    [3166,"2024-05-11 21:00:00","21","molfetta","19.35","1","65.68","1","0.0","1","null","6","null","6","0.0","1","null","6","41.200462","16.604997"],
    [3167,"2024-05-11 22:00:00","21","molfetta","18.77","1","62.86","1","0.0","1","null","6","null","6","0.0","1","null","6","41.200462","16.604997"],
    [3168,"2024-05-11 23:00:00","21","molfetta","17.78","1","58.84","1","0.0","1","null","6","null","6","0.0","1","null","6","41.200462","16.604997"],
    [3169,"2024-05-12 00:00:00","21","molfetta","17.22","1","52.04","1","0.0","1","null","6","null","6","0.0","1","null","6","41.200462","16.604997"],
    [3170,"2024-05-12 01:00:00","21","molfetta","17.59","1","43.7","1","0.0","1","null","6","null","6","0.0","1","null","6","41.200462","16.604997"],
    [3171,"2024-05-12 02:00:00","21","molfetta","16.89","1","46.73","1","0.0","1","null","6","null","6","0.0","1","null","6","41.200462","16.604997"],
    [3172,"2024-05-12 03:00:00","21","molfetta","16.41","1","49.58","1","0.0","1","null","6","null","6","0.0","1","null","6","41.200462","16.604997"],
    [3173,"2024-05-12 04:00:00","21","molfetta","16.59","1","49.43","1","0.0","1","null","6","null","6","0.0","1","null","6","41.200462","16.604997"],
    [3174,"2024-05-12 05:00:00","21","molfetta","16.83","1","47.04","1","0.0","1","null","6","null","6","0.0","5","null","6","41.200462","16.604997"],
    [3175,"2024-05-12 06:00:00","21","molfetta","17.21","1","45.39","1","0.0","1","null","6","null","6","62.22","1","null","6","41.200462","16.604997"],
    [3176,"2024-05-12 07:00:00","21","molfetta","20.89","1","37.65","1","0.0","1","null","6","null","6","296.74","1","null","6","41.200462","16.604997"],
    [3177,"2024-05-12 08:00:00","21","molfetta","22.67","1","35.88","1","0.0","1","null","6","null","6","510.41","1","null","6","41.200462","16.604997"],
    [3178,"2024-05-12 09:00:00","21","molfetta","24.43","1","43.31","1","0.0","1","null","6","null","6","637.89","1","null","6","41.200462","16.604997"],
    [3179,"2024-05-12 10:00:00","21","molfetta","24.1","1","45.34","1","0.0","1","null","6","null","6","831.62","1","null","6","41.200462","16.604997"],
    [3180,"2024-05-12 11:00:00","21","molfetta","24.7","1","45.89","1","0.0","1","null","6","null","6","911.66","1","null","6","41.200462","16.604997"],
    [3181,"2024-05-12 12:00:00","21","molfetta","23.9","1","49.02","1","0.0","1","null","6","null","6","960.18","1","null","6","41.200462","16.604997"],
    [3182,"2024-05-12 13:00:00","21","molfetta","24.44","1","45.89","1","0.0","1","null","6","null","6","936.77","1","null","6","41.200462","16.604997"],
    [3183,"2024-05-12 14:00:00","21","molfetta","25.31","1","45.31","1","0.0","1","null","6","null","6","862.93","1","null","6","41.200462","16.604997"],
    [3184,"2024-05-12 15:00:00","21","molfetta","25.57","1","46.62","1","0.0","1","null","6","null","6","745.56","1","null","6","41.200462","16.604997"],
    [3185,"2024-05-12 16:00:00","21","molfetta","26.33","1","44.66","1","0.0","1","null","6","null","6","597.89","1","null","6","41.200462","16.604997"],
    [3186,"2024-05-12 17:00:00","21","molfetta","26.22","1","45.44","1","0.0","1","null","6","null","6","406.81","1","null","6","41.200462","16.604997"],
    [3187,"2024-05-12 18:00:00","21","molfetta","25.09","1","48.18","1","0.0","1","null","6","null","6","205.96","1","null","6","41.200462","16.604997"],
    [3188,"2024-05-12 19:00:00","21","molfetta","22.22","1","46.08","1","0.0","1","null","6","null","6","24.71","1","null","6","41.200462","16.604997"],
    [3189,"2024-05-12 20:00:00","21","molfetta","21.01","1","39.8","1","0.0","1","null","6","null","6","0.0","1","null","6","41.200462","16.604997"],
    [3190,"2024-05-12 21:00:00","21","molfetta","20.37","1","38.89","1","0.0","1","null","6","null","6","0.0","1","null","6","41.200462","16.604997"],
    [3191,"2024-05-12 22:00:00","21","molfetta","19.57","1","41.21","1","0.0","1","null","6","null","6","0.0","1","null","6","41.200462","16.604997"],
    [3192,"2024-05-12 23:00:00","21","molfetta","19.3","1","41.61","1","0.0","1","null","6","null","6","0.0","1","null","6","41.200462","16.604997"],
    [3193,"2024-05-13 00:00:00","21","molfetta","18.59","1","43.87","1","0.0","1","null","6","null","6","0.0","1","null","6","41.200462","16.604997"],
    [3194,"2024-05-13 01:00:00","21","molfetta","17.66","1","45.14","1","0.0","1","null","6","null","6","0.0","1","null","6","41.200462","16.604997"],
    [3195,"2024-05-13 02:00:00","21","molfetta","17.11","1","46.54","1","0.0","1","null","6","null","6","0.0","1","null","6","41.200462","16.604997"],
    [3196,"2024-05-13 03:00:00","21","molfetta","16.87","1","45.33","1","0.0","1","null","6","null","6","0.0","1","null","6","41.200462","16.604997"],
    [3197,"2024-05-13 04:00:00","21","molfetta","16.74","1","46.33","1","0.0","1","null","6","null","6","0.0","1","null","6","41.200462","16.604997"],
    [3198,"2024-05-13 05:00:00","21","molfetta","16.75","1","50.9","1","0.0","1","null","6","null","6","0.0","5","null","6","41.200462","16.604997"],
    [3199,"2024-05-13 06:00:00","21","molfetta","16.67","1","54.01","1","0.0","1","null","6","null","6","65.9","1","null","6","41.200462","16.604997"],
    [3200,"2024-05-13 07:00:00","21","molfetta","20.55","1","46.24","1","0.0","1","null","6","null","6","292.35","1","null","6","41.200462","16.604997"],
    [3201,"2024-05-13 08:00:00","21","molfetta","22.63","1","50.27","1","0.0","1","null","6","null","6","478.74","1","null","6","41.200462","16.604997"],
    [3202,"2024-05-13 09:00:00","21","molfetta","22.86","1","54.88","1","0.0","1","null","6","null","6","647.6","1","null","6","41.200462","16.604997"],
    [3203,"2024-05-13 10:00:00","21","molfetta","24.04","1","56.66","1","0.0","1","null","6","null","6","679.15","1","null","6","41.200462","16.604997"],
    [3204,"2024-05-13 11:00:00","21","molfetta","24.3","1","55.39","1","0.0","1","null","6","null","6","729.76","1","null","6","41.200462","16.604997"],
    [3205,"2024-05-13 12:00:00","21","molfetta","25.11","1","52.55","1","0.0","1","null","6","null","6","781.84","1","null","6","41.200462","16.604997"],
    [3206,"2024-05-13 13:00:00","21","molfetta","25.43","1","52.5","1","0.0","1","null","6","null","6","774.99","1","null","6","41.200462","16.604997"],
    [3207,"2024-05-13 14:00:00","21","molfetta","25.54","1","54.74","1","0.0","1","null","6","null","6","777.35","1","null","6","41.200462","16.604997"],
    [3208,"2024-05-13 15:00:00","21","molfetta","25.36","1","54.91","1","0.0","1","null","6","null","6","485.73","1","null","6","41.200462","16.604997"],
    [3209,"2024-05-13 16:00:00","21","molfetta","23.22","1","60.2","1","0.0","1","null","6","null","6","216.72","1","null","6","41.200462","16.604997"],
    [3210,"2024-05-13 17:00:00","21","molfetta","22.24","1","62.21","1","0.0","1","null","6","null","6","121.46","1","null","6","41.200462","16.604997"],
    [3211,"2024-05-13 18:00:00","21","molfetta","21.8","1","65.89","1","0.0","1","null","6","null","6","69.42","1","null","6","41.200462","16.604997"],
    [3212,"2024-05-13 19:00:00","21","molfetta","21.28","1","67.28","1","0.0","1","null","6","null","6","10.96","1","null","6","41.200462","16.604997"],
    [3213,"2024-05-13 20:00:00","21","molfetta","21.73","1","63.79","1","0.0","1","null","6","null","6","0.0","1","null","6","41.200462","16.604997"],
    [3214,"2024-05-13 21:00:00","21","molfetta","21.83","1","59.86","1","0.0","1","null","6","null","6","0.0","1","null","6","41.200462","16.604997"],
    [3215,"2024-05-13 22:00:00","21","molfetta","21.39","1","62.9","1","0.0","1","null","6","null","6","0.0","1","null","6","41.200462","16.604997"],
    [3216,"2024-05-13 23:00:00","21","molfetta","20.62","1","66.19","1","0.0","1","null","6","null","6","0.0","1","null","6","41.200462","16.604997"],
    [3217,"2024-05-14 00:00:00","21","molfetta","19.93","1","77.03","1","0.0","1","null","6","null","6","0.0","1","null","6","41.200462","16.604997"],
    [3218,"2024-05-14 01:00:00","21","molfetta","19.59","1","82.43","1","0.0","1","null","6","null","6","0.0","1","null","6","41.200462","16.604997"],
    [3219,"2024-05-14 02:00:00","21","molfetta","19.25","1","83.66","1","0.2","1","null","6","null","6","0.0","1","null","6","41.200462","16.604997"],
    [3220,"2024-05-14 03:00:00","21","molfetta","18.68","1","83.21","1","0.0","1","null","6","null","6","0.0","1","null","6","41.200462","16.604997"],
    [3221,"2024-05-14 04:00:00","21","molfetta","18.02","1","83.34","1","0.0","1","null","6","null","6","0.0","1","null","6","41.200462","16.604997"],
    [3222,"2024-05-14 05:00:00","21","molfetta","17.7","1","82.28","1","0.0","1","null","6","null","6","0.0","5","null","6","41.200462","16.604997"],
    [3223,"2024-05-14 06:00:00","21","molfetta","17.51","1","75.59","1","0.0","1","null","6","null","6","47.14","1","null","6","41.200462","16.604997"],
    [3224,"2024-05-14 07:00:00","21","molfetta","19.19","1","65.93","1","0.0","1","null","6","null","6","202.99","1","null","6","41.200462","16.604997"],
    [3225,"2024-05-14 08:00:00","21","molfetta","21.1","1","62.74","1","0.0","1","null","6","null","6","262.32","1","null","6","41.200462","16.604997"],
    [3226,"2024-05-14 09:00:00","21","molfetta","22.69","1","60.77","1","0.0","1","null","6","null","6","614.05","1","null","6","41.200462","16.604997"],
    [3227,"2024-05-14 10:00:00","21","molfetta","24.06","1","61.31","1","0.0","1","null","6","null","6","664.04","1","null","6","41.200462","16.604997"],
    [3228,"2024-05-14 11:00:00","21","molfetta","24.05","1","67.54","1","0.0","1","null","6","null","6","797.67","1","null","6","41.200462","16.604997"],
    [3229,"2024-05-14 12:00:00","21","molfetta","25.02","1","64.16","1","0.0","1","null","6","null","6","928.73","1","null","6","41.200462","16.604997"],
    [3230,"2024-05-14 13:00:00","21","molfetta","25.98","1","60.98","1","0.0","1","null","6","null","6","910.82","1","null","6","41.200462","16.604997"],
    [3231,"2024-05-14 14:00:00","21","molfetta","26.42","1","60.4","1","0.0","1","null","6","null","6","642.09","1","null","6","41.200462","16.604997"],
    [3232,"2024-05-14 15:00:00","21","molfetta","26.3","1","57.06","1","0.0","1","null","6","null","6","613.47","1","null","6","41.200462","16.604997"],
    [3233,"2024-05-14 16:00:00","21","molfetta","29.05","1","37.94","1","0.0","1","null","6","null","6","572.88","1","null","6","41.200462","16.604997"],
    [3234,"2024-05-14 17:00:00","21","molfetta","28.91","1","35.69","1","0.0","1","null","6","null","6","386.82","1","null","6","41.200462","16.604997"],
    [3235,"2024-05-14 18:00:00","21","molfetta","26.3","1","47.53","1","0.0","1","null","6","null","6","187.85","1","null","6","41.200462","16.604997"],
    [3236,"2024-05-14 19:00:00","21","molfetta","23.43","1","57.72","1","0.0","1","null","6","null","6","25.7","1","null","6","41.200462","16.604997"],
    [3237,"2024-05-14 20:00:00","21","molfetta","21.67","1","64.56","1","0.0","1","null","6","null","6","0.0","5","null","6","41.200462","16.604997"],
    [3238,"2024-05-14 21:00:00","21","molfetta","20.84","1","68.79","1","0.0","1","null","6","null","6","0.0","1","null","6","41.200462","16.604997"],
    [3239,"2024-05-14 22:00:00","21","molfetta","20.25","1","72.17","1","0.0","1","null","6","null","6","0.0","1","null","6","41.200462","16.604997"],
    [3240,"2024-05-14 23:00:00","21","molfetta","19.76","1","75.32","1","0.0","1","null","6","null","6","0.0","1","null","6","41.200462","16.604997"],
    [3241,"2024-05-15 00:00:00","21","molfetta","19.12","1","78.28","1","0.0","1","null","6","null","6","0.0","1","null","6","41.200462","16.604997"],
    [3242,"2024-05-15 01:00:00","21","molfetta","18.56","1","81.51","1","0.0","1","null","6","null","6","0.0","1","null","6","41.200462","16.604997"],
    [3243,"2024-05-15 02:00:00","21","molfetta","18.49","1","82.41","1","0.0","1","null","6","null","6","0.0","1","null","6","41.200462","16.604997"],
    [3244,"2024-05-15 03:00:00","21","molfetta","18.39","1","82.67","1","0.0","1","null","6","null","6","0.0","1","null","6","41.200462","16.604997"],
    [3245,"2024-05-15 04:00:00","21","molfetta","18.3","1","83.25","1","0.0","1","null","6","null","6","0.0","1","null","6","41.200462","16.604997"],
    [3246,"2024-05-15 05:00:00","21","molfetta","17.82","1","84.91","1","0.0","1","null","6","null","6","0.0","5","null","6","41.200462","16.604997"],
    [3247,"2024-05-15 06:00:00","21","molfetta","17.94","1","86.08","1","0.0","1","null","6","null","6","67.63","1","null","6","41.200462","16.604997"],
    [3248,"2024-05-15 07:00:00","21","molfetta","21.69","1","73.37","1","0.0","1","null","6","null","6","284.05","1","null","6","41.200462","16.604997"],
    [3249,"2024-05-15 08:00:00","21","molfetta","23.43","1","66.21","1","0.0","1","null","6","null","6","296.64","1","null","6","41.200462","16.604997"],
    [3250,"2024-05-15 09:00:00","21","molfetta","24.43","1","58.38","1","0.0","1","null","6","null","6","476.57","1","null","6","41.200462","16.604997"],
    [3251,"2024-05-15 10:00:00","21","molfetta","26.18","1","46.86","1","0.0","1","null","6","null","6","404.52","1","null","6","41.200462","16.604997"],
    [3252,"2024-05-15 11:00:00","21","molfetta","27.1","1","43.48","1","0.0","1","null","6","null","6","472.87","1","null","6","41.200462","16.604997"],
    [3253,"2024-05-15 12:00:00","21","molfetta","27.78","1","41.05","1","0.0","1","null","6","null","6","579.81","1","null","6","41.200462","16.604997"],
    [3254,"2024-05-15 13:00:00","21","molfetta","29.11","1","38.83","1","0.0","1","null","6","null","6","795.3","1","null","6","41.200462","16.604997"],
    [3255,"2024-05-15 14:00:00","21","molfetta","28.92","1","39.86","1","0.0","1","null","6","null","6","705.68","1","null","6","41.200462","16.604997"],
    [3256,"2024-05-15 15:00:00","21","molfetta","27.53","1","43.47","1","0.0","1","null","6","null","6","392.03","1","null","6","41.200462","16.604997"],
    [3257,"2024-05-15 16:00:00","21","molfetta","27.02","1","45.42","1","0.0","1","null","6","null","6","402.03","1","null","6","41.200462","16.604997"],
    [3258,"2024-05-15 17:00:00","21","molfetta","25.14","1","50.98","1","0.0","1","null","6","null","6","171.35","1","null","6","41.200462","16.604997"],
    [3259,"2024-05-15 18:00:00","21","molfetta","23.92","1","56.11","1","0.0","1","null","6","null","6","138.07","1","null","6","41.200462","16.604997"],
    [3260,"2024-05-15 19:00:00","21","molfetta","22.64","1","60.96","1","0.0","1","null","6","null","6","27.22","1","null","6","41.200462","16.604997"],
    [3261,"2024-05-15 20:00:00","21","molfetta","21.44","1","66.13","1","0.0","1","null","6","null","6","0.0","5","null","6","41.200462","16.604997"],
    [3262,"2024-05-15 21:00:00","21","molfetta","21.05","1","68.46","1","0.0","1","null","6","null","6","0.0","1","null","6","41.200462","16.604997"],
    [3263,"2024-05-15 22:00:00","21","molfetta","21.02","1","69.78","1","0.0","1","null","6","null","6","0.0","1","null","6","41.200462","16.604997"],
    [3264,"2024-05-15 23:00:00","21","molfetta","20.89","1","71.39","1","0.0","1","null","6","null","6","0.0","1","null","6","41.200462","16.604997"],
    [3265,"2024-05-16 00:00:00","21","molfetta","20.76","1","72.61","1","0.0","1","null","6","null","6","0.0","1","null","6","41.200462","16.604997"],
    [3266,"2024-05-16 01:00:00","21","molfetta","20.64","1","74.74","1","0.0","1","null","6","null","6","0.0","1","null","6","41.200462","16.604997"],
    [3267,"2024-05-16 02:00:00","21","molfetta","19.66","1","85.08","1","0.2","1","null","6","null","6","0.0","5","null","6","41.200462","16.604997"],
    [3268,"2024-05-16 03:00:00","21","molfetta","19.51","1","86.92","1","0.0","1","null","6","null","6","0.0","5","null","6","41.200462","16.604997"],
    [3269,"2024-05-16 04:00:00","21","molfetta","19.68","1","85.38","1","0.0","1","null","6","null","6","0.0","5","null","6","41.200462","16.604997"],
    [3270,"2024-05-16 05:00:00","21","molfetta","19.74","1","83.71","1","0.0","1","null","6","null","6","0.0","5","null","6","41.200462","16.604997"],
    [3271,"2024-05-16 06:00:00","21","molfetta","20.05","1","81.39","1","0.0","1","null","6","null","6","24.94","1","null","6","41.200462","16.604997"],
    [3272,"2024-05-16 07:00:00","21","molfetta","20.85","1","75.93","1","0.0","1","null","6","null","6","100.54","1","null","6","41.200462","16.604997"],
    [3273,"2024-05-16 08:00:00","21","molfetta","21.83","1","72.1","1","0.0","1","null","6","null","6","164.05","1","null","6","41.200462","16.604997"],
    [3274,"2024-05-16 09:00:00","21","molfetta","22.89","1","67.51","1","0.0","1","null","6","null","6","237.68","1","null","6","41.200462","16.604997"],
    [3275,"2024-05-16 10:00:00","21","molfetta","24.04","1","62.34","1","0.0","1","null","6","null","6","292.78","1","null","6","41.200462","16.604997"],
    [3276,"2024-05-16 11:00:00","21","molfetta","25.71","1","57.81","1","0.0","1","null","6","null","6","520.6","1","null","6","41.200462","16.604997"],
    [3277,"2024-05-16 12:00:00","21","molfetta","26.61","1","54.4","1","0.0","1","null","6","null","6","720.98","1","null","6","41.200462","16.604997"],
    [3278,"2024-05-16 13:00:00","21","molfetta","29.05","1","42.81","1","0.0","1","null","6","null","6","837.73","1","null","6","41.200462","16.604997"],
    [3279,"2024-05-16 14:00:00","21","molfetta","31.26","1","36.51","1","0.0","1","null","6","null","6","793.27","1","null","6","41.200462","16.604997"],
    [3280,"2024-05-16 15:00:00","21","molfetta","30.41","1","41.7","1","0.0","1","null","6","null","6","688.0","1","null","6","41.200462","16.604997"],
    [3281,"2024-05-16 16:00:00","21","molfetta","30.23","1","43.05","1","0.0","1","null","6","null","6","441.1","1","null","6","41.200462","16.604997"],
    [3282,"2024-05-16 17:00:00","21","molfetta","28.08","1","48.63","1","0.0","1","null","6","null","6","171.39","1","null","6","41.200462","16.604997"],
    [3283,"2024-05-16 18:00:00","21","molfetta","28.17","1","49.01","1","0.0","1","null","6","null","6","204.53","1","null","6","41.200462","16.604997"],
    [3284,"2024-05-16 19:00:00","21","molfetta","26.27","1","55.16","1","0.0","1","null","6","null","6","50.91","1","null","6","41.200462","16.604997"],
    [3285,"2024-05-16 20:00:00","21","molfetta","24.18","1","61.94","1","0.0","1","null","6","null","6","0.0","5","null","6","41.200462","16.604997"],
    [3286,"2024-05-16 21:00:00","21","molfetta","23.18","1","65.17","1","0.0","1","null","6","null","6","0.0","1","null","6","41.200462","16.604997"],
    [3287,"2024-05-16 22:00:00","21","molfetta","22.55","1","67.32","1","0.0","1","null","6","null","6","0.0","1","null","6","41.200462","16.604997"],
    [3288,"2024-05-16 23:00:00","21","molfetta","21.66","1","72.25","1","0.0","1","null","6","null","6","0.0","1","null","6","41.200462","16.604997"],
    [3289,"2024-05-17 00:00:00","21","molfetta","21.38","1","74.76","1","0.0","1","null","6","null","6","0.0","1","null","6","41.200462","16.604997"],
    [3290,"2024-05-17 01:00:00","21","molfetta","21.18","1","75.62","1","0.0","1","null","6","null","6","0.0","1","null","6","41.200462","16.604997"],
    [3291,"2024-05-17 02:00:00","21","molfetta","21.05","1","75.67","1","0.0","1","null","6","null","6","0.0","1","null","6","41.200462","16.604997"],
    [3292,"2024-05-17 03:00:00","21","molfetta","20.93","1","74.09","1","0.0","1","null","6","null","6","0.0","1","null","6","41.200462","16.604997"],
    [3293,"2024-05-17 04:00:00","21","molfetta","20.49","1","74.61","1","0.0","1","null","6","null","6","0.0","1","null","6","41.200462","16.604997"],
    [3294,"2024-05-17 05:00:00","21","molfetta","20.25","1","64.0","1","0.0","1","null","6","null","6","0.0","5","null","6","41.200462","16.604997"],
    [3295,"2024-05-17 06:00:00","21","molfetta","20.9","1","54.37","1","0.0","1","null","6","null","6","76.41","1","null","6","41.200462","16.604997"],
    [3296,"2024-05-17 07:00:00","21","molfetta","24.48","1","38.58","1","0.0","1","null","6","null","6","341.59","1","null","6","41.200462","16.604997"],
    [3297,"2024-05-17 08:00:00","21","molfetta","26.31","1","33.76","1","0.0","1","null","6","null","6","545.08","1","null","6","41.200462","16.604997"],
    [3298,"2024-05-17 09:00:00","21","molfetta","27.27","1","38.98","1","0.0","1","null","6","null","6","706.57","1","null","6","41.200462","16.604997"],
    [3299,"2024-05-17 10:00:00","21","molfetta","25.57","1","49.89","1","0.0","1","null","6","null","6","836.67","1","null","6","41.200462","16.604997"],
    [3300,"2024-05-17 11:00:00","21","molfetta","25.75","1","51.56","1","0.0","1","null","6","null","6","922.27","1","null","6","41.200462","16.604997"],
    [3301,"2024-05-17 12:00:00","21","molfetta","26.62","1","48.22","1","0.0","1","null","6","null","6","971.54","1","null","6","41.200462","16.604997"],
    [3302,"2024-05-17 13:00:00","21","molfetta","28.52","1","41.45","1","0.0","1","null","6","null","6","941.09","1","null","6","41.200462","16.604997"],
    [3303,"2024-05-17 14:00:00","21","molfetta","28.0","1","50.24","1","0.0","1","null","6","null","6","872.14","1","null","6","41.200462","16.604997"],
    [3304,"2024-05-17 15:00:00","21","molfetta","26.92","1","56.86","1","0.0","1","null","6","null","6","759.15","1","null","6","41.200462","16.604997"],
    [3305,"2024-05-17 16:00:00","21","molfetta","26.79","1","59.2","1","0.0","1","null","6","null","6","600.92","1","null","6","41.200462","16.604997"],
    [3306,"2024-05-17 17:00:00","21","molfetta","26.0","1","62.83","1","0.0","1","null","6","null","6","407.34","1","null","6","41.200462","16.604997"],
    [3307,"2024-05-17 18:00:00","21","molfetta","25.37","1","65.77","1","0.0","1","null","6","null","6","209.1","1","null","6","41.200462","16.604997"],
    [3308,"2024-05-17 19:00:00","21","molfetta","22.96","1","74.62","1","0.0","1","null","6","null","6","38.18","1","null","6","41.200462","16.604997"],
    [3309,"2024-05-17 20:00:00","21","molfetta","20.97","1","85.05","1","0.0","1","null","6","null","6","0.0","5","null","6","41.200462","16.604997"],
    [3310,"2024-05-17 21:00:00","21","molfetta","20.52","1","85.34","1","0.0","1","null","6","null","6","0.0","1","null","6","41.200462","16.604997"],
    [3311,"2024-05-17 22:00:00","21","molfetta","20.35","1","84.7","1","0.0","1","null","6","null","6","0.0","1","null","6","41.200462","16.604997"],
    [3312,"2024-05-17 23:00:00","21","molfetta","20.19","1","84.39","1","0.0","1","null","6","null","6","0.0","1","null","6","41.200462","16.604997"],
    [3313,"2024-05-18 00:00:00","21","molfetta","19.86","1","83.31","1","0.0","1","null","6","null","6","0.0","1","null","6","41.200462","16.604997"],
    [3314,"2024-05-18 01:00:00","21","molfetta","19.06","1","75.28","1","0.0","1","null","6","null","6","0.0","1","null","6","41.200462","16.604997"],
    [3315,"2024-05-18 02:00:00","21","molfetta","18.94","1","64.24","1","0.0","1","null","6","null","6","0.0","1","null","6","41.200462","16.604997"],
    [3316,"2024-05-18 03:00:00","21","molfetta","19.12","1","73.3","1","0.0","1","null","6","null","6","0.0","1","null","6","41.200462","16.604997"],
    [3317,"2024-05-18 04:00:00","21","molfetta","18.87","1","83.75","1","0.0","1","null","6","null","6","0.0","1","null","6","41.200462","16.604997"],
    [3318,"2024-05-18 05:00:00","21","molfetta","18.16","1","83.93","1","0.0","1","null","6","null","6","5.3","1","null","6","41.200462","16.604997"],
    [3319,"2024-05-18 06:00:00","21","molfetta","18.22","1","81.7","1","0.0","1","null","6","null","6","65.09","1","null","6","41.200462","16.604997"],
    [3320,"2024-05-18 07:00:00","21","molfetta","18.4","1","87.77","1","0.0","1","null","6","null","6","129.32","1","null","6","41.200462","16.604997"],
    [3321,"2024-05-18 08:00:00","21","molfetta","19.37","1","89.91","1","0.0","1","null","6","null","6","246.56","1","null","6","41.200462","16.604997"],
    [3322,"2024-05-18 09:00:00","21","molfetta","21.74","1","79.43","1","0.0","1","null","6","null","6","540.18","1","null","6","41.200462","16.604997"],
    [3323,"2024-05-18 10:00:00","21","molfetta","23.57","1","71.42","1","0.0","1","null","6","null","6","647.94","1","null","6","41.200462","16.604997"],
    [3324,"2024-05-18 11:00:00","21","molfetta","23.62","1","70.77","1","0.0","1","null","6","null","6","704.4","1","null","6","41.200462","16.604997"],
    [3325,"2024-05-18 12:00:00","21","molfetta","23.63","1","69.8","1","0.0","1","null","6","null","6","585.59","1","null","6","41.200462","16.604997"],
    [3326,"2024-05-18 13:00:00","21","molfetta","23.49","1","70.42","1","0.0","1","null","6","null","6","568.47","1","null","6","41.200462","16.604997"],
    [3327,"2024-05-18 14:00:00","21","molfetta","22.97","1","72.24","1","0.0","1","null","6","null","6","239.23","1","null","6","41.200462","16.604997"],
    [3328,"2024-05-18 15:00:00","21","molfetta","21.4","1","79.97","1","0.0","1","null","6","null","6","73.27","1","null","6","41.200462","16.604997"],
    [3329,"2024-05-18 16:00:00","21","molfetta","19.87","1","91.92","1","9.6","1","null","6","null","6","9.73","1","null","6","41.200462","16.604997"],
    [3330,"2024-05-18 17:00:00","21","molfetta","19.48","1","97.67","1","1.8","1","null","6","null","6","46.34","1","null","6","41.200462","16.604997"],
    [3331,"2024-05-18 18:00:00","21","molfetta","19.08","1","98.36","1","1.4","1","null","6","null","6","15.9","1","null","6","41.200462","16.604997"],
    [3332,"2024-05-18 19:00:00","21","molfetta","18.63","1","97.49","1","0.4","1","null","6","null","6","5.27","1","null","6","41.200462","16.604997"],
    [3333,"2024-05-18 20:00:00","21","molfetta","18.85","1","97.29","1","0.2","1","null","6","null","6","0.0","1","null","6","41.200462","16.604997"],
    [3334,"2024-05-18 21:00:00","21","molfetta","18.81","1","97.5","1","0.0","1","null","6","null","6","0.0","1","null","6","41.200462","16.604997"],
    [3335,"2024-05-18 22:00:00","21","molfetta","18.88","1","97.39","1","0.0","1","null","6","null","6","0.0","1","null","6","41.200462","16.604997"],
    [3336,"2024-05-18 23:00:00","21","molfetta","18.6","1","96.99","1","0.0","1","null","6","null","6","0.0","1","null","6","41.200462","16.604997"],
    [3337,"2024-05-19 00:00:00","21","molfetta","18.77","1","96.85","1","0.0","1","null","6","null","6","0.0","1","null","6","41.200462","16.604997"],
    [3338,"2024-05-19 01:00:00","21","molfetta","18.46","1","97.2","1","0.0","1","null","6","null","6","0.0","1","null","6","41.200462","16.604997"],
    [3339,"2024-05-19 02:00:00","21","molfetta","18.16","1","97.95","1","0.0","1","null","6","null","6","0.0","1","null","6","41.200462","16.604997"],
    [3340,"2024-05-19 03:00:00","21","molfetta","17.67","1","98.47","1","0.0","1","null","6","null","6","0.0","1","null","6","41.200462","16.604997"],
    [3341,"2024-05-19 04:00:00","21","molfetta","17.39","1","98.37","1","0.0","1","null","6","null","6","0.0","1","null","6","41.200462","16.604997"],
    [3342,"2024-05-19 05:00:00","21","molfetta","17.25","1","97.54","1","0.0","1","null","6","null","6","8.78","1","null","6","41.200462","16.604997"],
    [3343,"2024-05-19 06:00:00","21","molfetta","17.48","1","96.46","1","0.0","1","null","6","null","6","62.95","1","null","6","41.200462","16.604997"],
    [3344,"2024-05-19 07:00:00","21","molfetta","18.87","1","94.03","1","0.0","1","null","6","null","6","219.01","1","null","6","41.200462","16.604997"],
    [3345,"2024-05-19 08:00:00","21","molfetta","21.99","1","80.68","1","0.0","1","null","6","null","6","396.89","1","null","6","41.200462","16.604997"],
    [3346,"2024-05-19 09:00:00","21","molfetta","24.32","1","65.35","1","0.0","1","null","6","null","6","546.68","1","null","6","41.200462","16.604997"],
    [3347,"2024-05-19 10:00:00","21","molfetta","24.71","1","65.37","1","0.0","1","null","6","null","6","728.84","1","null","6","41.200462","16.604997"],
    [3348,"2024-05-19 11:00:00","21","molfetta","25.09","1","66.35","1","0.0","1","null","6","null","6","844.01","1","null","6","41.200462","16.604997"],
    [3349,"2024-05-19 12:00:00","21","molfetta","25.35","1","64.94","1","0.0","1","null","6","null","6","854.5","1","null","6","41.200462","16.604997"],
    [3350,"2024-05-19 13:00:00","21","molfetta","25.77","1","63.06","1","0.0","1","null","6","null","6","807.8","1","null","6","41.200462","16.604997"],
    [3351,"2024-05-19 14:00:00","21","molfetta","25.62","1","64.54","1","0.0","1","null","6","null","6","644.47","1","null","6","41.200462","16.604997"],
    [3352,"2024-05-19 15:00:00","21","molfetta","23.64","1","71.61","1","0.0","1","null","6","null","6","131.45","1","null","6","41.200462","16.604997"],
    [3353,"2024-05-19 16:00:00","21","molfetta","21.94","1","84.14","1","0.4","1","null","6","null","6","52.36","1","null","6","41.200462","16.604997"],
    [3354,"2024-05-19 17:00:00","21","molfetta","21.56","1","89.69","1","4.2","1","null","6","null","6","8.89","1","null","6","41.200462","16.604997"],
    [3355,"2024-05-19 18:00:00","21","molfetta","20.17","1","95.38","1","6.0","1","null","6","null","6","19.62","1","null","6","41.200462","16.604997"],
    [3356,"2024-05-19 19:00:00","21","molfetta","19.95","1","97.65","1","0.0","1","null","6","null","6","19.27","1","null","6","41.200462","16.604997"],
    [3357,"2024-05-19 20:00:00","21","molfetta","19.63","1","98.52","1","0.0","1","null","6","null","6","0.0","5","null","6","41.200462","16.604997"],
    [3358,"2024-05-19 21:00:00","21","molfetta","19.41","1","99.17","1","0.0","1","null","6","null","6","0.0","1","null","6","41.200462","16.604997"],
    [3359,"2024-05-19 22:00:00","21","molfetta","19.22","1","99.62","1","0.0","1","null","6","null","6","0.0","1","null","6","41.200462","16.604997"],
    [3360,"2024-05-19 23:00:00","21","molfetta","18.83","1","99.88","1","0.0","1","null","6","null","6","0.0","1","null","6","41.200462","16.604997"],
    [3361,"2024-05-20 00:00:00","21","molfetta","18.73","1","99.71","1","0.0","1","null","6","null","6","0.0","1","null","6","41.200462","16.604997"],
    [3362,"2024-05-20 01:00:00","21","molfetta","18.63","1","99.62","1","0.0","1","null","6","null","6","0.0","1","null","6","41.200462","16.604997"],
    [3363,"2024-05-20 02:00:00","21","molfetta","18.38","1","99.9","1","0.0","1","null","6","null","6","0.0","1","null","6","41.200462","16.604997"],
    [3364,"2024-05-20 03:00:00","21","molfetta","18.17","1","99.98","1","0.0","1","null","6","null","6","0.0","1","null","6","41.200462","16.604997"],
    [3365,"2024-05-20 04:00:00","21","molfetta","17.71","1","99.92","1","0.0","1","null","6","null","6","0.0","1","null","6","41.200462","16.604997"],
    [3366,"2024-05-20 05:00:00","21","molfetta","18.26","1","100.0","1","0.0","1","null","6","null","6","0.0","5","null","6","41.200462","16.604997"],
    [3367,"2024-05-20 06:00:00","21","molfetta","18.92","1","99.65","1","0.0","1","null","6","null","6","49.9","1","null","6","41.200462","16.604997"],
    [3368,"2024-05-20 07:00:00","21","molfetta","19.63","1","97.74","1","0.0","1","null","6","null","6","84.34","1","null","6","41.200462","16.604997"],
    [3369,"2024-05-20 08:00:00","21","molfetta","20.37","1","94.48","1","0.0","1","null","6","null","6","153.62","1","null","6","41.200462","16.604997"],
    [3370,"2024-05-20 09:00:00","21","molfetta","21.53","1","88.86","1","0.0","1","null","6","null","6","307.62","1","null","6","41.200462","16.604997"],
    [3371,"2024-05-20 10:00:00","21","molfetta","24.1","1","76.24","1","0.0","1","null","6","null","6","685.14","1","null","6","41.200462","16.604997"],
    [3372,"2024-05-20 11:00:00","21","molfetta","24.61","1","71.59","1","0.0","1","null","6","null","6","618.92","1","null","6","41.200462","16.604997"],
    [3373,"2024-05-20 12:00:00","21","molfetta","25.3","1","69.72","1","0.0","1","null","6","null","6","747.9","1","null","6","41.200462","16.604997"],
    [3374,"2024-05-20 13:00:00","21","molfetta","24.68","1","72.15","1","0.0","1","null","6","null","6","551.69","1","null","6","41.200462","16.604997"],
    [3375,"2024-05-20 14:00:00","21","molfetta","26.25","1","69.06","1","0.0","1","null","6","null","6","756.58","1","null","6","41.200462","16.604997"],
    [3376,"2024-05-20 15:00:00","21","molfetta","26.47","1","69.17","1","0.0","1","null","6","null","6","591.03","1","null","6","41.200462","16.604997"],
    [3377,"2024-05-20 16:00:00","21","molfetta","26.17","1","70.59","1","0.0","1","null","6","null","6","496.7","1","null","6","41.200462","16.604997"],
    [3378,"2024-05-20 17:00:00","21","molfetta","25.65","1","72.61","1","0.0","1","null","6","null","6","328.52","1","null","6","41.200462","16.604997"],
    [3379,"2024-05-20 18:00:00","21","molfetta","24.62","1","76.43","1","0.0","1","null","6","null","6","147.87","1","null","6","41.200462","16.604997"],
    [3380,"2024-05-20 19:00:00","21","molfetta","22.7","1","84.21","1","0.0","1","null","6","null","6","30.81","1","null","6","41.200462","16.604997"],
    [3381,"2024-05-20 20:00:00","21","molfetta","21.62","1","89.52","1","0.0","1","null","6","null","6","0.0","5","null","6","41.200462","16.604997"],
    [3382,"2024-05-20 21:00:00","21","molfetta","21.33","1","91.74","1","0.0","1","null","6","null","6","0.0","1","null","6","41.200462","16.604997"],
    [3383,"2024-05-20 22:00:00","21","molfetta","21.01","1","87.89","1","0.0","1","null","6","null","6","0.0","1","null","6","41.200462","16.604997"],
    [3384,"2024-05-20 23:00:00","21","molfetta","21.56","1","78.21","1","0.0","1","null","6","null","6","0.0","1","null","6","41.200462","16.604997"],
    [3385,"2024-05-21 00:00:00","21","molfetta","21.32","1","76.8","1","0.0","1","null","6","null","6","0.0","1","null","6","41.200462","16.604997"],
    [3386,"2024-05-21 01:00:00","21","molfetta","20.78","1","74.95","1","0.0","1","null","6","null","6","0.0","1","null","6","41.200462","16.604997"],
    [3387,"2024-05-21 02:00:00","21","molfetta","20.28","1","73.07","1","0.0","1","null","6","null","6","0.0","1","null","6","41.200462","16.604997"],
    [3388,"2024-05-21 03:00:00","21","molfetta","20.08","1","72.93","1","0.0","1","null","6","null","6","0.0","1","null","6","41.200462","16.604997"],
    [3389,"2024-05-21 04:00:00","21","molfetta","19.92","1","74.24","1","0.0","1","null","6","null","6","0.0","1","null","6","41.200462","16.604997"],
    [3390,"2024-05-21 05:00:00","21","molfetta","20.36","1","71.34","1","0.0","1","null","6","null","6","5.21","1","null","6","41.200462","16.604997"],
    [3391,"2024-05-21 06:00:00","21","molfetta","21.52","1","67.87","1","0.0","1","null","6","null","6","70.68","1","null","6","41.200462","16.604997"],
    [3392,"2024-05-21 07:00:00","21","molfetta","23.5","1","64.31","1","0.0","1","null","6","null","6","204.51","1","null","6","41.200462","16.604997"],
    [3393,"2024-05-21 08:00:00","21","molfetta","25.57","1","56.04","1","0.0","1","null","6","null","6","320.55","1","null","6","41.200462","16.604997"],
    [3394,"2024-05-21 09:00:00","21","molfetta","27.67","1","50.24","1","0.0","1","null","6","null","6","466.02","1","null","6","41.200462","16.604997"],
    [3395,"2024-05-21 10:00:00","21","molfetta","28.87","1","48.82","1","0.0","1","null","6","null","6","693.36","1","null","6","41.200462","16.604997"],
    [3396,"2024-05-21 11:00:00","21","molfetta","29.01","1","49.1","1","0.0","1","null","6","null","6","803.91","1","null","6","41.200462","16.604997"],
    [3397,"2024-05-21 12:00:00","21","molfetta","30.52","1","41.05","1","0.0","1","null","6","null","6","797.25","1","null","6","41.200462","16.604997"],
    [3398,"2024-05-21 13:00:00","21","molfetta","30.61","1","40.12","1","0.0","1","null","6","null","6","920.3","1","null","6","41.200462","16.604997"],
    [3399,"2024-05-21 14:00:00","21","molfetta","32.17","1","26.65","1","0.0","1","null","6","null","6","879.32","1","null","6","41.200462","16.604997"],
    [3400,"2024-05-21 15:00:00","21","molfetta","32.39","1","26.23","1","0.0","1","null","6","null","6","776.53","1","null","6","41.200462","16.604997"],
    [3401,"2024-05-21 16:00:00","21","molfetta","32.62","1","26.67","1","0.0","1","null","6","null","6","615.73","1","null","6","41.200462","16.604997"],
    [3402,"2024-05-21 17:00:00","21","molfetta","31.84","1","27.67","1","0.0","1","null","6","null","6","427.25","1","null","6","41.200462","16.604997"],
    [3403,"2024-05-21 18:00:00","21","molfetta","30.36","1","29.33","1","0.0","1","null","6","null","6","229.38","1","null","6","41.200462","16.604997"],
    [3404,"2024-05-21 19:00:00","21","molfetta","27.95","1","34.88","1","0.0","1","null","6","null","6","46.02","1","null","6","41.200462","16.604997"],
    [3405,"2024-05-21 20:00:00","21","molfetta","25.58","1","37.73","1","0.0","1","null","6","null","6","0.0","5","null","6","41.200462","16.604997"],
    [3406,"2024-05-21 21:00:00","21","molfetta","24.23","1","43.62","1","0.0","1","null","6","null","6","0.0","1","null","6","41.200462","16.604997"],
    [3407,"2024-05-21 22:00:00","21","molfetta","23.01","1","46.26","1","0.0","1","null","6","null","6","0.0","1","null","6","41.200462","16.604997"],
    [3408,"2024-05-21 23:00:00","21","molfetta","22.05","1","48.22","1","0.0","1","null","6","null","6","0.0","1","null","6","41.200462","16.604997"],
    [3409,"2024-05-22 00:00:00","21","molfetta","21.26","1","46.54","1","0.0","1","null","6","null","6","0.0","1","null","6","41.200462","16.604997"],
    [3410,"2024-05-22 01:00:00","21","molfetta","20.8","1","45.81","1","0.0","1","null","6","null","6","0.0","1","null","6","41.200462","16.604997"],
    [3411,"2024-05-22 02:00:00","21","molfetta","20.34","1","47.42","1","0.0","1","null","6","null","6","0.0","1","null","6","41.200462","16.604997"],
    [3412,"2024-05-22 03:00:00","21","molfetta","20.23","1","46.28","1","0.0","1","null","6","null","6","0.0","1","null","6","41.200462","16.604997"],
    [3413,"2024-05-22 04:00:00","21","molfetta","19.98","1","48.36","1","0.0","1","null","6","null","6","0.0","1","null","6","41.200462","16.604997"],
    [3414,"2024-05-22 05:00:00","21","molfetta","20.0","1","48.82","1","0.0","1","null","6","null","6","6.4","1","null","6","41.200462","16.604997"],
    [3415,"2024-05-22 06:00:00","21","molfetta","20.47","1","49.42","1","0.0","1","null","6","null","6","84.8","1","null","6","41.200462","16.604997"],
    [3416,"2024-05-22 07:00:00","21","molfetta","22.69","1","45.63","1","0.0","1","null","6","null","6","351.63","1","null","6","41.200462","16.604997"],
    [3417,"2024-05-22 08:00:00","21","molfetta","24.1","1","40.43","1","0.0","1","null","6","null","6","542.73","1","null","6","41.200462","16.604997"],
    [3418,"2024-05-22 09:00:00","21","molfetta","25.49","1","36.13","1","0.0","1","null","6","null","6","688.3","1","null","6","41.200462","16.604997"],
    [3419,"2024-05-22 10:00:00","21","molfetta","26.34","1","31.8","1","0.0","1","null","6","null","6","692.51","1","null","6","41.200462","16.604997"],
    [3420,"2024-05-22 11:00:00","21","molfetta","26.93","1","35.81","1","0.0","1","null","6","null","6","786.93","1","null","6","41.200462","16.604997"],
    [3421,"2024-05-22 12:00:00","21","molfetta","24.82","1","58.7","1","0.0","1","null","6","null","6","958.88","1","null","6","41.200462","16.604997"],
    [3422,"2024-05-22 13:00:00","21","molfetta","24.68","1","61.55","1","0.0","1","null","6","null","6","952.71","1","null","6","41.200462","16.604997"],
    [3423,"2024-05-22 14:00:00","21","molfetta","26.04","1","54.96","1","0.0","1","null","6","null","6","888.35","1","null","6","41.200462","16.604997"],
    [3424,"2024-05-22 15:00:00","21","molfetta","26.77","1","51.19","1","0.0","1","null","6","null","6","648.6","1","null","6","41.200462","16.604997"],
    [3425,"2024-05-22 16:00:00","21","molfetta","26.39","1","55.58","1","0.0","1","null","6","null","6","439.91","1","null","6","41.200462","16.604997"],
    [3426,"2024-05-22 17:00:00","21","molfetta","25.44","1","57.29","1","0.0","1","null","6","null","6","311.68","1","null","6","41.200462","16.604997"],
    [3427,"2024-05-22 18:00:00","21","molfetta","23.87","1","61.8","1","0.0","1","null","6","null","6","75.66","1","null","6","41.200462","16.604997"],
    [3428,"2024-05-22 19:00:00","21","molfetta","21.44","1","59.27","1","0.0","1","null","6","null","6","20.58","1","null","6","41.200462","16.604997"],
    [3429,"2024-05-22 20:00:00","21","molfetta","21.25","1","51.6","1","0.0","1","null","6","null","6","0.0","5","null","6","41.200462","16.604997"],
    [3430,"2024-05-22 21:00:00","21","molfetta","20.71","1","58.34","1","0.0","1","null","6","null","6","0.0","1","null","6","41.200462","16.604997"],
    [3431,"2024-05-22 22:00:00","21","molfetta","20.66","1","56.59","1","0.0","1","null","6","null","6","0.0","1","null","6","41.200462","16.604997"],
    [3432,"2024-05-22 23:00:00","21","molfetta","21.0","1","49.59","1","0.0","1","null","6","null","6","0.0","1","null","6","41.200462","16.604997"],
    [3433,"2024-05-23 00:00:00","21","molfetta","20.76","1","49.92","1","0.0","1","null","6","null","6","0.0","1","null","6","41.200462","16.604997"],
    [3434,"2024-05-23 01:00:00","21","molfetta","20.52","1","50.78","1","0.0","1","null","6","null","6","0.0","1","null","6","41.200462","16.604997"],
    [3435,"2024-05-23 02:00:00","21","molfetta","20.19","1","50.63","1","0.0","1","null","6","null","6","0.0","1","null","6","41.200462","16.604997"],
    [3436,"2024-05-23 03:00:00","21","molfetta","19.78","1","52.2","1","0.0","1","null","6","null","6","0.0","1","null","6","41.200462","16.604997"],
    [3437,"2024-05-23 04:00:00","21","molfetta","19.28","1","54.16","1","0.0","1","null","6","null","6","0.0","1","null","6","41.200462","16.604997"],
    [3438,"2024-05-23 05:00:00","21","molfetta","18.82","1","56.9","1","0.0","1","null","6","null","6","6.64","1","null","6","41.200462","16.604997"],
    [3439,"2024-05-23 06:00:00","21","molfetta","19.24","1","56.38","1","0.0","1","null","6","null","6","83.8","1","null","6","41.200462","16.604997"],
    [3440,"2024-05-23 07:00:00","21","molfetta","21.81","1","49.24","1","0.0","1","null","6","null","6","341.63","1","null","6","41.200462","16.604997"],
    [3441,"2024-05-23 08:00:00","21","molfetta","24.16","1","43.05","1","0.0","1","null","6","null","6","534.24","1","null","6","41.200462","16.604997"],
    [3442,"2024-05-23 09:00:00","21","molfetta","25.86","1","45.48","1","0.0","1","null","6","null","6","705.38","1","null","6","41.200462","16.604997"],
    [3443,"2024-05-23 10:00:00","21","molfetta","26.17","1","46.4","1","0.0","1","null","6","null","6","842.89","1","null","6","41.200462","16.604997"],
    [3444,"2024-05-23 11:00:00","21","molfetta","26.16","1","48.69","1","0.0","1","null","6","null","6","921.31","1","null","6","41.200462","16.604997"],
    [3445,"2024-05-23 12:00:00","21","molfetta","26.23","1","48.31","1","0.0","1","null","6","null","6","966.13","1","null","6","41.200462","16.604997"],
    [3446,"2024-05-23 13:00:00","21","molfetta","25.93","1","51.94","1","0.0","1","null","6","null","6","951.55","1","null","6","41.200462","16.604997"],
    [3447,"2024-05-23 14:00:00","21","molfetta","26.52","1","50.86","1","0.0","1","null","6","null","6","883.87","1","null","6","41.200462","16.604997"],
    [3448,"2024-05-23 15:00:00","21","molfetta","27.9","1","45.76","1","0.0","1","null","6","null","6","767.9","1","null","6","41.200462","16.604997"],
    [3449,"2024-05-23 16:00:00","21","molfetta","27.72","1","45.33","1","0.0","1","null","6","null","6","605.54","1","null","6","41.200462","16.604997"],
    [3450,"2024-05-23 17:00:00","21","molfetta","27.01","1","49.7","1","0.0","1","null","6","null","6","419.69","1","null","6","41.200462","16.604997"],
    [3451,"2024-05-23 18:00:00","21","molfetta","25.84","1","54.31","1","0.0","1","null","6","null","6","213.36","1","null","6","41.200462","16.604997"],
    [3452,"2024-05-23 19:00:00","21","molfetta","23.68","1","60.93","1","0.0","1","null","6","null","6","52.11","1","null","6","41.200462","16.604997"],
    [3453,"2024-05-23 20:00:00","21","molfetta","22.29","1","65.48","1","0.0","1","null","6","null","6","0.0","5","null","6","41.200462","16.604997"],
    [3454,"2024-05-23 21:00:00","21","molfetta","21.96","1","67.38","1","0.0","1","null","6","null","6","0.0","1","null","6","41.200462","16.604997"],
    [3455,"2024-05-23 22:00:00","21","molfetta","21.45","1","68.53","1","0.0","1","null","6","null","6","0.0","1","null","6","41.200462","16.604997"],
    [3456,"2024-05-23 23:00:00","21","molfetta","20.96","1","69.59","1","0.0","1","null","6","null","6","0.0","1","null","6","41.200462","16.604997"],
    [3457,"2024-05-24 00:00:00","21","molfetta","20.61","1","67.97","1","0.0","1","null","6","null","6","0.0","1","null","6","41.200462","16.604997"],
    [3458,"2024-05-24 01:00:00","21","molfetta","20.58","1","58.19","1","0.0","1","null","6","null","6","0.0","1","null","6","41.200462","16.604997"],
    [3459,"2024-05-24 02:00:00","21","molfetta","20.4","1","53.41","1","0.0","1","null","6","null","6","0.0","1","null","6","41.200462","16.604997"],
    [3460,"2024-05-24 03:00:00","21","molfetta","19.42","1","57.67","1","0.0","1","null","6","null","6","0.0","1","null","6","41.200462","16.604997"],
    [3461,"2024-05-24 04:00:00","21","molfetta","18.35","1","59.0","1","0.0","1","null","6","null","6","0.0","1","null","6","41.200462","16.604997"],
    [3462,"2024-05-24 05:00:00","21","molfetta","18.58","1","53.84","1","0.0","1","null","6","null","6","6.68","1","null","6","41.200462","16.604997"],
    [3463,"2024-05-24 06:00:00","21","molfetta","19.28","1","51.17","1","0.0","1","null","6","null","6","84.66","1","null","6","41.200462","16.604997"],
    [3464,"2024-05-24 07:00:00","21","molfetta","21.67","1","48.71","1","0.0","1","null","6","null","6","329.67","1","null","6","41.200462","16.604997"],
    [3465,"2024-05-24 08:00:00","21","molfetta","23.88","1","49.15","1","0.0","1","null","6","null","6","525.54","1","null","6","41.200462","16.604997"],
    [3466,"2024-05-24 09:00:00","21","molfetta","25.59","1","45.81","1","0.0","1","null","6","null","6","701.28","1","null","6","41.200462","16.604997"],
    [3467,"2024-05-24 10:00:00","21","molfetta","26.54","1","46.49","1","0.0","1","null","6","null","6","837.77","1","null","6","41.200462","16.604997"],
    [3468,"2024-05-24 11:00:00","21","molfetta","25.94","1","53.22","1","0.0","1","null","6","null","6","895.04","1","null","6","41.200462","16.604997"],
    [3469,"2024-05-24 12:00:00","21","molfetta","24.79","1","60.54","1","0.0","1","null","6","null","6","887.63","1","null","6","41.200462","16.604997"],
    [3470,"2024-05-24 13:00:00","21","molfetta","24.46","1","65.72","1","0.0","1","null","6","null","6","756.6","1","null","6","41.200462","16.604997"],
    [3471,"2024-05-24 14:00:00","21","molfetta","26.04","1","61.27","1","0.0","1","null","6","null","6","879.56","1","null","6","41.200462","16.604997"],
    [3472,"2024-05-24 15:00:00","21","molfetta","26.68","1","58.42","1","0.0","1","null","6","null","6","764.68","1","null","6","41.200462","16.604997"],
    [3473,"2024-05-24 16:00:00","21","molfetta","26.23","1","58.89","1","0.0","1","null","6","null","6","509.02","1","null","6","41.200462","16.604997"],
    [3474,"2024-05-24 17:00:00","21","molfetta","25.74","1","58.39","1","0.0","1","null","6","null","6","277.13","1","null","6","41.200462","16.604997"],
    [3475,"2024-05-24 18:00:00","21","molfetta","23.66","1","63.53","1","0.0","1","null","6","null","6","112.31","1","null","6","41.200462","16.604997"],
    [3476,"2024-05-24 19:00:00","21","molfetta","22.47","1","67.1","1","0.0","1","null","6","null","6","29.96","1","null","6","41.200462","16.604997"],
    [3477,"2024-05-24 20:00:00","21","molfetta","21.81","1","65.22","1","0.0","1","null","6","null","6","0.0","5","null","6","41.200462","16.604997"],
    [3478,"2024-05-24 21:00:00","21","molfetta","21.67","1","64.19","1","0.0","1","null","6","null","6","0.0","1","null","6","41.200462","16.604997"],
    [3479,"2024-05-24 22:00:00","21","molfetta","21.22","1","66.36","1","0.0","1","null","6","null","6","0.0","1","null","6","41.200462","16.604997"],
    [3480,"2024-05-24 23:00:00","21","molfetta","20.77","1","67.89","1","0.0","1","null","6","null","6","0.0","1","null","6","41.200462","16.604997"],
    [3481,"2024-05-25 00:00:00","21","molfetta","20.46","1","68.13","1","0.0","1","null","6","null","6","0.0","1","null","6","41.200462","16.604997"],
    [3482,"2024-05-25 01:00:00","21","molfetta","20.06","1","70.0","1","0.0","1","null","6","null","6","0.0","1","null","6","41.200462","16.604997"],
    [3483,"2024-05-25 02:00:00","21","molfetta","19.82","1","69.9","1","0.0","1","null","6","null","6","0.0","1","null","6","41.200462","16.604997"],
    [3484,"2024-05-25 03:00:00","21","molfetta","19.02","1","71.48","1","0.0","1","null","6","null","6","0.0","1","null","6","41.200462","16.604997"],
    [3485,"2024-05-25 04:00:00","21","molfetta","18.77","1","72.43","1","0.0","1","null","6","null","6","0.0","1","null","6","41.200462","16.604997"],
    [3486,"2024-05-25 05:00:00","21","molfetta","18.19","1","80.12","1","0.0","1","null","6","null","6","9.25","1","null","6","41.200462","16.604997"],
    [3487,"2024-05-25 06:00:00","21","molfetta","18.42","1","80.87","1","0.0","1","null","6","null","6","100.3","1","null","6","41.200462","16.604997"],
    [3488,"2024-05-25 07:00:00","21","molfetta","21.97","1","72.2","1","0.0","1","null","6","null","6","289.35","1","null","6","41.200462","16.604997"],
    [3489,"2024-05-25 08:00:00","21","molfetta","23.75","1","67.83","1","0.0","1","null","6","null","6","393.91","1","null","6","41.200462","16.604997"],
    [3490,"2024-05-25 09:00:00","21","molfetta","22.2","1","75.77","1","0.0","1","null","6","null","6","212.62","1","null","6","41.200462","16.604997"],
    [3491,"2024-05-25 10:00:00","21","molfetta","21.62","1","79.55","1","0.0","1","null","6","null","6","192.7","1","null","6","41.200462","16.604997"],
    [3492,"2024-05-25 11:00:00","21","molfetta","23.58","1","72.56","1","0.0","1","null","6","null","6","738.36","1","null","6","41.200462","16.604997"],
    [3493,"2024-05-25 12:00:00","21","molfetta","24.0","1","66.85","1","0.0","1","null","6","null","6","459.19","1","null","6","41.200462","16.604997"],
    [3494,"2024-05-25 13:00:00","21","molfetta","22.95","1","64.04","1","0.0","1","null","6","null","6","267.91","1","null","6","41.200462","16.604997"],
    [3495,"2024-05-25 14:00:00","21","molfetta","22.25","1","65.69","1","0.0","1","null","6","null","6","154.98","1","null","6","41.200462","16.604997"],
    [3496,"2024-05-25 15:00:00","21","molfetta","22.03","1","62.59","1","0.0","1","null","6","null","6","84.87","1","null","6","41.200462","16.604997"],
    [3497,"2024-05-25 16:00:00","21","molfetta","21.0","1","69.93","1","0.8","1","null","6","null","6","62.34","1","null","6","41.200462","16.604997"],
    [3498,"2024-05-25 17:00:00","21","molfetta","20.29","1","80.07","1","0.0","1","null","6","null","6","91.15","1","null","6","41.200462","16.604997"],
    [3499,"2024-05-25 18:00:00","21","molfetta","20.44","1","78.22","1","0.0","1","null","6","null","6","41.15","1","null","6","41.200462","16.604997"],
    [3500,"2024-05-25 19:00:00","21","molfetta","20.04","1","76.13","1","0.4","1","null","6","null","6","5.29","1","null","6","41.200462","16.604997"],
    [3501,"2024-05-25 20:00:00","21","molfetta","19.2","1","74.8","1","0.2","1","null","6","null","6","0.0","1","null","6","41.200462","16.604997"],
    [3502,"2024-05-25 21:00:00","21","molfetta","18.88","1","73.7","1","0.0","1","null","6","null","6","0.0","1","null","6","41.200462","16.604997"],
    [3503,"2024-05-25 22:00:00","21","molfetta","17.83","1","70.26","1","0.0","1","null","6","null","6","0.0","5","null","6","41.200462","16.604997"],
    [3504,"2024-05-25 23:00:00","21","molfetta","17.97","1","68.46","1","0.0","1","null","6","null","6","0.0","5","null","6","41.200462","16.604997"],
    [3505,"2024-05-26 00:00:00","21","molfetta","18.34","1","66.15","1","0.0","1","null","6","null","6","0.0","1","null","6","41.200462","16.604997"],
    [3506,"2024-05-26 01:00:00","21","molfetta","18.56","1","62.88","1","0.0","1","null","6","null","6","0.0","1","null","6","41.200462","16.604997"],
    [3507,"2024-05-26 02:00:00","21","molfetta","18.73","1","59.02","1","0.0","1","null","6","null","6","0.0","1","null","6","41.200462","16.604997"],
    [3508,"2024-05-26 03:00:00","21","molfetta","18.89","1","56.62","1","0.0","1","null","6","null","6","0.0","1","null","6","41.200462","16.604997"],
    [3509,"2024-05-26 04:00:00","21","molfetta","18.58","1","65.58","1","0.0","1","null","6","null","6","0.0","1","null","6","41.200462","16.604997"],
    [3510,"2024-05-26 05:00:00","21","molfetta","18.5","1","75.57","1","0.0","1","null","6","null","6","0.0","5","null","6","41.200462","16.604997"],
    [3511,"2024-05-26 06:00:00","21","molfetta","18.45","1","81.35","1","0.0","1","null","6","null","6","42.3","1","null","6","41.200462","16.604997"],
    [3512,"2024-05-26 07:00:00","21","molfetta","19.03","1","78.66","1","0.0","1","null","6","null","6","79.97","1","null","6","41.200462","16.604997"],
    [3513,"2024-05-26 08:00:00","21","molfetta","20.14","1","69.33","1","0.0","1","null","6","null","6","161.87","1","null","6","41.200462","16.604997"],
    [3514,"2024-05-26 09:00:00","21","molfetta","21.14","1","65.02","1","0.0","1","null","6","null","6","280.62","1","null","6","41.200462","16.604997"],
    [3515,"2024-05-26 10:00:00","21","molfetta","19.9","1","66.33","1","0.6","1","null","6","null","6","96.54","1","null","6","41.200462","16.604997"],
    [3516,"2024-05-26 11:00:00","21","molfetta","19.12","1","77.86","1","0.0","1","null","6","null","6","277.99","1","null","6","41.200462","16.604997"],
    [3517,"2024-05-26 12:00:00","21","molfetta","21.66","1","61.57","1","0.0","1","null","6","null","6","517.85","1","null","6","41.200462","16.604997"],
    [3518,"2024-05-26 13:00:00","21","molfetta","23.23","1","58.91","1","0.0","1","null","6","null","6","749.16","1","null","6","41.200462","16.604997"],
    [3519,"2024-05-26 14:00:00","21","molfetta","24.39","1","55.8","1","0.0","1","null","6","null","6","878.46","1","null","6","41.200462","16.604997"],
    [3520,"2024-05-26 15:00:00","21","molfetta","24.61","1","53.79","1","0.0","1","null","6","null","6","770.39","1","null","6","41.200462","16.604997"],
    [3521,"2024-05-26 16:00:00","21","molfetta","26.27","1","50.99","1","0.0","1","null","6","null","6","612.66","1","null","6","41.200462","16.604997"],
    [3522,"2024-05-26 17:00:00","21","molfetta","26.22","1","51.05","1","0.0","1","null","6","null","6","430.78","1","null","6","41.200462","16.604997"],
    [3523,"2024-05-26 18:00:00","21","molfetta","25.69","1","52.8","1","0.0","1","null","6","null","6","234.89","1","null","6","41.200462","16.604997"],
    [3524,"2024-05-26 19:00:00","21","molfetta","23.16","1","60.71","1","0.0","1","null","6","null","6","46.76","1","null","6","41.200462","16.604997"],
    [3525,"2024-05-26 20:00:00","21","molfetta","20.68","1","71.17","1","0.0","1","null","6","null","6","0.0","5","null","6","41.200462","16.604997"],
    [3526,"2024-05-26 21:00:00","21","molfetta","20.38","1","74.35","1","0.0","1","null","6","null","6","0.0","1","null","6","41.200462","16.604997"],
    [3527,"2024-05-26 22:00:00","21","molfetta","20.11","1","76.5","1","0.0","1","null","6","null","6","0.0","1","null","6","41.200462","16.604997"],
    [3528,"2024-05-26 23:00:00","21","molfetta","19.57","1","77.66","1","0.0","1","null","6","null","6","0.0","1","null","6","41.200462","16.604997"],
    [3529,"2024-05-27 00:00:00","21","molfetta","19.0","1","79.39","1","0.0","1","null","6","null","6","0.0","1","null","6","41.200462","16.604997"],
    [3530,"2024-05-27 01:00:00","21","molfetta","18.55","1","80.7","1","0.0","1","null","6","null","6","0.0","1","null","6","41.200462","16.604997"],
    [3531,"2024-05-27 02:00:00","21","molfetta","18.35","1","78.37","1","0.0","1","null","6","null","6","0.0","1","null","6","41.200462","16.604997"],
    [3532,"2024-05-27 03:00:00","21","molfetta","18.1","1","78.87","1","0.0","1","null","6","null","6","0.0","1","null","6","41.200462","16.604997"],
    [3533,"2024-05-27 04:00:00","21","molfetta","17.62","1","83.21","1","0.0","1","null","6","null","6","0.0","1","null","6","41.200462","16.604997"],
    [3534,"2024-05-27 05:00:00","21","molfetta","17.43","1","84.36","1","0.0","1","null","6","null","6","7.46","1","null","6","41.200462","16.604997"],
    [3535,"2024-05-27 06:00:00","21","molfetta","17.99","1","84.3","1","0.0","1","null","6","null","6","88.75","1","null","6","41.200462","16.604997"],
    [3536,"2024-05-27 07:00:00","21","molfetta","21.11","1","72.82","1","0.0","1","null","6","null","6","334.99","1","null","6","41.200462","16.604997"],
    [3537,"2024-05-27 08:00:00","21","molfetta","23.72","1","57.78","1","0.0","1","null","6","null","6","537.66","1","null","6","41.200462","16.604997"],
    [3538,"2024-05-27 09:00:00","21","molfetta","24.72","1","52.47","1","0.0","1","null","6","null","6","710.15","1","null","6","41.200462","16.604997"],
    [3539,"2024-05-27 10:00:00","21","molfetta","25.48","1","50.2","1","0.0","1","null","6","null","6","840.34","1","null","6","41.200462","16.604997"],
    [3540,"2024-05-27 11:00:00","21","molfetta","25.48","1","50.58","1","0.0","1","null","6","null","6","917.5","1","null","6","41.200462","16.604997"],
    [3541,"2024-05-27 12:00:00","21","molfetta","25.1","1","52.5","1","0.0","1","null","6","null","6","874.51","1","null","6","41.200462","16.604997"],
    [3542,"2024-05-27 13:00:00","21","molfetta","24.51","1","56.69","1","0.0","1","null","6","null","6","820.14","1","null","6","41.200462","16.604997"],
    [3543,"2024-05-27 14:00:00","21","molfetta","26.33","1","52.83","1","0.0","1","null","6","null","6","867.27","1","null","6","41.200462","16.604997"],
    [3544,"2024-05-27 15:00:00","21","molfetta","25.76","1","54.5","1","0.0","1","null","6","null","6","747.06","1","null","6","41.200462","16.604997"],
    [3545,"2024-05-27 16:00:00","21","molfetta","26.22","1","52.25","1","0.0","1","null","6","null","6","598.81","1","null","6","41.200462","16.604997"],
    [3546,"2024-05-27 17:00:00","21","molfetta","26.82","1","51.27","1","0.0","1","null","6","null","6","426.14","1","null","6","41.200462","16.604997"],
    [3547,"2024-05-27 18:00:00","21","molfetta","25.64","1","55.32","1","0.0","1","null","6","null","6","221.3","1","null","6","41.200462","16.604997"],
    [3548,"2024-05-27 19:00:00","21","molfetta","23.4","1","60.48","1","0.0","1","null","6","null","6","46.97","1","null","6","41.200462","16.604997"],
    [3549,"2024-05-27 20:00:00","21","molfetta","21.3","1","66.75","1","0.0","1","null","6","null","6","0.0","5","null","6","41.200462","16.604997"],
    [3550,"2024-05-27 21:00:00","21","molfetta","20.93","1","68.3","1","0.0","1","null","6","null","6","0.0","1","null","6","41.200462","16.604997"],
    [3551,"2024-05-27 22:00:00","21","molfetta","20.67","1","69.57","1","0.0","1","null","6","null","6","0.0","1","null","6","41.200462","16.604997"],
    [3552,"2024-05-27 23:00:00","21","molfetta","20.22","1","71.78","1","0.0","1","null","6","null","6","0.0","1","null","6","41.200462","16.604997"],
    [3553,"2024-05-28 00:00:00","21","molfetta","19.82","1","74.82","1","0.0","1","null","6","null","6","0.0","1","null","6","41.200462","16.604997"],
    [3554,"2024-05-28 01:00:00","21","molfetta","19.15","1","78.5","1","0.0","1","null","6","null","6","0.0","1","null","6","41.200462","16.604997"],
    [3555,"2024-05-28 02:00:00","21","molfetta","18.58","1","80.69","1","0.0","1","null","6","null","6","0.0","1","null","6","41.200462","16.604997"],
    [3556,"2024-05-28 03:00:00","21","molfetta","18.53","1","77.8","1","0.0","1","null","6","null","6","0.0","1","null","6","41.200462","16.604997"],
    [3557,"2024-05-28 04:00:00","21","molfetta","18.84","1","69.85","1","0.0","1","null","6","null","6","0.0","1","null","6","41.200462","16.604997"],
    [3558,"2024-05-28 05:00:00","21","molfetta","18.8","1","69.21","1","0.0","1","null","6","null","6","10.03","1","null","6","41.200462","16.604997"],
    [3559,"2024-05-28 06:00:00","21","molfetta","19.51","1","67.04","1","0.0","1","null","6","null","6","100.32","1","null","6","41.200462","16.604997"],
    [3560,"2024-05-28 07:00:00","21","molfetta","22.08","1","61.04","1","0.0","1","null","6","null","6","285.27","1","null","6","41.200462","16.604997"],
    [3561,"2024-05-28 08:00:00","21","molfetta","23.11","1","60.72","1","0.0","1","null","6","null","6","394.67","1","null","6","41.200462","16.604997"],
    [3562,"2024-05-28 09:00:00","21","molfetta","23.75","1","60.83","1","0.0","1","null","6","null","6","545.27","1","null","6","41.200462","16.604997"],
    [3563,"2024-05-28 10:00:00","21","molfetta","24.93","1","58.1","1","0.0","1","null","6","null","6","773.21","1","null","6","41.200462","16.604997"],
    [3564,"2024-05-28 11:00:00","21","molfetta","25.45","1","57.74","1","0.0","1","null","6","null","6","913.42","1","null","6","41.200462","16.604997"],
    [3565,"2024-05-28 12:00:00","21","molfetta","25.55","1","58.55","1","0.0","1","null","6","null","6","944.67","1","null","6","41.200462","16.604997"],
    [3566,"2024-05-28 13:00:00","21","molfetta","26.36","1","55.06","1","0.0","1","null","6","null","6","904.45","1","null","6","41.200462","16.604997"],
    [3567,"2024-05-28 14:00:00","21","molfetta","26.77","1","53.19","1","0.0","1","null","6","null","6","879.74","1","null","6","41.200462","16.604997"],
    [3568,"2024-05-28 15:00:00","21","molfetta","27.73","1","51.41","1","0.0","1","null","6","null","6","770.48","1","null","6","41.200462","16.604997"],
    [3569,"2024-05-28 16:00:00","21","molfetta","27.53","1","54.26","1","0.0","1","null","6","null","6","615.13","1","null","6","41.200462","16.604997"],
    [3570,"2024-05-28 17:00:00","21","molfetta","26.95","1","57.52","1","0.0","1","null","6","null","6","372.83","1","null","6","41.200462","16.604997"],
    [3571,"2024-05-28 18:00:00","21","molfetta","25.95","1","60.75","1","0.0","1","null","6","null","6","211.69","1","null","6","41.200462","16.604997"],
    [3572,"2024-05-28 19:00:00","21","molfetta","23.96","1","66.35","1","0.0","1","null","6","null","6","47.16","1","null","6","41.200462","16.604997"],
    [3573,"2024-05-28 20:00:00","21","molfetta","22.23","1","71.83","1","0.0","1","null","6","null","6","0.0","5","null","6","41.200462","16.604997"],
    [3574,"2024-05-28 21:00:00","21","molfetta","21.82","1","74.04","1","0.0","1","null","6","null","6","0.0","1","null","6","41.200462","16.604997"],
    [3575,"2024-05-28 22:00:00","21","molfetta","21.48","1","77.0","1","0.0","1","null","6","null","6","0.0","1","null","6","41.200462","16.604997"],
    [3576,"2024-05-28 23:00:00","21","molfetta","21.28","1","78.61","1","0.0","1","null","6","null","6","0.0","1","null","6","41.200462","16.604997"],
    [3577,"2024-05-29 00:00:00","21","molfetta","21.08","1","79.5","1","0.0","1","null","6","null","6","0.0","1","null","6","41.200462","16.604997"],
    [3578,"2024-05-29 01:00:00","21","molfetta","20.61","1","80.07","1","0.0","1","null","6","null","6","0.0","1","null","6","41.200462","16.604997"],
    [3579,"2024-05-29 02:00:00","21","molfetta","20.12","1","81.77","1","0.0","1","null","6","null","6","0.0","1","null","6","41.200462","16.604997"],
    [3580,"2024-05-29 03:00:00","21","molfetta","19.95","1","82.68","1","0.0","1","null","6","null","6","0.0","1","null","6","41.200462","16.604997"],
    [3581,"2024-05-29 04:00:00","21","molfetta","19.89","1","82.3","1","0.0","1","null","6","null","6","0.0","1","null","6","41.200462","16.604997"],
    [3582,"2024-05-29 05:00:00","21","molfetta","19.93","1","82.21","1","0.0","1","null","6","null","6","0.0","5","null","6","41.200462","16.604997"],
    [3583,"2024-05-29 06:00:00","21","molfetta","20.28","1","82.13","1","0.0","1","null","6","null","6","112.03","1","null","6","41.200462","16.604997"],
    [3584,"2024-05-29 07:00:00","21","molfetta","22.56","1","73.22","1","0.0","1","null","6","null","6","332.98","1","null","6","41.200462","16.604997"],
    [3585,"2024-05-29 08:00:00","21","molfetta","24.3","1","67.43","1","0.0","1","null","6","null","6","543.88","1","null","6","41.200462","16.604997"],
    [3586,"2024-05-29 09:00:00","21","molfetta","25.0","1","64.61","1","0.0","1","null","6","null","6","680.8","1","null","6","41.200462","16.604997"],
    [3587,"2024-05-29 10:00:00","21","molfetta","25.5","1","62.35","1","0.0","1","null","6","null","6","769.14","1","null","6","41.200462","16.604997"],
    [3588,"2024-05-29 11:00:00","21","molfetta","25.33","1","62.3","1","0.0","1","null","6","null","6","900.65","1","null","6","41.200462","16.604997"],
    [3589,"2024-05-29 12:00:00","21","molfetta","26.21","1","58.45","1","0.0","1","null","6","null","6","951.54","1","null","6","41.200462","16.604997"],
    [3590,"2024-05-29 13:00:00","21","molfetta","26.38","1","57.2","1","0.0","1","null","6","null","6","913.15","1","null","6","41.200462","16.604997"],
    [3591,"2024-05-29 14:00:00","21","molfetta","26.69","1","57.3","1","0.0","1","null","6","null","6","878.29","1","null","6","41.200462","16.604997"],
    [3592,"2024-05-29 15:00:00","21","molfetta","27.23","1","57.17","1","0.0","1","null","6","null","6","770.94","1","null","6","41.200462","16.604997"],
    [3593,"2024-05-29 16:00:00","21","molfetta","25.94","1","61.56","1","0.0","1","null","6","null","6","449.16","1","null","6","41.200462","16.604997"],
    [3594,"2024-05-29 17:00:00","21","molfetta","26.32","1","60.38","1","0.0","1","null","6","null","6","411.28","1","null","6","41.200462","16.604997"],
    [3595,"2024-05-29 18:00:00","21","molfetta","25.67","1","62.39","1","0.0","1","null","6","null","6","179.08","1","null","6","41.200462","16.604997"],
    [3596,"2024-05-29 19:00:00","21","molfetta","23.88","1","67.94","1","0.0","1","null","6","null","6","55.55","1","null","6","41.200462","16.604997"],
    [3597,"2024-05-29 20:00:00","21","molfetta","22.26","1","73.11","1","0.0","1","null","6","null","6","0.0","5","null","6","41.200462","16.604997"],
    [3598,"2024-05-29 21:00:00","21","molfetta","21.75","1","76.6","1","0.0","1","null","6","null","6","0.0","1","null","6","41.200462","16.604997"],
    [3599,"2024-05-29 22:00:00","21","molfetta","21.24","1","78.89","1","0.0","1","null","6","null","6","0.0","1","null","6","41.200462","16.604997"],
    [3600,"2024-05-29 23:00:00","21","molfetta","20.61","1","81.38","1","0.0","1","null","6","null","6","0.0","1","null","6","41.200462","16.604997"],
    [3601,"2024-05-30 00:00:00","21","molfetta","19.88","1","79.96","1","0.0","1","null","6","null","6","0.0","1","null","6","41.200462","16.604997"],
    [3602,"2024-05-30 01:00:00","21","molfetta","19.78","1","75.12","1","0.0","1","null","6","null","6","0.0","1","null","6","41.200462","16.604997"],
    [3603,"2024-05-30 02:00:00","21","molfetta","19.23","1","72.33","1","0.0","1","null","6","null","6","0.0","1","null","6","41.200462","16.604997"],
    [3604,"2024-05-30 03:00:00","21","molfetta","18.99","1","71.31","1","0.0","1","null","6","null","6","0.0","1","null","6","41.200462","16.604997"],
    [3605,"2024-05-30 04:00:00","21","molfetta","18.24","1","71.12","1","0.0","1","null","6","null","6","0.0","1","null","6","41.200462","16.604997"],
    [3606,"2024-05-30 05:00:00","21","molfetta","17.98","1","71.6","1","0.0","1","null","6","null","6","13.41","1","null","6","41.200462","16.604997"],
    [3607,"2024-05-30 06:00:00","21","molfetta","19.53","1","66.59","1","0.0","1","null","6","null","6","109.32","1","null","6","41.200462","16.604997"],
    [3608,"2024-05-30 07:00:00","21","molfetta","23.85","1","56.86","1","0.0","1","null","6","null","6","323.29","1","null","6","41.200462","16.604997"],
    [3609,"2024-05-30 08:00:00","21","molfetta","25.25","1","52.98","1","0.0","1","null","6","null","6","446.82","1","null","6","41.200462","16.604997"],
    [3610,"2024-05-30 09:00:00","21","molfetta","26.14","1","51.52","1","0.0","1","null","6","null","6","688.25","1","null","6","41.200462","16.604997"],
    [3611,"2024-05-30 10:00:00","21","molfetta","26.83","1","53.92","1","0.0","1","null","6","null","6","808.4","1","null","6","41.200462","16.604997"],
    [3612,"2024-05-30 11:00:00","21","molfetta","27.36","1","52.9","1","0.0","1","null","6","null","6","842.03","1","null","6","41.200462","16.604997"],
    [3613,"2024-05-30 12:00:00","21","molfetta","27.54","1","54.9","1","0.0","1","null","6","null","6","892.08","1","null","6","41.200462","16.604997"],
    [3614,"2024-05-30 13:00:00","21","molfetta","27.67","1","56.63","1","0.0","1","null","6","null","6","887.6","1","null","6","41.200462","16.604997"],
    [3615,"2024-05-30 14:00:00","21","molfetta","27.09","1","60.52","1","0.0","1","null","6","null","6","573.15","1","null","6","41.200462","16.604997"],
    [3616,"2024-05-30 15:00:00","21","molfetta","28.79","1","55.08","1","0.0","1","null","6","null","6","759.72","1","null","6","41.200462","16.604997"],
    [3617,"2024-05-30 16:00:00","21","molfetta","28.15","1","46.4","1","0.0","1","null","6","null","6","269.88","1","null","6","41.200462","16.604997"],
    [3618,"2024-05-30 17:00:00","21","molfetta","23.25","1","72.79","1","2.8","1","null","6","null","6","115.07","1","null","6","41.200462","16.604997"],
    [3619,"2024-05-30 18:00:00","21","molfetta","22.52","1","77.11","1","0.0","1","null","6","null","6","145.6","1","null","6","41.200462","16.604997"],
    [3620,"2024-05-30 19:00:00","21","molfetta","22.77","1","64.98","1","0.0","1","null","6","null","6","32.16","1","null","6","41.200462","16.604997"],
    [3621,"2024-05-30 20:00:00","21","molfetta","22.85","1","67.11","1","0.0","1","null","6","null","6","0.0","5","null","6","41.200462","16.604997"],
    [3622,"2024-05-30 21:00:00","21","molfetta","22.79","1","66.93","1","0.0","1","null","6","null","6","0.0","1","null","6","41.200462","16.604997"],
    [3623,"2024-05-30 22:00:00","21","molfetta","22.38","1","72.28","1","0.0","1","null","6","null","6","0.0","1","null","6","41.200462","16.604997"],
    [3624,"2024-05-30 23:00:00","21","molfetta","22.12","1","74.04","1","0.0","1","null","6","null","6","0.0","1","null","6","41.200462","16.604997"],
    [3625,"2024-05-31 00:00:00","21","molfetta","21.92","1","75.36","1","0.0","1","null","6","null","6","0.0","1","null","6","41.200462","16.604997"],
    [3626,"2024-05-31 01:00:00","21","molfetta","21.49","1","77.23","1","0.0","1","null","6","null","6","0.0","1","null","6","41.200462","16.604997"],
    [3627,"2024-05-31 02:00:00","21","molfetta","21.11","1","71.03","1","0.0","1","null","6","null","6","0.0","1","null","6","41.200462","16.604997"],
    [3628,"2024-05-31 03:00:00","21","molfetta","21.5","1","57.07","1","0.0","1","null","6","null","6","0.0","1","null","6","41.200462","16.604997"],
    [3629,"2024-05-31 04:00:00","21","molfetta","21.81","1","50.93","1","0.0","1","null","6","null","6","0.0","1","null","6","41.200462","16.604997"],
    [3630,"2024-05-31 05:00:00","21","molfetta","21.49","1","52.84","1","0.0","1","null","6","null","6","9.8","1","null","6","41.200462","16.604997"],
    [3631,"2024-05-31 06:00:00","21","molfetta","22.29","1","51.44","1","0.0","1","null","6","null","6","79.58","1","null","6","41.200462","16.604997"],
    [3632,"2024-05-31 07:00:00","21","molfetta","24.3","1","45.32","1","0.0","1","null","6","null","6","151.39","1","null","6","41.200462","16.604997"],
    [3633,"2024-05-31 08:00:00","21","molfetta","25.68","1","41.72","1","0.0","1","null","6","null","6","274.7","1","null","6","41.200462","16.604997"],
    [3634,"2024-05-31 09:00:00","21","molfetta","27.5","1","40.01","1","0.0","1","null","6","null","6","391.95","1","null","6","41.200462","16.604997"],
    [3635,"2024-05-31 10:00:00","21","molfetta","28.72","1","36.47","1","0.0","1","null","6","null","6","554.68","1","null","6","41.200462","16.604997"],
    [3636,"2024-05-31 11:00:00","21","molfetta","29.2","1","35.58","1","0.0","1","null","6","null","6","411.73","1","null","6","41.200462","16.604997"],
    [3637,"2024-05-31 12:00:00","21","molfetta","29.29","1","34.11","1","0.0","1","null","6","null","6","343.27","1","null","6","41.200462","16.604997"],
    [3638,"2024-05-31 13:00:00","21","molfetta","28.96","1","35.28","1","0.0","1","null","6","null","6","238.83","1","null","6","41.200462","16.604997"],
    [3639,"2024-05-31 14:00:00","21","molfetta","27.93","1","37.16","1","0.0","1","null","6","null","6","164.72","1","null","6","41.200462","16.604997"],
    [3640,"2024-05-31 15:00:00","21","molfetta","27.3","1","38.44","1","0.0","1","null","6","null","6","101.29","1","null","6","41.200462","16.604997"],
    [3641,"2024-05-31 16:00:00","21","molfetta","27.05","1","39.66","1","0.0","1","null","6","null","6","83.8","1","null","6","41.200462","16.604997"],
    [3642,"2024-05-31 17:00:00","21","molfetta","27.34","1","41.25","1","0.0","1","null","6","null","6","123.64","1","null","6","41.200462","16.604997"],
    [3643,"2024-05-31 18:00:00","21","molfetta","27.05","1","47.48","1","0.0","1","null","6","null","6","70.23","1","null","6","41.200462","16.604997"],
    [3644,"2024-05-31 19:00:00","21","molfetta","25.86","1","51.27","1","0.0","1","null","6","null","6","24.11","1","null","6","41.200462","16.604997"],
    [3645,"2024-05-31 20:00:00","21","molfetta","25.23","1","52.35","1","0.0","1","null","6","null","6","0.0","5","null","6","41.200462","16.604997"],
    [3646,"2024-05-31 21:00:00","21","molfetta","24.13","1","60.95","1","0.0","1","null","6","null","6","0.0","1","null","6","41.200462","16.604997"],
    [3647,"2024-05-31 22:00:00","21","molfetta","23.7","1","58.05","1","0.0","1","null","6","null","6","0.0","1","null","6","41.200462","16.604997"],
    [3648,"2024-05-31 23:00:00","21","molfetta","23.25","1","57.49","1","0.0","1","null","6","null","6","0.0","1","null","6","41.200462","16.604997\t"]
]}
